# Wetter Temperatur Luftdruck Luftfeuchtigkeit Sichtweite Windgeschwindigkeit Windrichtung Zeit
1 Clear 16 1021 33 10000 3.09 150 13:27 22.04.2021
2 Clear 18 1020 29 10000 4.12 150 12:56 22.04.2021
3 Clear 18 1020 29 10000 3.6 140 12:38 22.04.2021
4 Clear 18 1020 29 10000 3.6 140 12:19 22.04.2021
5 Clear 22 1020 26 10000 3.6 140 11:45 22.04.2021
6 Clear 22 1020 26 10000 3.6 140 11:45 22.04.2021
7 Clear 23 1019 23 10000 3.09 140 11:22 22.04.2021
8 Clear 23 1019 20 10000 3.6 140 10:44 22.04.2021
9 Clear 24 1018 17 10000 5.14 150 10:21 22.04.2021
10 Clear 24 1018 16 10000 4.12 120 09:42 22.04.2021
11 Clear 24 1018 16 10000 4.12 120 09:19 22.04.2021
12 Clear 25 1018 18 10000 3.6 130 08:38 22.04.2021
13 Clear 25 1018 17 10000 4.63 130 08:18 22.04.2021
14 Clear 24 1018 18 10000 4.12 130 07:38 22.04.2021
15 Clear 24 1018 18 10000 4.12 130 07:19 22.04.2021
16 Clear 24 1019 18 10000 5.14 130 06:23 22.04.2021
17 Clear 24 1020 18 10000 5.66 120 05:25 22.04.2021
18 Clear 23 1021 23 10000 5.66 110 03:25 22.04.2021
19 Clear 13 1021 50 10000 2.57 270 00:45 22.04.2021
20 Clear 9 1020 61 10000 2.57 300 23:44 21.04.2021
21 Clear 9 1020 61 10000 2.57 300 23:23 21.04.2021
22 Clear 9 1019 57 10000 2.57 290 22:41 21.04.2021
23 Clear 9 1019 57 10000 2.57 290 22:23 21.04.2021
24 Clear 10 1018 53 10000 2.57 290 21:42 21.04.2021
25 Clear 10 1018 53 10000 2.57 290 21:42 21.04.2021
26 Clear 10 1018 53 10000 2.57 290 21:23 21.04.2021
27 Clear 10 1018 53 10000 2.57 290 21:23 21.04.2021
28 Clear 9 1019 61 10000 2.57 280 20:40 21.04.2021
29 Clear 9 1019 61 10000 2.57 280 20:18 21.04.2021
30 Clear 10 1019 57 10000 1.54 300 19:41 21.04.2021
31 Clear 10 1019 57 10000 1.54 300 19:23 21.04.2021
32 Clear 11 1019 54 10000 2.06 300 18:45 21.04.2021
33 Clear 11 1020 54 10000 2.06 300 18:24 21.04.2021
34 Clear 12 1020 47 10000 1.54 330 17:46 21.04.2021
35 Clear 13 1020 44 10000 2.06 300 17:24 21.04.2021
36 Clear 12 1020 47 10000 2.83 107 16:43 21.04.2021
37 Clear 14 1020 41 10000 3.2 108 15:56 21.04.2021
38 Clear 14 1020 38 10000 3.2 108 15:37 21.04.2021
39 Clear 14 1020 38 10000 2.57 70 14:48 21.04.2021
40 Clear 15 1020 36 10000 3.35 118 14:30 21.04.2021
41 Clear 17 1020 31 10000 3.09 140 13:51 21.04.2021
42 Clear 18 1020 29 10000 3.6 150 13:24 21.04.2021
43 Clear 19 1019 27 10000 3.6 160 12:58 21.04.2021
44 Clear 22 1019 24 10000 3.6 150 12:29 21.04.2021
45 Clear 23 1018 21 10000 3.6 150 11:48 21.04.2021
46 Clear 24 1017 16 10000 3.09 130 11:25 21.04.2021
47 Clear 24 1017 15 10000 3.09 120 10:43 21.04.2021
48 Clear 24 1017 14 10000 3.6 120 09:59 21.04.2021
49 Clear 25 1017 14 10000 2.57 130 09:35 21.04.2021
50 Clear 25 1017 13 10000 3.09 170 08:54 21.04.2021
51 Clear 25 1017 13 10000 3.6 160 08:27 21.04.2021
52 Clear 26 1017 14 10000 3.6 80 07:59 21.04.2021
53 Clear 25 1017 13 10000 4.12 140 07:29 21.04.2021
54 Clear 25 1018 13 10000 5.66 130 06:25 21.04.2021
55 Clear 24 1020 16 10000 4.63 110 04:41 21.04.2021
56 Clear 12 1019 47 10000 1.54 300 00:50 21.04.2021
57 Clear 8 1019 61 10000 2.06 290 23:48 20.04.2021
58 Clear 9 1018 57 10000 2.57 290 22:56 20.04.2021
59 Clear 8 1018 57 10000 2.57 300 22:36 20.04.2021
60 Clear 8 1018 57 10000 2.57 300 22:18 20.04.2021
61 Clear 9 1018 53 10000 2.06 280 21:44 20.04.2021
62 Clear 9 1017 53 10000 2.06 270 21:23 20.04.2021
63 Clear 9 1018 57 10000 2.57 270 20:42 20.04.2021
64 Clear 9 1018 57 10000 2.57 270 20:22 20.04.2021
65 Clear 9 1018 53 10000 2.57 310 19:52 20.04.2021
66 Clear 11 1018 46 10000 2.06 290 19:33 20.04.2021
67 Clear 11 1018 46 10000 2.57 300 18:54 20.04.2021
68 Clear 10 1018 50 10000 2.57 290 18:35 20.04.2021
69 Clear 11 1018 50 10000 2.46 135 17:43 20.04.2021
70 Clear 12 1018 43 10000 2.56 109 16:57 20.04.2021
71 Clear 14 1018 35 10000 2.57 310 16:36 20.04.2021
72 Clear 12 1019 43 10000 2.06 340 15:42 20.04.2021
73 Clear 12 1019 43 10000 2.06 340 15:23 20.04.2021
74 Clear 14 1018 35 10000 3.13 102 14:49 20.04.2021
75 Clear 14 1018 33 10000 3.45 116 14:24 20.04.2021
76 Clear 17 1018 27 10000 3.09 150 13:29 20.04.2021
77 Clear 18 1018 25 10000 3.09 150 12:55 20.04.2021
78 Clear 18 1017 25 10000 3.09 150 12:30 20.04.2021
79 Clear 22 1017 21 10000 3.6 140 11:47 20.04.2021
80 Clear 23 1016 17 10000 3.6 140 11:28 20.04.2021
81 Clear 24 1016 15 10000 3.6 140 10:55 20.04.2021
82 Clear 24 1016 14 10000 3.6 150 10:36 20.04.2021
83 Clear 24 1016 14 10000 3.6 150 10:18 20.04.2021
84 Clear 25 1015 12 10000 4.12 130 09:19 20.04.2021
85 Clear 25 1015 12 10000 1.54 270 08:46 20.04.2021
86 Clear 25 1015 12 10000 1.54 140 07:59 20.04.2021
87 Clear 24 1016 13 10000 3.09 120 07:32 20.04.2021
88 Clear 24 1017 16 10000 3.09 110 05:42 20.04.2021
89 Clear 24 1018 17 10000 4.63 100 04:57 20.04.2021
90 Clear 23 1018 18 10000 4.63 110 04:24 20.04.2021
91 Clear 11 1018 50 10000 1.54 300 00:51 20.04.2021
92 Clear 8 1018 61 10000 2.06 320 00:20 20.04.2021
93 Clear 7 1017 61 10000 2.06 300 23:31 19.04.2021
94 Clear 6 1017 70 10000 2.57 290 22:43 19.04.2021
95 Clear 6 1017 65 10000 2.57 300 22:22 19.04.2021
96 Clear 7 1016 65 10000 2.57 300 21:42 19.04.2021
97 Clear 7 1016 65 10000 2.57 300 21:20 19.04.2021
98 Clear 8 1016 61 10000 2.57 310 20:41 19.04.2021
99 Clear 8 1016 61 10000 2.57 310 20:20 19.04.2021
100 Clear 8 1016 53 10000 2.57 300 19:48 19.04.2021
101 Clear 9 1016 53 10000 2.57 290 19:26 19.04.2021
102 Clear 9 1016 49 10000 2.57 300 18:56 19.04.2021
103 Clear 9 1016 49 10000 2.06 270 18:37 19.04.2021
104 Clear 9 1016 49 10000 2.06 270 18:18 19.04.2021
105 Clear 9 1017 53 10000 2.06 280 17:43 19.04.2021
106 Clear 9 1017 53 10000 2.06 280 17:22 19.04.2021
107 Clear 10 1017 50 10000 1.54 300 16:41 19.04.2021
108 Clear 10 1017 50 10000 1.54 300 16:22 19.04.2021
109 Clear 12 1017 37 10000 3 93 15:41 19.04.2021
110 Clear 12 1017 37 10000 3.17 103 15:23 19.04.2021
111 Clear 13 1017 38 10000 3.17 103 14:41 19.04.2021
112 Clear 13 1017 38 10000 3.45 110 14:23 19.04.2021
113 Clear 15 1017 31 10000 2.57 130 13:48 19.04.2021
114 Clear 15 1017 31 10000 2.57 130 13:25 19.04.2021
115 Clear 16 1016 27 10000 2.57 150 12:45 19.04.2021
116 Clear 17 1016 25 10000 3.09 160 12:24 19.04.2021
117 Clear 18 1016 24 10000 2.57 130 11:54 19.04.2021
118 Clear 20 1016 21 10000 3.09 120 11:26 19.04.2021
119 Clear 20 1016 21 10000 3.09 120 11:26 19.04.2021
120 Clear 23 1015 16 10000 3.6 120 10:51 19.04.2021
121 Clear 23 1015 15 10000 5.14 90 10:26 19.04.2021
122 Clear 24 1015 15 10000 3.6 130 09:57 19.04.2021
123 Clear 24 1015 14 10000 3.6 80 09:30 19.04.2021
124 Clear 24 1015 15 10000 3.6 110 08:59 19.04.2021
125 Clear 24 1015 16 10000 3.6 90 08:29 19.04.2021
126 Clear 24 1016 16 10000 2.57 80 07:49 19.04.2021
127 Clear 23 1016 15 10000 3.6 90 07:19 19.04.2021
128 Clear 23 1017 17 10000 3.09 90 06:36 19.04.2021
129 Clear 17 1020 29 10000 2.57 110 02:36 19.04.2021
130 Clear 13 1020 41 10000 1.54 300 01:27 19.04.2021
131 Clear 4 1019 75 10000 1.54 300 23:56 18.04.2021
132 Clear 5 1019 70 10000 1.54 300 23:18 18.04.2021
133 Clear 5 1019 70 10000 2.16 127 22:48 18.04.2021
134 Clear 6 1019 70 10000 1.54 310 22:29 18.04.2021
135 Clear 6 1019 65 10000 2.44 120 21:40 18.04.2021
136 Clear 6 1019 65 10000 2.13 118 21:18 18.04.2021
137 Clear 8 1020 61 10000 2.06 320 20:40 18.04.2021
138 Clear 8 1020 61 10000 2.06 320 20:20 18.04.2021
139 Clear 8 1020 61 10000 2.57 330 19:45 18.04.2021
140 Clear 8 1020 61 10000 2.94 114 19:27 18.04.2021
141 Clear 8 1020 61 10000 2.94 114 18:54 18.04.2021
142 Clear 8 1020 57 10000 0.51 60 18:31 18.04.2021
143 Clear 9 1020 57 10000 1.54 90 17:50 18.04.2021
144 Clear 9 1021 57 10000 2.06 130 17:31 18.04.2021
145 Clear 10 1021 53 10000 1.54 140 16:55 18.04.2021
146 Clear 11 1021 50 10000 0.51 160 16:36 18.04.2021
147 Clear 10 1021 50 10000 2.06 170 15:57 18.04.2021
148 Clear 11 1021 46 10000 2.57 160 15:38 18.04.2021
149 Clear 11 1021 46 10000 2.57 160 15:18 18.04.2021
150 Clear 13 1021 41 10000 3.6 160 14:41 18.04.2021
151 Clear 13 1021 41 10000 3.6 160 14:18 18.04.2021
152 Clear 15 1021 33 10000 3.6 150 13:45 18.04.2021
153 Clear 15 1021 33 10000 3.6 150 13:27 18.04.2021
154 Clear 17 1020 29 10000 3.6 140 12:37 18.04.2021
155 Clear 18 1020 27 10000 3.6 140 11:55 18.04.2021
156 Clear 20 1020 24 10000 4.12 140 11:28 18.04.2021
157 Clear 21 1020 23 10000 5.14 140 10:58 18.04.2021
158 Clear 23 1019 21 10000 5.14 130 10:40 18.04.2021
159 Clear 23 1019 18 10000 6.69 120 09:58 18.04.2021
160 Clear 23 1019 18 10000 6.69 120 09:39 18.04.2021
161 Clear 23 1019 18 10000 6.69 120 09:19 18.04.2021
162 Clear 23 1019 18 10000 5.66 120 08:41 18.04.2021
163 Clear 23 1019 18 10000 5.66 120 08:19 18.04.2021
164 Clear 23 1020 20 10000 7.2 110 07:39 18.04.2021
165 Clear 23 1021 24 10000 5.66 120 05:56 18.04.2021
166 Clear 22 1022 24 10000 7.72 110 05:26 18.04.2021
167 Clear 22 1023 28 10000 8.23 110 04:30 18.04.2021
168 Clear 18 1024 36 10000 6.69 120 02:23 18.04.2021
169 Clear 9 1023 71 10000 2.57 150 00:41 18.04.2021
170 Clear 7 1023 76 10000 1.54 170 23:46 17.04.2021
171 Clear 7 1023 76 10000 1.54 170 23:18 17.04.2021
172 Clear 7 1022 76 10000 2.06 170 22:41 17.04.2021
173 Clear 7 1022 76 10000 2.06 170 22:20 17.04.2021
174 Clear 8 1022 76 10000 2.06 160 21:41 17.04.2021
175 Clear 8 1022 76 10000 2.06 160 21:21 17.04.2021
176 Clear 11 1022 62 10000 3.6 150 20:28 17.04.2021
177 Clear 11 1023 62 10000 3.6 160 19:46 17.04.2021
178 Clear 9 1023 71 10000 3.6 160 19:23 17.04.2021
179 Clear 10 1023 66 10000 3.6 170 18:58 17.04.2021
180 Clear 10 1023 66 10000 3.09 180 18:37 17.04.2021
181 Clear 10 1023 66 10000 3.09 180 18:18 17.04.2021
182 Clear 11 1023 62 10000 3.6 170 17:41 17.04.2021
183 Clear 11 1024 62 10000 3.6 170 16:55 17.04.2021
184 Clear 12 1024 58 10000 3.6 170 16:29 17.04.2021
185 Clear 12 1024 58 10000 3.6 170 16:29 17.04.2021
186 Clear 13 1024 50 10000 3.09 160 15:55 17.04.2021
187 Clear 13 1024 50 10000 3.6 160 14:51 17.04.2021
188 Clear 14 1024 47 10000 3.09 170 14:33 17.04.2021
189 Clear 15 1024 44 10000 3.6 150 13:50 17.04.2021
190 Clear 17 1024 36 10000 3.6 140 13:25 17.04.2021
191 Clear 18 1023 34 10000 4.12 150 12:42 17.04.2021
192 Clear 18 1023 34 10000 4.12 150 12:20 17.04.2021
193 Clear 19 1023 32 10000 4.12 140 11:45 17.04.2021
194 Clear 20 1023 28 10000 5.14 130 11:27 17.04.2021
195 Clear 22 1022 24 10000 6.69 140 10:45 17.04.2021
196 Clear 23 1022 23 10000 6.17 140 10:26 17.04.2021
197 Clear 23 1022 23 10000 7.2 150 09:39 17.04.2021
198 Clear 24 1022 23 10000 6.69 130 08:41 17.04.2021
199 Clear 24 1022 23 10000 6.69 130 08:21 17.04.2021
200 Clear 23 1022 26 10000 7.2 130 06:47 17.04.2021
201 Clear 20 1025 34 10000 8.23 110 03:55 17.04.2021
202 Clear 20 1025 34 10000 8.23 110 03:37 17.04.2021
203 Clear 15 1026 58 10000 3.6 150 00:48 17.04.2021
204 Clear 12 1026 76 10000 3.09 170 00:27 17.04.2021
205 Clear 11 1025 76 10000 3.6 170 23:46 16.04.2021
206 Clear 11 1025 76 10000 3.09 160 23:24 16.04.2021
207 Clear 11 1025 76 10000 3.6 170 22:44 16.04.2021
208 Clear 12 1025 71 10000 3.6 170 22:20 16.04.2021
209 Clear 11 1024 71 10000 3.09 170 21:50 16.04.2021
210 Clear 12 1024 71 10000 3.09 170 21:29 16.04.2021
211 Clear 12 1024 66 10000 3.6 160 20:50 16.04.2021
212 Clear 13 1024 66 10000 3.6 170 20:24 16.04.2021
213 Clear 12 1024 71 10000 3.6 180 19:50 16.04.2021
214 Clear 14 1024 62 10000 3.6 160 19:28 16.04.2021
215 Clear 14 1024 62 10000 3.09 180 18:36 16.04.2021
216 Clear 14 1024 62 10000 3.09 180 18:18 16.04.2021
217 Clear 14 1024 66 10000 3.09 170 17:36 16.04.2021
218 Clear 14 1024 66 10000 3.09 170 17:18 16.04.2021
219 Clear 15 1024 58 10000 2.57 160 16:41 16.04.2021
220 Clear 15 1024 58 10000 2.57 160 16:22 16.04.2021
221 Clear 15 1025 54 10000 3.09 160 15:43 16.04.2021
222 Clear 15 1025 58 10000 3.6 160 15:18 16.04.2021
223 Clear 16 1024 51 10000 3.09 150 14:41 16.04.2021
224 Clear 17 1024 47 10000 2.57 150 13:59 16.04.2021
225 Clear 17 1024 47 10000 3.09 150 13:41 16.04.2021
226 Clear 17 1024 47 10000 3.09 150 13:19 16.04.2021
227 Clear 18 1024 39 10000 3.6 150 12:46 16.04.2021
228 Clear 19 1023 36 10000 3.6 150 12:25 16.04.2021
229 Clear 20 1023 32 10000 4.63 140 11:43 16.04.2021
230 Clear 20 1022 34 10000 5.14 150 11:24 16.04.2021
231 Clear 22 1022 35 10000 5.66 150 10:43 16.04.2021
232 Clear 22 1022 33 10000 6.17 140 10:24 16.04.2021
233 Clear 23 1021 31 10000 6.69 140 09:49 16.04.2021
234 Clear 23 1021 31 10000 6.69 150 09:23 16.04.2021
235 Clear 24 1021 31 10000 6.17 150 08:45 16.04.2021
236 Clouds 24 1021 31 10000 5.66 150 08:27 16.04.2021
237 Clouds 23 1021 33 10000 6.69 150 07:47 16.04.2021
238 Clouds 24 1021 31 10000 5.66 140 07:27 16.04.2021
239 Clouds 23 1021 33 10000 7.2 150 06:46 16.04.2021
240 Clouds 21 1023 37 10000 5.66 140 05:33 16.04.2021
241 Clouds 19 1024 45 10000 6.17 140 03:59 16.04.2021
242 Clouds 17 1023 55 10000 6.17 140 00:48 16.04.2021
243 Clouds 17 1023 59 10000 4.12 150 00:22 16.04.2021
244 Clouds 16 1023 63 10000 3.6 150 23:58 15.04.2021
245 Clouds 16 1022 63 10000 3.09 140 23:34 15.04.2021
246 Clouds 16 1022 63 10000 3.09 140 22:51 15.04.2021
247 Clouds 16 1022 63 10000 3.6 140 22:26 15.04.2021
248 Clouds 16 1021 63 10000 3.09 150 21:48 15.04.2021
249 Clouds 16 1021 63 10000 3.09 140 21:29 15.04.2021
250 Clouds 16 1021 63 10000 2.57 140 20:58 15.04.2021
251 Clouds 16 1021 63 10000 3.6 130 20:38 15.04.2021
252 Clouds 16 1021 63 10000 3.6 130 20:18 15.04.2021
253 Clouds 16 1021 63 10000 4.63 150 19:41 15.04.2021
254 Clouds 16 1021 63 10000 4.63 150 19:21 15.04.2021
255 Clouds 17 1021 59 10000 4.63 140 18:41 15.04.2021
256 Clouds 17 1021 59 10000 4.63 140 18:41 15.04.2021
257 Clouds 17 1021 59 10000 4.63 140 18:20 15.04.2021
258 Clouds 17 1021 55 10000 3.6 140 17:54 15.04.2021
259 Clouds 17 1021 55 10000 3.09 130 17:34 15.04.2021
260 Clouds 17 1021 51 10000 3.09 120 16:45 15.04.2021
261 Clouds 18 1021 52 10000 3.6 140 16:25 15.04.2021
262 Clouds 18 1022 48 10000 3.6 140 15:51 15.04.2021
263 Clouds 19 1022 45 10000 4.12 140 15:31 15.04.2021
264 Clouds 19 1021 45 10000 5.14 130 14:47 15.04.2021
265 Clouds 19 1021 45 10000 7.72 150 14:28 15.04.2021
266 Clouds 21 1021 43 10000 6.17 150 13:59 15.04.2021
267 Clouds 21 1021 43 10000 4.63 150 13:40 15.04.2021
268 Clouds 22 1020 40 10000 4.12 140 12:55 15.04.2021
269 Clear 22 1020 40 10000 4.12 150 12:28 15.04.2021
270 Clear 23 1019 35 10000 4.12 150 11:59 15.04.2021
271 Clear 24 1019 33 10000 4.12 140 11:39 15.04.2021
272 Clouds 24 1019 33 10000 4.12 140 11:21 15.04.2021
273 Clouds 24 1019 33 10000 4.12 140 11:21 15.04.2021
274 Clouds 25 1019 31 10000 5.14 140 10:43 15.04.2021
275 Clouds 25 1018 29 10000 5.66 130 10:25 15.04.2021
276 Clouds 26 1018 29 10000 5.14 150 09:33 15.04.2021
277 Clear 27 1017 29 10000 5.66 150 08:54 15.04.2021
278 Clouds 27 1017 29 10000 4.63 150 08:35 15.04.2021
279 Clear 27 1017 29 10000 5.66 140 07:47 15.04.2021
280 Clear 27 1017 31 10000 4.63 140 07:18 15.04.2021
281 Clear 26 1018 33 10000 5.14 140 06:36 15.04.2021
282 Clear 25 1019 38 10000 6.17 120 04:57 15.04.2021
283 Clear 24 1020 40 10000 5.66 130 03:59 15.04.2021
284 Clear 14 1020 82 10000 4.35 144 00:18 15.04.2021
285 Clear 12 1020 87 10000 1.54 190 23:35 14.04.2021
286 Clear 13 1019 82 10000 2.06 180 22:58 14.04.2021
287 Clear 13 1019 82 10000 2.06 160 22:39 14.04.2021
288 Clear 13 1019 82 10000 2.06 160 22:19 14.04.2021
289 Clear 14 1019 77 10000 2.06 170 21:41 14.04.2021
290 Clear 14 1019 77 10000 2.06 170 21:22 14.04.2021
291 Clear 14 1019 77 10000 1.54 170 20:45 14.04.2021
292 Clear 15 1019 72 10000 2.06 170 20:27 14.04.2021
293 Clear 16 1019 67 10000 3.09 150 19:46 14.04.2021
294 Clear 17 1019 63 10000 3.09 140 19:19 14.04.2021
295 Clear 16 1019 67 10000 3.09 150 18:54 14.04.2021
296 Clouds 17 1019 63 10000 3.09 140 18:20 14.04.2021
297 Clouds 17 1019 67 10000 3.09 140 17:57 14.04.2021
298 Clouds 16 1019 77 10000 2.57 160 17:24 14.04.2021
299 Clouds 19 1019 72 10000 2.06 150 16:48 14.04.2021
300 Clouds 19 1019 72 10000 2.57 150 16:24 14.04.2021
301 Clouds 20 1019 63 10000 2.57 150 15:41 14.04.2021
302 Clouds 20 1019 63 10000 2.57 150 15:22 14.04.2021
303 Clouds 20 1019 63 10000 2.57 160 14:44 14.04.2021
304 Clouds 22 1019 56 10000 3.09 150 14:23 14.04.2021
305 Clouds 22 1019 56 10000 3.09 160 13:53 14.04.2021
306 Clouds 23 1018 46 10000 4.12 160 12:59 14.04.2021
307 Clouds 23 1018 46 10000 4.12 140 12:36 14.04.2021
308 Clouds 25 1017 41 10000 4.63 150 11:43 14.04.2021
309 Clouds 25 1017 41 10000 4.63 150 11:24 14.04.2021
310 Clouds 27 1016 36 10000 6.17 140 10:35 14.04.2021
311 Clouds 27 1016 36 10000 5.66 150 09:59 14.04.2021
312 Clouds 28 1016 34 10000 5.66 130 09:41 14.04.2021
313 Clouds 28 1016 34 10000 5.66 130 09:19 14.04.2021
314 Clouds 29 1016 34 10000 4.63 140 08:34 14.04.2021
315 Clouds 29 1016 32 10000 4.63 160 07:56 14.04.2021
316 Clouds 29 1016 32 10000 5.14 150 06:46 14.04.2021
317 Clouds 29 1016 32 10000 6.17 160 06:23 14.04.2021
318 Clouds 27 1018 41 10000 5.14 160 03:58 14.04.2021
319 Clouds 24 1018 33 10000 3.6 210 01:41 14.04.2021
320 Clouds 20 1017 55 10000 4.63 190 00:34 14.04.2021
321 Clouds 16 1015 67 10000 1.03 300 23:39 13.04.2021
322 Clouds 16 1015 67 10000 1.54 320 22:56 13.04.2021
323 Clouds 20 1014 40 10000 2.06 330 22:37 13.04.2021
324 Clouds 20 1014 40 10000 2.06 330 22:18 13.04.2021
325 Clouds 19 1014 48 10000 1.54 310 21:44 13.04.2021
326 Clouds 20 1014 42 10000 2.57 340 21:23 13.04.2021
327 Clear 22 1014 33 10000 3.6 320 20:40 13.04.2021
328 Clear 22 1014 33 10000 3.6 320 20:20 13.04.2021
329 Clouds 22 1014 33 10000 2.57 340 19:27 13.04.2021
330 Clouds 22 1014 33 10000 2.57 340 19:27 13.04.2021
331 Clouds 19 1014 52 6000 3.6 320 18:59 13.04.2021
332 Clouds 20 1014 45 10000 2.57 310 18:35 13.04.2021
333 Haze 19 1014 59 1400 2.51 14 17:45 13.04.2021
334 Haze 19 1014 63 5000 2.06 80 17:23 13.04.2021
335 Clouds 20 1015 52 10000 0.51 20 16:57 13.04.2021
336 Clouds 20 1015 45 10000 1.54 30 16:38 13.04.2021
337 Clouds 20 1015 45 10000 1.54 30 16:19 13.04.2021
338 Clouds 21 1015 43 10000 2.57 40 15:39 13.04.2021
339 Clouds 21 1015 46 10000 2.57 70 14:59 13.04.2021
340 Clouds 22 1015 37 10000 3.09 80 14:38 13.04.2021
341 Clouds 22 1015 37 10000 3.09 80 14:18 13.04.2021
342 Clouds 23 1015 43 10000 2.06 70 13:41 13.04.2021
343 Clouds 23 1015 43 10000 2.06 70 13:22 13.04.2021
344 Clouds 25 1015 33 10000 2.57 40 12:52 13.04.2021
345 Clouds 26 1014 29 10000 3.09 40 12:23 13.04.2021
346 Clouds 26 1014 26 10000 2.57 100 11:40 13.04.2021
347 Clouds 27 1014 26 10000 2.57 100 11:18 13.04.2021
348 Clouds 31 1013 19 10000 2.06 100 10:41 13.04.2021
349 Clouds 33 1013 19 10000 2.06 100 10:20 13.04.2021
350 Clouds 32 1013 18 10000 1.54 270 09:52 13.04.2021
351 Clouds 33 1013 17 10000 2.06 320 09:26 13.04.2021
352 Clouds 32 1013 18 10000 1.54 330 08:47 13.04.2021
353 Clouds 33 1013 17 10000 2.57 340 08:24 13.04.2021
354 Clouds 31 1013 18 10000 3.09 290 07:48 13.04.2021
355 Clouds 31 1013 16 10000 3.6 290 07:26 13.04.2021
356 Clouds 31 1014 16 10000 2.57 310 06:24 13.04.2021
357 Clouds 28 1017 17 10000 4.12 330 03:44 13.04.2021
358 Clouds 20 1017 24 10000 4.12 350 01:32 13.04.2021
359 Clouds 14 1016 47 10000 3.09 50 23:52 12.04.2021
360 Clouds 12 1016 50 10000 3.6 30 23:32 12.04.2021
361 Clouds 11 1016 58 10000 1.54 50 22:52 12.04.2021
362 Clouds 11 1016 62 10000 3.03 4 22:33 12.04.2021
363 Clouds 11 1016 62 10000 3.03 4 22:33 12.04.2021
364 Clouds 13 1016 50 10000 2.53 16 21:48 12.04.2021
365 Clouds 11 1016 58 10000 1.54 10 21:25 12.04.2021
366 Clouds 13 1016 66 10000 2.34 21 20:58 12.04.2021
367 Clouds 13 1016 62 10000 1.03 60 20:36 12.04.2021
368 Clouds 13 1016 62 10000 1.03 60 20:18 12.04.2021
369 Clouds 13 1016 62 10000 1.03 90 19:39 12.04.2021
370 Clouds 13 1016 62 10000 1.03 90 19:21 12.04.2021
371 Clouds 13 1016 62 10000 1.03 90 19:21 12.04.2021
372 Clouds 13 1016 62 10000 2.57 60 18:48 12.04.2021
373 Clouds 12 1016 50 10000 3.6 50 18:30 12.04.2021
374 Clouds 11 1017 62 10000 2.57 60 17:58 12.04.2021
375 Clouds 12 1017 58 10000 2.57 40 17:37 12.04.2021
376 Clouds 12 1017 58 10000 2.57 40 17:19 12.04.2021
377 Clouds 12 1017 58 10000 2.94 47 16:37 12.04.2021
378 Clouds 12 1017 58 10000 2.97 58 16:18 12.04.2021
379 Clouds 13 1018 50 10000 2.97 58 15:33 12.04.2021
380 Clouds 14 1018 47 10000 3.48 76 14:56 12.04.2021
381 Clouds 16 1018 39 10000 3.48 76 14:37 12.04.2021
382 Clouds 16 1018 39 10000 3.66 87 14:18 12.04.2021
383 Clouds 16 1017 36 10000 1.54 90 13:40 12.04.2021
384 Clouds 16 1017 36 10000 1.54 90 13:18 12.04.2021
385 Clouds 17 1017 31 10000 2.57 110 12:43 12.04.2021
386 Clouds 19 1016 24 10000 2.06 90 12:22 12.04.2021
387 Clouds 21 1016 24 10000 3.09 120 11:35 12.04.2021
388 Clouds 23 1016 20 10000 3.6 110 10:51 12.04.2021
389 Clouds 25 1016 19 10000 3.6 110 10:28 12.04.2021
390 Clouds 26 1015 19 10000 3.6 90 09:53 12.04.2021
391 Clouds 26 1015 19 10000 4.12 90 09:23 12.04.2021
392 Clouds 27 1016 19 10000 3.09 90 08:51 12.04.2021
393 Clouds 25 1016 22 10000 4.12 90 07:55 12.04.2021
394 Clouds 25 1017 22 10000 3.09 70 07:30 12.04.2021
395 Clouds 26 1018 25 10000 4.63 100 06:39 12.04.2021
396 Clouds 25 1018 27 10000 4.63 80 05:47 12.04.2021
397 Clear 20 1021 37 10000 6.69 100 03:19 12.04.2021
398 Clouds 12 1021 76 10000 1.54 340 00:29 12.04.2021
399 Clouds 9 1021 81 10000 2.06 140 23:55 11.04.2021
400 Clouds 8 1021 81 10000 1.54 100 23:36 11.04.2021
401 Clouds 8 1021 81 10000 1.54 100 23:18 11.04.2021
402 Clouds 9 1020 87 10000 1.54 90 22:37 11.04.2021
403 Clouds 9 1020 87 10000 1.54 90 22:19 11.04.2021
404 Clouds 9 1020 81 10000 2.06 120 21:42 11.04.2021
405 Clouds 8 1020 81 10000 2.06 120 21:23 11.04.2021
406 Clouds 10 1020 76 10000 3.55 106 20:42 11.04.2021
407 Clouds 10 1020 76 10000 3.61 104 20:23 11.04.2021
408 Clouds 10 1020 76 10000 1.03 100 19:41 11.04.2021
409 Clouds 10 1020 76 10000 1.03 100 19:20 11.04.2021
410 Clouds 12 1020 62 10000 3.09 110 18:55 11.04.2021
411 Clouds 13 1020 58 10000 3.09 110 18:37 11.04.2021
412 Clouds 13 1020 58 10000 3.09 110 18:18 11.04.2021
413 Clouds 14 1020 58 10000 2.06 110 17:40 11.04.2021
414 Clouds 15 1020 58 10000 2.06 110 17:19 11.04.2021
415 Clouds 15 1020 58 10000 1.54 110 16:41 11.04.2021
416 Clear 15 1020 58 10000 1.54 110 16:20 11.04.2021
417 Clear 15 1021 62 10000 1.54 340 15:45 11.04.2021
418 Clear 16 1020 58 10000 4.33 128 15:24 11.04.2021
419 Clear 17 1020 58 10000 1.54 120 14:51 11.04.2021
420 Clouds 17 1020 55 10000 2.57 120 14:22 11.04.2021
421 Clouds 18 1020 51 10000 3.6 150 13:42 11.04.2021
422 Clouds 18 1020 51 10000 3.6 150 13:23 11.04.2021
423 Clouds 19 1019 45 10000 3.09 140 12:26 11.04.2021
424 Clouds 20 1019 39 10000 3.09 130 11:57 11.04.2021
425 Clouds 20 1019 35 10000 3.6 130 11:38 11.04.2021
426 Clouds 21 1019 35 10000 3.6 130 11:19 11.04.2021
427 Clouds 22 1018 30 10000 5.14 120 10:44 11.04.2021
428 Clear 23 1018 31 10000 5.14 130 10:22 11.04.2021
429 Clear 23 1018 31 10000 6.69 130 09:49 11.04.2021
430 Clear 24 1018 29 10000 6.69 120 09:26 11.04.2021
431 Clear 24 1018 29 10000 5.66 120 08:40 11.04.2021
432 Clouds 25 1019 31 10000 6.69 120 07:41 11.04.2021
433 Clouds 25 1019 31 10000 6.69 120 07:19 11.04.2021
434 Clear 23 1020 33 10000 7.2 110 05:47 11.04.2021
435 Clear 23 1020 33 10000 7.2 140 05:23 11.04.2021
436 Clear 22 1021 37 10000 8.75 110 04:36 11.04.2021
437 Clear 21 1022 40 10000 8.75 120 03:35 11.04.2021
438 Clear 17 1021 51 10000 4.12 130 00:55 11.04.2021
439 Clear 15 1021 62 10000 2.06 130 00:32 11.04.2021
440 Clear 14 1021 71 10000 1.54 140 23:45 10.04.2021
441 Clear 14 1020 67 10000 2.57 130 22:55 10.04.2021
442 Clear 14 1020 71 10000 3.09 130 22:28 10.04.2021
443 Clear 14 1020 76 10000 3.09 140 21:53 10.04.2021
444 Clear 14 1020 76 10000 2.06 140 21:25 10.04.2021
445 Clear 14 1019 82 10000 2.06 150 20:55 10.04.2021
446 Clear 15 1019 72 10000 2.06 130 20:34 10.04.2021
447 Clear 15 1019 72 10000 2.06 130 20:34 10.04.2021
448 Clear 15 1019 67 10000 2.57 130 19:59 10.04.2021
449 Clear 16 1019 67 10000 2.57 130 19:40 10.04.2021
450 Clear 16 1019 67 10000 2.57 130 19:21 10.04.2021
451 Clear 17 1020 63 10000 2.57 140 18:41 10.04.2021
452 Clear 17 1020 63 10000 2.57 140 18:23 10.04.2021
453 Clear 17 1020 63 10000 2.57 140 18:23 10.04.2021
454 Clear 17 1020 67 10000 3.09 140 17:35 10.04.2021
455 Clear 17 1020 67 10000 3.09 140 17:35 10.04.2021
456 Clear 18 1020 63 10000 3.09 130 16:37 10.04.2021
457 Clear 18 1020 63 10000 3.09 130 16:19 10.04.2021
458 Clear 19 1020 52 10000 3.6 140 15:43 10.04.2021
459 Clear 20 1020 49 10000 3.6 140 14:52 10.04.2021
460 Clear 21 1020 49 10000 4.12 140 14:30 10.04.2021
461 Clouds 21 1019 49 10000 5.14 140 13:54 10.04.2021
462 Clouds 21 1019 52 10000 3.6 130 13:34 10.04.2021
463 Clouds 22 1018 53 10000 3.6 140 12:39 10.04.2021
464 Clouds 22 1018 53 10000 3.6 140 12:18 10.04.2021
465 Clouds 23 1017 49 10000 4.12 140 11:44 10.04.2021
466 Clouds 23 1017 49 10000 5.66 140 11:20 10.04.2021
467 Clouds 24 1016 46 10000 6.17 140 10:44 10.04.2021
468 Clouds 25 1016 41 10000 6.69 140 10:26 10.04.2021
469 Clouds 27 1015 36 10000 7.2 140 09:37 10.04.2021
470 Clouds 27 1015 36 10000 7.2 140 09:18 10.04.2021
471 Clouds 28 1015 30 10000 4.63 120 08:33 10.04.2021
472 Clouds 28 1015 34 10000 6.17 110 07:55 10.04.2021
473 Clouds 28 1015 32 10000 6.69 140 07:25 10.04.2021
474 Clouds 28 1016 34 10000 5.66 130 06:27 10.04.2021
475 Clouds 28 1017 36 10000 6.17 120 04:49 10.04.2021
476 Clouds 26 1017 38 10000 6.69 130 03:19 10.04.2021
477 Clouds 25 1018 43 10000 6.17 110 02:42 10.04.2021
478 Clouds 21 1017 45 10000 1.54 280 00:59 10.04.2021
479 Clouds 20 1016 59 10000 2.57 300 00:30 10.04.2021
480 Clouds 17 1016 71 10000 4.82 179 23:49 09.04.2021
481 Clouds 14 1015 67 10000 3.6 320 23:27 09.04.2021
482 Clouds 14 1014 67 10000 2.06 190 22:44 09.04.2021
483 Clouds 14 1014 67 10000 2.06 190 22:44 09.04.2021
484 Clear 15 1013 63 10000 1.54 190 22:26 09.04.2021
485 Clear 15 1013 63 10000 2.57 190 21:39 09.04.2021
486 Clear 15 1013 63 10000 2.57 190 21:20 09.04.2021
487 Clear 15 1013 63 10000 2.57 190 20:46 09.04.2021
488 Clouds 15 1013 63 10000 2.06 190 20:23 09.04.2021
489 Clouds 16 1013 59 10000 2.57 190 19:58 09.04.2021
490 Clouds 16 1013 63 10000 2.57 190 19:39 09.04.2021
491 Clouds 16 1013 63 10000 2.57 190 19:20 09.04.2021
492 Clouds 17 1013 55 10000 1.54 190 18:41 09.04.2021
493 Clouds 17 1013 55 10000 1.54 190 18:22 09.04.2021
494 Clouds 17 1013 55 10000 1.54 190 17:44 09.04.2021
495 Clouds 17 1013 59 10000 2.06 190 17:22 09.04.2021
496 Clouds 20 1013 42 10000 2.57 190 16:41 09.04.2021
497 Clouds 20 1013 42 10000 2.57 190 16:19 09.04.2021
498 Clouds 20 1014 42 10000 2.57 190 15:40 09.04.2021
499 Clouds 20 1014 42 10000 2.57 190 15:20 09.04.2021
500 Clouds 21 1014 43 10000 0.51 190 14:46 09.04.2021
501 Clouds 22 1014 46 10000 1.03 180 13:57 09.04.2021
502 Clouds 22 1013 40 10000 2.57 130 13:39 09.04.2021
503 Clouds 22 1013 40 10000 2.57 130 13:20 09.04.2021
504 Clouds 24 1013 31 10000 2.57 120 12:46 09.04.2021
505 Clouds 27 1012 22 10000 2.57 110 11:52 09.04.2021
506 Clouds 29 1011 23 10000 3.09 130 11:23 09.04.2021
507 Clouds 30 1011 17 10000 3.09 140 10:50 09.04.2021
508 Clouds 32 1011 16 10000 4.12 160 10:30 09.04.2021
509 Clouds 33 1010 17 10000 3.09 140 09:51 09.04.2021
510 Clouds 33 1010 15 10000 3.6 150 09:26 09.04.2021
511 Clouds 33 1010 16 10000 3.6 150 08:54 09.04.2021
512 Clouds 33 1010 16 10000 3.6 140 08:22 09.04.2021
513 Clouds 33 1011 15 10000 2.57 250 07:21 09.04.2021
514 Clouds 32 1011 14 10000 3.09 220 06:21 09.04.2021
515 Clouds 31 1014 18 10000 2.57 30 03:54 09.04.2021
516 Clouds 31 1014 18 10000 2.57 30 03:54 09.04.2021
517 Clear 27 1015 24 10000 2.06 230 02:27 09.04.2021
518 Clouds 19 1014 67 10000 2.57 230 00:38 09.04.2021
519 Clouds 17 1014 67 10000 2.57 230 00:19 09.04.2021
520 Clouds 13 1013 71 10000 2.06 210 23:30 08.04.2021
521 Clouds 13 1013 76 10000 2.06 210 22:45 08.04.2021
522 Clouds 13 1013 76 10000 1.54 210 22:25 08.04.2021
523 Clouds 13 1012 76 10000 1.84 78 21:57 08.04.2021
524 Clouds 14 1012 72 10000 1.54 200 21:37 08.04.2021
525 Clouds 14 1012 72 10000 1.54 200 21:19 08.04.2021
526 Clouds 14 1012 77 10000 1.85 89 20:52 08.04.2021
527 Clouds 16 1012 63 10000 2.06 200 20:31 08.04.2021
528 Clear 16 1012 59 10000 2.06 200 19:49 08.04.2021
529 Clear 16 1012 63 10000 1.77 92 19:20 08.04.2021
530 Clear 16 1013 63 10000 1.77 92 18:51 08.04.2021
531 Clear 16 1013 67 10000 2.06 190 18:21 08.04.2021
532 Clear 17 1013 55 10000 1.03 30 17:50 08.04.2021
533 Clear 18 1013 48 10000 1.54 360 17:26 08.04.2021
534 Clear 18 1013 52 10000 2.57 30 16:54 08.04.2021
535 Clear 19 1013 48 10000 0.51 320 16:34 08.04.2021
536 Clear 19 1013 48 10000 2.89 93 15:49 08.04.2021
537 Clear 19 1013 52 10000 3.23 104 15:29 08.04.2021
538 Clear 21 1013 40 10000 3.23 104 14:58 08.04.2021
539 Clear 21 1013 52 10000 1.03 70 14:36 08.04.2021
540 Clouds 21 1013 52 10000 1.03 70 14:18 08.04.2021
541 Clouds 22 1012 35 10000 2.57 140 13:43 08.04.2021
542 Clouds 22 1012 35 10000 2.57 140 13:22 08.04.2021
543 Clouds 25 1012 27 10000 2.57 160 12:43 08.04.2021
544 Clouds 24 1012 27 10000 2.57 160 12:24 08.04.2021
545 Clouds 26 1011 24 10000 2.06 170 11:43 08.04.2021
546 Clouds 29 1011 17 10000 2.06 170 10:59 08.04.2021
547 Clouds 29 1011 15 10000 1.54 190 10:40 08.04.2021
548 Clouds 31 1011 15 10000 1.54 190 10:18 08.04.2021
549 Clouds 32 1010 14 10000 3.09 180 09:43 08.04.2021
550 Clouds 31 1010 13 10000 3.09 140 08:47 08.04.2021
551 Clear 31 1010 14 10000 2.57 240 08:28 08.04.2021
552 Clear 31 1011 14 10000 2.06 310 07:58 08.04.2021
553 Clear 31 1011 14 10000 2.06 150 07:35 08.04.2021
554 Clear 29 1014 23 10000 4.12 70 03:54 08.04.2021
555 Clear 22 1015 40 10000 2.31 85 01:20 08.04.2021
556 Clear 17 1015 72 10000 1.54 220 00:19 08.04.2021
557 Clear 13 1015 76 10000 2.57 220 23:41 07.04.2021
558 Clear 13 1015 76 10000 2.57 220 23:21 07.04.2021
559 Clear 13 1014 76 10000 2.06 220 22:47 07.04.2021
560 Clear 14 1014 72 10000 2.06 220 22:29 07.04.2021
561 Clear 15 1014 67 10000 2.06 220 21:46 07.04.2021
562 Clear 15 1014 67 10000 2.06 220 21:24 07.04.2021
563 Clear 16 1014 67 10000 2.06 220 20:43 07.04.2021
564 Clear 15 1014 63 10000 2.57 220 20:21 07.04.2021
565 Clear 15 1014 63 10000 2.57 220 20:21 07.04.2021
566 Clear 16 1014 63 10000 2.06 220 19:44 07.04.2021
567 Clear 16 1014 67 10000 2.57 220 19:26 07.04.2021
568 Clear 17 1014 72 10000 2.06 220 18:47 07.04.2021
569 Clear 17 1014 67 10000 2.06 220 18:20 07.04.2021
570 Clear 17 1014 59 10000 2.15 111 17:55 07.04.2021
571 Clear 18 1014 52 10000 1.54 220 17:36 07.04.2021
572 Clear 19 1015 45 10000 2.57 220 16:49 07.04.2021
573 Clear 19 1015 52 10000 2.52 123 16:24 07.04.2021
574 Clear 20 1015 48 10000 2.52 123 15:59 07.04.2021
575 Clear 21 1015 42 10000 1.54 220 15:38 07.04.2021
576 Clear 21 1015 42 10000 1.54 220 15:38 07.04.2021
577 Clear 23 1015 40 10000 2.06 180 14:57 07.04.2021
578 Clear 24 1015 37 10000 2.57 180 14:31 07.04.2021
579 Clear 23 1015 45 10000 3.09 170 13:52 07.04.2021
580 Clear 24 1015 46 10000 3.6 180 13:23 07.04.2021
581 Clear 24 1015 40 10000 3.6 170 12:51 07.04.2021
582 Clear 25 1014 35 10000 3.6 160 12:24 07.04.2021
583 Clear 25 1014 33 10000 3.6 160 11:54 07.04.2021
584 Clear 27 1014 28 10000 3.6 150 11:26 07.04.2021
585 Clear 27 1014 28 10000 3.6 150 11:26 07.04.2021
586 Clear 29 1014 23 10000 4.63 150 10:52 07.04.2021
587 Clear 30 1013 21 10000 4.63 130 10:20 07.04.2021
588 Clear 31 1013 20 10000 4.63 140 09:42 07.04.2021
589 Clear 31 1013 20 10000 4.63 140 09:23 07.04.2021
590 Clear 32 1013 20 10000 4.63 130 08:41 07.04.2021
591 Clear 32 1013 20 10000 4.63 130 08:18 07.04.2021
592 Clear 31 1014 21 10000 4.63 100 07:42 07.04.2021
593 Clear 31 1014 21 10000 4.63 100 07:21 07.04.2021
594 Clear 31 1014 23 10000 5.66 110 06:24 07.04.2021
595 Clear 29 1017 30 10000 4.63 90 04:23 07.04.2021
596 Clear 19 1018 72 10000 2.57 300 00:20 07.04.2021
597 Clear 16 1018 77 10000 2.57 270 23:46 06.04.2021
598 Clear 15 1017 77 10000 2.57 300 23:18 06.04.2021
599 Clear 15 1017 77 10000 3.09 280 22:38 06.04.2021
600 Clear 15 1017 77 10000 3.09 280 22:18 06.04.2021
601 Clear 16 1016 72 10000 2.57 280 21:40 06.04.2021
602 Clouds 15 1016 72 10000 2.57 280 21:21 06.04.2021
603 Clouds 15 1016 72 10000 2.06 210 20:52 06.04.2021
604 Clouds 15 1016 72 10000 2.57 210 20:22 06.04.2021
605 Clouds 16 1017 72 10000 2.57 210 19:52 06.04.2021
606 Clouds 17 1017 77 10000 2.57 210 19:33 06.04.2021
607 Clouds 18 1017 72 10000 2.06 210 18:51 06.04.2021
608 Clouds 19 1017 67 10000 2.57 210 18:32 06.04.2021
609 Clear 19 1017 67 10000 2.57 210 17:54 06.04.2021
610 Clear 20 1017 63 10000 2.06 210 17:36 06.04.2021
611 Clear 20 1017 63 10000 2.06 210 17:18 06.04.2021
612 Clear 21 1018 63 10000 3.28 130 16:40 06.04.2021
613 Clear 22 1018 59 10000 3.69 132 15:46 06.04.2021
614 Clear 22 1018 56 10000 1.54 160 15:22 06.04.2021
615 Clear 21 1018 49 10000 3.6 150 14:40 06.04.2021
616 Clear 21 1018 49 10000 3.6 150 14:20 06.04.2021
617 Clear 24 1018 49 10000 3.09 170 13:46 06.04.2021
618 Clear 24 1017 46 10000 3.09 180 13:25 06.04.2021
619 Clear 25 1017 40 10000 3.6 160 12:42 06.04.2021
620 Clear 25 1017 40 10000 3.6 160 12:22 06.04.2021
621 Clear 26 1016 33 10000 3.09 140 11:52 06.04.2021
622 Clear 27 1016 28 10000 3.6 150 11:22 06.04.2021
623 Clear 28 1016 24 10000 4.63 150 10:51 06.04.2021
624 Clear 30 1016 24 10000 4.63 150 10:32 06.04.2021
625 Clear 30 1015 21 10000 4.63 140 09:58 06.04.2021
626 Clear 30 1015 23 10000 4.12 150 09:38 06.04.2021
627 Clear 31 1015 21 10000 4.63 150 08:45 06.04.2021
628 Clear 31 1015 21 10000 3.6 150 08:19 06.04.2021
629 Clear 32 1016 23 10000 3.6 160 06:56 06.04.2021
630 Clear 29 1017 28 10000 5.14 140 05:41 06.04.2021
631 Clear 25 1019 36 10000 3.6 150 02:58 06.04.2021
632 Clear 21 1019 59 10000 2.57 280 00:45 06.04.2021
633 Clear 17 1019 77 10000 3.6 260 00:21 06.04.2021
634 Clear 16 1018 77 10000 2.57 200 23:43 05.04.2021
635 Clear 15 1018 77 10000 2.57 200 23:20 05.04.2021
636 Clear 15 1018 77 10000 2.57 200 22:48 05.04.2021
637 Clear 15 1017 77 10000 2.06 200 22:26 05.04.2021
638 Clear 16 1017 72 10000 2.57 200 21:44 05.04.2021
639 Clear 15 1017 77 10000 2.57 200 21:22 05.04.2021
640 Clear 16 1017 72 10000 2.06 200 20:45 05.04.2021
641 Clear 17 1017 77 10000 2.06 200 20:26 05.04.2021
642 Clear 17 1017 77 10000 2.57 200 19:43 05.04.2021
643 Clear 19 1017 72 10000 2.06 200 19:23 05.04.2021
644 Clear 19 1017 72 10000 2.06 200 18:54 05.04.2021
645 Clear 20 1017 67 10000 2.06 200 18:36 05.04.2021
646 Clear 20 1017 67 10000 2.06 200 18:18 05.04.2021
647 Clear 20 1017 55 10000 2.56 132 17:42 05.04.2021
648 Clear 21 1017 52 10000 0.51 200 17:20 05.04.2021
649 Clear 21 1017 55 10000 1.54 210 16:43 05.04.2021
650 Clear 22 1017 55 10000 1.54 210 16:20 05.04.2021
651 Clear 22 1017 56 10000 2.57 200 15:52 05.04.2021
652 Clear 21 1017 49 10000 0.51 190 15:29 05.04.2021
653 Clear 21 1017 49 10000 1.03 190 14:50 05.04.2021
654 Clear 23 1017 56 10000 2.57 170 14:28 05.04.2021
655 Clear 24 1017 49 10000 3.09 170 13:31 05.04.2021
656 Clear 25 1017 43 10000 3.6 150 12:50 05.04.2021
657 Clear 25 1016 38 10000 3.6 150 12:27 05.04.2021
658 Clear 26 1016 36 10000 3.6 140 11:56 05.04.2021
659 Clear 27 1015 29 10000 4.12 140 11:33 05.04.2021
660 Clear 28 1015 28 10000 4.63 140 10:59 05.04.2021
661 Clear 28 1015 28 10000 4.63 140 10:59 05.04.2021
662 Clear 28 1015 28 10000 4.63 140 10:59 05.04.2021
663 Clear 28 1015 26 10000 5.66 140 10:40 05.04.2021
664 Clear 29 1015 26 10000 5.66 140 10:22 05.04.2021
665 Clear 30 1015 26 10000 4.63 140 09:47 05.04.2021
666 Clear 30 1015 26 10000 5.14 150 09:22 05.04.2021
667 Clear 31 1015 26 10000 6.17 130 08:42 05.04.2021
668 Clear 31 1015 26 10000 6.17 130 08:24 05.04.2021
669 Clear 30 1015 28 10000 4.12 150 07:35 05.04.2021
670 Clear 28 1018 32 10000 3.6 130 04:25 05.04.2021
671 Clear 20 1019 49 10000 2.57 270 01:35 05.04.2021
672 Clear 15 1018 72 10000 3.09 280 00:36 05.04.2021
673 Clear 13 1018 76 10000 2.57 210 23:43 04.04.2021
674 Clear 14 1018 72 10000 2.57 210 23:23 04.04.2021
675 Clear 14 1017 72 10000 2.06 210 22:50 04.04.2021
676 Clear 13 1017 76 10000 2.57 210 22:28 04.04.2021
677 Clear 14 1017 77 10000 2.06 210 21:25 04.04.2021
678 Clear 14 1017 72 6000 2.06 210 20:54 04.04.2021
679 Clear 14 1016 72 6000 2.06 200 20:29 04.04.2021
680 Clear 15 1016 72 8000 2.06 200 19:44 04.04.2021
681 Haze 15 1016 72 3700 2.61 131 19:23 04.04.2021
682 Haze 15 1016 67 4000 0.51 200 18:57 04.04.2021
683 Clear 16 1017 59 10000 1.54 200 18:38 04.04.2021
684 Clear 16 1017 59 10000 1.54 200 18:20 04.04.2021
685 Clear 18 1017 55 10000 2.57 200 17:37 04.04.2021
686 Clear 17 1017 59 6000 1.54 200 17:19 04.04.2021
687 Clear 19 1017 48 10000 3.38 129 16:41 04.04.2021
688 Clear 19 1017 48 10000 2.06 160 15:58 04.04.2021
689 Clear 20 1017 42 10000 3.09 180 15:33 04.04.2021
690 Clear 20 1017 42 10000 3.6 160 14:43 04.04.2021
691 Clear 20 1017 42 10000 3.6 160 14:25 04.04.2021
692 Clear 21 1016 40 10000 3.6 160 13:29 04.04.2021
693 Clear 22 1016 37 10000 3.6 150 12:53 04.04.2021
694 Clear 24 1016 31 10000 3.6 150 12:32 04.04.2021
695 Clear 24 1015 31 10000 3.6 150 11:52 04.04.2021
696 Clear 26 1015 27 10000 3.6 140 11:31 04.04.2021
697 Clear 28 1015 24 10000 4.63 140 10:56 04.04.2021
698 Clear 29 1014 23 10000 4.63 150 10:32 04.04.2021
699 Clear 30 1014 23 10000 4.63 130 09:52 04.04.2021
700 Clear 30 1014 23 10000 5.66 130 09:24 04.04.2021
701 Clear 30 1014 23 10000 6.69 150 08:50 04.04.2021
702 Clear 30 1014 23 10000 5.66 140 08:32 04.04.2021
703 Clear 30 1014 23 10000 5.66 140 08:32 04.04.2021
704 Clear 30 1014 24 10000 5.14 140 07:22 04.04.2021
705 Clear 30 1015 23 10000 4.63 90 06:34 04.04.2021
706 Clear 27 1017 29 10000 3.6 100 04:34 04.04.2021
707 Clear 20 1018 56 10000 2.06 270 01:21 04.04.2021
708 Clear 16 1017 72 10000 2.06 280 00:19 04.04.2021
709 Clear 14 1017 77 10000 2.57 290 23:47 03.04.2021
710 Clear 14 1017 77 10000 2.57 290 23:18 03.04.2021
711 Clear 15 1016 72 10000 2.57 290 22:49 03.04.2021
712 Clear 16 1016 67 10000 2.57 300 22:19 03.04.2021
713 Clear 15 1016 72 10000 2.57 300 21:47 03.04.2021
714 Clear 15 1016 72 10000 2.57 300 21:47 03.04.2021
715 Clear 15 1016 72 10000 3.09 290 21:23 03.04.2021
716 Clear 15 1016 72 10000 3.09 280 20:49 03.04.2021
717 Clear 15 1015 77 10000 3.09 280 20:27 03.04.2021
718 Clear 16 1015 72 10000 2.57 290 19:50 03.04.2021
719 Clear 16 1015 72 10000 0.51 270 19:24 03.04.2021
720 Clear 16 1016 72 10000 2.06 270 18:47 03.04.2021
721 Clear 16 1016 72 10000 2.06 300 18:23 03.04.2021
722 Clear 17 1016 67 10000 1.03 290 17:51 03.04.2021
723 Clear 18 1016 63 10000 4.14 116 17:21 03.04.2021
724 Clear 18 1016 63 10000 0.51 340 16:49 03.04.2021
725 Clear 20 1016 52 10000 2.06 130 16:21 03.04.2021
726 Clear 20 1016 52 10000 2.06 140 15:48 03.04.2021
727 Clear 19 1016 59 10000 0.51 110 15:22 03.04.2021
728 Clear 19 1016 59 10000 3.09 150 14:44 03.04.2021
729 Clear 21 1016 49 10000 3.6 150 14:22 03.04.2021
730 Clear 21 1016 49 10000 3.6 150 13:49 03.04.2021
731 Clear 22 1016 46 10000 3.6 150 13:24 03.04.2021
732 Clear 23 1015 40 10000 3.6 150 12:56 03.04.2021
733 Clear 23 1015 43 10000 3.6 150 12:31 03.04.2021
734 Clear 27 1014 29 10000 3.6 140 11:39 03.04.2021
735 Clear 28 1014 26 10000 4.12 140 10:56 03.04.2021
736 Clear 30 1014 24 10000 4.63 130 10:36 03.04.2021
737 Clear 30 1014 24 10000 4.63 130 10:18 03.04.2021
738 Clear 30 1014 23 10000 5.14 130 09:28 03.04.2021
739 Clear 30 1014 23 10000 3.6 130 08:54 03.04.2021
740 Clear 30 1014 23 10000 5.14 120 08:28 03.04.2021
741 Clear 30 1015 23 10000 5.14 120 07:29 03.04.2021
742 Clear 30 1015 26 10000 5.14 140 06:39 03.04.2021
743 Clear 29 1018 29 10000 3.6 100 03:53 03.04.2021
744 Clear 26 1018 34 10000 2.06 90 02:51 03.04.2021
745 Clear 24 1018 35 10000 2.57 110 02:25 03.04.2021
746 Clear 15 1018 77 10000 2.06 280 00:21 03.04.2021
747 Clear 14 1017 77 10000 2.06 270 23:49 02.04.2021
748 Clear 13 1017 82 10000 2.57 280 23:24 02.04.2021
749 Clear 14 1017 77 10000 2.06 270 22:53 02.04.2021
750 Clear 14 1016 77 10000 2.06 280 22:34 02.04.2021
751 Clear 14 1016 77 10000 1.54 300 21:46 02.04.2021
752 Clear 14 1016 77 10000 2.57 150 21:23 02.04.2021
753 Clear 15 1016 77 10000 2.06 150 20:48 02.04.2021
754 Clear 14 1016 82 10000 1.54 150 20:28 02.04.2021
755 Clear 16 1016 67 10000 2.81 117 19:57 02.04.2021
756 Clear 16 1016 67 10000 2.81 117 19:38 02.04.2021
757 Clear 16 1016 67 10000 3.06 119 19:20 02.04.2021
758 Clear 16 1017 72 10000 2.06 130 18:38 02.04.2021
759 Clear 16 1017 72 10000 2.06 130 18:20 02.04.2021
760 Clear 19 1017 48 10000 2.57 90 17:37 02.04.2021
761 Clear 20 1017 49 10000 1.54 70 16:48 02.04.2021
762 Clear 19 1018 55 10000 1.03 100 15:54 02.04.2021
763 Clear 20 1018 56 10000 4.06 117 15:32 02.04.2021
764 Clear 20 1018 52 10000 1.54 120 14:48 02.04.2021
765 Clear 21 1018 46 10000 2.57 160 14:27 02.04.2021
766 Clear 22 1017 43 10000 3.6 140 13:42 02.04.2021
767 Clear 22 1017 43 10000 3.6 140 13:19 02.04.2021
768 Clear 24 1017 35 10000 3.6 130 12:40 02.04.2021
769 Clear 24 1017 35 10000 3.6 130 12:20 02.04.2021
770 Clear 24 1017 35 10000 3.6 130 12:20 02.04.2021
771 Clear 25 1016 33 10000 4.12 130 11:53 02.04.2021
772 Clear 28 1016 26 10000 4.63 120 11:20 02.04.2021
773 Clear 28 1016 26 10000 4.63 120 11:20 02.04.2021
774 Clear 29 1016 23 10000 6.17 120 10:45 02.04.2021
775 Clear 30 1015 21 10000 5.66 120 10:27 02.04.2021
776 Clear 30 1015 23 10000 6.69 110 09:52 02.04.2021
777 Clear 31 1015 23 10000 7.72 120 09:26 02.04.2021
778 Clear 31 1015 23 10000 7.72 120 09:26 02.04.2021
779 Clear 31 1015 22 10000 6.69 130 08:49 02.04.2021
780 Clear 31 1015 25 10000 6.17 140 08:28 02.04.2021
781 Clear 30 1016 25 10000 6.69 110 07:23 02.04.2021
782 Clear 30 1016 23 10000 6.69 100 06:46 02.04.2021
783 Clear 29 1019 31 10000 5.14 90 03:54 02.04.2021
784 Clear 23 1020 35 10000 2.57 70 02:20 02.04.2021
785 Clear 18 1020 59 10000 3.09 280 00:47 02.04.2021
786 Clear 13 1019 82 10000 2.57 270 23:58 01.04.2021
787 Clear 13 1019 82 10000 2.06 280 23:27 01.04.2021
788 Clear 14 1019 72 10000 2.57 270 22:51 01.04.2021
789 Clear 14 1018 77 10000 2.57 290 22:18 01.04.2021
790 Clear 14 1018 72 10000 2.57 280 21:45 01.04.2021
791 Clear 14 1018 72 10000 2.57 270 21:24 01.04.2021
792 Clear 15 1018 67 10000 2.06 270 20:42 01.04.2021
793 Clear 15 1018 67 10000 2.06 270 20:22 01.04.2021
794 Clear 15 1018 67 10000 3.09 290 19:46 01.04.2021
795 Clear 15 1018 72 10000 2.57 280 19:27 01.04.2021
796 Clear 15 1018 72 10000 2.06 270 18:45 01.04.2021
797 Clear 16 1018 72 10000 1.54 270 18:18 01.04.2021
798 Clear 17 1018 59 10000 1.54 30 17:47 01.04.2021
799 Clear 18 1018 55 10000 2.57 110 17:29 01.04.2021
800 Clear 18 1018 55 10000 3.6 120 16:50 01.04.2021
801 Clear 19 1018 48 10000 2.57 100 16:24 01.04.2021
802 Clear 21 1018 40 10000 2.57 70 15:43 01.04.2021
803 Clear 21 1018 40 10000 2.57 70 15:19 01.04.2021
804 Clear 21 1018 40 10000 0.51 60 14:42 01.04.2021
805 Clear 21 1018 40 10000 0.51 60 14:23 01.04.2021
806 Clear 21 1018 46 10000 2.06 90 13:52 01.04.2021
807 Clear 22 1018 40 10000 3.6 140 13:30 01.04.2021
808 Clear 22 1017 40 10000 3.6 140 12:49 01.04.2021
809 Clear 23 1017 38 10000 3.6 140 12:30 01.04.2021
810 Clear 24 1017 33 10000 3.6 130 11:47 01.04.2021
811 Clear 27 1016 26 10000 4.12 130 11:24 01.04.2021
812 Clear 29 1016 21 10000 4.63 130 10:53 01.04.2021
813 Rain 29 1016 20 10000 5.66 120 10:35 01.04.2021
814 Clear 30 1016 20 10000 6.17 120 09:54 01.04.2021
815 Clear 30 1016 20 10000 6.69 100 09:24 01.04.2021
816 Clear 30 1016 20 10000 6.69 110 08:33 01.04.2021
817 Clear 30 1016 21 10000 5.14 110 07:57 01.04.2021
818 Clear 30 1016 24 10000 4.12 60 07:19 01.04.2021
819 Clear 30 1017 21 10000 5.14 90 06:42 01.04.2021
820 Clear 25 1019 27 10000 5.14 90 03:30 01.04.2021
821 Clear 15 1020 63 10000 2.06 270 00:49 01.04.2021
822 Clear 11 1019 76 10000 2.57 280 23:44 31.03.2021
823 Clear 11 1019 82 10000 1.54 270 23:18 31.03.2021
824 Clear 11 1019 76 10000 2.06 270 22:41 31.03.2021
825 Clear 11 1019 76 10000 2.06 270 22:20 31.03.2021
826 Clear 12 1018 71 10000 2.57 280 21:45 31.03.2021
827 Clear 12 1018 76 10000 2.57 260 21:23 31.03.2021
828 Clear 12 1018 71 10000 1.54 250 20:44 31.03.2021
829 Clear 14 1018 58 10000 0.51 250 20:24 31.03.2021
830 Clear 13 1018 71 10000 2.06 250 19:59 31.03.2021
831 Clear 14 1019 62 10000 2.06 240 19:36 31.03.2021
832 Clear 14 1019 62 10000 2.06 240 19:18 31.03.2021
833 Clear 13 1019 71 10000 0.51 230 18:43 31.03.2021
834 Clear 14 1019 72 10000 1.03 230 17:57 31.03.2021
835 Clear 15 1019 63 10000 1.54 230 17:36 31.03.2021
836 Clear 16 1019 51 10000 1.54 230 16:58 31.03.2021
837 Clear 16 1019 59 10000 5.11 115 16:38 31.03.2021
838 Clear 16 1019 59 10000 5.21 119 16:19 31.03.2021
839 Clear 16 1019 59 10000 5.21 119 16:19 31.03.2021
840 Clear 16 1019 59 10000 5.21 119 16:19 31.03.2021
841 Clear 17 1019 55 10000 2.06 140 15:50 31.03.2021
842 Clear 17 1019 48 10000 4.94 121 15:19 31.03.2021
843 Clear 18 1019 48 10000 2.06 140 14:43 31.03.2021
844 Clear 18 1019 45 10000 2.57 140 14:20 31.03.2021
845 Clear 20 1018 37 10000 3.6 150 13:41 31.03.2021
846 Clear 21 1018 35 10000 3.09 140 12:42 31.03.2021
847 Clear 21 1018 35 10000 3.09 140 12:21 31.03.2021
848 Clear 22 1017 28 10000 3.6 140 11:51 31.03.2021
849 Clear 25 1017 22 10000 4.12 130 11:21 31.03.2021
850 Clear 27 1017 18 10000 6.17 130 10:47 31.03.2021
851 Clear 28 1016 16 10000 7.2 120 10:25 31.03.2021
852 Clear 28 1016 16 10000 7.2 120 10:25 31.03.2021
853 Clear 29 1016 17 10000 7.72 130 09:42 31.03.2021
854 Clear 30 1016 17 10000 6.69 120 08:55 31.03.2021
855 Clear 29 1017 23 10000 6.17 110 08:37 31.03.2021
856 Clear 29 1017 20 10000 8.23 100 07:52 31.03.2021
857 Clear 29 1017 23 10000 5.14 130 06:46 31.03.2021
858 Clear 24 1020 31 10000 6.69 90 03:51 31.03.2021
859 Clear 19 1021 42 10000 2.06 90 01:43 31.03.2021
860 Clear 18 1021 45 10000 7.79 112 00:49 31.03.2021
861 Clear 15 1020 63 10000 4.75 122 00:20 31.03.2021
862 Clear 13 1020 71 10000 2.06 130 23:39 30.03.2021
863 Clear 13 1020 71 10000 2.57 120 22:59 30.03.2021
864 Clear 13 1019 71 10000 3.6 120 22:40 30.03.2021
865 Clear 13 1019 71 10000 3.6 120 22:21 30.03.2021
866 Clear 13 1019 71 10000 2.57 110 21:48 30.03.2021
867 Clear 16 1019 51 10000 3.6 110 21:20 30.03.2021
868 Clear 17 1019 48 10000 3.6 100 20:52 30.03.2021
869 Clear 16 1019 55 10000 2.57 180 20:28 30.03.2021
870 Clear 17 1019 51 10000 1.54 180 19:51 30.03.2021
871 Clear 17 1019 48 10000 2.06 110 19:27 30.03.2021
872 Clear 18 1019 48 10000 1.54 90 18:39 30.03.2021
873 Clear 18 1020 48 10000 1.54 10 17:56 30.03.2021
874 Clear 18 1020 48 10000 2.57 30 17:38 30.03.2021
875 Clear 18 1020 48 10000 2.57 30 17:20 30.03.2021
876 Clear 19 1020 48 10000 2.57 60 16:44 30.03.2021
877 Clear 19 1020 48 10000 2.57 80 16:23 30.03.2021
878 Clear 19 1020 48 10000 0.51 100 15:20 30.03.2021
879 Clear 20 1020 49 10000 3.6 140 14:56 30.03.2021
880 Clear 21 1020 43 10000 4.12 140 14:22 30.03.2021
881 Clear 22 1019 37 10000 4.12 140 13:58 30.03.2021
882 Clear 22 1019 37 10000 4.12 150 13:36 30.03.2021
883 Clear 22 1019 40 10000 3.6 150 12:49 30.03.2021
884 Clear 22 1019 40 10000 3.6 150 12:49 30.03.2021
885 Clear 23 1018 35 10000 3.6 130 12:27 30.03.2021
886 Clear 24 1018 33 10000 4.12 130 11:53 30.03.2021
887 Clear 26 1018 29 10000 5.14 130 11:23 30.03.2021
888 Clear 27 1018 26 10000 5.66 130 10:46 30.03.2021
889 Rain 28 1017 24 10000 6.69 130 10:25 30.03.2021
890 Clear 28 1017 26 10000 7.72 110 09:44 30.03.2021
891 Clear 29 1017 26 10000 6.69 110 09:26 30.03.2021
892 Clear 29 1017 26 10000 8.23 110 08:54 30.03.2021
893 Clear 29 1017 26 10000 7.72 130 08:36 30.03.2021
894 Clear 29 1017 28 10000 8.23 120 07:51 30.03.2021
895 Clear 29 1018 26 10000 6.69 120 07:22 30.03.2021
896 Clear 27 1020 32 10000 7.2 100 05:25 30.03.2021
897 Clear 27 1020 32 10000 7.72 110 04:57 30.03.2021
898 Clear 17 1021 59 10000 0.51 90 00:28 30.03.2021
899 Clear 15 1020 67 10000 3.09 140 23:31 29.03.2021
900 Clear 15 1020 67 10000 3.6 130 22:44 29.03.2021
901 Clear 15 1019 72 10000 3.6 120 22:18 29.03.2021
902 Clear 16 1019 67 10000 3.6 120 21:43 29.03.2021
903 Clear 16 1019 67 10000 2.57 90 21:22 29.03.2021
904 Clear 17 1019 59 10000 2.06 100 20:44 29.03.2021
905 Clear 17 1019 67 10000 2.57 120 20:26 29.03.2021
906 Clear 16 1019 72 10000 7 128 19:46 29.03.2021
907 Clear 16 1019 72 10000 7.33 128 19:20 29.03.2021
908 Clear 16 1019 72 10000 2.06 120 18:40 29.03.2021
909 Clear 16 1019 72 10000 2.06 120 18:21 29.03.2021
910 Clear 17 1019 67 10000 2.57 150 17:45 29.03.2021
911 Clear 18 1020 59 10000 3.09 160 16:59 29.03.2021
912 Clear 20 1020 49 10000 3.6 150 16:36 29.03.2021
913 Clear 20 1020 49 10000 4.12 140 15:57 29.03.2021
914 Clear 19 1020 55 10000 3.6 140 15:34 29.03.2021
915 Clear 20 1020 52 10000 3.6 140 14:55 29.03.2021
916 Clear 19 1020 55 10000 3.09 130 14:33 29.03.2021
917 Clear 20 1020 52 10000 3.09 140 13:52 29.03.2021
918 Clear 21 1020 49 10000 3.6 140 13:26 29.03.2021
919 Clear 21 1019 46 10000 3.09 140 12:50 29.03.2021
920 Clear 22 1019 43 10000 3.09 130 12:21 29.03.2021
921 Clear 26 1018 29 10000 4.63 130 11:40 29.03.2021
922 Clear 26 1018 29 10000 4.63 130 11:22 29.03.2021
923 Clear 27 1018 28 10000 6.17 130 10:36 29.03.2021
924 Clear 28 1018 26 10000 6.69 130 09:44 29.03.2021
925 Clear 29 1018 24 10000 7.2 140 08:58 29.03.2021
926 Clear 29 1018 24 10000 6.69 130 08:28 29.03.2021
927 Clear 29 1018 24 10000 6.69 120 07:41 29.03.2021
928 Clear 29 1019 26 10000 7.72 130 06:27 29.03.2021
929 Clear 26 1021 31 10000 7.2 120 03:59 29.03.2021
930 Clear 26 1021 31 10000 7.2 120 03:59 29.03.2021
931 Clear 23 1021 40 10000 4.63 120 01:54 29.03.2021
932 Clear 19 1020 77 10000 1.54 130 00:23 29.03.2021
933 Clear 17 1020 88 10000 1.54 120 23:44 28.03.2021
934 Clear 17 1020 82 10000 2.06 140 23:19 28.03.2021
935 Clear 18 1019 77 10000 1.54 80 22:41 28.03.2021
936 Clear 18 1019 77 10000 1.54 80 22:21 28.03.2021
937 Clear 19 1019 77 10000 4.85 115 21:41 28.03.2021
938 Clear 19 1019 77 10000 4.94 113 21:22 28.03.2021
939 Clear 19 1018 72 10000 2.06 100 20:49 28.03.2021
940 Clouds 19 1018 72 10000 3.09 130 20:31 28.03.2021
941 Clouds 20 1018 68 10000 3.09 130 19:45 28.03.2021
942 Clouds 22 1018 56 10000 3.6 120 19:23 28.03.2021
943 Clouds 21 1019 68 10000 3.09 110 18:58 28.03.2021
944 Clouds 21 1019 68 10000 2.06 130 18:27 28.03.2021
945 Clouds 21 1019 68 10000 2.06 90 17:50 28.03.2021
946 Clouds 22 1019 64 10000 2.57 80 17:27 28.03.2021
947 Clouds 23 1019 60 10000 3.6 110 16:46 28.03.2021
948 Clouds 23 1019 60 10000 3.6 90 16:23 28.03.2021
949 Clouds 24 1019 57 10000 3.6 100 15:42 28.03.2021
950 Clouds 24 1019 57 10000 3.6 100 15:18 28.03.2021
951 Clouds 24 1019 57 10000 3.6 110 14:31 28.03.2021
952 Clouds 24 1018 57 10000 3.09 120 13:48 28.03.2021
953 Clouds 24 1018 57 10000 3.09 130 13:22 28.03.2021
954 Clouds 25 1017 53 10000 3.09 130 12:50 28.03.2021
955 Clouds 26 1017 47 10000 3.09 130 12:32 28.03.2021
956 Clouds 29 1016 44 10000 3.09 130 11:45 28.03.2021
957 Clouds 29 1016 39 10000 2.57 130 11:25 28.03.2021
958 Clouds 30 1016 32 10000 3.6 120 10:44 28.03.2021
959 Clouds 30 1016 30 10000 3.6 110 10:25 28.03.2021
960 Clouds 30 1016 32 10000 5.66 80 09:47 28.03.2021
961 Clouds 30 1016 32 10000 4.12 110 09:24 28.03.2021
962 Clouds 30 1016 35 10000 4.12 110 08:46 28.03.2021
963 Clouds 30 1016 35 10000 4.12 100 07:50 28.03.2021
964 Clear 30 1017 37 10000 3.6 90 06:40 28.03.2021
965 Clouds 29 1019 41 10000 5.66 90 03:55 28.03.2021
966 Clouds 24 1019 53 10000 6.17 90 00:53 28.03.2021
967 Clouds 23 1019 60 10000 4.12 100 00:20 28.03.2021
968 Clouds 21 1018 68 10000 2.06 100 23:40 27.03.2021
969 Clouds 20 1018 77 10000 2.06 120 22:57 27.03.2021
970 Clouds 20 1018 83 10000 1.03 130 22:36 27.03.2021
971 Clouds 20 1017 83 10000 0.51 130 21:56 27.03.2021
972 Clouds 20 1017 77 10000 2.06 130 21:36 27.03.2021
973 Clouds 20 1017 77 10000 2.06 130 21:18 27.03.2021
974 Clouds 21 1017 78 10000 3.09 140 20:38 27.03.2021
975 Clouds 21 1017 78 10000 3.09 140 20:19 27.03.2021
976 Clouds 21 1017 78 10000 3.09 140 20:19 27.03.2021
977 Clouds 21 1016 73 10000 0.51 110 19:42 27.03.2021
978 Clouds 21 1016 73 10000 0.51 110 19:23 27.03.2021
979 Clouds 21 1016 78 10000 0.51 90 18:48 27.03.2021
980 Clouds 22 1016 78 10000 2.57 100 18:27 27.03.2021
981 Clouds 21 1016 83 10000 2.06 100 17:45 27.03.2021
982 Clouds 21 1016 78 10000 1.54 120 17:23 27.03.2021
983 Clouds 21 1017 78 10000 1.03 130 16:48 27.03.2021
984 Clouds 21 1017 78 10000 2.57 130 16:28 27.03.2021
985 Clouds 22 1016 78 10000 2.56 102 15:48 27.03.2021
986 Clouds 27 1016 64 10000 2.06 40 15:22 27.03.2021
987 Clouds 27 1016 60 10000 2.57 60 14:45 27.03.2021
988 Clouds 28 1016 53 10000 2.57 80 13:44 27.03.2021
989 Clear 28 1016 47 10000 2.57 80 13:22 27.03.2021
990 Clear 28 1016 50 10000 2.57 90 12:50 27.03.2021
991 Clear 29 1015 39 10000 3.6 100 11:59 27.03.2021
992 Clear 29 1014 39 10000 2.57 90 11:39 27.03.2021
993 Clear 29 1014 39 10000 2.57 90 11:19 27.03.2021
994 Clear 30 1014 28 10000 2.57 110 10:42 27.03.2021
995 Clear 30 1014 28 10000 2.57 110 10:22 27.03.2021
996 Clear 31 1013 25 10000 3.09 100 09:28 27.03.2021
997 Clear 31 1013 23 10000 3.09 170 08:43 27.03.2021
998 Clear 31 1013 23 10000 3.09 170 08:20 27.03.2021
999 Clear 32 1013 25 10000 3.09 170 07:32 27.03.2021
1000 Clear 32 1013 25 10000 3.09 150 06:43 27.03.2021
1001 Clear 31 1015 25 10000 3.6 90 04:57 27.03.2021
1002 Clear 31 1015 25 10000 2.06 50 04:39 27.03.2021
1003 Clouds 28 1017 60 10000 1.03 210 00:48 27.03.2021
1004 Clouds 28 1017 60 10000 1.03 210 00:48 27.03.2021
1005 Clouds 23 1016 64 10000 3.97 4 00:27 27.03.2021
1006 Clouds 20 1016 88 10000 2.57 200 23:43 26.03.2021
1007 Clouds 19 1016 88 10000 2.62 5 22:45 26.03.2021
1008 Clouds 19 1015 94 10000 2.72 5 22:25 26.03.2021
1009 Clouds 19 1014 88 10000 1.54 200 21:25 26.03.2021
1010 Clouds 19 1014 88 10000 3.05 6 20:58 26.03.2021
1011 Clouds 20 1014 83 10000 3.05 6 20:32 26.03.2021
1012 Clouds 19 1014 88 10000 3.11 5 19:53 26.03.2021
1013 Clear 19 1014 88 10000 0.51 200 19:35 26.03.2021
1014 Clouds 19 1014 94 10000 2.06 200 18:59 26.03.2021
1015 Clouds 20 1014 77 10000 1.54 200 18:36 26.03.2021
1016 Clouds 20 1014 77 10000 1.54 200 18:18 26.03.2021
1017 Clouds 20 1014 83 10000 2.54 18 17:43 26.03.2021
1018 Clouds 21 1014 73 10000 2.94 27 16:53 26.03.2021
1019 Clouds 21 1014 78 10000 2.06 200 16:30 26.03.2021
1020 Clouds 21 1014 78 10000 1.54 120 15:43 26.03.2021
1021 Clouds 22 1014 73 10000 1.54 120 14:57 26.03.2021
1022 Clouds 23 1014 73 10000 1.54 60 14:20 26.03.2021
1023 Clouds 25 1014 47 10000 2.57 90 13:33 26.03.2021
1024 Clouds 29 1014 41 10000 2.57 70 12:48 26.03.2021
1025 Clouds 29 1013 41 10000 2.06 60 11:50 26.03.2021
1026 Clouds 29 1013 36 10000 2.57 60 11:31 26.03.2021
1027 Clouds 30 1012 32 10000 2.57 90 10:45 26.03.2021
1028 Clouds 30 1012 32 10000 2.57 110 10:24 26.03.2021
1029 Clouds 31 1012 22 10000 1.54 140 09:41 26.03.2021
1030 Clouds 32 1012 19 10000 2.06 270 08:51 26.03.2021
1031 Clouds 32 1012 19 10000 2.57 230 08:31 26.03.2021
1032 Clear 32 1012 18 10000 3.09 320 07:58 26.03.2021
1033 Clear 32 1012 18 10000 2.06 180 07:22 26.03.2021
1034 Clear 32 1012 21 10000 3.09 270 06:57 26.03.2021
1035 Clear 32 1012 24 10000 2.57 320 06:26 26.03.2021
1036 Clear 31 1013 22 10000 2.57 350 05:21 26.03.2021
1037 Clear 29 1015 41 10000 3.6 30 01:36 26.03.2021
1038 Clouds 24 1015 60 10000 0.51 100 00:23 26.03.2021
1039 Clouds 21 1015 78 10000 6.56 16 23:44 25.03.2021
1040 Clouds 18 1014 88 10000 2.06 330 22:50 25.03.2021
1041 Clouds 18 1014 94 10000 0.51 300 22:27 25.03.2021
1042 Clouds 18 1014 94 10000 0.51 270 21:49 25.03.2021
1043 Clouds 18 1014 94 10000 0.51 270 21:49 25.03.2021
1044 Clouds 18 1013 94 10000 4.24 14 21:31 25.03.2021
1045 Clouds 18 1013 88 10000 4.03 15 20:42 25.03.2021
1046 Clouds 18 1013 88 10000 3.75 15 20:24 25.03.2021
1047 Clouds 18 1013 94 10000 3.75 15 19:43 25.03.2021
1048 Clear 19 1013 88 10000 2.97 25 19:25 25.03.2021
1049 Clear 18 1013 94 10000 2.97 25 18:46 25.03.2021
1050 Clear 19 1013 88 10000 2.68 37 18:26 25.03.2021
1051 Clear 20 1013 83 10000 1.54 270 17:43 25.03.2021
1052 Clear 20 1013 83 10000 1.54 270 17:43 25.03.2021
1053 Clear 20 1013 83 10000 1.54 270 17:24 25.03.2021
1054 Clear 20 1014 88 10000 2.71 50 16:47 25.03.2021
1055 Clear 20 1014 88 10000 2.54 52 16:28 25.03.2021
1056 Clear 21 1014 83 10000 2.54 52 15:43 25.03.2021
1057 Clear 21 1014 73 10000 2.06 320 15:19 25.03.2021
1058 Clear 21 1014 78 10000 2.06 50 14:43 25.03.2021
1059 Clear 23 1014 73 10000 2.06 50 13:48 25.03.2021
1060 Clear 23 1014 64 10000 2.06 60 13:23 25.03.2021
1061 Clear 24 1013 57 10000 2.57 70 12:41 25.03.2021
1062 Clear 24 1013 57 10000 2.57 70 12:20 25.03.2021
1063 Clear 26 1013 41 10000 2.57 100 11:48 25.03.2021
1064 Clear 29 1013 44 10000 2.57 100 11:26 25.03.2021
1065 Clear 29 1012 39 10000 2.57 100 10:52 25.03.2021
1066 Clear 29 1012 34 10000 3.09 110 10:24 25.03.2021
1067 Clear 30 1012 30 10000 3.09 120 09:56 25.03.2021
1068 Clear 30 1011 30 10000 3.09 100 09:38 25.03.2021
1069 Clear 30 1011 26 10000 2.06 100 08:46 25.03.2021
1070 Clear 31 1011 29 10000 2.57 30 07:59 25.03.2021
1071 Clear 30 1012 30 10000 2.57 100 06:59 25.03.2021
1072 Clear 30 1012 30 10000 3.09 120 06:25 25.03.2021
1073 Clear 30 1012 28 10000 4.63 70 05:48 25.03.2021
1074 Clear 29 1015 44 10000 5.14 70 02:48 25.03.2021
1075 Clear 21 1015 78 10000 1.03 160 00:21 25.03.2021
1076 Clear 19 1015 88 10000 2.95 77 23:51 24.03.2021
1077 Clear 18 1014 94 10000 2.14 74 23:28 24.03.2021
1078 Clear 17 1014 94 10000 1.54 160 22:47 24.03.2021
1079 Clear 17 1014 94 10000 2.06 160 22:26 24.03.2021
1080 Clear 17 1013 94 10000 2.06 160 21:42 24.03.2021
1081 Clear 17 1013 94 6000 1.54 160 21:22 24.03.2021
1082 Mist 17 1013 94 2300 2.06 160 20:43 24.03.2021
1083 Clear 17 1013 100 6000 2.79 85 20:20 24.03.2021
1084 Clear 18 1013 94 10000 2.79 85 19:39 24.03.2021
1085 Mist 18 1012 94 1800 2.89 99 19:20 24.03.2021
1086 Clear 18 1013 94 10000 2.89 99 18:43 24.03.2021
1087 Clouds 18 1013 94 10000 3.04 111 18:20 24.03.2021
1088 Clouds 19 1013 88 10000 3.04 111 17:43 24.03.2021
1089 Clouds 19 1013 88 10000 3.33 122 17:25 24.03.2021
1090 Clouds 19 1013 88 10000 3.33 122 16:51 24.03.2021
1091 Clouds 20 1013 83 10000 2.06 160 16:27 24.03.2021
1092 Clouds 20 1013 83 10000 1.54 160 15:44 24.03.2021
1093 Clouds 21 1013 78 10000 4.05 130 15:25 24.03.2021
1094 Clouds 21 1014 78 10000 2.06 150 14:46 24.03.2021
1095 Clouds 21 1014 83 10000 4.69 131 14:24 24.03.2021
1096 Clouds 21 1013 83 10000 2.06 140 13:52 24.03.2021
1097 Clouds 22 1013 78 10000 2.57 120 13:27 24.03.2021
1098 Clouds 23 1013 68 10000 2.57 130 12:42 24.03.2021
1099 Clouds 23 1013 68 10000 2.57 130 12:21 24.03.2021
1100 Clouds 24 1011 64 10000 3.6 150 11:42 24.03.2021
1101 Clouds 25 1011 65 10000 3.09 140 10:58 24.03.2021
1102 Clouds 26 1011 57 10000 3.6 140 10:36 24.03.2021
1103 Clouds 29 1011 50 10000 4.12 150 09:58 24.03.2021
1104 Clouds 29 1011 50 10000 4.12 150 09:58 24.03.2021
1105 Clouds 29 1010 47 10000 4.12 150 09:38 24.03.2021
1106 Clouds 29 1010 47 10000 4.12 150 09:18 24.03.2021
1107 Clouds 29 1010 47 10000 4.12 150 08:47 24.03.2021
1108 Clouds 29 1010 47 10000 3.6 160 08:24 24.03.2021
1109 Clouds 29 1011 51 10000 3.6 130 07:31 24.03.2021
1110 Clouds 29 1011 57 10000 3.6 140 06:51 24.03.2021
1111 Clouds 25 1013 69 10000 2.57 170 03:21 24.03.2021
1112 Clouds 22 1014 78 10000 2.06 90 00:45 24.03.2021
1113 Clouds 20 1013 88 10000 1.54 70 23:53 23.03.2021
1114 Clouds 19 1012 100 10000 2.74 123 23:20 23.03.2021
1115 Clouds 18 1012 100 10000 2.74 123 22:51 23.03.2021
1116 Clouds 18 1012 100 10000 1.54 120 22:27 23.03.2021
1117 Clouds 18 1012 100 10000 1.54 120 21:47 23.03.2021
1118 Clouds 18 1011 100 10000 2.06 120 21:29 23.03.2021
1119 Clouds 19 1011 100 10000 2.46 98 20:47 23.03.2021
1120 Clouds 19 1011 100 10000 2.86 97 20:25 23.03.2021
1121 Clouds 19 1011 94 10000 2.86 97 19:50 23.03.2021
1122 Clouds 19 1011 100 10000 2.57 100 19:26 23.03.2021
1123 Clouds 20 1011 88 10000 2.52 108 18:47 23.03.2021
1124 Clouds 20 1011 94 10000 2.57 80 18:24 23.03.2021
1125 Clouds 20 1012 94 10000 1.54 90 17:50 23.03.2021
1126 Clouds 19 1012 100 10000 2.06 90 17:23 23.03.2021
1127 Clouds 20 1012 94 10000 1.54 70 16:59 23.03.2021
1128 Clouds 20 1012 94 10000 2.57 120 16:25 23.03.2021
1129 Clouds 20 1013 94 10000 2.57 100 15:47 23.03.2021
1130 Clouds 21 1013 88 10000 3.09 100 15:21 23.03.2021
1131 Clouds 21 1013 88 10000 5.14 100 14:40 23.03.2021
1132 Clouds 21 1013 88 10000 5.14 100 14:18 23.03.2021
1133 Clouds 21 1013 88 10000 4.12 100 13:43 23.03.2021
1134 Clouds 22 1012 83 10000 3.6 110 13:21 23.03.2021
1135 Clouds 22 1012 83 10000 3.09 120 12:43 23.03.2021
1136 Clouds 22 1012 83 10000 3.09 140 12:23 23.03.2021
1137 Clouds 23 1011 78 10000 4.12 140 11:47 23.03.2021
1138 Clouds 24 1010 73 10000 4.63 130 10:56 23.03.2021
1139 Clouds 24 1010 73 10000 4.63 130 10:56 23.03.2021
1140 Clouds 24 1010 73 10000 4.63 150 10:38 23.03.2021
1141 Clouds 24 1010 73 10000 4.63 150 10:20 23.03.2021
1142 Clouds 26 1009 65 10000 4.63 130 09:42 23.03.2021
1143 Clouds 26 1009 65 10000 4.63 130 09:21 23.03.2021
1144 Clouds 27 1009 65 10000 4.63 140 08:40 23.03.2021
1145 Clouds 29 1009 65 10000 4.63 140 08:22 23.03.2021
1146 Clouds 29 1009 65 10000 4.12 170 07:48 23.03.2021
1147 Clouds 29 1009 65 10000 4.63 170 07:20 23.03.2021
1148 Clouds 29 1010 69 10000 2.57 160 06:33 23.03.2021
1149 Clouds 23 1012 78 10000 2.57 110 03:23 23.03.2021
1150 Clouds 21 1013 94 10000 2.06 110 02:20 23.03.2021
1151 Clouds 19 1012 100 900 3.09 100 23:44 22.03.2021
1152 Mist 19 1012 100 1000 2.57 140 22:56 22.03.2021
1153 Fog 18 1012 100 600 2.57 140 22:38 22.03.2021
1154 Fog 18 1011 100 800 2.57 120 22:20 22.03.2021
1155 Mist 19 1011 100 1100 2.06 120 21:41 22.03.2021
1156 Mist 19 1011 100 5000 2.06 130 21:22 22.03.2021
1157 Clouds 19 1011 100 10000 3.09 120 20:41 22.03.2021
1158 Clouds 19 1011 100 10000 2.06 120 20:22 22.03.2021
1159 Clouds 19 1011 100 10000 3.09 120 19:54 22.03.2021
1160 Mist 19 1011 100 5000 3.09 120 19:31 22.03.2021
1161 Clouds 20 1011 94 4900 3.09 130 18:47 22.03.2021
1162 Clouds 20 1011 100 10000 2.06 140 18:29 22.03.2021
1163 Clouds 20 1011 100 10000 2.57 130 17:59 22.03.2021
1164 Clouds 20 1011 100 10000 2.57 130 17:41 22.03.2021
1165 Clouds 20 1012 100 10000 2.57 150 17:19 22.03.2021
1166 Clouds 20 1012 100 10000 2.06 140 16:44 22.03.2021
1167 Clouds 20 1012 100 10000 3.6 140 16:18 22.03.2021
1168 Clouds 21 1012 94 10000 3.09 160 15:38 22.03.2021
1169 Clouds 21 1012 94 10000 3.09 160 15:18 22.03.2021
1170 Clouds 21 1012 94 10000 3.09 140 14:50 22.03.2021
1171 Clouds 21 1013 94 10000 3.6 150 14:31 22.03.2021
1172 Clouds 22 1012 94 10000 2.06 130 13:47 22.03.2021
1173 Clouds 22 1012 94 10000 2.06 130 13:25 22.03.2021
1174 Clouds 22 1011 88 10000 2.57 140 12:53 22.03.2021
1175 Clouds 22 1011 88 10000 2.57 140 12:24 22.03.2021
1176 Clouds 22 1011 94 10000 2.57 150 11:48 22.03.2021
1177 Clouds 22 1011 94 10000 2.57 150 11:25 22.03.2021
1178 Rain 22 1010 94 10000 2.57 180 10:44 22.03.2021
1179 Rain 22 1010 94 10000 2.57 180 10:24 22.03.2021
1180 Clouds 23 1010 88 10000 3.09 180 09:44 22.03.2021
1181 Rain 23 1009 88 10000 3.09 180 09:23 22.03.2021
1182 Drizzle 23 1009 88 10000 4.63 200 08:45 22.03.2021
1183 Rain 24 1008 83 10000 3.6 170 08:25 22.03.2021
1184 Rain 24 1008 83 10000 4.12 190 07:46 22.03.2021
1185 Clouds 28 1008 78 10000 3.09 220 06:57 22.03.2021
1186 Rain 28 1009 83 10000 3.6 180 06:35 22.03.2021
1187 Clouds 21 1010 94 6000 1.54 150 02:47 22.03.2021
1188 Drizzle 19 1010 100 3200 2.06 140 00:33 22.03.2021
1189 Rain 19 1010 100 2700 2.06 140 23:54 21.03.2021
1190 Drizzle 19 1009 100 8000 2.06 140 23:20 21.03.2021
1191 Rain 19 1009 100 6000 2.07 70 22:56 21.03.2021
1192 Clouds 18 1009 100 10000 1.03 130 22:20 21.03.2021
1193 Clouds 18 1009 100 7000 3.09 140 21:41 21.03.2021
1194 Clouds 19 1009 100 6000 3.09 120 21:22 21.03.2021
1195 Clouds 18 1009 100 7000 3.09 160 20:44 21.03.2021
1196 Clouds 18 1009 100 3700 2.57 170 20:26 21.03.2021
1197 Clouds 19 1009 100 3300 3.09 160 19:54 21.03.2021
1198 Clouds 19 1009 100 4700 5.14 120 19:23 21.03.2021
1199 Clouds 19 1009 100 3900 2.06 140 18:53 21.03.2021
1200 Clouds 19 1009 100 6000 2.57 140 18:27 21.03.2021
1201 Rain 19 1009 100 3500 2.57 120 17:49 21.03.2021
1202 Rain 19 1010 100 10000 3.09 110 17:21 21.03.2021
1203 Rain 19 1010 100 10000 3.09 110 16:59 21.03.2021
1204 Clouds 19 1010 100 10000 3.09 110 16:41 21.03.2021
1205 Rain 19 1010 100 10000 3.6 110 16:22 21.03.2021
1206 Clouds 19 1011 100 10000 3.09 110 15:41 21.03.2021
1207 Clouds 19 1011 100 10000 3.09 120 15:20 21.03.2021
1208 Clouds 19 1011 100 10000 3.09 130 14:46 21.03.2021
1209 Rain 19 1011 100 7000 3.6 140 14:27 21.03.2021
1210 Clouds 19 1012 100 6000 3.09 140 13:54 21.03.2021
1211 Clouds 19 1012 100 6000 3.6 130 13:25 21.03.2021
1212 Clouds 19 1012 100 3000 3.09 140 12:42 21.03.2021
1213 Drizzle 19 1011 100 1500 4.63 140 12:23 21.03.2021
1214 Clouds 19 1011 100 10000 3.09 140 11:37 21.03.2021
1215 Rain 19 1011 100 10000 2.57 120 11:19 21.03.2021
1216 Rain 19 1011 100 10000 2.57 120 11:19 21.03.2021
1217 Clouds 19 1011 100 10000 3.6 130 10:42 21.03.2021
1218 Clouds 20 1011 94 10000 3.09 150 10:23 21.03.2021
1219 Clouds 19 1011 100 10000 2.57 150 09:46 21.03.2021
1220 Clouds 19 1010 100 10000 3.6 150 09:27 21.03.2021
1221 Clouds 19 1011 100 10000 3.09 140 08:40 21.03.2021
1222 Drizzle 19 1010 100 10000 3.09 130 08:21 21.03.2021
1223 Drizzle 19 1010 100 10000 3.09 130 08:21 21.03.2021
1224 Rain 19 1010 100 10000 2.57 130 07:38 21.03.2021
1225 Rain 19 1010 100 6000 3.09 140 06:56 21.03.2021
1226 Rain 19 1011 100 10000 3.6 130 05:45 21.03.2021
1227 Clouds 18 1014 100 10000 3.09 140 02:23 21.03.2021
1228 Clouds 18 1014 94 10000 4.63 160 00:42 21.03.2021
1229 Clouds 19 1014 82 10000 4.63 160 00:22 21.03.2021
1230 Clouds 19 1014 82 10000 5.14 170 23:48 20.03.2021
1231 Clouds 19 1013 82 10000 4.63 170 23:22 20.03.2021
1232 Clouds 18 1013 88 10000 4.12 160 22:55 20.03.2021
1233 Clouds 19 1013 82 10000 4.12 170 22:22 20.03.2021
1234 Clouds 19 1013 82 10000 4.12 170 21:47 20.03.2021
1235 Clouds 19 1012 82 10000 4.63 170 21:25 20.03.2021
1236 Rain 19 1012 82 10000 4.63 150 20:45 20.03.2021
1237 Rain 19 1012 82 10000 4.12 170 20:23 20.03.2021
1238 Rain 19 1012 77 10000 4.12 170 19:51 20.03.2021
1239 Rain 19 1012 82 10000 5.14 160 19:28 20.03.2021
1240 Clouds 20 1013 73 10000 4.12 150 18:50 20.03.2021
1241 Rain 20 1012 73 10000 6.17 160 18:27 20.03.2021
1242 Rain 20 1012 77 10000 4.12 160 17:56 20.03.2021
1243 Clouds 20 1013 77 10000 4.12 170 17:33 20.03.2021
1244 Drizzle 20 1013 83 10000 3.6 170 16:56 20.03.2021
1245 Rain 21 1013 73 10000 3.09 170 16:37 20.03.2021
1246 Rain 21 1013 73 10000 3.09 170 16:18 20.03.2021
1247 Clouds 21 1013 68 10000 3.6 180 15:39 20.03.2021
1248 Clouds 21 1013 68 10000 3.6 180 15:39 20.03.2021
1249 Clouds 22 1013 64 10000 4.12 180 14:53 20.03.2021
1250 Clouds 22 1013 64 10000 5.14 170 14:29 20.03.2021
1251 Rain 23 1013 56 10000 5.66 180 13:43 20.03.2021
1252 Clouds 24 1013 50 10000 2.57 140 13:21 20.03.2021
1253 Clouds 24 1013 53 10000 3.09 140 12:28 20.03.2021
1254 Clouds 24 1013 57 10000 3.09 120 11:50 20.03.2021
1255 Clouds 24 1013 53 10000 3.6 110 11:31 20.03.2021
1256 Clouds 24 1013 53 10000 3.09 100 10:57 20.03.2021
1257 Clouds 25 1012 47 10000 3.6 100 10:38 20.03.2021
1258 Clouds 25 1012 47 10000 3.6 100 10:38 20.03.2021
1259 Clouds 25 1012 47 10000 3.6 100 10:19 20.03.2021
1260 Clouds 26 1012 41 10000 4.63 110 09:42 20.03.2021
1261 Clouds 26 1012 41 10000 4.63 110 09:21 20.03.2021
1262 Clouds 26 1012 44 10000 3.6 90 08:45 20.03.2021
1263 Clouds 26 1012 44 10000 4.63 80 07:55 20.03.2021
1264 Clouds 26 1012 38 10000 5.66 100 07:32 20.03.2021
1265 Clouds 26 1012 38 10000 5.66 100 06:56 20.03.2021
1266 Clouds 26 1012 41 10000 4.12 120 06:27 20.03.2021
1267 Clouds 26 1014 44 10000 6.17 120 04:24 20.03.2021
1268 Clouds 25 1014 47 10000 6.69 150 03:42 20.03.2021
1269 Rain 22 1015 60 10000 3.6 160 00:36 20.03.2021
1270 Clouds 21 1015 68 10000 2.57 170 23:36 19.03.2021
1271 Clouds 20 1015 73 10000 2.57 180 22:59 19.03.2021
1272 Clouds 20 1015 73 10000 2.57 170 22:40 19.03.2021
1273 Clouds 20 1015 73 10000 2.57 170 22:22 19.03.2021
1274 Clouds 20 1014 68 10000 3.09 170 21:36 19.03.2021
1275 Clouds 20 1014 68 10000 3.09 170 21:18 19.03.2021
1276 Clouds 21 1014 64 10000 2.57 160 20:41 19.03.2021
1277 Clouds 21 1014 64 10000 2.57 160 20:22 19.03.2021
1278 Clouds 21 1014 64 10000 3.09 160 19:46 19.03.2021
1279 Clouds 21 1014 64 10000 3.09 170 19:20 19.03.2021
1280 Clouds 21 1014 68 10000 2.57 170 18:41 19.03.2021
1281 Clouds 21 1014 68 10000 2.57 170 18:20 19.03.2021
1282 Clouds 21 1014 64 10000 2.57 160 17:55 19.03.2021
1283 Clouds 21 1014 68 10000 2.57 150 17:32 19.03.2021
1284 Clouds 21 1015 64 10000 2.57 170 16:55 19.03.2021
1285 Clouds 21 1015 64 10000 2.57 180 16:31 19.03.2021
1286 Clouds 21 1015 64 10000 2.57 180 16:31 19.03.2021
1287 Clouds 21 1015 64 10000 2.57 190 15:56 19.03.2021
1288 Clouds 20 1016 68 10000 2.57 170 15:27 19.03.2021
1289 Clouds 21 1016 68 10000 2.57 160 14:47 19.03.2021
1290 Clouds 21 1016 64 10000 2.57 120 14:28 19.03.2021
1291 Clouds 22 1016 53 10000 2.06 110 13:42 19.03.2021
1292 Clouds 23 1016 46 10000 2.57 100 12:57 19.03.2021
1293 Clouds 23 1016 46 10000 2.57 100 12:37 19.03.2021
1294 Clouds 24 1015 43 10000 3.6 110 11:48 19.03.2021
1295 Clouds 25 1015 38 10000 4.63 110 10:54 19.03.2021
1296 Clouds 26 1014 34 10000 5.14 120 10:32 19.03.2021
1297 Clouds 26 1014 34 10000 6.17 110 09:58 19.03.2021
1298 Clouds 27 1014 32 10000 6.69 120 09:39 19.03.2021
1299 Clouds 27 1014 32 10000 6.69 120 09:19 19.03.2021
1300 Clouds 27 1014 29 10000 5.66 110 08:40 19.03.2021
1301 Clouds 27 1014 29 10000 5.66 110 08:21 19.03.2021
1302 Clouds 28 1014 30 10000 6.17 150 07:39 19.03.2021
1303 Clouds 27 1014 34 10000 7.2 110 06:52 19.03.2021
1304 Clouds 25 1016 33 10000 6.17 140 03:57 19.03.2021
1305 Clear 22 1017 53 10000 2.57 250 00:58 19.03.2021
1306 Clouds 18 1017 68 10000 1.54 330 23:49 18.03.2021
1307 Clouds 17 1016 77 10000 4.21 121 23:26 18.03.2021
1308 Clouds 17 1016 67 10000 1.54 140 22:39 18.03.2021
1309 Clouds 17 1016 67 10000 1.54 140 22:20 18.03.2021
1310 Clouds 15 1016 88 10000 4 122 21:39 18.03.2021
1311 Clouds 15 1016 88 10000 4.23 115 20:54 18.03.2021
1312 Clouds 15 1016 88 10000 0.51 90 20:35 18.03.2021
1313 Clouds 16 1016 77 10000 2.57 120 19:58 18.03.2021
1314 Clouds 17 1016 72 10000 2.57 120 19:40 18.03.2021
1315 Clouds 17 1016 72 10000 2.57 120 19:19 18.03.2021
1316 Clouds 17 1016 77 10000 3.09 140 18:35 18.03.2021
1317 Clouds 17 1016 77 10000 3.09 150 17:51 18.03.2021
1318 Clouds 18 1016 72 10000 1.54 140 17:26 18.03.2021
1319 Clouds 18 1016 72 10000 2.57 130 16:49 18.03.2021
1320 Clouds 19 1017 63 10000 5.57 111 16:30 18.03.2021
1321 Clouds 19 1017 63 10000 5.55 112 15:49 18.03.2021
1322 Clouds 20 1017 56 10000 2.57 110 15:29 18.03.2021
1323 Clouds 21 1016 49 10000 2.57 110 14:58 18.03.2021
1324 Clouds 21 1016 46 10000 2.57 130 14:40 18.03.2021
1325 Clouds 21 1016 46 10000 2.57 130 14:40 18.03.2021
1326 Clouds 21 1016 49 10000 2.57 120 13:54 18.03.2021
1327 Clouds 22 1016 43 10000 3.09 130 13:27 18.03.2021
1328 Clouds 23 1016 35 10000 3.6 130 12:46 18.03.2021
1329 Clouds 24 1016 33 10000 3.6 130 12:28 18.03.2021
1330 Clouds 25 1015 33 10000 3.6 120 11:55 18.03.2021
1331 Clouds 26 1015 31 10000 3.6 120 11:34 18.03.2021
1332 Clouds 27 1015 28 10000 4.12 120 10:49 18.03.2021
1333 Clouds 27 1015 28 10000 4.12 120 10:49 18.03.2021
1334 Clouds 27 1015 29 10000 5.14 120 10:28 18.03.2021
1335 Clouds 28 1014 28 10000 7.2 110 09:58 18.03.2021
1336 Clouds 30 1014 26 10000 6.17 120 09:30 18.03.2021
1337 Clouds 30 1014 24 10000 5.66 110 08:57 18.03.2021
1338 Clouds 30 1014 26 10000 6.17 120 08:33 18.03.2021
1339 Clouds 30 1014 26 10000 5.14 130 07:57 18.03.2021
1340 Clouds 30 1014 26 10000 6.17 140 07:39 18.03.2021
1341 Clouds 30 1015 26 10000 6.69 80 06:40 18.03.2021
1342 Clouds 30 1015 26 10000 6.69 80 06:19 18.03.2021
1343 Clear 29 1016 29 10000 6.69 70 04:27 18.03.2021
1344 Clouds 20 1018 45 10000 2.06 260 00:38 18.03.2021
1345 Clouds 14 1017 82 10000 1.54 300 23:18 17.03.2021
1346 Clouds 13 1016 76 10000 2.57 320 22:36 17.03.2021
1347 Clear 13 1016 76 10000 2.57 320 22:18 17.03.2021
1348 Clear 12 1016 87 10000 2.06 280 21:47 17.03.2021
1349 Clear 12 1016 87 10000 2.06 280 21:47 17.03.2021
1350 Clear 13 1016 82 10000 2.57 270 21:29 17.03.2021
1351 Clear 13 1016 88 10000 0.51 260 20:45 17.03.2021
1352 Clear 13 1016 88 10000 2.06 270 20:26 17.03.2021
1353 Clear 13 1015 88 10000 2.06 290 19:54 17.03.2021
1354 Clouds 14 1015 82 10000 2.75 126 19:25 17.03.2021
1355 Clouds 14 1015 82 10000 0.51 320 18:59 17.03.2021
1356 Clouds 14 1015 82 10000 0.51 320 18:59 17.03.2021
1357 Clouds 15 1016 77 10000 2.06 290 18:40 17.03.2021
1358 Clouds 14 1016 82 10000 1.54 310 17:58 17.03.2021
1359 Clouds 15 1016 72 10000 2.06 300 17:27 17.03.2021
1360 Clouds 15 1016 72 10000 1.54 290 16:57 17.03.2021
1361 Clouds 16 1016 67 10000 2.06 320 16:37 17.03.2021
1362 Clouds 16 1016 67 10000 2.06 320 16:19 17.03.2021
1363 Clouds 16 1016 72 10000 2.65 130 15:40 17.03.2021
1364 Clouds 17 1016 63 10000 2.52 119 14:46 17.03.2021
1365 Clouds 18 1016 52 10000 2.06 130 14:28 17.03.2021
1366 Clouds 18 1017 59 10000 2.57 140 13:56 17.03.2021
1367 Clouds 19 1016 48 10000 2.57 140 13:38 17.03.2021
1368 Clouds 19 1016 48 10000 3.09 150 12:59 17.03.2021
1369 Clouds 20 1016 42 10000 3.6 140 12:34 17.03.2021
1370 Clouds 22 1016 33 10000 3.09 110 11:54 17.03.2021
1371 Clouds 22 1016 33 10000 2.57 110 11:27 17.03.2021
1372 Clouds 24 1015 25 10000 3.6 130 10:59 17.03.2021
1373 Clouds 26 1015 19 10000 4.12 120 10:40 17.03.2021
1374 Clouds 27 1015 17 10000 4.12 130 09:59 17.03.2021
1375 Clouds 27 1015 18 10000 5.14 90 09:41 17.03.2021
1376 Clouds 27 1015 18 10000 5.14 90 09:19 17.03.2021
1377 Clouds 29 1015 14 10000 5.14 100 08:43 17.03.2021
1378 Clouds 29 1015 17 10000 5.66 110 08:24 17.03.2021
1379 Clouds 29 1015 14 10000 4.63 110 07:37 17.03.2021
1380 Clouds 27 1015 17 10000 4.63 110 06:47 17.03.2021
1381 Clear 26 1017 19 10000 4.63 120 04:27 17.03.2021
1382 Clouds 25 1018 19 10000 5.66 110 03:30 17.03.2021
1383 Clear 18 1019 55 10000 1.54 220 00:43 17.03.2021
1384 Clouds 17 1019 63 10000 0.51 220 00:20 17.03.2021
1385 Clouds 15 1019 72 10000 1.03 240 23:22 16.03.2021
1386 Clouds 13 1018 88 10000 1.54 280 22:43 16.03.2021
1387 Clouds 12 1018 94 10000 1.54 290 22:25 16.03.2021
1388 Clouds 13 1017 82 10000 1.54 300 21:42 16.03.2021
1389 Clouds 13 1017 82 10000 1.54 300 21:24 16.03.2021
1390 Clouds 13 1017 82 10000 1.54 270 20:47 16.03.2021
1391 Clouds 13 1017 82 10000 1.54 300 20:19 16.03.2021
1392 Clouds 13 1017 82 10000 1.54 300 20:19 16.03.2021
1393 Clouds 14 1017 72 10000 2.06 340 19:46 16.03.2021
1394 Clouds 14 1017 77 10000 2.57 310 19:27 16.03.2021
1395 Clouds 14 1017 77 10000 2.06 330 18:52 16.03.2021
1396 Clouds 14 1017 77 10000 2.06 130 18:30 16.03.2021
1397 Clouds 14 1017 77 10000 4.24 129 17:51 16.03.2021
1398 Clouds 14 1017 82 10000 4.24 129 17:33 16.03.2021
1399 Clouds 15 1018 72 10000 3.93 130 16:54 16.03.2021
1400 Clouds 15 1018 72 10000 3.93 130 16:54 16.03.2021
1401 Clouds 15 1018 72 10000 3.93 130 16:54 16.03.2021
1402 Clouds 15 1018 72 10000 3.93 130 16:54 16.03.2021
1403 Clouds 15 1018 72 10000 3.93 130 16:54 16.03.2021
1404 Clouds 15 1018 72 10000 3.93 130 16:54 16.03.2021
1405 Clouds 15 1018 72 10000 3.93 130 16:54 16.03.2021
1406 Clouds 14 1018 77 10000 1.03 130 16:31 16.03.2021
1407 Clouds 15 1018 77 10000 2.57 160 15:58 16.03.2021
1408 Clouds 16 1018 67 10000 2.06 180 15:37 16.03.2021
1409 Clouds 16 1018 67 10000 2.06 180 15:19 16.03.2021
1410 Clouds 16 1018 67 10000 2.06 180 15:19 16.03.2021
1411 Clouds 17 1018 59 10000 2.57 160 14:42 16.03.2021
1412 Clouds 17 1018 59 10000 2.57 160 14:22 16.03.2021
1413 Clouds 17 1018 59 10000 3.6 150 13:58 16.03.2021
1414 Clouds 18 1018 52 10000 3.09 150 13:29 16.03.2021
1415 Clouds 18 1018 52 10000 3.6 150 12:56 16.03.2021
1416 Clouds 18 1018 52 10000 3.6 150 12:56 16.03.2021
1417 Clouds 19 1018 39 10000 2.57 130 12:36 16.03.2021
1418 Clouds 20 1018 34 10000 2.57 130 11:56 16.03.2021
1419 Clouds 21 1017 30 10000 3.6 130 11:34 16.03.2021
1420 Clouds 23 1017 23 10000 3.6 130 10:49 16.03.2021
1421 Clouds 24 1017 22 10000 5.14 130 10:21 16.03.2021
1422 Clouds 25 1016 18 10000 5.14 130 09:40 16.03.2021
1423 Clouds 25 1016 18 10000 5.14 130 09:20 16.03.2021
1424 Clouds 25 1016 18 10000 6.17 120 08:53 16.03.2021
1425 Clouds 25 1016 18 10000 6.17 120 08:53 16.03.2021
1426 Clouds 25 1016 19 10000 5.14 120 08:35 16.03.2021
1427 Clouds 25 1016 20 10000 5.66 110 07:51 16.03.2021
1428 Clouds 25 1016 20 10000 5.14 120 07:24 16.03.2021
1429 Clouds 25 1017 23 10000 5.14 130 06:37 16.03.2021
1430 Clouds 24 1018 25 10000 4.63 140 05:36 16.03.2021
1431 Clear 22 1020 30 10000 6.17 130 02:46 16.03.2021
1432 Clear 21 1021 28 10000 6.17 130 02:25 16.03.2021
1433 Clouds 18 1021 42 10000 7.69 121 00:38 16.03.2021
1434 Clouds 16 1021 51 10000 7.47 123 23:53 15.03.2021
1435 Clouds 15 1020 58 10000 5.41 130 23:19 15.03.2021
1436 Clouds 13 1020 76 10000 5.41 130 22:42 15.03.2021
1437 Clouds 13 1020 76 10000 5.01 133 22:24 15.03.2021
1438 Clouds 13 1020 82 10000 5.01 133 21:48 15.03.2021
1439 Clouds 13 1019 76 10000 5.59 133 21:27 15.03.2021
1440 Clouds 14 1019 72 10000 5.59 133 20:48 15.03.2021
1441 Clouds 14 1019 72 10000 5.69 129 20:28 15.03.2021
1442 Clouds 15 1019 67 10000 5.69 129 19:58 15.03.2021
1443 Clouds 15 1019 72 10000 5.69 129 19:39 15.03.2021
1444 Clouds 15 1019 72 10000 6.29 129 19:21 15.03.2021
1445 Clouds 14 1020 82 10000 6.29 129 18:42 15.03.2021
1446 Clouds 14 1020 82 10000 7.05 133 18:22 15.03.2021
1447 Clouds 14 1020 82 10000 7.05 133 17:52 15.03.2021
1448 Clouds 14 1020 77 10000 7.6 134 17:22 15.03.2021
1449 Clouds 14 1020 77 10000 7.6 134 16:44 15.03.2021
1450 Clouds 15 1020 77 10000 7.46 133 16:18 15.03.2021
1451 Clouds 15 1020 72 10000 7.46 133 15:39 15.03.2021
1452 Clouds 15 1020 72 10000 7.21 134 15:20 15.03.2021
1453 Clouds 16 1020 72 10000 7.21 134 14:41 15.03.2021
1454 Clouds 16 1020 72 10000 6.72 135 14:20 15.03.2021
1455 Clouds 16 1021 77 10000 6.72 135 13:45 15.03.2021
1456 Clouds 17 1021 63 10000 5.45 130 13:24 15.03.2021
1457 Clouds 17 1021 59 10000 5.78 128 12:46 15.03.2021
1458 Clouds 18 1020 55 10000 5.65 127 12:18 15.03.2021
1459 Clouds 19 1020 45 10000 5.65 127 11:46 15.03.2021
1460 Clouds 19 1020 42 10000 6.07 127 11:26 15.03.2021
1461 Clouds 20 1020 37 10000 6.07 127 10:44 15.03.2021
1462 Clouds 21 1019 37 10000 7.49 127 10:24 15.03.2021
1463 Clouds 21 1019 35 10000 7.49 127 09:48 15.03.2021
1464 Clouds 22 1019 35 10000 8.05 126 09:29 15.03.2021
1465 Clouds 22 1019 37 10000 8.05 126 08:46 15.03.2021
1466 Clouds 22 1018 37 10000 8.45 125 08:27 15.03.2021
1467 Clouds 22 1018 40 10000 8.45 125 07:43 15.03.2021
1468 Clouds 22 1019 40 10000 6.69 110 07:22 15.03.2021
1469 Clear 22 1019 40 10000 6.69 100 06:21 15.03.2021
1470 Clouds 20 1022 49 10000 6.69 100 03:36 15.03.2021
1471 Clouds 16 1022 82 10000 4.12 100 00:50 15.03.2021
1472 Clouds 15 1022 94 10000 3.6 120 23:24 14.03.2021
1473 Clouds 15 1021 94 10000 3.09 120 22:57 14.03.2021
1474 Clouds 15 1021 94 10000 3.09 120 22:37 14.03.2021
1475 Clouds 15 1021 94 10000 3.09 120 22:18 14.03.2021
1476 Clouds 15 1021 94 10000 3.09 120 22:18 14.03.2021
1477 Clouds 15 1020 94 10000 3.09 120 21:38 14.03.2021
1478 Clouds 15 1020 94 10000 3.09 120 21:18 14.03.2021
1479 Clouds 15 1020 94 10000 2.57 90 20:41 14.03.2021
1480 Clouds 15 1020 94 10000 2.57 90 20:23 14.03.2021
1481 Clouds 15 1020 94 10000 1.54 140 19:42 14.03.2021
1482 Clouds 15 1020 94 10000 1.54 140 19:19 14.03.2021
1483 Clouds 14 1019 94 10000 3.09 100 18:37 14.03.2021
1484 Clouds 14 1020 94 10000 2.57 60 17:56 14.03.2021
1485 Clouds 14 1020 94 10000 2.06 80 17:37 14.03.2021
1486 Clouds 14 1020 94 10000 2.06 80 17:19 14.03.2021
1487 Clouds 14 1021 94 10000 1.54 120 16:40 14.03.2021
1488 Clouds 14 1021 94 10000 1.54 120 16:21 14.03.2021
1489 Clouds 14 1021 100 10000 3.09 90 15:48 14.03.2021
1490 Clouds 14 1022 100 6000 3.09 90 14:58 14.03.2021
1491 Clouds 14 1022 100 6000 3.09 90 14:58 14.03.2021
1492 Mist 14 1022 94 4200 3.6 120 14:31 14.03.2021
1493 Clouds 14 1022 100 10000 3.09 110 13:55 14.03.2021
1494 Clouds 14 1022 100 10000 3.09 110 13:36 14.03.2021
1495 Clouds 14 1022 94 7000 3.6 110 12:59 14.03.2021
1496 Mist 14 1021 100 5000 3.6 100 12:41 14.03.2021
1497 Clouds 14 1021 94 10000 4.63 110 12:22 14.03.2021
1498 Clouds 14 1021 94 10000 4.12 110 11:39 14.03.2021
1499 Drizzle 14 1021 94 10000 4.12 100 11:19 14.03.2021
1500 Clouds 14 1020 94 10000 4.63 100 10:38 14.03.2021
1501 Drizzle 14 1020 94 6000 4.63 110 10:20 14.03.2021
1502 Clouds 14 1019 100 10000 5.14 110 09:56 14.03.2021
1503 Clouds 14 1019 100 10000 5.14 110 09:38 14.03.2021
1504 Clouds 14 1019 100 3200 4.12 120 09:20 14.03.2021
1505 Clouds 14 1019 100 10000 4.63 100 08:36 14.03.2021
1506 Clouds 14 1019 94 10000 6.69 110 07:58 14.03.2021
1507 Clouds 14 1019 100 10000 5.66 120 07:27 14.03.2021
1508 Clouds 15 1019 94 10000 5.14 110 05:34 14.03.2021
1509 Clouds 16 1020 100 4200 5.66 130 01:25 14.03.2021
1510 Clouds 15 1020 100 4300 6.69 130 00:20 14.03.2021
1511 Rain 15 1020 100 4400 5.66 130 23:59 13.03.2021
1512 Clouds 15 1020 100 4400 5.66 130 23:38 13.03.2021
1513 Clouds 16 1019 100 4400 5.66 130 23:18 13.03.2021
1514 Clouds 16 1019 100 4900 6.17 130 22:44 13.03.2021
1515 Clouds 16 1018 100 4700 5.14 120 21:55 13.03.2021
1516 Clouds 16 1018 100 4700 5.14 120 21:55 13.03.2021
1517 Clouds 16 1018 100 4700 5.14 120 21:35 13.03.2021
1518 Rain 17 1017 100 6000 7.72 100 20:57 13.03.2021
1519 Clouds 17 1017 100 6000 7.72 110 20:37 13.03.2021
1520 Clouds 17 1017 100 5000 6.17 100 20:19 13.03.2021
1521 Clouds 18 1017 100 3600 5.66 110 19:38 13.03.2021
1522 Rain 18 1017 100 5000 4.63 110 19:19 13.03.2021
1523 Rain 18 1017 100 7000 6.69 110 18:40 13.03.2021
1524 Clouds 19 1016 94 5000 8.23 110 18:19 13.03.2021
1525 Clouds 19 1016 94 3800 6.69 130 17:46 13.03.2021
1526 Rain 20 1017 100 6000 4.63 100 17:27 13.03.2021
1527 Clouds 20 1017 100 10000 5.14 100 16:51 13.03.2021
1528 Clouds 20 1017 100 10000 5.66 110 16:31 13.03.2021
1529 Clouds 21 1017 94 5000 5.14 130 15:47 13.03.2021
1530 Clouds 21 1018 94 10000 2.06 130 14:54 13.03.2021
1531 Clouds 21 1018 94 10000 2.57 120 14:36 13.03.2021
1532 Clouds 21 1018 94 10000 3.09 130 13:55 13.03.2021
1533 Clouds 21 1018 94 10000 3.6 130 13:26 13.03.2021
1534 Clouds 22 1017 88 10000 4.12 160 12:48 13.03.2021
1535 Clouds 22 1017 94 10000 2.57 170 12:28 13.03.2021
1536 Clouds 22 1017 88 10000 3.6 170 11:51 13.03.2021
1537 Clouds 23 1016 88 10000 4.12 190 11:30 13.03.2021
1538 Clouds 23 1016 88 10000 4.12 190 11:30 13.03.2021
1539 Clouds 23 1016 88 10000 5.66 170 10:51 13.03.2021
1540 Clouds 24 1016 83 10000 3.09 130 10:30 13.03.2021
1541 Clouds 24 1015 78 10000 3.09 130 09:48 13.03.2021
1542 Clouds 24 1015 83 10000 2.57 80 09:24 13.03.2021
1543 Clouds 24 1014 83 10000 3.09 120 08:44 13.03.2021
1544 Rain 24 1014 78 10000 3.09 120 08:19 13.03.2021
1545 Clouds 24 1015 78 10000 3.6 150 07:54 13.03.2021
1546 Clouds 24 1015 78 10000 4.12 130 06:53 13.03.2021
1547 Clouds 23 1018 88 10000 3.6 140 02:55 13.03.2021
1548 Clouds 23 1017 88 10000 3.6 150 00:57 13.03.2021
1549 Clouds 24 1017 78 10000 3.09 160 23:59 12.03.2021
1550 Clouds 24 1016 78 10000 3.09 190 23:32 12.03.2021
1551 Clouds 24 1016 78 10000 3.6 220 22:43 12.03.2021
1552 Clouds 24 1015 73 10000 4.12 200 22:23 12.03.2021
1553 Clouds 24 1015 73 10000 4.63 190 21:45 12.03.2021
1554 Clouds 24 1015 73 10000 6.17 200 21:26 12.03.2021
1555 Clouds 25 1014 69 10000 6.17 200 20:56 12.03.2021
1556 Clouds 25 1014 65 10000 8.75 190 20:32 12.03.2021
1557 Clouds 28 1014 51 10000 4.63 230 19:59 12.03.2021
1558 Clouds 27 1013 57 10000 3.09 230 19:40 12.03.2021
1559 Clouds 27 1013 57 10000 3.09 230 19:21 12.03.2021
1560 Clouds 27 1012 57 10000 2.06 260 18:36 12.03.2021
1561 Clouds 29 1013 54 10000 3.09 280 17:50 12.03.2021
1562 Clouds 29 1013 54 10000 3.6 280 17:30 12.03.2021
1563 Clouds 29 1013 54 10000 3.09 270 16:59 12.03.2021
1564 Clouds 29 1013 51 10000 2.57 260 16:36 12.03.2021
1565 Clouds 30 1014 48 10000 5.14 250 15:52 12.03.2021
1566 Clouds 29 1014 48 10000 4.63 260 15:28 12.03.2021
1567 Clouds 29 1014 51 10000 4.12 250 14:48 12.03.2021
1568 Clouds 29 1014 51 10000 3.6 250 14:21 12.03.2021
1569 Clouds 28 1014 57 10000 2.57 280 13:44 12.03.2021
1570 Clouds 30 1014 54 10000 2.06 270 13:21 12.03.2021
1571 Clouds 29 1014 57 10000 2.57 240 12:57 12.03.2021
1572 Clouds 30 1014 51 10000 2.57 210 12:38 12.03.2021
1573 Clouds 30 1014 51 10000 2.57 210 12:19 12.03.2021
1574 Clouds 30 1013 51 10000 1.54 160 11:48 12.03.2021
1575 Clouds 30 1013 45 10000 3.09 330 11:21 12.03.2021
1576 Rain 30 1012 45 10000 4.12 290 10:48 12.03.2021
1577 Clouds 31 1012 40 10000 5.66 310 10:23 12.03.2021
1578 Clouds 31 1012 37 10000 4.63 320 09:48 12.03.2021
1579 Rain 33 1012 38 10000 4.12 320 09:19 12.03.2021
1580 Clouds 33 1012 35 10000 4.63 310 08:40 12.03.2021
1581 Clouds 32 1012 37 10000 5.66 330 07:51 12.03.2021
1582 Clouds 32 1012 37 10000 5.66 330 07:29 12.03.2021
1583 Clouds 35 1013 31 10000 2.57 230 06:44 12.03.2021
1584 Clouds 35 1014 31 10000 2.57 150 05:52 12.03.2021
1585 Clear 29 1017 61 10000 1.54 320 00:55 12.03.2021
1586 Clouds 29 1016 69 10000 2.06 340 23:56 11.03.2021
1587 Clouds 24 1016 83 10000 1.54 290 22:59 11.03.2021
1588 Clouds 24 1016 83 10000 1.54 290 22:59 11.03.2021
1589 Clouds 24 1015 83 10000 2.57 260 22:39 11.03.2021
1590 Clouds 24 1015 83 10000 2.57 260 22:19 11.03.2021
1591 Clouds 24 1015 83 10000 4.02 327 21:46 11.03.2021
1592 Clouds 24 1015 88 10000 0.51 220 21:24 11.03.2021
1593 Clouds 24 1015 83 10000 2.06 280 20:49 11.03.2021
1594 Clouds 24 1014 83 10000 2.06 330 20:22 11.03.2021
1595 Clouds 25 1014 83 10000 1.54 320 19:53 11.03.2021
1596 Clouds 25 1014 78 10000 2.57 360 19:34 11.03.2021
1597 Clouds 25 1014 83 10000 1.4 300 18:53 11.03.2021
1598 Clouds 25 1014 83 10000 1.4 300 18:53 11.03.2021
1599 Clouds 25 1014 83 10000 1.54 230 18:34 11.03.2021
1600 Clouds 24 1014 88 10000 1.03 240 17:53 11.03.2021
1601 Clouds 24 1015 88 10000 1.03 260 17:32 11.03.2021
1602 Clouds 26 1015 73 10000 3.09 300 16:34 11.03.2021
1603 Clouds 26 1015 73 10000 2.06 320 15:56 11.03.2021
1604 Clouds 26 1015 73 10000 2.57 350 15:37 11.03.2021
1605 Clouds 26 1015 73 10000 2.57 350 15:19 11.03.2021
1606 Clouds 26 1015 73 10000 1.54 190 14:43 11.03.2021
1607 Clouds 26 1015 73 10000 1.54 190 14:18 11.03.2021
1608 Clouds 26 1015 73 10000 2.06 220 13:43 11.03.2021
1609 Clouds 29 1015 65 10000 2.57 300 13:21 11.03.2021
1610 Clouds 29 1015 65 10000 2.57 240 12:50 11.03.2021
1611 Clouds 29 1015 65 10000 3.09 250 12:28 11.03.2021
1612 Clouds 29 1014 61 10000 4.63 250 11:46 11.03.2021
1613 Clouds 29 1014 61 10000 3.09 260 11:27 11.03.2021
1614 Clouds 29 1014 54 10000 6.17 250 10:50 11.03.2021
1615 Clouds 30 1014 54 10000 3.6 230 10:25 11.03.2021
1616 Clouds 30 1014 58 10000 3.6 190 09:50 11.03.2021
1617 Clouds 30 1013 54 10000 3.09 170 09:32 11.03.2021
1618 Clouds 31 1013 48 10000 2.06 170 08:49 11.03.2021
1619 Clouds 30 1013 51 10000 3.09 220 08:24 11.03.2021
1620 Clouds 29 1014 58 10000 4.12 190 07:44 11.03.2021
1621 Clouds 29 1014 61 10000 5.66 190 06:54 11.03.2021
1622 Clouds 29 1014 51 10000 7.72 160 06:36 11.03.2021
1623 Clouds 33 1014 43 10000 3.6 310 06:18 11.03.2021
1624 Clouds 30 1016 51 10000 2.06 160 02:20 11.03.2021
1625 Clouds 28 1016 78 10000 2.06 60 23:58 10.03.2021
1626 Clear 24 1016 78 10000 4.12 20 23:22 10.03.2021
1627 Clear 24 1015 83 10000 3.6 20 22:40 10.03.2021
1628 Clear 23 1015 83 10000 2.06 360 21:57 10.03.2021
1629 Clear 23 1014 88 10000 2.57 350 21:38 10.03.2021
1630 Clear 23 1014 88 10000 2.57 350 21:20 10.03.2021
1631 Clear 22 1015 94 10000 5.14 310 20:42 10.03.2021
1632 Clear 22 1015 94 10000 5.14 310 20:21 10.03.2021
1633 Clouds 22 1014 88 10000 6.69 190 19:40 10.03.2021
1634 Clouds 22 1014 88 10000 6.69 190 19:40 10.03.2021
1635 Clouds 22 1014 88 10000 6.69 190 19:21 10.03.2021
1636 Clouds 22 1014 88 10000 6.69 190 19:21 10.03.2021
1637 Clouds 22 1016 88 6000 5.66 270 18:42 10.03.2021
1638 Clouds 25 1016 61 10000 5.14 170 18:23 10.03.2021
1639 Clouds 24 1014 64 10000 8.23 110 17:42 10.03.2021
1640 Clouds 24 1014 64 10000 8.23 110 17:21 10.03.2021
1641 Clouds 27 1014 50 10000 7.72 120 16:55 10.03.2021
1642 Clouds 27 1014 50 10000 7.72 120 16:37 10.03.2021
1643 Clouds 27 1014 50 10000 4.63 50 16:18 10.03.2021
1644 Clouds 26 1015 57 10000 6.17 90 15:39 10.03.2021
1645 Clouds 29 1015 57 10000 6.17 90 15:21 10.03.2021
1646 Clouds 29 1015 57 10000 8.23 90 14:38 10.03.2021
1647 Clouds 29 1015 57 10000 8.23 90 14:19 10.03.2021
1648 Clouds 30 1014 45 10000 3.6 70 13:35 10.03.2021
1649 Clouds 31 1013 42 10000 7.72 330 12:56 10.03.2021
1650 Clouds 31 1013 37 10000 4.63 330 12:32 10.03.2021
1651 Clouds 31 1012 40 10000 6.69 340 11:58 10.03.2021
1652 Clouds 32 1012 27 10000 2.57 250 11:30 10.03.2021
1653 Clouds 33 1011 26 10000 2.06 230 10:56 10.03.2021
1654 Clouds 32 1010 26 10000 0.51 260 10:34 10.03.2021
1655 Clouds 33 1010 26 10000 2.57 230 09:57 10.03.2021
1656 Clouds 33 1010 26 10000 3.6 70 09:39 10.03.2021
1657 Clouds 33 1010 26 10000 3.6 70 09:19 10.03.2021
1658 Clouds 33 1010 24 10000 3.09 200 08:45 10.03.2021
1659 Clouds 36 1010 24 10000 3.09 210 08:27 10.03.2021
1660 Clouds 36 1011 26 10000 2.06 330 07:46 10.03.2021
1661 Clouds 36 1011 28 10000 3.6 180 07:25 10.03.2021
1662 Clouds 36 1011 28 10000 3.6 210 06:52 10.03.2021
1663 Clear 31 1016 42 10000 4.12 290 02:45 10.03.2021
1664 Clear 29 1016 51 10000 3.09 300 00:39 10.03.2021
1665 Clear 29 1015 54 10000 3.6 290 23:45 09.03.2021
1666 Clear 25 1014 69 10000 3.09 310 22:56 09.03.2021
1667 Clear 25 1014 69 10000 2.57 320 22:37 09.03.2021
1668 Clear 25 1014 69 10000 2.57 320 22:18 09.03.2021
1669 Clear 26 1014 65 10000 4.63 290 21:42 09.03.2021
1670 Clear 26 1014 65 10000 4.63 290 21:20 09.03.2021
1671 Clear 26 1013 65 10000 4.63 310 20:55 09.03.2021
1672 Clear 26 1013 61 10000 2.57 270 20:36 09.03.2021
1673 Clear 26 1013 61 10000 2.57 270 20:18 09.03.2021
1674 Clear 26 1013 61 10000 2.57 220 19:43 09.03.2021
1675 Clouds 26 1013 61 10000 2.57 220 19:24 09.03.2021
1676 Clouds 25 1013 65 10000 2.06 330 18:40 09.03.2021
1677 Clouds 25 1013 65 10000 2.06 330 18:18 09.03.2021
1678 Rain 25 1013 65 10000 0.51 260 17:45 09.03.2021
1679 Clouds 25 1013 69 10000 2.06 290 17:24 09.03.2021
1680 Clouds 26 1014 65 10000 2.57 340 16:40 09.03.2021
1681 Clouds 26 1014 65 10000 2.57 340 16:21 09.03.2021
1682 Clouds 26 1014 65 10000 3.6 300 15:56 09.03.2021
1683 Clouds 26 1014 65 10000 2.57 310 15:25 09.03.2021
1684 Clouds 26 1014 69 10000 3.6 300 14:49 09.03.2021
1685 Rain 26 1014 69 10000 4.63 330 14:26 09.03.2021
1686 Clouds 26 1014 65 10000 6.69 350 13:42 09.03.2021
1687 Clouds 29 1014 65 10000 6.69 350 13:21 09.03.2021
1688 Clouds 29 1014 61 10000 7.2 350 12:54 09.03.2021
1689 Clouds 29 1013 61 10000 8.75 330 12:35 09.03.2021
1690 Clouds 30 1013 51 10000 9.77 350 11:43 09.03.2021
1691 Clouds 32 1011 31 10000 5.14 50 11:22 09.03.2021
1692 Clouds 33 1010 20 10000 4.63 90 10:58 09.03.2021
1693 Clouds 33 1009 21 10000 4.63 110 10:39 09.03.2021
1694 Clouds 33 1009 21 10000 4.63 110 10:20 09.03.2021
1695 Clouds 33 1009 20 10000 3.6 70 09:45 09.03.2021
1696 Clouds 33 1009 21 10000 2.06 100 09:26 09.03.2021
1697 Clouds 33 1009 20 10000 3.09 150 08:48 09.03.2021
1698 Clouds 36 1009 20 10000 3.09 220 08:29 09.03.2021
1699 Clouds 36 1009 20 10000 5.14 80 07:41 09.03.2021
1700 Clouds 36 1009 20 10000 5.14 80 07:22 09.03.2021
1701 Clouds 36 1009 19 10000 3.09 330 06:44 09.03.2021
1702 Clear 36 1011 21 10000 6.17 50 05:48 09.03.2021
1703 Clouds 29 1014 32 10000 3.6 130 00:59 09.03.2021
1704 Clouds 26 1014 34 10000 2.06 170 23:45 08.03.2021
1705 Clouds 24 1013 38 10000 2.57 190 23:27 08.03.2021
1706 Clouds 22 1013 43 10000 1.54 190 22:58 08.03.2021
1707 Clouds 22 1012 43 10000 1.54 230 22:40 08.03.2021
1708 Clouds 22 1012 43 10000 1.54 230 22:21 08.03.2021
1709 Clouds 22 1012 40 10000 2.06 160 21:43 08.03.2021
1710 Clouds 23 1012 38 10000 2.57 150 21:24 08.03.2021
1711 Clouds 25 1011 33 10000 4.12 150 20:39 08.03.2021
1712 Clouds 25 1011 33 10000 4.12 150 20:19 08.03.2021
1713 Clouds 25 1011 33 10000 3.6 130 19:38 08.03.2021
1714 Clouds 26 1011 31 10000 3.6 140 18:48 08.03.2021
1715 Clouds 26 1011 31 10000 4.12 130 18:23 08.03.2021
1716 Clouds 26 1011 31 10000 2.06 90 17:59 08.03.2021
1717 Clouds 26 1011 31 10000 2.06 60 17:39 08.03.2021
1718 Clouds 29 1011 29 10000 2.06 120 16:59 08.03.2021
1719 Clouds 29 1011 28 10000 3.09 110 16:40 08.03.2021
1720 Clouds 29 1011 28 10000 3.09 110 16:21 08.03.2021
1721 Clouds 30 1011 28 10000 2.06 40 15:38 08.03.2021
1722 Clouds 30 1011 28 10000 2.06 40 15:18 08.03.2021
1723 Clouds 30 1011 25 10000 2.57 120 14:21 08.03.2021
1724 Clouds 30 1011 25 10000 2.57 110 13:47 08.03.2021
1725 Clouds 30 1010 26 10000 2.57 120 13:23 08.03.2021
1726 Clouds 30 1009 25 10000 3.09 110 12:55 08.03.2021
1727 Clouds 31 1009 23 10000 3.09 110 12:29 08.03.2021
1728 Clouds 31 1009 22 10000 4.12 130 11:45 08.03.2021
1729 Clouds 32 1008 21 10000 4.12 140 11:20 08.03.2021
1730 Clouds 32 1008 21 10000 4.63 160 10:47 08.03.2021
1731 Clouds 32 1007 20 10000 5.14 160 10:28 08.03.2021
1732 Clouds 33 1007 18 10000 5.66 150 09:45 08.03.2021
1733 Clouds 33 1007 18 10000 5.66 170 09:25 08.03.2021
1734 Clouds 33 1007 19 10000 4.63 200 08:31 08.03.2021
1735 Clouds 33 1007 19 10000 5.66 150 07:49 08.03.2021
1736 Clouds 33 1007 20 10000 4.12 200 07:21 08.03.2021
1737 Clear 34 1009 20 10000 3.6 190 05:19 08.03.2021
1738 Clear 30 1010 26 10000 4.12 190 01:28 08.03.2021
1739 Clear 30 1010 26 10000 4.12 190 01:28 08.03.2021
1740 Clouds 29 1010 36 10000 4.63 200 00:38 08.03.2021
1741 Clouds 26 1010 38 10000 3.6 190 23:51 07.03.2021
1742 Clouds 25 1010 38 10000 2.57 210 23:20 07.03.2021
1743 Clouds 23 1009 38 10000 1.54 230 22:45 07.03.2021
1744 Clouds 23 1009 35 10000 2.57 250 22:26 07.03.2021
1745 Clouds 23 1009 35 10000 3.09 250 21:49 07.03.2021
1746 Clouds 23 1008 31 10000 2.57 240 21:30 07.03.2021
1747 Clouds 23 1008 31 10000 2.57 260 20:50 07.03.2021
1748 Clouds 25 1008 27 10000 3.09 240 20:32 07.03.2021
1749 Clouds 26 1008 24 10000 4.12 220 19:59 07.03.2021
1750 Clouds 27 1008 24 10000 3.6 210 19:39 07.03.2021
1751 Clouds 27 1008 24 10000 3.6 210 19:21 07.03.2021
1752 Clouds 28 1008 23 10000 4.12 210 18:47 07.03.2021
1753 Clouds 28 1007 24 10000 5.14 210 18:20 07.03.2021
1754 Clouds 29 1007 34 10000 5.14 240 17:45 07.03.2021
1755 Clouds 30 1007 34 10000 5.66 240 17:21 07.03.2021
1756 Clouds 30 1008 32 10000 7.2 260 16:59 07.03.2021
1757 Clouds 30 1008 32 10000 7.2 260 16:59 07.03.2021
1758 Clouds 30 1008 30 10000 6.17 270 16:39 07.03.2021
1759 Clouds 30 1008 30 10000 6.17 270 16:39 07.03.2021
1760 Clouds 30 1008 30 10000 6.17 270 16:20 07.03.2021
1761 Clouds 30 1008 30 10000 6.17 270 16:20 07.03.2021
1762 Clouds 30 1008 30 10000 7.2 260 15:45 07.03.2021
1763 Clouds 31 1008 29 10000 6.17 270 15:24 07.03.2021
1764 Clouds 31 1007 29 10000 3.6 210 14:39 07.03.2021
1765 Clouds 31 1007 29 10000 3.6 210 14:20 07.03.2021
1766 Clouds 31 1007 29 10000 6.69 190 13:41 07.03.2021
1767 Clouds 31 1007 29 10000 6.69 190 13:21 07.03.2021
1768 Clouds 32 1007 21 6000 8.23 200 12:47 07.03.2021
1769 Clouds 32 1007 21 6000 8.23 200 12:47 07.03.2021
1770 Clouds 32 1006 11 10000 4.63 360 12:28 07.03.2021
1771 Clouds 32 1006 11 10000 3.6 60 11:49 07.03.2021
1772 Clouds 32 1005 12 10000 3.6 70 11:22 07.03.2021
1773 Clouds 32 1005 13 10000 3.09 60 10:44 07.03.2021
1774 Clouds 36 1005 12 10000 2.85 226 10:26 07.03.2021
1775 Clouds 37 1004 12 10000 3.6 350 09:44 07.03.2021
1776 Clouds 37 1004 12 10000 3.6 350 09:25 07.03.2021
1777 Clouds 38 1004 10 10000 4.63 40 08:46 07.03.2021
1778 Clouds 37 1004 11 10000 3.09 30 08:24 07.03.2021
1779 Clouds 37 1005 9 10000 3.6 10 07:51 07.03.2021
1780 Clouds 37 1005 9 10000 3.6 10 07:51 07.03.2021
1781 Clouds 31 1010 11 10000 2.06 360 02:43 07.03.2021
1782 Clouds 29 1010 17 10000 1.54 240 01:19 07.03.2021
1783 Clouds 28 1010 22 10000 2.06 260 23:50 06.03.2021
1784 Clouds 24 1010 23 10000 1.54 230 23:30 06.03.2021
1785 Clouds 24 1009 23 10000 0.79 326 22:48 06.03.2021
1786 Clouds 24 1009 23 10000 1.03 90 22:29 06.03.2021
1787 Clouds 24 1008 22 10000 2.06 100 21:58 06.03.2021
1788 Clouds 24 1008 22 10000 2.57 120 21:22 06.03.2021
1789 Clouds 24 1008 23 10000 2.06 40 20:53 06.03.2021
1790 Clouds 24 1008 23 10000 0.51 90 20:33 06.03.2021
1791 Clouds 25 1007 23 10000 0.51 20 19:50 06.03.2021
1792 Clouds 24 1007 23 10000 3.45 24 19:22 06.03.2021
1793 Clouds 25 1008 20 10000 0.51 360 18:56 06.03.2021
1794 Clouds 25 1008 20 10000 3.45 24 18:37 06.03.2021
1795 Clouds 25 1008 20 10000 3.41 27 18:18 06.03.2021
1796 Clouds 25 1008 20 10000 3.41 27 17:44 06.03.2021
1797 Clouds 25 1008 20 10000 2.9 42 17:22 06.03.2021
1798 Clouds 26 1008 19 10000 2.06 10 16:43 06.03.2021
1799 Clouds 26 1008 18 10000 2.57 30 16:25 06.03.2021
1800 Clouds 26 1009 19 10000 2.57 20 15:51 06.03.2021
1801 Clouds 28 1009 20 10000 2.57 40 15:31 06.03.2021
1802 Clouds 29 1009 18 10000 2.57 50 14:53 06.03.2021
1803 Clouds 29 1009 16 10000 2.06 60 14:29 06.03.2021
1804 Clouds 29 1009 16 10000 2.06 60 14:29 06.03.2021
1805 Clouds 30 1009 15 10000 2.57 50 13:41 06.03.2021
1806 Clear 30 1009 15 10000 2.57 50 13:20 06.03.2021
1807 Clear 31 1009 13 10000 3.09 80 12:44 06.03.2021
1808 Clear 31 1009 12 10000 3.6 80 12:20 06.03.2021
1809 Clear 32 1009 13 10000 3.6 80 11:54 06.03.2021
1810 Clear 32 1009 12 10000 3.6 90 11:21 06.03.2021
1811 Clear 32 1008 12 10000 4.12 100 10:48 06.03.2021
1812 Clear 33 1008 11 10000 4.12 90 10:19 06.03.2021
1813 Clear 33 1008 10 10000 4.12 100 09:46 06.03.2021
1814 Clear 35 1008 10 10000 4.12 130 09:20 06.03.2021
1815 Clear 36 1008 10 10000 4.12 100 08:40 06.03.2021
1816 Clear 36 1008 10 10000 4.63 80 07:57 06.03.2021
1817 Clouds 37 1008 9 10000 5.14 90 07:24 06.03.2021
1818 Clouds 36 1008 9 10000 3.6 100 06:58 06.03.2021
1819 Clouds 35 1010 8 10000 3.09 140 05:34 06.03.2021
1820 Clouds 35 1010 8 10000 3.09 140 05:34 06.03.2021
1821 Clouds 31 1012 9 10000 4.63 30 02:38 06.03.2021
1822 Clear 29 1012 12 10000 4.63 10 00:48 06.03.2021
1823 Clear 23 1012 17 10000 3.92 63 23:53 05.03.2021
1824 Clear 21 1012 19 10000 1.54 250 23:29 05.03.2021
1825 Clear 18 1011 25 10000 1.54 250 22:48 05.03.2021
1826 Clear 17 1011 25 10000 0.51 190 22:23 05.03.2021
1827 Clear 18 1011 24 10000 2.24 60 21:54 05.03.2021
1828 Clear 18 1010 25 10000 2.24 60 21:34 05.03.2021
1829 Clear 18 1010 22 10000 2.28 63 20:55 05.03.2021
1830 Clear 18 1010 22 10000 1.54 280 20:37 05.03.2021
1831 Clear 18 1010 22 10000 1.54 280 20:19 05.03.2021
1832 Clear 19 1010 20 10000 1.54 230 19:33 05.03.2021
1833 Clear 20 1010 19 10000 3.49 75 18:59 05.03.2021
1834 Clear 21 1010 17 10000 3.49 75 18:41 05.03.2021
1835 Clear 21 1010 17 10000 3.13 84 18:21 05.03.2021
1836 Clear 22 1011 16 10000 2.06 110 17:37 05.03.2021
1837 Clear 22 1011 17 10000 2.06 110 16:51 05.03.2021
1838 Clear 22 1011 16 10000 2.06 50 16:26 05.03.2021
1839 Clear 22 1012 16 10000 2.06 30 15:59 05.03.2021
1840 Clear 24 1012 14 10000 2.57 30 15:41 05.03.2021
1841 Clear 24 1012 14 10000 2.57 30 15:22 05.03.2021
1842 Clear 26 1012 11 10000 2.57 80 14:38 05.03.2021
1843 Clear 26 1012 12 10000 2.57 90 13:59 05.03.2021
1844 Clear 26 1012 12 10000 2.57 90 13:59 05.03.2021
1845 Clear 27 1012 12 10000 3.6 110 13:22 05.03.2021
1846 Clear 28 1012 11 10000 3.09 100 12:55 05.03.2021
1847 Clear 30 1011 9 10000 3.6 110 11:58 05.03.2021
1848 Clear 31 1011 9 10000 3.6 110 11:37 05.03.2021
1849 Clear 31 1011 9 10000 3.6 110 11:18 05.03.2021
1850 Clear 32 1010 8 10000 4.63 120 10:41 05.03.2021
1851 Clear 32 1010 8 10000 4.63 120 10:23 05.03.2021
1852 Clear 32 1010 8 10000 5.66 110 09:49 05.03.2021
1853 Clear 32 1010 8 10000 5.14 130 09:26 05.03.2021
1854 Clear 33 1009 8 10000 6.17 120 08:43 05.03.2021
1855 Clear 35 1009 8 10000 6.17 120 08:24 05.03.2021
1856 Clear 35 1010 8 10000 4.63 100 07:44 05.03.2021
1857 Clear 35 1010 8 10000 4.63 130 07:20 05.03.2021
1858 Clear 34 1010 8 10000 4.63 120 06:31 05.03.2021
1859 Clear 30 1014 9 10000 5.14 60 01:59 05.03.2021
1860 Clear 29 1014 11 10000 6.69 50 00:46 05.03.2021
1861 Clear 24 1014 14 10000 2.06 60 23:37 04.03.2021
1862 Clear 21 1014 21 10000 2.57 110 22:40 04.03.2021
1863 Clear 21 1014 21 10000 2.57 110 22:22 04.03.2021
1864 Clear 21 1013 21 10000 2.57 100 21:47 04.03.2021
1865 Clear 22 1013 21 10000 2.57 60 21:27 04.03.2021
1866 Clear 23 1012 20 10000 3.09 60 20:41 04.03.2021
1867 Clear 23 1012 20 10000 3.09 60 20:22 04.03.2021
1868 Clear 23 1012 21 10000 3.6 80 19:54 04.03.2021
1869 Clouds 23 1012 25 10000 3.6 80 19:31 04.03.2021
1870 Clear 24 1012 23 10000 4.63 70 18:59 04.03.2021
1871 Clear 24 1012 23 10000 4.63 70 18:59 04.03.2021
1872 Clear 25 1012 22 10000 3.6 70 18:38 04.03.2021
1873 Clear 25 1012 22 10000 3.6 70 18:19 04.03.2021
1874 Clear 26 1013 21 10000 4.12 70 17:42 04.03.2021
1875 Clear 26 1013 21 10000 4.12 70 17:20 04.03.2021
1876 Clear 27 1013 21 10000 4.63 70 16:44 04.03.2021
1877 Clear 27 1013 21 10000 4.63 70 16:44 04.03.2021
1878 Clear 27 1013 21 10000 4.63 70 16:44 04.03.2021
1879 Clear 27 1013 21 10000 4.63 70 16:44 04.03.2021
1880 Clear 27 1013 22 10000 4.12 60 16:24 04.03.2021
1881 Clear 28 1013 21 10000 4.63 80 15:48 04.03.2021
1882 Clear 28 1013 23 10000 3.6 70 15:29 04.03.2021
1883 Clear 29 1012 21 10000 3.09 70 14:44 04.03.2021
1884 Clear 30 1012 20 10000 4.63 90 14:18 04.03.2021
1885 Clear 31 1012 19 10000 4.12 90 13:42 04.03.2021
1886 Clear 31 1012 19 10000 4.12 90 13:22 04.03.2021
1887 Clear 31 1012 18 10000 5.14 100 12:42 04.03.2021
1888 Clear 31 1012 18 10000 5.14 100 12:18 04.03.2021
1889 Clear 32 1011 16 10000 4.63 100 11:40 04.03.2021
1890 Clear 32 1011 16 10000 4.63 100 11:20 04.03.2021
1891 Clear 32 1011 15 10000 5.66 100 10:37 04.03.2021
1892 Clear 35 1011 15 10000 5.66 100 10:18 04.03.2021
1893 Clear 37 1010 13 10000 5.66 100 09:32 04.03.2021
1894 Clear 36 1010 14 10000 5.14 90 08:53 04.03.2021
1895 Clear 36 1010 14 10000 3.6 110 08:31 04.03.2021
1896 Clear 37 1010 13 10000 5.66 100 07:46 04.03.2021
1897 Clouds 37 1011 13 10000 5.66 120 06:50 04.03.2021
1898 Clear 37 1011 13 10000 4.63 70 06:21 04.03.2021
1899 Clear 32 1014 18 10000 6.17 60 02:39 04.03.2021
1900 Clouds 30 1015 21 10000 8.75 70 00:31 04.03.2021
1901 Clouds 23 1014 31 10000 2.06 70 22:39 03.03.2021
1902 Clouds 23 1014 31 10000 2.06 70 22:21 03.03.2021
1903 Clouds 26 1013 25 10000 2.57 80 21:42 03.03.2021
1904 Clouds 26 1013 25 10000 2.57 80 21:23 03.03.2021
1905 Clouds 26 1013 25 10000 2.57 70 20:55 03.03.2021
1906 Clouds 27 1012 24 10000 3.6 60 20:36 03.03.2021
1907 Clouds 27 1012 24 10000 3.6 60 20:36 03.03.2021
1908 Clear 28 1012 23 10000 4.63 70 19:54 03.03.2021
1909 Clear 27 1012 22 10000 4.12 70 19:36 03.03.2021
1910 Clear 27 1012 22 10000 4.12 70 19:18 03.03.2021
1911 Clear 27 1011 24 10000 3.6 30 18:40 03.03.2021
1912 Clear 29 1011 23 10000 4.12 70 17:58 03.03.2021
1913 Clear 29 1012 24 10000 3.09 80 17:22 03.03.2021
1914 Clear 29 1012 26 10000 2.57 70 16:58 03.03.2021
1915 Clear 29 1011 24 10000 3.09 50 16:28 03.03.2021
1916 Clear 29 1012 24 10000 2.57 80 15:59 03.03.2021
1917 Clear 30 1012 20 10000 2.57 100 15:33 03.03.2021
1918 Clear 30 1012 21 10000 2.06 70 14:51 03.03.2021
1919 Clear 30 1012 21 10000 2.06 70 14:28 03.03.2021
1920 Clear 31 1011 18 10000 3.6 70 13:48 03.03.2021
1921 Clouds 31 1011 18 10000 3.09 80 13:29 03.03.2021
1922 Clouds 32 1011 16 10000 3.09 80 12:43 03.03.2021
1923 Clouds 35 1011 14 10000 3.6 90 12:23 03.03.2021
1924 Clouds 36 1010 14 10000 4.12 90 11:46 03.03.2021
1925 Clouds 36 1010 14 10000 4.12 100 11:27 03.03.2021
1926 Rain 37 1010 12 10000 4.63 100 10:46 03.03.2021
1927 Clouds 38 1009 13 10000 4.12 110 10:23 03.03.2021
1928 Clouds 38 1009 12 10000 4.12 110 09:45 03.03.2021
1929 Clouds 40 1009 11 10000 5.66 80 08:57 03.03.2021
1930 Clouds 39 1009 12 10000 2.57 150 08:39 03.03.2021
1931 Clouds 39 1009 12 10000 2.57 150 08:18 03.03.2021
1932 Clouds 40 1009 11 10000 2.57 210 07:39 03.03.2021
1933 Clear 40 1010 11 10000 4.12 140 06:46 03.03.2021
1934 Clear 39 1010 12 10000 5.14 150 05:44 03.03.2021
1935 Clear 39 1011 12 10000 3.6 10 04:49 03.03.2021
1936 Clear 39 1011 14 10000 3.09 30 04:24 03.03.2021
1937 Clear 33 1013 24 10000 5.66 20 00:37 03.03.2021
1938 Clear 30 1012 30 8000 6.84 64 23:35 02.03.2021
1939 Clear 28 1012 31 10000 1.54 130 22:53 02.03.2021
1940 Clear 25 1012 31 10000 2.06 90 22:23 02.03.2021
1941 Clear 24 1012 33 10000 1.54 80 21:56 02.03.2021
1942 Clear 25 1011 33 10000 2.06 40 21:36 02.03.2021
1943 Clear 26 1011 29 10000 2.57 10 20:58 02.03.2021
1944 Clear 26 1011 29 10000 3.6 30 20:40 02.03.2021
1945 Clear 26 1011 29 10000 3.6 30 20:21 02.03.2021
1946 Clear 25 1011 29 10000 3.6 40 19:47 02.03.2021
1947 Clear 30 1011 24 10000 2.57 80 19:28 02.03.2021
1948 Clear 30 1011 23 10000 1.54 170 18:42 02.03.2021
1949 Clear 30 1011 23 10000 1.54 170 18:22 02.03.2021
1950 Clear 29 1011 24 10000 2.06 200 17:58 02.03.2021
1951 Clear 29 1011 24 10000 2.57 230 17:39 02.03.2021
1952 Clear 29 1011 24 10000 2.57 230 17:19 02.03.2021
1953 Clear 29 1011 24 10000 2.57 230 17:19 02.03.2021
1954 Clear 29 1011 24 10000 3.28 73 16:45 02.03.2021
1955 Clear 30 1011 21 10000 1.54 40 15:54 02.03.2021
1956 Clear 30 1011 20 10000 2.06 30 15:27 02.03.2021
1957 Clear 30 1011 20 10000 3.17 111 14:49 02.03.2021
1958 Clear 30 1011 19 10000 3.88 112 14:18 02.03.2021
1959 Clear 30 1011 19 10000 3.88 112 14:18 02.03.2021
1960 Clear 31 1011 18 10000 3.09 120 13:44 02.03.2021
1961 Clear 31 1010 16 10000 3.09 120 13:23 02.03.2021
1962 Clear 31 1010 17 10000 3.09 110 12:45 02.03.2021
1963 Clear 32 1010 14 10000 3.6 120 12:25 02.03.2021
1964 Clear 32 1010 14 10000 3.09 120 11:45 02.03.2021
1965 Rain 33 1009 12 10000 3.6 110 11:22 02.03.2021
1966 Clouds 33 1009 12 10000 4.12 100 10:49 02.03.2021
1967 Clouds 38 1009 12 10000 5.66 110 10:25 02.03.2021
1968 Rain 39 1008 10 10000 6.17 90 09:41 02.03.2021
1969 Rain 39 1008 10 10000 6.17 90 09:22 02.03.2021
1970 Clouds 39 1008 10 10000 4.12 70 08:43 02.03.2021
1971 Clouds 39 1008 10 10000 4.12 70 08:25 02.03.2021
1972 Clouds 40 1008 9 10000 4.12 110 07:41 02.03.2021
1973 Clear 39 1009 11 10000 3.6 140 06:36 02.03.2021
1974 Clear 39 1009 11 10000 3.6 40 05:46 02.03.2021
1975 Clear 39 1009 11 10000 3.6 40 05:46 02.03.2021
1976 Clear 39 1010 10 10000 6.17 70 05:28 02.03.2021
1977 Clear 34 1012 18 10000 6.17 40 01:47 02.03.2021
1978 Clear 32 1012 18 10000 6.17 40 01:28 02.03.2021
1979 Clear 32 1012 18 10000 6.17 40 01:28 02.03.2021
1980 Clear 31 1013 19 10000 6.17 50 00:52 02.03.2021
1981 Clear 24 1012 29 10000 1.54 290 23:29 01.03.2021
1982 Clear 21 1012 32 10000 2.06 290 22:43 01.03.2021
1983 Clear 21 1012 30 10000 2.06 280 22:23 01.03.2021
1984 Clear 20 1012 32 10000 2.57 280 21:51 01.03.2021
1985 Clear 20 1012 34 10000 1.54 280 21:24 01.03.2021
1986 Clear 21 1012 30 10000 2.06 300 20:49 01.03.2021
1987 Clear 21 1012 30 10000 1.54 280 20:28 01.03.2021
1988 Clear 21 1011 30 10000 2.06 290 19:56 01.03.2021
1989 Clouds 22 1012 28 10000 2.06 280 19:34 01.03.2021
1990 Clouds 22 1012 28 10000 2.06 280 18:59 01.03.2021
1991 Clouds 22 1012 28 10000 2.57 270 18:36 01.03.2021
1992 Clouds 22 1012 28 10000 2.57 270 18:18 01.03.2021
1993 Clouds 23 1012 25 10000 2.06 260 17:41 01.03.2021
1994 Clear 23 1012 25 10000 2.06 260 17:19 01.03.2021
1995 Clear 23 1012 25 10000 2.06 260 17:19 01.03.2021
1996 Clear 24 1012 23 10000 2.06 260 16:43 01.03.2021
1997 Clear 24 1012 23 10000 2.06 260 16:24 01.03.2021
1998 Clear 25 1012 22 10000 3.45 86 15:41 01.03.2021
1999 Clear 28 1012 22 10000 3.88 98 15:20 01.03.2021
2000 Clear 29 1012 19 10000 3.88 98 14:47 01.03.2021
2001 Clear 29 1012 18 10000 4.09 109 14:28 01.03.2021
2002 Rain 30 1011 14 10000 3.09 90 13:40 01.03.2021
2003 Clear 30 1011 14 10000 3.09 90 13:22 01.03.2021
2004 Clear 31 1011 12 10000 3.09 80 12:52 01.03.2021
2005 Clear 31 1011 12 10000 3.6 90 12:32 01.03.2021
2006 Clear 31 1011 12 10000 3.09 100 11:59 01.03.2021
2007 Clear 32 1010 12 10000 4.12 100 11:38 01.03.2021
2008 Clear 33 1010 10 10000 4.63 100 10:44 01.03.2021
2009 Clear 36 1010 10 10000 4.63 120 10:23 01.03.2021
2010 Clear 37 1010 9 10000 5.14 90 09:56 01.03.2021
2011 Clear 37 1009 9 10000 5.66 100 09:38 01.03.2021
2012 Clear 37 1009 9 10000 5.66 100 09:20 01.03.2021
2013 Clear 38 1009 10 10000 5.66 120 08:44 01.03.2021
2014 Clear 38 1009 10 10000 7.72 110 07:50 01.03.2021
2015 Clear 39 1010 8 10000 7.2 110 06:51 01.03.2021
2016 Clear 35 1013 10 10000 3.09 100 02:49 01.03.2021
2017 Clear 29 1013 18 10000 2.06 170 00:37 01.03.2021
2018 Clear 22 1012 26 10000 2.06 260 23:26 28.02.2021
2019 Clear 19 1012 32 10000 2.57 230 22:45 28.02.2021
2020 Clear 18 1012 34 10000 2.57 230 22:21 28.02.2021
2021 Clear 18 1012 34 10000 2.57 230 22:21 28.02.2021
2022 Clear 18 1011 32 10000 3.6 270 21:48 28.02.2021
2023 Haze 18 1011 32 5000 0.51 240 21:25 28.02.2021
2024 Clear 19 1011 30 10000 2.68 24 20:52 28.02.2021
2025 Clear 21 1010 24 10000 2.68 24 20:34 28.02.2021
2026 Clear 20 1011 28 10000 2.7 41 19:47 28.02.2021
2027 Clear 22 1011 23 10000 2.57 90 19:28 28.02.2021
2028 Clear 23 1011 20 10000 3.09 110 18:47 28.02.2021
2029 Clear 24 1011 19 10000 2.57 110 18:28 28.02.2021
2030 Clear 25 1011 18 10000 2.57 30 17:58 28.02.2021
2031 Clear 25 1011 18 10000 3.09 30 17:38 28.02.2021
2032 Clear 25 1011 18 10000 3.09 30 17:20 28.02.2021
2033 Clear 25 1011 18 10000 3.09 40 16:48 28.02.2021
2034 Clear 25 1011 18 10000 3.09 40 16:30 28.02.2021
2035 Clear 25 1011 18 10000 3.09 40 16:30 28.02.2021
2036 Clear 25 1011 18 10000 3.09 40 15:52 28.02.2021
2037 Clear 25 1011 18 10000 3.09 40 15:28 28.02.2021
2038 Clear 26 1011 17 10000 3.09 50 14:58 28.02.2021
2039 Clear 27 1011 14 10000 3.09 70 14:35 28.02.2021
2040 Clear 30 1011 13 10000 3.6 70 13:59 28.02.2021
2041 Clear 30 1011 13 10000 3.6 80 13:38 28.02.2021
2042 Clear 30 1011 13 10000 3.6 80 13:19 28.02.2021
2043 Clear 31 1010 12 10000 3.6 90 12:53 28.02.2021
2044 Clear 31 1010 12 10000 3.6 90 12:35 28.02.2021
2045 Clear 32 1009 10 10000 4.12 90 11:57 28.02.2021
2046 Clear 32 1009 11 10000 3.6 100 11:39 28.02.2021
2047 Clear 32 1009 11 10000 3.6 100 11:19 28.02.2021
2048 Clear 33 1009 10 10000 3.6 110 10:43 28.02.2021
2049 Clear 36 1008 9 10000 3.6 130 10:25 28.02.2021
2050 Clear 37 1008 9 10000 3.6 130 09:40 28.02.2021
2051 Clear 37 1008 9 10000 3.6 130 09:20 28.02.2021
2052 Clear 37 1008 9 10000 4.12 80 08:45 28.02.2021
2053 Clear 37 1008 9 10000 7.72 130 08:25 28.02.2021
2054 Clear 38 1008 8 10000 4.63 150 07:46 28.02.2021
2055 Clear 38 1008 8 10000 7.2 120 07:25 28.02.2021
2056 Clear 37 1009 9 10000 3.6 160 06:24 28.02.2021
2057 Clear 37 1010 9 10000 3.09 130 05:20 28.02.2021
2058 Clear 32 1012 12 10000 2.57 120 02:29 28.02.2021
2059 Clear 30 1012 14 10000 1.54 140 01:28 28.02.2021
2060 Clear 29 1012 17 10000 0.51 210 00:40 28.02.2021
2061 Clear 23 1012 23 10000 1.54 190 23:51 27.02.2021
2062 Clear 20 1012 26 10000 1.03 40 23:22 27.02.2021
2063 Clear 17 1011 31 10000 2.36 25 22:50 27.02.2021
2064 Clear 17 1011 31 10000 1.03 360 22:25 27.02.2021
2065 Clear 19 1011 27 10000 1.03 120 21:59 27.02.2021
2066 Clear 17 1011 31 10000 2.57 140 21:38 27.02.2021
2067 Clear 17 1011 31 10000 1.54 330 20:58 27.02.2021
2068 Clear 18 1010 29 10000 1.03 300 20:39 27.02.2021
2069 Clear 18 1010 29 10000 1.03 300 20:21 27.02.2021
2070 Clear 19 1010 26 10000 3.35 32 19:43 27.02.2021
2071 Clear 19 1010 26 10000 3.35 32 19:43 27.02.2021
2072 Clear 20 1011 24 10000 1.54 60 19:23 27.02.2021
2073 Clear 22 1011 20 10000 3.09 40 18:41 27.02.2021
2074 Clear 22 1011 20 10000 3.09 40 18:20 27.02.2021
2075 Clear 23 1011 20 10000 2.06 50 17:44 27.02.2021
2076 Clear 22 1011 20 10000 2.06 90 17:20 27.02.2021
2077 Clear 24 1011 19 10000 3.09 50 16:53 27.02.2021
2078 Clear 25 1011 16 10000 4.12 40 16:32 27.02.2021
2079 Clear 24 1011 17 10000 3.6 30 15:57 27.02.2021
2080 Clear 24 1011 17 10000 3.6 50 15:38 27.02.2021
2081 Clear 25 1011 16 10000 3.09 60 14:49 27.02.2021
2082 Clear 25 1011 16 10000 3.09 60 14:30 27.02.2021
2083 Clear 26 1010 15 10000 2.57 60 13:50 27.02.2021
2084 Clear 29 1010 14 10000 3.09 80 13:27 27.02.2021
2085 Clear 30 1010 12 10000 3.09 80 12:55 27.02.2021
2086 Clear 30 1009 13 10000 3.09 90 12:28 27.02.2021
2087 Clear 31 1009 11 10000 3.6 90 11:56 27.02.2021
2088 Clear 31 1008 11 10000 3.6 100 11:38 27.02.2021
2089 Clear 31 1008 11 10000 3.6 100 11:18 27.02.2021
2090 Clear 32 1008 10 10000 2.06 140 10:41 27.02.2021
2091 Clear 32 1008 10 10000 2.06 140 10:18 27.02.2021
2092 Clear 32 1008 10 10000 2.06 140 10:18 27.02.2021
2093 Clear 33 1007 10 10000 3.6 140 09:43 27.02.2021
2094 Clear 35 1007 10 10000 3.6 140 09:21 27.02.2021
2095 Clear 35 1007 8 10000 3.09 280 08:39 27.02.2021
2096 Clear 35 1007 8 10000 3.09 280 08:19 27.02.2021
2097 Clear 36 1007 9 10000 4.63 150 07:34 27.02.2021
2098 Clear 31 1011 11 10000 3.09 50 02:56 27.02.2021
2099 Clear 28 1012 16 10000 3.09 30 00:35 27.02.2021
2100 Clear 19 1011 27 10000 4.73 51 23:51 26.02.2021
2101 Clear 19 1011 27 10000 3.17 46 23:25 26.02.2021
2102 Clear 15 1011 36 10000 3.17 46 22:42 26.02.2021
2103 Clear 15 1011 36 10000 2.82 55 22:23 26.02.2021
2104 Clear 15 1010 36 10000 2.82 55 21:37 26.02.2021
2105 Clear 16 1010 31 10000 2.71 58 20:59 26.02.2021
2106 Clear 16 1010 31 10000 2.71 58 20:41 26.02.2021
2107 Clear 16 1010 31 10000 2.79 57 20:20 26.02.2021
2108 Clear 17 1010 29 10000 2.83 58 19:27 26.02.2021
2109 Clear 17 1010 29 10000 2.99 57 18:58 26.02.2021
2110 Clear 18 1009 25 10000 2.06 40 18:38 26.02.2021
2111 Clear 18 1009 25 10000 2.06 40 18:19 26.02.2021
2112 Clear 22 1010 17 10000 2.57 50 17:38 26.02.2021
2113 Clear 22 1010 17 10000 2.57 50 17:19 26.02.2021
2114 Clear 22 1010 17 10000 3.09 50 16:48 26.02.2021
2115 Clear 21 1010 19 10000 3.09 40 16:30 26.02.2021
2116 Clear 21 1011 19 10000 3.09 30 15:48 26.02.2021
2117 Clear 21 1011 19 10000 2.57 60 15:29 26.02.2021
2118 Clear 22 1011 17 10000 2.57 40 14:59 26.02.2021
2119 Clear 23 1011 16 10000 2.57 60 14:37 26.02.2021
2120 Clear 23 1011 16 10000 2.57 60 14:18 26.02.2021
2121 Clear 25 1010 14 10000 3.09 80 13:39 26.02.2021
2122 Clear 25 1010 14 10000 3.09 80 13:20 26.02.2021
2123 Clear 25 1010 14 10000 3.09 80 13:20 26.02.2021
2124 Clear 26 1010 13 10000 3.09 80 12:33 26.02.2021
2125 Clear 27 1010 12 10000 3.09 80 11:47 26.02.2021
2126 Clear 28 1009 12 10000 3.6 100 11:28 26.02.2021
2127 Clear 30 1009 10 10000 3.6 110 10:45 26.02.2021
2128 Clear 31 1008 11 10000 3.09 100 09:49 26.02.2021
2129 Clear 31 1008 10 10000 4.12 120 09:29 26.02.2021
2130 Clear 31 1008 10 10000 3.6 170 08:51 26.02.2021
2131 Clear 31 1008 10 10000 5.14 140 08:18 26.02.2021
2132 Clear 31 1008 10 10000 3.6 90 07:27 26.02.2021
2133 Clear 31 1009 11 10000 5.14 100 06:35 26.02.2021
2134 Clear 31 1009 11 10000 4.63 60 05:21 26.02.2021
2135 Clear 29 1012 13 10000 4.63 70 02:54 26.02.2021
2136 Clear 23 1012 17 10000 2.57 60 00:36 26.02.2021
2137 Clear 18 1012 25 10000 5.2 80 23:41 25.02.2021
2138 Clear 18 1012 25 10000 3.02 73 23:21 25.02.2021
2139 Clear 14 1011 35 10000 1.03 130 22:42 25.02.2021
2140 Clear 14 1011 38 10000 2.57 120 21:58 25.02.2021
2141 Clear 14 1011 38 10000 2.06 150 21:35 25.02.2021
2142 Clear 15 1011 33 10000 3.34 62 20:58 25.02.2021
2143 Clear 14 1011 35 10000 2.06 50 20:38 25.02.2021
2144 Clear 14 1011 35 10000 2.06 50 20:20 25.02.2021
2145 Clear 15 1011 31 10000 2.57 50 19:49 25.02.2021
2146 Clear 16 1011 29 10000 1.54 40 19:21 25.02.2021
2147 Clear 17 1011 27 10000 2.06 40 18:48 25.02.2021
2148 Clear 17 1011 27 10000 2.06 50 18:18 25.02.2021
2149 Clear 19 1012 24 10000 3.09 50 17:42 25.02.2021
2150 Clear 19 1012 24 10000 3.09 50 17:23 25.02.2021
2151 Clear 20 1012 24 10000 2.06 20 16:35 25.02.2021
2152 Clear 20 1012 21 10000 2.57 80 15:55 25.02.2021
2153 Clear 22 1013 20 10000 3.09 90 15:28 25.02.2021
2154 Clear 22 1013 20 10000 2.57 70 14:40 25.02.2021
2155 Clear 22 1013 20 10000 2.57 70 14:21 25.02.2021
2156 Clear 22 1013 18 10000 2.57 90 13:44 25.02.2021
2157 Clear 24 1012 16 10000 3.09 90 13:23 25.02.2021
2158 Clear 26 1012 13 10000 3.6 110 12:39 25.02.2021
2159 Clear 26 1012 13 10000 3.6 110 12:20 25.02.2021
2160 Clear 26 1012 14 10000 3.6 110 11:43 25.02.2021
2161 Clear 28 1011 12 10000 5.14 110 10:54 25.02.2021
2162 Clear 29 1011 11 10000 5.14 110 10:36 25.02.2021
2163 Clear 30 1010 10 10000 5.66 120 09:48 25.02.2021
2164 Clear 30 1010 10 10000 6.17 90 09:28 25.02.2021
2165 Clear 31 1010 11 10000 5.66 130 08:46 25.02.2021
2166 Clear 31 1010 11 10000 4.63 110 08:21 25.02.2021
2167 Clear 31 1010 11 10000 6.69 90 07:42 25.02.2021
2168 Clear 30 1011 10 10000 6.17 50 06:58 25.02.2021
2169 Clear 30 1012 11 10000 5.14 130 05:29 25.02.2021
2170 Clear 26 1014 12 10000 6.17 60 01:50 25.02.2021
2171 Clear 26 1014 12 10000 6.17 60 01:50 25.02.2021
2172 Clear 22 1014 18 10000 4.12 80 00:48 25.02.2021
2173 Clear 22 1014 18 10000 4.12 80 00:20 25.02.2021
2174 Clear 16 1014 33 10000 5.5 100 23:36 24.02.2021
2175 Clear 14 1014 41 10000 2.57 130 22:56 24.02.2021
2176 Clear 13 1014 44 10000 2.06 150 22:30 24.02.2021
2177 Clear 14 1013 41 10000 2.49 107 21:50 24.02.2021
2178 Clear 13 1013 41 10000 0.51 320 21:31 24.02.2021
2179 Clear 14 1013 38 10000 2.46 111 20:50 24.02.2021
2180 Clear 15 1013 38 10000 2.58 107 20:28 24.02.2021
2181 Clear 14 1013 38 10000 2.58 107 19:43 24.02.2021
2182 Clear 15 1012 36 10000 0.51 140 19:21 24.02.2021
2183 Clear 16 1013 31 10000 3.06 103 18:54 24.02.2021
2184 Clear 16 1013 31 10000 3.06 103 18:31 24.02.2021
2185 Clear 17 1013 29 10000 1.54 80 17:42 24.02.2021
2186 Clear 17 1013 29 10000 1.54 80 17:23 24.02.2021
2187 Clear 18 1013 25 10000 2.06 50 16:48 24.02.2021
2188 Clear 19 1013 24 10000 1.54 20 16:21 24.02.2021
2189 Clear 19 1014 24 10000 2.06 50 15:55 24.02.2021
2190 Clear 21 1013 19 10000 2.57 110 15:32 24.02.2021
2191 Clear 21 1013 21 10000 3.6 120 14:47 24.02.2021
2192 Clear 22 1013 20 10000 3.6 110 14:28 24.02.2021
2193 Clear 24 1013 16 10000 3.6 120 13:43 24.02.2021
2194 Clear 24 1013 16 10000 3.6 120 13:23 24.02.2021
2195 Clear 25 1013 15 10000 4.12 120 12:57 24.02.2021
2196 Clear 26 1013 13 10000 4.12 120 12:35 24.02.2021
2197 Clear 27 1012 13 10000 4.12 110 11:56 24.02.2021
2198 Clear 27 1012 14 10000 4.63 110 11:31 24.02.2021
2199 Clear 29 1011 13 10000 5.14 120 10:41 24.02.2021
2200 Clear 30 1011 13 10000 5.14 120 10:22 24.02.2021
2201 Clear 31 1011 11 10000 6.17 120 09:26 24.02.2021
2202 Clear 31 1011 11 10000 6.17 120 08:45 24.02.2021
2203 Clear 31 1011 12 10000 7.2 130 08:24 24.02.2021
2204 Clear 31 1011 12 10000 7.2 130 08:24 24.02.2021
2205 Clear 31 1011 11 10000 6.69 130 07:37 24.02.2021
2206 Clear 31 1011 11 10000 6.69 130 07:18 24.02.2021
2207 Clear 30 1013 13 10000 6.69 130 05:22 24.02.2021
2208 Clear 24 1016 25 10000 6.69 100 00:47 24.02.2021
2209 Clear 21 1015 32 10000 5.14 100 23:38 23.02.2021
2210 Clear 19 1015 39 10000 3.6 110 22:45 23.02.2021
2211 Clear 17 1015 45 10000 1.54 100 22:22 23.02.2021
2212 Clear 18 1015 42 10000 3.6 120 21:47 23.02.2021
2213 Clear 18 1015 42 10000 3.6 110 21:24 23.02.2021
2214 Clear 18 1014 45 10000 2.57 110 20:50 23.02.2021
2215 Clear 18 1014 45 10000 3.09 160 20:30 23.02.2021
2216 Clear 18 1014 45 10000 2.57 150 19:57 23.02.2021
2217 Clear 18 1014 45 10000 2.57 140 19:38 23.02.2021
2218 Clear 18 1014 45 10000 2.57 140 19:19 23.02.2021
2219 Clear 19 1014 42 10000 2.57 90 18:43 23.02.2021
2220 Clear 19 1015 39 10000 1.54 30 18:21 23.02.2021
2221 Clear 21 1015 35 10000 2.06 20 17:48 23.02.2021
2222 Clear 21 1015 35 10000 1.54 90 17:25 23.02.2021
2223 Clear 22 1016 33 10000 2.57 90 16:43 23.02.2021
2224 Clear 23 1016 28 10000 3.09 110 16:21 23.02.2021
2225 Clear 23 1016 28 10000 3.09 110 16:21 23.02.2021
2226 Clear 24 1016 27 10000 3.09 110 15:44 23.02.2021
2227 Clear 25 1016 25 10000 4.12 110 15:25 23.02.2021
2228 Clear 26 1016 24 10000 4.12 120 14:46 23.02.2021
2229 Clear 26 1016 24 10000 4.63 120 14:27 23.02.2021
2230 Clear 27 1015 22 10000 5.14 120 13:56 23.02.2021
2231 Clear 27 1015 22 10000 4.12 130 13:34 23.02.2021
2232 Clear 27 1015 22 10000 4.12 130 12:56 23.02.2021
2233 Clear 28 1014 21 10000 4.12 120 12:23 23.02.2021
2234 Clear 28 1014 21 10000 4.63 120 11:51 23.02.2021
2235 Clear 30 1014 18 10000 5.14 120 11:25 23.02.2021
2236 Clear 30 1013 19 10000 6.17 110 10:53 23.02.2021
2237 Clear 30 1013 19 10000 5.14 120 10:35 23.02.2021
2238 Clear 31 1013 18 10000 6.17 130 09:45 23.02.2021
2239 Clear 31 1012 17 10000 5.66 120 09:26 23.02.2021
2240 Clear 31 1013 17 10000 5.14 120 08:57 23.02.2021
2241 Clear 31 1013 17 10000 4.63 150 08:39 23.02.2021
2242 Clear 31 1013 17 10000 4.63 150 08:20 23.02.2021
2243 Clear 31 1014 18 10000 5.14 130 06:41 23.02.2021
2244 Clear 30 1015 21 10000 7.72 120 05:22 23.02.2021
2245 Clear 29 1017 26 10000 6.69 90 02:36 23.02.2021
2246 Clear 25 1017 31 10000 7.72 90 00:55 23.02.2021
2247 Clear 25 1017 31 10000 7.2 110 00:18 23.02.2021
2248 Clear 24 1016 31 10000 5.66 110 23:24 22.02.2021
2249 Clear 22 1016 37 10000 4.63 110 22:41 22.02.2021
2250 Clear 22 1016 37 10000 4.63 110 22:21 22.02.2021
2251 Clear 22 1015 37 10000 3.09 120 21:46 22.02.2021
2252 Clear 23 1015 35 10000 4.12 120 21:23 22.02.2021
2253 Clear 24 1015 31 10000 5.14 120 20:53 22.02.2021
2254 Clear 24 1014 31 10000 5.14 130 20:31 22.02.2021
2255 Clear 24 1014 31 10000 6.69 120 19:54 22.02.2021
2256 Clear 25 1014 27 10000 5.14 120 19:35 22.02.2021
2257 Clouds 25 1014 29 10000 4.12 120 18:58 22.02.2021
2258 Clouds 26 1014 27 10000 5.66 120 18:40 22.02.2021
2259 Clouds 26 1014 27 10000 5.66 120 18:20 22.02.2021
2260 Clouds 26 1015 27 10000 5.66 110 17:26 22.02.2021
2261 Clouds 27 1015 28 10000 5.66 110 16:57 22.02.2021
2262 Clouds 27 1015 29 10000 4.63 120 16:39 22.02.2021
2263 Clear 27 1015 32 10000 4.63 100 15:52 22.02.2021
2264 Clear 28 1015 30 10000 4.63 100 15:28 22.02.2021
2265 Clear 28 1015 32 10000 5.14 100 14:48 22.02.2021
2266 Clear 30 1015 30 10000 5.14 110 14:29 22.02.2021
2267 Clear 30 1015 30 10000 6.17 110 13:47 22.02.2021
2268 Clear 30 1014 28 10000 5.66 120 12:59 22.02.2021
2269 Clear 31 1014 27 10000 7.2 120 12:40 22.02.2021
2270 Clear 31 1014 27 10000 7.2 120 12:20 22.02.2021
2271 Clear 31 1012 25 10000 7.2 120 11:42 22.02.2021
2272 Clear 31 1012 25 10000 7.2 120 11:24 22.02.2021
2273 Clear 32 1012 25 10000 7.2 120 10:46 22.02.2021
2274 Clear 32 1011 22 10000 6.69 100 10:26 22.02.2021
2275 Clear 33 1011 23 10000 6.17 100 09:43 22.02.2021
2276 Clear 36 1011 20 10000 6.17 130 09:25 22.02.2021
2277 Clear 36 1011 20 10000 5.66 140 08:50 22.02.2021
2278 Clear 36 1011 20 10000 4.63 100 08:29 22.02.2021
2279 Clear 36 1011 20 10000 5.66 130 07:56 22.02.2021
2280 Clear 36 1011 20 10000 6.69 130 07:26 22.02.2021
2281 Clear 36 1012 20 10000 5.66 90 06:32 22.02.2021
2282 Clear 35 1012 23 10000 5.66 130 05:38 22.02.2021
2283 Clear 31 1014 29 10000 4.63 130 03:27 22.02.2021
2284 Clear 31 1014 27 10000 5.66 90 02:48 22.02.2021
2285 Clear 30 1014 32 10000 5.66 130 00:45 22.02.2021
2286 Clear 30 1014 32 10000 5.66 130 00:20 22.02.2021
2287 Clear 28 1014 36 10000 3.6 120 23:30 21.02.2021
2288 Clear 27 1013 41 10000 3.09 130 22:51 21.02.2021
2289 Clear 26 1013 44 10000 3.6 120 22:22 21.02.2021
2290 Clear 26 1012 44 10000 2.57 130 21:37 21.02.2021
2291 Clouds 26 1012 44 10000 2.57 130 21:19 21.02.2021
2292 Clouds 28 1011 39 10000 3.09 100 20:40 21.02.2021
2293 Clouds 28 1011 39 10000 3.09 100 20:19 21.02.2021
2294 Clouds 28 1011 36 10000 3.6 100 19:51 21.02.2021
2295 Clouds 30 1011 32 10000 3.6 100 19:32 21.02.2021
2296 Clouds 30 1011 32 10000 3.6 100 19:32 21.02.2021
2297 Clouds 30 1010 32 10000 5.66 100 18:48 21.02.2021
2298 Clouds 31 1010 30 10000 5.14 90 18:25 21.02.2021
2299 Clouds 31 1010 27 10000 4.12 90 17:30 21.02.2021
2300 Clouds 30 1010 28 10000 4.12 80 16:58 21.02.2021
2301 Clouds 31 1010 23 10000 4.63 110 16:34 21.02.2021
2302 Clouds 31 1010 25 10000 4.63 120 15:54 21.02.2021
2303 Clear 30 1010 28 10000 3.6 130 15:22 21.02.2021
2304 Clear 31 1010 23 10000 3.6 120 14:51 21.02.2021
2305 Clear 30 1010 25 10000 3.6 120 14:30 21.02.2021
2306 Clear 31 1010 23 10000 3.09 110 13:47 21.02.2021
2307 Clear 31 1010 22 10000 3.09 90 13:23 21.02.2021
2308 Clear 32 1009 19 10000 3.09 110 12:32 21.02.2021
2309 Clouds 33 1009 17 10000 3.6 110 11:56 21.02.2021
2310 Clear 33 1009 14 10000 5.14 110 11:36 21.02.2021
2311 Clouds 37 1008 14 10000 5.66 80 10:36 21.02.2021
2312 Clouds 37 1008 14 10000 5.66 80 10:18 21.02.2021
2313 Clear 39 1008 14 10000 6.17 80 09:41 21.02.2021
2314 Clear 39 1008 14 10000 6.17 80 09:23 21.02.2021
2315 Clouds 38 1008 15 10000 4.63 110 08:32 21.02.2021
2316 Clear 39 1008 14 10000 6.17 110 07:43 21.02.2021
2317 Clear 39 1008 14 10000 6.17 110 07:21 21.02.2021
2318 Clear 38 1010 15 10000 5.66 150 04:58 21.02.2021
2319 Clear 35 1012 18 10000 1.54 290 02:32 21.02.2021
2320 Clear 31 1012 25 10000 2.57 180 00:52 21.02.2021
2321 Clear 30 1011 28 10000 0.51 170 00:20 21.02.2021
2322 Clear 29 1011 41 10000 1.54 250 23:29 20.02.2021
2323 Clear 27 1011 56 10000 1.54 240 22:49 20.02.2021
2324 Clear 23 1010 53 10000 2.06 250 22:29 20.02.2021
2325 Clear 22 1010 56 10000 2.06 250 21:47 20.02.2021
2326 Clear 22 1009 56 10000 2.57 250 21:27 20.02.2021
2327 Clear 23 1009 53 10000 2.06 240 20:51 20.02.2021
2328 Clear 24 1009 50 10000 1.54 250 20:30 20.02.2021
2329 Clouds 24 1009 46 10000 0.51 260 19:53 20.02.2021
2330 Clouds 24 1009 46 10000 1.62 70 19:33 20.02.2021
2331 Clear 25 1009 41 10000 2.06 290 18:46 20.02.2021
2332 Clear 28 1009 44 10000 1.77 73 18:27 20.02.2021
2333 Clear 29 1010 38 10000 0.51 280 17:43 20.02.2021
2334 Clear 29 1010 38 10000 0.51 280 17:25 20.02.2021
2335 Clear 29 1010 36 10000 2.06 310 16:43 20.02.2021
2336 Clear 29 1010 34 10000 1.69 68 16:22 20.02.2021
2337 Clear 29 1010 32 10000 1.03 130 15:37 20.02.2021
2338 Clear 29 1010 30 10000 2.06 60 14:49 20.02.2021
2339 Clear 30 1010 26 10000 2.06 50 14:24 20.02.2021
2340 Clear 30 1010 23 10000 3.09 50 13:51 20.02.2021
2341 Clouds 31 1010 19 10000 4.12 70 13:27 20.02.2021
2342 Clouds 32 1009 19 10000 3.09 80 12:52 20.02.2021
2343 Clouds 32 1009 19 10000 3.6 90 12:32 20.02.2021
2344 Clouds 32 1009 17 10000 3.6 90 11:48 20.02.2021
2345 Clouds 32 1009 17 10000 3.6 90 11:48 20.02.2021
2346 Clouds 33 1009 16 10000 5.14 100 11:30 20.02.2021
2347 Rain 33 1008 14 10000 5.66 100 10:50 20.02.2021
2348 Clouds 37 1008 14 10000 4.63 130 09:59 20.02.2021
2349 Clouds 37 1008 13 10000 3.6 120 09:40 20.02.2021
2350 Clouds 39 1008 14 10000 7.72 90 08:49 20.02.2021
2351 Clouds 38 1008 14 10000 5.66 100 08:22 20.02.2021
2352 Clouds 37 1011 19 10000 4.12 10 03:41 20.02.2021
2353 Clear 32 1012 22 10000 3.09 340 02:31 20.02.2021
2354 Clear 32 1012 24 10000 3.09 330 01:51 20.02.2021
2355 Clear 31 1012 31 10000 2.06 350 00:48 20.02.2021
2356 Clear 30 1012 35 10000 1.54 330 00:24 20.02.2021
2357 Clear 28 1011 61 10000 1.46 26 23:19 19.02.2021
2358 Clear 27 1011 78 10000 1.46 26 22:37 19.02.2021
2359 Clear 22 1011 78 10000 1.29 37 22:19 19.02.2021
2360 Clear 22 1010 73 10000 1.29 37 21:36 19.02.2021
2361 Clear 23 1010 68 10000 1.54 310 20:58 19.02.2021
2362 Rain 23 1010 64 10000 1.54 260 20:40 19.02.2021
2363 Clear 23 1010 64 10000 1.54 260 20:22 19.02.2021
2364 Clear 24 1010 64 10000 2.57 210 19:41 19.02.2021
2365 Clear 24 1010 64 10000 2.57 210 19:19 19.02.2021
2366 Clear 24 1010 64 10000 2.06 250 18:42 19.02.2021
2367 Clear 24 1010 64 10000 2.06 250 18:23 19.02.2021
2368 Clear 25 1010 61 10000 2.06 310 17:24 19.02.2021
2369 Clear 25 1010 65 10000 0.51 320 16:39 19.02.2021
2370 Clear 28 1010 65 10000 0.51 320 16:20 19.02.2021
2371 Clear 29 1011 50 10000 2.57 50 15:47 19.02.2021
2372 Clear 29 1011 47 10000 1.54 70 15:27 19.02.2021
2373 Clear 29 1010 36 10000 2.06 50 14:41 19.02.2021
2374 Clear 29 1010 36 10000 2.06 50 14:23 19.02.2021
2375 Clear 30 1010 37 10000 2.57 40 13:44 19.02.2021
2376 Clouds 30 1010 32 10000 3.09 50 13:24 19.02.2021
2377 Clouds 30 1010 35 10000 3.09 50 12:44 19.02.2021
2378 Clouds 31 1009 30 10000 3.09 50 12:24 19.02.2021
2379 Clouds 32 1009 27 10000 4.12 60 11:51 19.02.2021
2380 Clouds 32 1008 24 10000 5.14 60 11:26 19.02.2021
2381 Clouds 32 1008 24 10000 4.12 50 10:54 19.02.2021
2382 Clouds 35 1008 23 10000 5.14 70 10:30 19.02.2021
2383 Clouds 35 1008 23 10000 4.63 50 09:51 19.02.2021
2384 Clouds 35 1008 23 10000 6.17 50 09:26 19.02.2021
2385 Clouds 37 1008 18 10000 5.66 100 08:54 19.02.2021
2386 Clouds 37 1008 19 10000 4.12 100 08:24 19.02.2021
2387 Clouds 36 1008 21 10000 3.6 130 07:49 19.02.2021
2388 Clouds 35 1008 29 10000 1.54 180 07:30 19.02.2021
2389 Clouds 29 1009 58 8000 7.2 210 06:53 19.02.2021
2390 Clouds 34 1009 27 10000 9.26 30 05:30 19.02.2021
2391 Clear 35 1010 28 10000 2.06 300 04:41 19.02.2021
2392 Clear 32 1011 38 10000 5.66 350 01:48 19.02.2021
2393 Clear 30 1011 45 10000 5.14 310 00:37 19.02.2021
2394 Clear 30 1011 37 10000 4.63 330 23:56 18.02.2021
2395 Clear 30 1010 37 10000 4.12 350 23:35 18.02.2021
2396 Clear 28 1010 39 10000 2.57 10 22:50 18.02.2021
2397 Clear 24 1010 53 10000 2.57 40 22:30 18.02.2021
2398 Clear 25 1010 50 10000 2.06 60 21:51 18.02.2021
2399 Clear 25 1009 47 10000 2.06 60 21:25 18.02.2021
2400 Clear 26 1009 44 10000 1.03 40 20:44 18.02.2021
2401 Clear 26 1009 44 10000 1.54 60 20:24 18.02.2021
2402 Clear 26 1009 44 10000 2.06 10 19:47 18.02.2021
2403 Clear 27 1009 41 10000 2.06 20 19:28 18.02.2021
2404 Clear 27 1009 41 10000 2.06 30 18:53 18.02.2021
2405 Clear 28 1009 36 10000 2.57 30 18:30 18.02.2021
2406 Clear 28 1009 39 10000 3.09 20 17:53 18.02.2021
2407 Clear 29 1009 39 10000 2.57 40 17:26 18.02.2021
2408 Clear 29 1009 39 10000 2.57 10 16:56 18.02.2021
2409 Clear 29 1009 39 10000 3.6 20 16:38 18.02.2021
2410 Clear 29 1009 39 10000 3.6 20 16:18 18.02.2021
2411 Clear 29 1010 39 10000 3.09 30 15:38 18.02.2021
2412 Clear 29 1010 39 10000 3.09 30 15:19 18.02.2021
2413 Clear 30 1010 37 10000 2.57 40 14:46 18.02.2021
2414 Clouds 30 1010 32 10000 2.57 20 14:27 18.02.2021
2415 Clouds 30 1009 32 10000 2.57 30 13:45 18.02.2021
2416 Clear 30 1009 32 10000 2.57 30 13:45 18.02.2021
2417 Clouds 30 1009 32 10000 3.6 50 13:18 18.02.2021
2418 Clouds 31 1009 30 10000 3.6 70 12:44 18.02.2021
2419 Clouds 31 1008 27 10000 2.57 60 12:22 18.02.2021
2420 Clouds 32 1008 25 10000 2.57 60 11:46 18.02.2021
2421 Clouds 32 1008 24 10000 4.12 70 11:25 18.02.2021
2422 Clouds 33 1007 21 10000 4.63 90 10:45 18.02.2021
2423 Clouds 33 1007 20 10000 6.17 60 10:27 18.02.2021
2424 Clouds 33 1007 20 10000 5.66 50 09:40 18.02.2021
2425 Clouds 33 1007 20 10000 5.66 50 09:21 18.02.2021
2426 Clouds 34 1007 20 10000 5.14 170 08:40 18.02.2021
2427 Clouds 38 1007 20 10000 5.14 170 08:21 18.02.2021
2428 Clouds 37 1007 22 10000 4.12 70 07:32 18.02.2021
2429 Clear 37 1008 22 10000 5.66 40 06:50 18.02.2021
2430 Clear 33 1011 29 10000 3.6 330 02:33 18.02.2021
2431 Clear 30 1011 42 10000 4.12 330 23:55 17.02.2021
2432 Clear 28 1011 44 10000 2.57 340 23:22 17.02.2021
2433 Clear 27 1011 47 10000 4.2 25 22:51 17.02.2021
2434 Clear 24 1010 60 10000 4.64 34 22:26 17.02.2021
2435 Clear 24 1010 64 6000 1.03 270 21:50 17.02.2021
2436 Clear 24 1009 64 10000 4.69 37 21:22 17.02.2021
2437 Clear 24 1009 64 10000 4.69 37 20:47 17.02.2021
2438 Clear 25 1009 61 10000 2.06 120 20:29 17.02.2021
2439 Clear 25 1009 61 10000 2.06 100 19:49 17.02.2021
2440 Clear 26 1009 50 10000 2.06 60 19:30 17.02.2021
2441 Clear 26 1009 50 10000 2.57 20 18:45 17.02.2021
2442 Clear 27 1009 47 10000 3.09 10 18:24 17.02.2021
2443 Clear 26 1009 57 10000 1.54 20 17:40 17.02.2021
2444 Clear 29 1009 57 10000 1.54 20 17:19 17.02.2021
2445 Clear 29 1009 50 10000 2.57 30 16:45 17.02.2021
2446 Clouds 29 1010 47 10000 2.06 40 16:24 17.02.2021
2447 Clouds 29 1010 44 10000 2.57 30 15:44 17.02.2021
2448 Clouds 30 1010 42 10000 2.06 50 15:25 17.02.2021
2449 Clouds 30 1010 42 10000 2.57 40 14:46 17.02.2021
2450 Rain 30 1010 37 10000 3.6 60 14:28 17.02.2021
2451 Rain 31 1010 35 10000 3.6 70 13:47 17.02.2021
2452 Clouds 31 1009 31 10000 4.12 60 13:29 17.02.2021
2453 Rain 31 1009 33 10000 3.6 70 12:47 17.02.2021
2454 Rain 32 1009 29 10000 4.12 60 12:23 17.02.2021
2455 Clouds 32 1009 29 10000 4.12 50 11:44 17.02.2021
2456 Clouds 32 1008 27 10000 5.14 60 11:20 17.02.2021
2457 Rain 33 1008 24 10000 6.17 60 10:46 17.02.2021
2458 Clouds 33 1008 26 10000 4.63 50 10:26 17.02.2021
2459 Clouds 33 1007 24 10000 5.14 60 09:47 17.02.2021
2460 Clouds 33 1007 23 10000 6.69 70 09:29 17.02.2021
2461 Clouds 33 1007 23 10000 7.72 70 08:44 17.02.2021
2462 Clouds 37 1007 23 10000 6.17 70 08:22 17.02.2021
2463 Clear 38 1008 23 10000 3.6 70 07:34 17.02.2021
2464 Clear 38 1008 22 10000 7.2 70 06:35 17.02.2021
2465 Clear 34 1012 27 10000 3.6 30 02:44 17.02.2021
2466 Clear 32 1012 29 10000 4.63 70 02:22 17.02.2021
2467 Clouds 29 1012 34 10000 1.54 150 00:35 17.02.2021
2468 Clouds 29 1011 39 10000 2.06 220 23:57 16.02.2021
2469 Clouds 29 1011 41 10000 2.57 250 23:38 16.02.2021
2470 Clouds 23 1011 49 10000 2.06 240 22:45 16.02.2021
2471 Clouds 23 1010 53 10000 3.09 220 22:26 16.02.2021
2472 Clouds 22 1010 56 10000 2.57 240 21:58 16.02.2021
2473 Clouds 23 1010 49 10000 2.57 230 21:39 16.02.2021
2474 Clouds 23 1010 49 10000 2.57 230 21:20 16.02.2021
2475 Clouds 23 1010 49 10000 3.6 250 20:45 16.02.2021
2476 Clouds 23 1010 53 10000 2.06 240 20:21 16.02.2021
2477 Clouds 23 1010 53 10000 2.57 240 19:47 16.02.2021
2478 Clouds 23 1010 53 10000 3.09 240 19:27 16.02.2021
2479 Clouds 23 1010 56 10000 2.57 270 18:42 16.02.2021
2480 Clouds 23 1010 56 10000 2.57 270 18:23 16.02.2021
2481 Clouds 23 1010 56 10000 0.51 230 17:53 16.02.2021
2482 Clouds 23 1011 53 10000 2.57 270 17:27 16.02.2021
2483 Clouds 24 1011 46 10000 4.94 142 16:52 16.02.2021
2484 Clouds 24 1011 43 10000 4.94 142 16:30 16.02.2021
2485 Clouds 24 1011 43 10000 4.94 142 16:30 16.02.2021
2486 Clouds 26 1011 38 10000 2.06 320 15:56 16.02.2021
2487 Rain 26 1011 31 10000 4.2 144 15:33 16.02.2021
2488 Rain 29 1011 36 10000 1.54 110 14:58 16.02.2021
2489 Rain 29 1011 31 10000 2.57 120 14:38 16.02.2021
2490 Rain 29 1011 31 10000 2.57 120 14:19 16.02.2021
2491 Rain 29 1011 28 10000 3.09 110 13:40 16.02.2021
2492 Rain 30 1011 24 10000 3.09 110 12:53 16.02.2021
2493 Rain 30 1010 21 10000 3.6 110 12:29 16.02.2021
2494 Clear 31 1010 19 10000 3.6 110 11:58 16.02.2021
2495 Clear 31 1010 17 10000 4.63 110 11:39 16.02.2021
2496 Clear 31 1010 17 10000 4.63 110 11:19 16.02.2021
2497 Clear 32 1009 15 10000 5.14 100 10:45 16.02.2021
2498 Clear 32 1009 14 10000 5.66 120 10:26 16.02.2021
2499 Clear 33 1009 14 10000 5.66 110 09:50 16.02.2021
2500 Clear 35 1009 15 10000 6.17 100 09:26 16.02.2021
2501 Clear 35 1009 15 10000 5.14 130 08:51 16.02.2021
2502 Clear 35 1009 15 10000 6.69 90 08:26 16.02.2021
2503 Clear 36 1009 14 10000 6.17 100 07:42 16.02.2021
2504 Clear 35 1010 15 10000 4.63 90 06:25 16.02.2021
2505 Clear 31 1013 20 10000 4.63 90 02:19 16.02.2021
2506 Clouds 23 1013 43 10000 2.57 250 23:52 15.02.2021
2507 Clouds 21 1012 56 10000 2.57 250 23:27 15.02.2021
2508 Clouds 18 1012 72 10000 3.6 260 22:47 15.02.2021
2509 Clouds 17 1012 77 10000 2.57 240 22:26 15.02.2021
2510 Clouds 18 1012 68 10000 1.54 230 21:43 15.02.2021
2511 Clouds 17 1012 77 10000 2.57 290 21:24 15.02.2021
2512 Clouds 18 1012 68 10000 2.57 270 20:53 15.02.2021
2513 Clouds 19 1011 63 10000 2.57 270 20:35 15.02.2021
2514 Clouds 19 1011 63 10000 2.06 270 19:50 15.02.2021
2515 Clouds 19 1011 63 10000 2.06 270 19:50 15.02.2021
2516 Clouds 19 1011 63 10000 2.06 270 19:50 15.02.2021
2517 Clouds 19 1012 63 10000 2.06 280 19:25 15.02.2021
2518 Clouds 19 1012 63 10000 1.03 280 18:51 15.02.2021
2519 Clouds 20 1012 64 10000 3.99 122 18:27 15.02.2021
2520 Clouds 20 1012 60 10000 1.03 310 17:51 15.02.2021
2521 Clouds 21 1013 52 10000 4.6 126 17:28 15.02.2021
2522 Clouds 21 1013 52 10000 4.61 126 16:59 15.02.2021
2523 Clouds 21 1013 52 10000 4.6 126 16:37 15.02.2021
2524 Clear 21 1013 52 10000 5.12 126 16:18 15.02.2021
2525 Clear 22 1013 49 10000 2.06 110 15:41 15.02.2021
2526 Clear 22 1013 49 10000 2.06 110 15:18 15.02.2021
2527 Clear 23 1012 35 10000 2.57 120 14:43 15.02.2021
2528 Clear 24 1012 33 10000 3.09 130 14:20 15.02.2021
2529 Clear 25 1012 29 10000 3.6 130 13:48 15.02.2021
2530 Clear 25 1012 29 10000 3.6 110 13:20 15.02.2021
2531 Clear 26 1012 27 10000 3.09 110 12:45 15.02.2021
2532 Clear 29 1011 24 10000 3.09 100 12:22 15.02.2021
2533 Clear 29 1011 23 10000 3.09 100 11:50 15.02.2021
2534 Clear 30 1011 17 10000 4.12 100 11:23 15.02.2021
2535 Clear 31 1011 14 10000 5.14 90 10:50 15.02.2021
2536 Clear 31 1011 12 10000 5.66 100 10:25 15.02.2021
2537 Clear 32 1010 13 10000 5.66 110 09:56 15.02.2021
2538 Clear 32 1010 13 10000 5.66 140 09:33 15.02.2021
2539 Clear 32 1010 13 10000 5.14 90 08:55 15.02.2021
2540 Clear 32 1011 14 10000 6.69 90 07:49 15.02.2021
2541 Clear 32 1011 15 10000 6.69 100 06:59 15.02.2021
2542 Clear 32 1011 17 10000 5.14 100 06:40 15.02.2021
2543 Clouds 30 1014 20 10000 8.23 80 02:32 15.02.2021
2544 Clouds 30 1014 20 10000 8.23 80 02:32 15.02.2021
2545 Clouds 29 1015 31 10000 3.6 90 00:46 15.02.2021
2546 Clouds 24 1014 46 10000 1.03 110 23:41 14.02.2021
2547 Clouds 24 1014 46 10000 1.03 110 23:22 14.02.2021
2548 Clouds 20 1013 73 10000 2.06 70 22:38 14.02.2021
2549 Clouds 20 1013 73 10000 2.06 70 22:19 14.02.2021
2550 Clouds 21 1013 68 10000 4.5 128 21:48 14.02.2021
2551 Clouds 21 1013 73 10000 2.06 110 21:29 14.02.2021
2552 Clouds 21 1013 73 10000 4.88 126 20:44 14.02.2021
2553 Clouds 21 1012 73 10000 4.98 124 20:26 14.02.2021
2554 Clouds 22 1012 64 10000 4.98 124 19:46 14.02.2021
2555 Clouds 22 1012 56 10000 1.54 110 18:51 14.02.2021
2556 Clouds 22 1012 56 10000 1.54 110 18:51 14.02.2021
2557 Clouds 24 1012 46 10000 2.57 110 18:29 14.02.2021
2558 Clouds 24 1012 46 10000 3.6 100 17:56 14.02.2021
2559 Clouds 24 1013 50 10000 3.6 100 17:35 14.02.2021
2560 Clouds 25 1013 47 10000 3.6 110 16:52 14.02.2021
2561 Clear 25 1013 50 10000 3.09 110 16:26 14.02.2021
2562 Clear 26 1014 47 10000 3.6 110 15:49 14.02.2021
2563 Clear 26 1014 47 10000 3.6 110 15:30 14.02.2021
2564 Clear 27 1014 44 10000 3.6 110 14:47 14.02.2021
2565 Clear 29 1013 41 10000 3.6 110 14:26 14.02.2021
2566 Clear 29 1013 39 10000 3.6 100 13:44 14.02.2021
2567 Clouds 29 1013 39 10000 4.63 100 13:26 14.02.2021
2568 Clouds 30 1012 34 10000 5.14 110 12:37 14.02.2021
2569 Clouds 30 1012 34 10000 5.14 110 12:18 14.02.2021
2570 Clouds 30 1012 37 10000 4.63 110 11:43 14.02.2021
2571 Clouds 30 1012 37 10000 4.63 110 11:20 14.02.2021
2572 Clouds 31 1011 35 10000 4.63 120 10:31 14.02.2021
2573 Clouds 31 1010 33 10000 5.66 110 09:41 14.02.2021
2574 Clouds 31 1010 33 10000 5.66 110 09:21 14.02.2021
2575 Clouds 31 1010 33 10000 5.66 110 09:21 14.02.2021
2576 Clouds 32 1010 33 10000 7.2 80 08:58 14.02.2021
2577 Clouds 31 1010 37 10000 5.14 150 08:18 14.02.2021
2578 Clouds 31 1011 37 10000 4.63 140 07:19 14.02.2021
2579 Clouds 31 1012 42 10000 3.09 110 06:26 14.02.2021
2580 Clouds 30 1014 45 10000 4.63 50 03:59 14.02.2021
2581 Clear 29 1015 50 10000 5.14 90 02:29 14.02.2021
2582 Clear 25 1015 61 10000 6.69 90 01:29 14.02.2021
2583 Clouds 23 1015 68 10000 5.66 90 00:41 14.02.2021
2584 Clear 23 1014 68 10000 4.63 100 23:49 13.02.2021
2585 Clouds 22 1014 78 10000 2.57 130 23:25 13.02.2021
2586 Clouds 21 1014 88 10000 1.54 160 22:51 13.02.2021
2587 Clouds 20 1014 94 10000 1.54 160 22:22 13.02.2021
2588 Clouds 20 1014 94 10000 2.06 160 21:49 13.02.2021
2589 Clouds 20 1014 94 10000 2.06 150 21:26 13.02.2021
2590 Clouds 20 1013 94 10000 2.06 150 20:44 13.02.2021
2591 Clouds 20 1013 94 10000 2.57 160 20:26 13.02.2021
2592 Clouds 21 1013 88 10000 2.57 150 19:48 13.02.2021
2593 Clouds 21 1013 83 10000 2.57 140 19:23 13.02.2021
2594 Clouds 21 1013 88 10000 2.06 130 18:49 13.02.2021
2595 Clouds 21 1013 83 10000 6.27 130 18:25 13.02.2021
2596 Clouds 21 1013 83 10000 2.06 140 17:44 13.02.2021
2597 Clouds 21 1013 83 10000 2.57 120 17:24 13.02.2021
2598 Clear 21 1014 83 10000 3.6 110 16:50 13.02.2021
2599 Clear 22 1014 78 10000 4.12 120 16:31 13.02.2021
2600 Clouds 22 1014 83 10000 3.6 110 15:43 13.02.2021
2601 Clouds 22 1014 83 10000 3.6 110 15:24 13.02.2021
2602 Clouds 23 1014 78 10000 3.6 120 14:34 13.02.2021
2603 Clouds 23 1014 78 10000 4.63 120 13:49 13.02.2021
2604 Clouds 23 1014 83 10000 4.63 120 13:26 13.02.2021
2605 Clouds 23 1014 83 10000 3.6 120 12:52 13.02.2021
2606 Clouds 23 1013 78 10000 4.12 130 12:21 13.02.2021
2607 Clouds 23 1013 78 10000 4.63 120 11:47 13.02.2021
2608 Clouds 23 1013 83 10000 2.57 150 11:22 13.02.2021
2609 Clouds 23 1013 78 10000 3.6 140 10:58 13.02.2021
2610 Clouds 23 1012 83 10000 4.12 130 10:40 13.02.2021
2611 Clouds 27 1012 83 10000 4.12 130 10:21 13.02.2021
2612 Clouds 27 1012 83 10000 3.6 130 09:45 13.02.2021
2613 Clouds 27 1012 83 10000 3.6 120 09:22 13.02.2021
2614 Clouds 27 1012 83 10000 4.12 110 08:42 13.02.2021
2615 Clouds 27 1012 88 10000 4.63 90 07:56 13.02.2021
2616 Clouds 26 1012 88 10000 4.12 100 06:44 13.02.2021
2617 Clouds 27 1012 83 10000 5.14 80 06:19 13.02.2021
2618 Clouds 26 1013 94 10000 4.12 120 04:26 13.02.2021
2619 Clouds 19 1014 100 6000 4.12 130 01:57 13.02.2021
2620 Mist 19 1014 100 4900 5.14 130 00:52 13.02.2021
2621 Clouds 19 1014 100 7000 4.63 110 23:55 12.02.2021
2622 Clouds 19 1013 100 10000 4.12 110 23:32 12.02.2021
2623 Clouds 19 1013 100 10000 4.63 120 22:59 12.02.2021
2624 Clouds 19 1012 100 10000 4.12 110 22:30 12.02.2021
2625 Mist 19 1012 100 3700 5.14 110 21:53 12.02.2021
2626 Mist 19 1012 100 3700 5.14 110 21:34 12.02.2021
2627 Clouds 19 1012 100 10000 4.63 100 20:57 12.02.2021
2628 Clouds 19 1012 100 10000 4.63 100 20:38 12.02.2021
2629 Clouds 20 1012 100 10000 4.63 120 20:19 12.02.2021
2630 Clouds 20 1011 100 10000 4.63 120 19:47 12.02.2021
2631 Clouds 20 1011 100 10000 5.14 110 19:25 12.02.2021
2632 Drizzle 20 1011 100 2900 5.14 130 18:30 12.02.2021
2633 Drizzle 21 1011 100 3000 5.66 130 17:49 12.02.2021
2634 Drizzle 21 1011 100 5000 6.17 140 17:29 12.02.2021
2635 Clouds 22 1011 94 10000 5.14 130 16:39 12.02.2021
2636 Clouds 23 1011 94 10000 5.66 140 15:47 12.02.2021
2637 Clouds 23 1011 94 10000 4.63 100 15:21 12.02.2021
2638 Clouds 23 1011 100 10000 5.66 140 14:53 12.02.2021
2639 Clouds 24 1011 94 10000 4.12 100 14:30 12.02.2021
2640 Clouds 24 1011 94 10000 4.12 100 14:30 12.02.2021
2641 Clouds 24 1011 94 10000 6.17 120 13:41 12.02.2021
2642 Clouds 24 1011 100 10000 4.63 120 13:22 12.02.2021
2643 Clouds 25 1010 94 10000 4.63 130 12:49 12.02.2021
2644 Clouds 28 1010 100 10000 4.63 140 12:31 12.02.2021
2645 Clouds 28 1008 100 7000 8.23 130 11:43 12.02.2021
2646 Clouds 28 1009 100 1500 8.23 80 11:20 12.02.2021
2647 Clouds 29 1008 89 4900 6.17 160 10:46 12.02.2021
2648 Clouds 31 1005 45 10000 3.09 230 09:52 12.02.2021
2649 Clouds 32 1005 40 10000 8.23 290 09:29 12.02.2021
2650 Clouds 33 1005 32 10000 9.26 320 08:51 12.02.2021
2651 Clouds 33 1004 32 10000 7.2 320 08:29 12.02.2021
2652 Clouds 33 1004 32 10000 7.2 320 08:29 12.02.2021
2653 Clouds 33 1004 30 10000 5.66 360 07:58 12.02.2021
2654 Clouds 33 1004 30 10000 9.26 320 07:35 12.02.2021
2655 Clear 38 1004 27 10000 5.66 320 06:55 12.02.2021
2656 Clear 37 1005 30 10000 5.66 320 05:48 12.02.2021
2657 Clear 38 1006 28 10000 5.14 310 05:23 12.02.2021
2658 Clear 38 1006 28 10000 5.14 310 05:23 12.02.2021
2659 Clouds 31 1008 48 10000 4.63 300 01:48 12.02.2021
2660 Clouds 30 1008 58 10000 2.57 210 23:41 11.02.2021
2661 Clouds 29 1008 61 6000 2.06 270 23:22 11.02.2021
2662 Clouds 27 1008 69 10000 5.01 288 22:57 11.02.2021
2663 Clouds 26 1007 65 10000 5.01 288 22:38 11.02.2021
2664 Clouds 26 1007 65 10000 5.12 302 22:20 11.02.2021
2665 Haze 27 1007 65 1600 5.12 302 21:38 11.02.2021
2666 Clouds 27 1006 65 10000 1.03 280 21:19 11.02.2021
2667 Clouds 29 1006 61 10000 2.06 280 20:42 11.02.2021
2668 Clouds 29 1006 61 10000 2.06 280 20:22 11.02.2021
2669 Clouds 29 1006 61 10000 3.09 290 19:48 11.02.2021
2670 Clouds 30 1006 58 10000 2.57 280 19:29 11.02.2021
2671 Clouds 30 1006 58 10000 3.09 270 18:53 11.02.2021
2672 Clouds 30 1006 54 10000 3.6 270 18:29 11.02.2021
2673 Clouds 30 1007 54 10000 6.69 270 17:53 11.02.2021
2674 Clouds 30 1006 51 10000 5.66 290 17:22 11.02.2021
2675 Clouds 31 1007 48 10000 4.63 290 16:57 11.02.2021
2676 Clouds 31 1007 48 10000 4.12 290 16:39 11.02.2021
2677 Clouds 31 1007 48 10000 4.12 290 16:20 11.02.2021
2678 Clouds 31 1007 43 10000 5.14 290 15:41 11.02.2021
2679 Clouds 31 1007 43 10000 5.14 290 15:23 11.02.2021
2680 Clouds 31 1007 43 10000 5.66 300 14:44 11.02.2021
2681 Clouds 31 1007 43 10000 4.63 310 14:25 11.02.2021
2682 Clouds 32 1007 40 10000 5.14 320 13:38 11.02.2021
2683 Clouds 32 1007 40 10000 5.14 320 13:19 11.02.2021
2684 Clouds 32 1006 40 10000 7.2 310 12:44 11.02.2021
2685 Clouds 32 1006 36 10000 5.66 320 12:21 11.02.2021
2686 Clouds 32 1005 38 10000 6.69 310 11:42 11.02.2021
2687 Clouds 32 1005 38 10000 6.69 310 11:20 11.02.2021
2688 Clouds 35 1004 34 10000 8.23 310 10:44 11.02.2021
2689 Clouds 36 1004 32 10000 7.72 330 10:25 11.02.2021
2690 Clouds 36 1003 30 10000 8.23 330 09:45 11.02.2021
2691 Clouds 37 1003 30 10000 7.72 330 09:19 11.02.2021
2692 Clouds 37 1004 28 10000 7.72 310 08:50 11.02.2021
2693 Clouds 37 1004 30 10000 9.26 330 08:18 11.02.2021
2694 Clear 37 1005 30 10000 7.72 320 06:51 11.02.2021
2695 Clear 37 1005 32 10000 7.2 330 06:32 11.02.2021
2696 Clear 36 1007 36 10000 5.14 350 03:54 11.02.2021
2697 Clouds 32 1008 46 10000 6.69 300 02:28 11.02.2021
2698 Clouds 30 1008 58 10000 6.69 290 00:46 11.02.2021
2699 Clouds 30 1008 58 10000 6.69 290 00:18 11.02.2021
2700 Clouds 30 1008 65 10000 6.17 280 23:35 10.02.2021
2701 Clouds 29 1007 65 10000 5.66 290 22:49 10.02.2021
2702 Clouds 28 1007 65 10000 4.12 310 22:26 10.02.2021
2703 Clouds 29 1007 61 10000 4.12 330 21:41 10.02.2021
2704 Clouds 29 1007 61 10000 4.12 330 21:22 10.02.2021
2705 Clouds 29 1007 61 10000 4.63 340 20:59 10.02.2021
2706 Clouds 30 1006 61 10000 3.09 340 20:39 10.02.2021
2707 Clouds 30 1006 61 10000 3.09 340 20:19 10.02.2021
2708 Clouds 30 1006 58 10000 5.14 330 19:42 10.02.2021
2709 Clouds 30 1006 58 10000 5.14 330 19:21 10.02.2021
2710 Clouds 30 1006 58 10000 4.12 350 18:39 10.02.2021
2711 Clouds 30 1006 58 10000 4.12 350 18:18 10.02.2021
2712 Clouds 30 1006 58 10000 4.12 350 17:49 10.02.2021
2713 Clear 30 1007 58 10000 3.09 360 17:21 10.02.2021
2714 Clouds 30 1007 58 10000 2.57 340 16:49 10.02.2021
2715 Clear 30 1007 61 10000 4.12 360 16:28 10.02.2021
2716 Clouds 30 1007 61 10000 5.66 30 15:43 10.02.2021
2717 Clouds 30 1007 61 10000 5.66 50 15:21 10.02.2021
2718 Clouds 30 1007 61 10000 5.66 50 15:21 10.02.2021
2719 Clouds 30 1007 58 10000 4.12 50 14:40 10.02.2021
2720 Clouds 31 1007 62 10000 4.12 100 13:55 10.02.2021
2721 Clouds 31 1007 55 10000 3.6 70 13:37 10.02.2021
2722 Clouds 31 1007 55 10000 3.6 70 13:18 10.02.2021
2723 Clouds 32 1006 51 10000 4.12 70 12:40 10.02.2021
2724 Clouds 32 1006 51 10000 4.12 70 12:21 10.02.2021
2725 Clouds 34 1005 36 10000 3.09 50 11:41 10.02.2021
2726 Clouds 34 1005 36 10000 3.09 50 11:23 10.02.2021
2727 Clouds 35 1004 32 10000 3.09 90 10:40 10.02.2021
2728 Clouds 36 1004 32 10000 3.09 90 10:19 10.02.2021
2729 Clouds 36 1004 30 10000 7.2 350 09:40 10.02.2021
2730 Clouds 37 1004 30 10000 7.2 350 09:21 10.02.2021
2731 Clouds 38 1005 27 10000 6.69 360 08:43 10.02.2021
2732 Clouds 37 1005 32 10000 4.63 80 07:53 10.02.2021
2733 Clouds 36 1006 34 10000 3.09 10 06:59 10.02.2021
2734 Clear 35 1008 41 10000 5.66 320 03:45 10.02.2021
2735 Clouds 30 1009 62 10000 3.09 10 00:51 10.02.2021
2736 Clouds 28 1009 69 10000 2.57 20 23:36 09.02.2021
2737 Clouds 28 1008 69 10000 3.6 350 22:55 09.02.2021
2738 Clouds 27 1008 74 10000 2.57 350 22:25 09.02.2021
2739 Clouds 27 1008 74 10000 3.6 320 21:53 09.02.2021
2740 Clouds 27 1008 69 10000 3.6 330 21:33 09.02.2021
2741 Clouds 27 1007 69 10000 3.6 320 20:50 09.02.2021
2742 Clouds 28 1007 65 10000 5.14 320 20:27 09.02.2021
2743 Clouds 28 1007 65 10000 4.63 330 19:59 09.02.2021
2744 Clouds 28 1007 65 10000 4.12 350 19:38 09.02.2021
2745 Clouds 28 1007 65 10000 2.06 290 18:58 09.02.2021
2746 Clouds 28 1007 65 10000 2.06 290 18:58 09.02.2021
2747 Clouds 28 1007 65 10000 0.51 50 18:37 09.02.2021
2748 Clouds 27 1007 69 10000 1.54 80 17:57 09.02.2021
2749 Clouds 27 1007 69 10000 2.06 40 17:39 09.02.2021
2750 Clouds 27 1007 69 10000 2.06 40 17:20 09.02.2021
2751 Clouds 27 1008 69 10000 4.12 30 16:42 09.02.2021
2752 Clouds 27 1008 69 10000 4.12 30 16:18 09.02.2021
2753 Clouds 27 1008 69 10000 5.14 30 15:50 09.02.2021
2754 Clouds 26 1008 73 10000 3.09 30 15:25 09.02.2021
2755 Clouds 26 1008 73 10000 5.66 30 14:54 09.02.2021
2756 Clouds 26 1009 73 10000 7.72 50 14:28 09.02.2021
2757 Clouds 27 1009 74 10000 9.26 60 13:52 09.02.2021
2758 Clouds 28 1009 69 10000 9.77 60 13:25 09.02.2021
2759 Clouds 28 1009 69 10000 9.77 60 13:25 09.02.2021
2760 Clouds 28 1008 69 10000 9.26 60 12:54 09.02.2021
2761 Clouds 28 1007 69 10000 5.66 70 12:36 09.02.2021
2762 Clouds 29 1007 65 10000 6.17 70 11:57 09.02.2021
2763 Clouds 29 1007 65 10000 4.12 90 11:38 09.02.2021
2764 Clouds 29 1007 65 10000 4.12 90 11:20 09.02.2021
2765 Clouds 29 1007 65 10000 4.12 90 11:20 09.02.2021
2766 Clouds 30 1006 61 10000 4.63 110 10:43 09.02.2021
2767 Clouds 30 1006 61 10000 4.63 110 10:18 09.02.2021
2768 Clouds 30 1005 70 10000 3.6 230 09:42 09.02.2021
2769 Clouds 31 1005 70 10000 3.6 230 09:24 09.02.2021
2770 Clouds 31 1005 62 10000 5.66 220 08:42 09.02.2021
2771 Clouds 32 1005 62 10000 5.66 220 08:22 09.02.2021
2772 Clouds 31 1006 66 10000 9.77 30 06:18 09.02.2021
2773 Clear 35 1007 38 10000 6.17 30 03:51 09.02.2021
2774 Clouds 34 1008 38 10000 7.72 50 02:31 09.02.2021
2775 Clear 31 1009 37 10000 3.6 70 00:33 09.02.2021
2776 Clouds 30 1009 30 10000 4.12 80 23:57 08.02.2021
2777 Clouds 30 1008 30 10000 3.09 90 23:20 08.02.2021
2778 Clouds 28 1008 54 10000 2.57 80 22:43 08.02.2021
2779 Clouds 28 1008 57 10000 3.46 85 22:24 08.02.2021
2780 Clouds 26 1007 57 10000 2.06 90 21:54 08.02.2021
2781 Clouds 26 1007 57 10000 2.57 110 21:31 08.02.2021
2782 Clouds 27 1007 57 10000 3.77 92 20:59 08.02.2021
2783 Clouds 26 1007 57 10000 2.06 20 20:38 08.02.2021
2784 Clouds 26 1007 57 10000 2.06 20 20:19 08.02.2021
2785 Clouds 26 1007 54 10000 3.44 103 19:42 08.02.2021
2786 Clouds 26 1007 54 10000 3.98 96 19:22 08.02.2021
2787 Clouds 27 1007 54 10000 3.98 96 18:46 08.02.2021
2788 Clouds 28 1007 47 10000 3.88 99 18:19 08.02.2021
2789 Clouds 29 1007 45 10000 3.87 99 17:44 08.02.2021
2790 Clouds 29 1007 48 10000 3.16 102 17:24 08.02.2021
2791 Clouds 30 1007 45 10000 3.09 80 16:44 08.02.2021
2792 Clouds 30 1008 42 10000 3.6 40 16:21 08.02.2021
2793 Clouds 30 1008 42 10000 6.17 30 15:43 08.02.2021
2794 Clouds 32 1008 33 10000 4.12 50 15:20 08.02.2021
2795 Clouds 30 1008 35 10000 2.57 50 14:52 08.02.2021
2796 Clouds 30 1008 35 10000 3.09 40 14:31 08.02.2021
2797 Clouds 31 1008 33 10000 3.6 40 13:57 08.02.2021
2798 Clouds 31 1008 33 10000 4.63 40 13:33 08.02.2021
2799 Clouds 31 1007 33 10000 6.17 40 12:55 08.02.2021
2800 Clouds 31 1007 31 10000 6.69 40 12:36 08.02.2021
2801 Clouds 33 1007 25 10000 6.69 40 11:48 08.02.2021
2802 Clouds 34 1006 24 10000 6.69 50 11:22 08.02.2021
2803 Clouds 34 1006 24 10000 8.23 50 10:45 08.02.2021
2804 Clouds 35 1005 21 10000 7.72 50 10:24 08.02.2021
2805 Clouds 35 1005 21 10000 7.72 50 09:53 08.02.2021
2806 Clouds 36 1005 17 10000 7.72 60 09:35 08.02.2021
2807 Clouds 36 1004 19 10000 6.69 60 08:46 08.02.2021
2808 Clouds 36 1005 19 10000 7.2 50 08:20 08.02.2021
2809 Clouds 37 1005 16 10000 8.23 70 07:22 08.02.2021
2810 Clouds 36 1006 16 10000 8.23 60 05:59 08.02.2021
2811 Clear 31 1009 22 10000 6.17 70 02:28 08.02.2021
2812 Clear 30 1010 21 10000 7.2 70 01:18 08.02.2021
2813 Clouds 28 1009 24 10000 5.66 70 00:21 08.02.2021
2814 Clouds 27 1009 28 10000 5.14 80 23:48 07.02.2021
2815 Clouds 25 1009 29 10000 5.14 80 23:20 07.02.2021
2816 Clouds 23 1009 35 10000 6.58 120 22:45 07.02.2021
2817 Clouds 23 1009 37 10000 1.03 160 22:26 07.02.2021
2818 Clouds 22 1008 37 10000 2.57 130 21:52 07.02.2021
2819 Clear 23 1008 33 10000 3.09 100 21:28 07.02.2021
2820 Clear 23 1008 35 10000 2.57 120 20:54 07.02.2021
2821 Clear 23 1008 35 10000 3.09 120 20:34 07.02.2021
2822 Clear 23 1008 35 10000 2.06 110 19:55 07.02.2021
2823 Clear 24 1008 35 10000 2.06 100 19:31 07.02.2021
2824 Clouds 24 1007 33 10000 2.57 130 18:56 07.02.2021
2825 Clouds 24 1008 33 10000 2.06 160 18:36 07.02.2021
2826 Clouds 24 1008 33 10000 2.06 160 18:36 07.02.2021
2827 Clouds 24 1008 33 10000 2.06 160 18:18 07.02.2021
2828 Clouds 24 1008 35 10000 0.51 130 17:44 07.02.2021
2829 Clouds 24 1008 35 10000 3.09 120 17:20 07.02.2021
2830 Clouds 24 1008 35 10000 3.09 120 17:20 07.02.2021
2831 Clouds 25 1009 33 10000 2.57 110 16:47 07.02.2021
2832 Clouds 25 1009 31 10000 3.09 120 16:26 07.02.2021
2833 Clouds 26 1009 29 10000 3.09 110 15:49 07.02.2021
2834 Clouds 26 1009 27 10000 2.57 100 15:29 07.02.2021
2835 Clouds 26 1009 27 10000 2.57 100 15:29 07.02.2021
2836 Clouds 27 1009 27 10000 3.09 110 14:57 07.02.2021
2837 Clouds 27 1009 26 10000 3.09 110 14:39 07.02.2021
2838 Clouds 27 1009 26 10000 3.09 110 14:18 07.02.2021
2839 Clouds 28 1009 24 10000 3.6 100 13:35 07.02.2021
2840 Clouds 29 1008 24 10000 4.12 110 12:54 07.02.2021
2841 Clouds 29 1008 23 10000 4.12 100 12:36 07.02.2021
2842 Clouds 29 1008 23 10000 4.12 100 12:18 07.02.2021
2843 Clouds 30 1007 21 10000 5.14 100 11:27 07.02.2021
2844 Clouds 31 1007 20 10000 5.66 90 10:51 07.02.2021
2845 Clouds 32 1006 18 10000 6.69 90 10:27 07.02.2021
2846 Clouds 32 1006 18 10000 6.69 90 09:49 07.02.2021
2847 Clear 32 1006 18 10000 6.17 110 09:24 07.02.2021
2848 Clear 34 1006 17 10000 6.17 130 08:36 07.02.2021
2849 Clear 34 1006 18 10000 5.66 110 07:44 07.02.2021
2850 Clear 34 1008 19 10000 5.14 70 05:58 07.02.2021
2851 Clear 31 1010 23 10000 6.69 90 03:54 07.02.2021
2852 Clear 28 1011 29 10000 7.2 80 01:37 07.02.2021
2853 Clouds 26 1011 29 10000 7.2 70 00:36 07.02.2021
2854 Clouds 25 1010 31 10000 5.14 90 23:46 06.02.2021
2855 Clouds 23 1009 40 10000 2.57 100 22:42 06.02.2021
2856 Clouds 22 1009 40 10000 2.57 120 21:43 06.02.2021
2857 Clouds 22 1009 40 10000 2.57 100 21:23 06.02.2021
2858 Clouds 21 1009 40 10000 2.06 70 20:52 06.02.2021
2859 Clouds 22 1009 37 10000 3.09 100 20:26 06.02.2021
2860 Clouds 23 1008 35 10000 3.09 90 19:57 06.02.2021
2861 Clouds 23 1008 35 10000 2.57 80 19:34 06.02.2021
2862 Clouds 23 1008 35 10000 3.09 90 18:54 06.02.2021
2863 Clouds 24 1008 35 10000 3.09 100 18:34 06.02.2021
2864 Clouds 24 1008 33 10000 2.57 110 17:56 06.02.2021
2865 Clouds 25 1009 31 10000 3.09 90 17:38 06.02.2021
2866 Clouds 25 1009 31 10000 3.09 90 17:19 06.02.2021
2867 Clouds 25 1009 31 10000 3.09 100 16:41 06.02.2021
2868 Clouds 25 1009 31 10000 3.09 100 16:23 06.02.2021
2869 Clouds 25 1009 29 10000 3.09 90 15:48 06.02.2021
2870 Clouds 25 1010 29 10000 3.6 90 15:25 06.02.2021
2871 Clouds 26 1010 29 10000 3.09 100 14:45 06.02.2021
2872 Clouds 26 1009 28 10000 3.09 100 14:27 06.02.2021
2873 Clouds 27 1009 28 10000 3.09 100 13:51 06.02.2021
2874 Clouds 27 1009 28 10000 3.6 100 13:32 06.02.2021
2875 Clouds 28 1009 28 10000 4.12 90 12:23 06.02.2021
2876 Clouds 28 1008 28 10000 4.63 90 11:57 06.02.2021
2877 Clouds 28 1008 28 10000 5.66 90 11:38 06.02.2021
2878 Clouds 28 1008 28 10000 5.66 90 11:19 06.02.2021
2879 Clouds 29 1007 26 10000 5.66 100 10:42 06.02.2021
2880 Clouds 30 1007 26 10000 5.66 100 10:23 06.02.2021
2881 Clouds 31 1006 23 10000 6.69 90 09:37 06.02.2021
2882 Clouds 31 1006 23 10000 6.69 90 09:18 06.02.2021
2883 Clouds 31 1006 23 10000 5.66 120 08:49 06.02.2021
2884 Clouds 32 1007 20 10000 7.2 130 08:23 06.02.2021
2885 Clouds 31 1007 22 10000 5.66 150 06:29 06.02.2021
2886 Clouds 29 1009 26 10000 5.14 100 04:37 06.02.2021
2887 Clouds 26 1010 31 10000 4.63 80 02:34 06.02.2021
2888 Clouds 25 1010 31 10000 6.69 100 00:48 06.02.2021
2889 Clouds 24 1010 35 10000 5.66 90 00:20 06.02.2021
2890 Clouds 24 1010 43 10000 4.12 90 23:46 05.02.2021
2891 Clouds 23 1010 46 10000 3.09 90 23:26 05.02.2021
2892 Clouds 22 1010 49 10000 3.09 100 22:47 05.02.2021
2893 Clouds 22 1010 49 10000 2.57 90 22:23 05.02.2021
2894 Clouds 22 1009 49 10000 2.57 110 21:49 05.02.2021
2895 Clouds 22 1009 49 10000 2.57 120 21:28 05.02.2021
2896 Clouds 22 1009 49 10000 2.06 120 20:48 05.02.2021
2897 Clouds 22 1008 53 10000 2.57 90 19:53 05.02.2021
2898 Clouds 22 1008 49 10000 4.12 90 19:21 05.02.2021
2899 Clouds 23 1008 49 10000 4.63 100 18:54 05.02.2021
2900 Clouds 23 1008 53 10000 4.12 100 18:28 05.02.2021
2901 Clouds 23 1008 56 10000 3.6 110 17:47 05.02.2021
2902 Clouds 23 1008 56 10000 3.6 110 17:27 05.02.2021
2903 Rain 23 1008 56 10000 2.57 120 16:50 05.02.2021
2904 Clouds 24 1008 53 10000 3.09 120 16:28 05.02.2021
2905 Clouds 24 1008 53 10000 2.57 110 15:58 05.02.2021
2906 Clouds 24 1008 53 10000 3.09 100 15:27 05.02.2021
2907 Clouds 24 1008 50 10000 3.09 110 14:55 05.02.2021
2908 Clouds 24 1009 53 10000 3.09 100 14:36 05.02.2021
2909 Clouds 25 1009 53 10000 3.09 100 14:18 05.02.2021
2910 Clouds 25 1008 53 10000 3.6 120 13:38 05.02.2021
2911 Clouds 25 1008 50 10000 4.63 110 12:57 05.02.2021
2912 Clouds 25 1007 53 10000 4.63 100 12:38 05.02.2021
2913 Clouds 26 1007 50 10000 4.12 90 11:42 05.02.2021
2914 Clouds 26 1007 50 10000 4.12 90 11:22 05.02.2021
2915 Clouds 26 1006 50 10000 3.6 100 10:59 05.02.2021
2916 Clouds 26 1006 50 10000 4.12 120 10:28 05.02.2021
2917 Clouds 26 1005 50 10000 4.63 130 09:57 05.02.2021
2918 Clouds 27 1005 47 10000 5.66 140 09:39 05.02.2021
2919 Clouds 27 1005 47 10000 5.66 140 09:20 05.02.2021
2920 Clouds 27 1005 47 10000 3.09 110 08:29 05.02.2021
2921 Clouds 27 1006 47 10000 4.63 130 07:39 05.02.2021
2922 Clouds 27 1006 50 10000 3.6 160 06:57 05.02.2021
2923 Clouds 26 1007 53 10000 4.63 110 05:38 05.02.2021
2924 Clouds 23 1008 64 10000 5.14 110 03:23 05.02.2021
2925 Clouds 22 1008 73 10000 5.14 130 02:25 05.02.2021
2926 Clouds 22 1008 68 10000 5.66 120 00:41 05.02.2021
2927 Clouds 22 1008 68 10000 5.66 120 00:41 05.02.2021
2928 Clouds 22 1008 68 10000 5.66 120 00:21 05.02.2021
2929 Rain 22 1008 68 10000 4.12 110 23:58 04.02.2021
2930 Clouds 22 1008 68 10000 4.63 110 23:39 04.02.2021
2931 Clouds 22 1008 68 10000 4.63 110 23:20 04.02.2021
2932 Rain 22 1007 73 10000 4.12 100 22:51 04.02.2021
2933 Clouds 22 1006 73 10000 5.14 110 22:27 04.02.2021
2934 Clouds 22 1006 73 10000 5.66 120 21:42 04.02.2021
2935 Clouds 23 1005 83 10000 4.63 130 21:20 04.02.2021
2936 Clouds 24 1005 83 10000 5.66 120 20:49 04.02.2021
2937 Clouds 24 1004 83 10000 5.14 120 20:30 04.02.2021
2938 Clouds 24 1004 83 10000 5.14 120 20:30 04.02.2021
2939 Clouds 24 1004 83 10000 5.14 120 20:30 04.02.2021
2940 Clouds 24 1004 83 10000 5.14 120 20:30 04.02.2021
2941 Clouds 26 1004 78 10000 3.6 110 19:43 04.02.2021
2942 Rain 26 1003 78 10000 3.75 170 18:57 04.02.2021
2943 Clouds 26 1003 78 10000 4.6 172 18:26 04.02.2021
2944 Clouds 26 1003 78 10000 4.6 172 18:26 04.02.2021
2945 Clouds 27 1004 78 10000 1.54 160 17:53 04.02.2021
2946 Clouds 27 1004 78 10000 1.54 160 17:53 04.02.2021
2947 Clouds 27 1004 78 10000 1.03 330 17:28 04.02.2021
2948 Clouds 27 1004 78 10000 1.03 230 16:57 04.02.2021
2949 Clouds 27 1005 69 10000 3.09 220 16:38 04.02.2021
2950 Rain 27 1005 69 10000 3.09 220 16:18 04.02.2021
2951 Clouds 27 1005 69 10000 1.03 250 15:40 04.02.2021
2952 Clouds 27 1005 69 10000 1.03 250 15:20 04.02.2021
2953 Rain 27 1005 69 10000 2.57 230 14:47 04.02.2021
2954 Clouds 27 1005 69 10000 2.57 230 14:20 04.02.2021
2955 Clouds 27 1005 69 10000 3.09 210 13:45 04.02.2021
2956 Clouds 28 1005 65 10000 4.12 220 13:25 04.02.2021
2957 Clouds 29 1005 61 10000 5.66 210 12:52 04.02.2021
2958 Rain 30 1003 51 10000 4.12 210 11:57 04.02.2021
2959 Clouds 31 1003 42 10000 6.69 190 11:37 04.02.2021
2960 Rain 33 1002 29 10000 3.6 290 10:58 04.02.2021
2961 Clouds 33 1002 29 10000 5.14 280 10:34 04.02.2021
2962 Clouds 33 1002 29 10000 6.17 290 09:45 04.02.2021
2963 Clouds 33 1002 27 10000 6.17 280 09:22 04.02.2021
2964 Clouds 33 1002 27 10000 6.17 280 09:22 04.02.2021
2965 Clouds 34 1002 27 10000 5.66 270 08:51 04.02.2021
2966 Rain 34 1002 29 10000 6.69 260 08:26 04.02.2021
2967 Clouds 34 1003 29 10000 7.2 270 07:56 04.02.2021
2968 Clouds 34 1003 26 10000 6.69 250 07:33 04.02.2021
2969 Clouds 34 1003 24 10000 7.2 250 06:45 04.02.2021
2970 Clouds 35 1003 19 10000 9.77 260 05:52 04.02.2021
2971 Clear 37 1004 13 10000 9.26 320 02:40 04.02.2021
2972 Clear 36 1004 13 10000 9.26 320 02:18 04.02.2021
2973 Clouds 31 1005 11 10000 4.63 350 00:20 04.02.2021
2974 Clouds 27 1005 18 10000 0.51 120 23:30 03.02.2021
2975 Clouds 24 1005 23 10000 5.06 5 22:38 03.02.2021
2976 Clouds 22 1005 23 10000 4.48 10 22:20 03.02.2021
2977 Clouds 21 1005 24 10000 4.48 10 21:46 03.02.2021
2978 Clouds 21 1004 28 10000 1.03 290 21:23 03.02.2021
2979 Clouds 21 1004 28 10000 1.54 20 20:50 03.02.2021
2980 Clouds 20 1004 30 10000 3.99 15 20:31 03.02.2021
2981 Clouds 20 1004 28 10000 3.17 22 19:55 03.02.2021
2982 Clouds 21 1004 28 10000 2.57 20 19:25 03.02.2021
2983 Clouds 21 1005 28 10000 2.97 41 18:58 03.02.2021
2984 Clouds 21 1005 28 10000 2.97 41 18:37 03.02.2021
2985 Clouds 21 1005 28 10000 3.11 54 18:19 03.02.2021
2986 Clouds 22 1005 24 10000 3.11 54 17:43 03.02.2021
2987 Clouds 22 1005 24 10000 3.3 67 17:19 03.02.2021
2988 Clouds 23 1006 25 10000 2.06 30 16:40 03.02.2021
2989 Clouds 23 1006 25 10000 2.06 30 16:20 03.02.2021
2990 Clouds 24 1007 22 10000 2.57 30 15:39 03.02.2021
2991 Clouds 24 1007 22 10000 2.57 30 15:20 03.02.2021
2992 Clouds 25 1007 20 10000 2.06 30 14:44 03.02.2021
2993 Clouds 26 1007 19 10000 2.06 60 14:21 03.02.2021
2994 Clouds 27 1007 18 10000 2.57 70 13:44 03.02.2021
2995 Clouds 28 1006 15 10000 3.09 80 13:19 03.02.2021
2996 Clouds 29 1005 14 10000 3.09 110 12:40 03.02.2021
2997 Clouds 30 1005 14 10000 3.09 110 12:20 03.02.2021
2998 Clouds 32 1005 12 10000 3.6 110 11:42 03.02.2021
2999 Clouds 32 1005 12 10000 3.6 110 11:23 03.02.2021
3000 Clouds 34 1005 10 10000 4.12 100 10:38 03.02.2021
3001 Clouds 35 1005 10 10000 4.12 100 10:18 03.02.2021
3002 Clouds 35 1005 9 10000 4.63 130 09:39 03.02.2021
3003 Clouds 36 1005 9 10000 4.63 130 09:20 03.02.2021
3004 Clouds 36 1005 10 10000 3.6 170 08:45 03.02.2021
3005 Clouds 36 1005 11 10000 4.63 150 07:58 03.02.2021
3006 Clouds 35 1006 12 10000 3.6 90 06:43 03.02.2021
3007 Clouds 35 1007 12 10000 4.63 120 05:19 03.02.2021
3008 Clouds 33 1008 15 10000 4.63 90 04:42 03.02.2021
3009 Clear 33 1009 15 10000 2.06 90 03:51 03.02.2021
3010 Clear 31 1010 14 10000 6.17 60 02:40 03.02.2021
3011 Clear 29 1011 17 10000 7.72 70 01:47 03.02.2021
3012 Clear 28 1011 18 10000 8.23 70 00:24 03.02.2021
3013 Clear 26 1011 24 10000 6.17 80 23:43 02.02.2021
3014 Clear 25 1011 25 10000 3.09 70 23:25 02.02.2021
3015 Clear 23 1011 42 10000 1.03 90 22:43 02.02.2021
3016 Clear 22 1011 42 10000 1.03 90 22:20 02.02.2021
3017 Clear 22 1010 37 10000 4.15 96 21:46 02.02.2021
3018 Clouds 22 1010 40 10000 1.54 90 21:23 02.02.2021
3019 Clouds 22 1010 35 10000 2.57 100 20:49 02.02.2021
3020 Clear 23 1009 31 10000 2.57 100 20:21 02.02.2021
3021 Clear 24 1010 29 10000 3.09 90 19:51 02.02.2021
3022 Clear 24 1010 27 10000 3.6 90 19:33 02.02.2021
3023 Clouds 25 1010 29 10000 3.6 90 18:56 02.02.2021
3024 Clouds 25 1010 29 10000 3.6 90 18:37 02.02.2021
3025 Clouds 26 1010 29 10000 3.6 90 18:19 02.02.2021
3026 Clouds 26 1010 31 10000 3.6 100 17:38 02.02.2021
3027 Clouds 27 1010 31 10000 3.6 100 17:19 02.02.2021
3028 Clouds 27 1010 33 10000 3.09 100 16:44 02.02.2021
3029 Clouds 27 1010 33 10000 2.57 110 16:25 02.02.2021
3030 Clouds 27 1011 31 10000 2.57 120 15:54 02.02.2021
3031 Clear 27 1011 32 10000 3.09 110 15:29 02.02.2021
3032 Clear 28 1011 32 10000 3.09 120 14:52 02.02.2021
3033 Clear 28 1011 30 10000 2.57 110 14:33 02.02.2021
3034 Clear 29 1010 28 10000 3.09 110 13:56 02.02.2021
3035 Clear 30 1010 25 10000 3.09 100 13:38 02.02.2021
3036 Clouds 30 1010 25 10000 3.09 100 13:19 02.02.2021
3037 Clouds 30 1010 23 10000 4.12 110 12:42 02.02.2021
3038 Clouds 31 1010 22 10000 4.63 110 11:46 02.02.2021
3039 Clouds 31 1010 20 10000 4.63 110 11:25 02.02.2021
3040 Clouds 32 1009 21 10000 5.66 100 10:56 02.02.2021
3041 Clouds 33 1009 20 10000 5.66 120 10:31 02.02.2021
3042 Clouds 34 1009 20 10000 5.66 110 09:48 02.02.2021
3043 Clouds 34 1009 21 10000 5.66 80 09:26 02.02.2021
3044 Clouds 34 1009 21 10000 5.66 80 09:26 02.02.2021
3045 Clouds 35 1009 18 10000 5.66 130 08:59 02.02.2021
3046 Clouds 35 1009 20 10000 7.72 120 08:33 02.02.2021
3047 Clear 35 1009 20 10000 5.66 130 07:41 02.02.2021
3048 Clear 35 1009 20 10000 6.69 100 06:45 02.02.2021
3049 Clear 35 1010 21 10000 5.66 100 06:21 02.02.2021
3050 Clear 34 1010 22 10000 6.69 130 05:46 02.02.2021
3051 Clear 31 1012 29 10000 6.17 90 02:45 02.02.2021
3052 Clear 31 1013 29 10000 7.2 100 02:23 02.02.2021
3053 Clear 28 1013 36 10000 7.2 100 00:36 02.02.2021
3054 Clouds 27 1013 41 10000 6.17 110 23:30 01.02.2021
3055 Clouds 26 1013 41 10000 5.14 120 22:51 01.02.2021
3056 Clouds 25 1012 44 10000 5.66 130 22:33 01.02.2021
3057 Clouds 26 1012 38 10000 5.14 120 21:53 01.02.2021
3058 Clouds 26 1011 38 10000 6.69 120 21:34 01.02.2021
3059 Clouds 26 1011 38 10000 5.66 120 20:57 01.02.2021
3060 Clouds 27 1011 36 10000 6.17 120 20:37 01.02.2021
3061 Clouds 27 1011 36 10000 6.17 120 20:19 01.02.2021
3062 Clouds 28 1010 39 10000 5.14 120 19:38 01.02.2021
3063 Clouds 28 1010 39 10000 5.14 120 19:19 01.02.2021
3064 Clouds 28 1011 39 10000 4.12 120 18:47 01.02.2021
3065 Clouds 28 1011 39 10000 3.6 130 18:27 01.02.2021
3066 Clouds 28 1011 39 10000 3.6 130 17:47 01.02.2021
3067 Clouds 28 1011 39 10000 4.12 130 17:23 01.02.2021
3068 Clouds 28 1012 37 10000 4.12 120 16:47 01.02.2021
3069 Clouds 28 1012 37 10000 4.63 120 16:28 01.02.2021
3070 Clouds 29 1012 37 10000 5.14 120 15:43 01.02.2021
3071 Clouds 29 1012 37 10000 5.14 110 15:19 01.02.2021
3072 Clouds 29 1012 34 10000 7.2 120 14:51 01.02.2021
3073 Clouds 29 1012 32 10000 7.72 110 14:27 01.02.2021
3074 Clouds 30 1012 32 10000 7.2 120 13:47 01.02.2021
3075 Clouds 30 1011 30 10000 8.23 120 13:26 01.02.2021
3076 Clouds 30 1011 30 10000 8.23 120 13:26 01.02.2021
3077 Clouds 31 1011 27 10000 6.17 120 12:45 01.02.2021
3078 Clouds 31 1011 27 10000 6.17 120 12:45 01.02.2021
3079 Clouds 31 1011 29 10000 6.17 110 12:25 01.02.2021
3080 Clouds 33 1010 25 10000 7.2 120 11:51 01.02.2021
3081 Clouds 33 1010 24 10000 8.23 120 11:21 01.02.2021
3082 Clouds 33 1010 24 10000 8.23 120 11:21 01.02.2021
3083 Clouds 34 1009 22 10000 8.23 120 10:52 01.02.2021
3084 Clouds 34 1009 21 10000 8.23 110 10:22 01.02.2021
3085 Clouds 34 1009 21 10000 7.72 120 09:55 01.02.2021
3086 Clouds 37 1009 20 10000 8.23 120 09:35 01.02.2021
3087 Clouds 37 1008 19 10000 9.26 110 08:56 01.02.2021
3088 Clear 38 1008 19 10000 5.66 150 08:26 01.02.2021
3089 Clear 37 1009 20 10000 7.72 90 07:30 01.02.2021
3090 Clear 37 1010 22 10000 6.69 100 04:34 01.02.2021
3091 Clear 34 1011 26 10000 7.2 100 02:40 01.02.2021
3092 Clear 31 1011 29 10000 6.69 90 00:25 01.02.2021
3093 Rain 30 1011 26 10000 5.14 100 23:21 31.01.2021
3094 Rain 29 1010 32 10000 2.57 130 22:38 31.01.2021
3095 Rain 29 1010 32 10000 2.57 130 22:19 31.01.2021
3096 Rain 28 1009 34 10000 2.57 130 21:46 31.01.2021
3097 Clouds 28 1009 34 10000 2.57 130 21:19 31.01.2021
3098 Clouds 28 1009 39 10000 5.72 126 20:43 31.01.2021
3099 Clouds 28 1009 39 10000 5.69 128 20:21 31.01.2021
3100 Clouds 27 1008 41 10000 2.06 250 19:39 31.01.2021
3101 Rain 26 1008 41 10000 2.06 250 19:21 31.01.2021
3102 Rain 26 1008 41 10000 2.06 250 19:21 31.01.2021
3103 Clouds 27 1008 39 10000 5.77 128 18:55 31.01.2021
3104 Clouds 28 1008 39 10000 5.77 128 18:37 31.01.2021
3105 Rain 28 1008 39 10000 5.26 126 18:18 31.01.2021
3106 Clear 29 1009 36 10000 3.09 110 17:39 31.01.2021
3107 Clear 29 1009 36 10000 3.09 110 17:21 31.01.2021
3108 Clear 30 1009 34 10000 2.57 110 16:42 31.01.2021
3109 Clear 30 1009 34 10000 2.57 110 16:20 31.01.2021
3110 Clear 30 1009 32 10000 3.09 120 15:49 31.01.2021
3111 Clouds 31 1009 32 10000 2.57 120 15:25 31.01.2021
3112 Clouds 31 1009 29 10000 2.57 120 14:36 31.01.2021
3113 Clouds 31 1009 29 10000 2.57 120 14:18 31.01.2021
3114 Clouds 32 1009 27 10000 3.09 110 13:44 31.01.2021
3115 Clouds 32 1008 27 10000 2.57 120 13:19 31.01.2021
3116 Clouds 33 1008 25 10000 3.09 120 12:46 31.01.2021
3117 Clouds 33 1008 24 10000 3.6 120 12:20 31.01.2021
3118 Clouds 34 1007 23 10000 4.63 110 11:40 31.01.2021
3119 Clouds 34 1007 23 10000 4.63 110 11:20 31.01.2021
3120 Clouds 35 1007 20 10000 4.63 120 10:46 31.01.2021
3121 Clouds 35 1007 21 10000 5.14 110 10:27 31.01.2021
3122 Clouds 37 1007 18 10000 3.09 90 09:41 31.01.2021
3123 Clouds 37 1007 18 10000 4.12 130 08:53 31.01.2021
3124 Clouds 37 1007 18 10000 5.14 50 08:31 31.01.2021
3125 Clouds 36 1008 19 10000 5.14 70 06:47 31.01.2021
3126 Clouds 35 1010 20 10000 7.2 60 03:53 31.01.2021
3127 Clouds 30 1011 23 10000 6.69 80 00:28 31.01.2021
3128 Clouds 29 1011 26 10000 8.23 90 00:00 31.01.2021
3129 Clouds 29 1011 26 10000 6.69 90 23:28 30.01.2021
3130 Clouds 28 1011 30 10000 3.6 100 22:45 30.01.2021
3131 Clouds 28 1011 30 10000 4.12 90 22:23 30.01.2021
3132 Clouds 28 1010 32 10000 5.14 90 21:39 30.01.2021
3133 Clouds 28 1010 32 10000 5.14 90 21:20 30.01.2021
3134 Clouds 28 1009 30 10000 5.14 90 20:41 30.01.2021
3135 Clouds 29 1009 30 10000 5.14 90 20:23 30.01.2021
3136 Clouds 29 1009 32 10000 6.69 90 19:40 30.01.2021
3137 Clouds 29 1009 32 10000 6.69 90 19:22 30.01.2021
3138 Clouds 30 1009 32 10000 6.69 80 18:40 30.01.2021
3139 Clouds 30 1009 32 10000 6.69 80 18:20 30.01.2021
3140 Clouds 30 1009 32 10000 5.66 90 17:49 30.01.2021
3141 Clouds 30 1009 30 10000 6.17 90 17:19 30.01.2021
3142 Clouds 31 1010 30 10000 5.66 90 16:41 30.01.2021
3143 Clouds 31 1010 30 10000 5.66 90 16:22 30.01.2021
3144 Clouds 31 1010 33 10000 6.17 90 15:49 30.01.2021
3145 Clouds 31 1010 33 10000 5.14 100 15:24 30.01.2021
3146 Clouds 32 1009 31 10000 5.66 100 14:53 30.01.2021
3147 Clouds 32 1009 31 10000 4.63 100 14:32 30.01.2021
3148 Clouds 32 1009 33 10000 4.63 90 13:57 30.01.2021
3149 Clouds 33 1009 31 10000 5.14 100 13:21 30.01.2021
3150 Clouds 33 1009 33 10000 5.14 100 12:44 30.01.2021
3151 Clouds 33 1008 33 10000 6.17 100 12:26 30.01.2021
3152 Clouds 33 1008 31 10000 5.66 90 11:47 30.01.2021
3153 Clouds 33 1007 31 10000 7.2 100 10:57 30.01.2021
3154 Clouds 34 1007 29 10000 7.2 110 10:28 30.01.2021
3155 Clouds 35 1006 28 10000 7.72 100 09:42 30.01.2021
3156 Clouds 35 1006 28 10000 7.72 100 09:24 30.01.2021
3157 Clouds 35 1007 30 10000 7.2 90 08:44 30.01.2021
3158 Clouds 36 1007 28 10000 5.66 90 07:42 30.01.2021
3159 Clouds 36 1008 32 10000 6.69 90 06:32 30.01.2021
3160 Clouds 34 1010 38 10000 7.72 90 03:51 30.01.2021
3161 Clouds 34 1010 40 10000 6.69 70 03:31 30.01.2021
3162 Clouds 32 1010 45 10000 7.72 90 02:22 30.01.2021
3163 Clouds 31 1010 48 10000 7.72 90 00:56 30.01.2021
3164 Clouds 30 1010 54 10000 7.72 90 00:26 30.01.2021
3165 Clouds 29 1010 57 10000 5.14 90 23:54 29.01.2021
3166 Clouds 28 1010 57 10000 4.12 90 23:27 29.01.2021
3167 Clouds 26 1010 69 10000 3.6 90 22:46 29.01.2021
3168 Clouds 26 1009 69 10000 4.12 90 22:28 29.01.2021
3169 Clouds 26 1009 78 10000 3.09 80 21:56 29.01.2021
3170 Clouds 25 1009 78 10000 2.57 90 21:26 29.01.2021
3171 Clouds 25 1009 88 10000 3.09 110 20:43 29.01.2021
3172 Clouds 25 1009 88 10000 3.09 110 20:21 29.01.2021
3173 Clouds 25 1009 83 10000 5.14 130 19:39 29.01.2021
3174 Clouds 25 1009 83 10000 5.14 130 19:20 29.01.2021
3175 Clouds 27 1009 61 10000 2.57 110 18:48 29.01.2021
3176 Clouds 27 1009 61 10000 2.57 40 17:47 29.01.2021
3177 Clouds 27 1009 57 10000 3.6 50 17:22 29.01.2021
3178 Clouds 27 1009 54 10000 7.2 80 16:49 29.01.2021
3179 Clouds 27 1009 54 10000 7.2 70 16:24 29.01.2021
3180 Clouds 27 1009 51 10000 8.23 90 15:54 29.01.2021
3181 Clouds 27 1009 51 10000 7.72 90 15:36 29.01.2021
3182 Clouds 29 1009 54 10000 3.6 80 14:58 29.01.2021
3183 Clouds 29 1009 54 10000 5.66 70 14:21 29.01.2021
3184 Clouds 29 1009 51 10000 5.66 100 13:46 29.01.2021
3185 Clouds 29 1009 48 10000 6.69 100 13:27 29.01.2021
3186 Rain 29 1008 45 10000 6.17 110 12:30 29.01.2021
3187 Rain 28 1008 58 10000 1.03 210 11:58 29.01.2021
3188 Rain 28 1007 58 10000 2.57 270 11:40 29.01.2021
3189 Rain 30 1007 58 10000 2.57 270 11:18 29.01.2021
3190 Clouds 31 1006 51 10000 1.54 130 10:41 29.01.2021
3191 Clouds 31 1006 51 10000 5.14 140 09:56 29.01.2021
3192 Rain 31 1006 51 10000 5.14 140 09:36 29.01.2021
3193 Clouds 32 1006 45 10000 4.63 130 08:48 29.01.2021
3194 Clouds 33 1006 38 10000 4.12 120 08:26 29.01.2021
3195 Clouds 32 1006 40 10000 6.69 110 07:44 29.01.2021
3196 Clouds 33 1005 45 10000 9.26 100 07:23 29.01.2021
3197 Clouds 35 1005 32 10000 4.12 50 06:35 29.01.2021
3198 Clear 34 1008 38 10000 4.12 70 03:53 29.01.2021
3199 Clear 30 1008 42 10000 4.63 100 00:51 29.01.2021
3200 Clear 30 1008 42 10000 4.63 100 00:23 29.01.2021
3201 Clouds 30 1008 45 10000 3.6 110 23:47 28.01.2021
3202 Clouds 28 1008 44 10000 3.09 120 23:28 28.01.2021
3203 Clouds 28 1008 42 10000 2.57 130 22:59 28.01.2021
3204 Clouds 27 1007 44 10000 2.57 170 22:39 28.01.2021
3205 Clouds 27 1007 44 10000 2.57 170 22:21 28.01.2021
3206 Clouds 27 1007 44 10000 2.57 170 22:21 28.01.2021
3207 Clouds 27 1006 47 10000 1.54 170 21:42 28.01.2021
3208 Clouds 27 1006 47 10000 1.54 170 21:22 28.01.2021
3209 Clouds 27 1006 47 10000 2.06 120 20:45 28.01.2021
3210 Clouds 27 1006 44 10000 1.54 120 20:19 28.01.2021
3211 Clouds 28 1006 42 10000 2.57 120 19:52 28.01.2021
3212 Clouds 29 1006 39 10000 3.09 110 19:28 28.01.2021
3213 Clouds 29 1006 39 10000 3.09 120 18:49 28.01.2021
3214 Clouds 29 1006 39 10000 3.09 120 18:49 28.01.2021
3215 Clouds 29 1006 39 10000 3.6 100 18:30 28.01.2021
3216 Clouds 30 1006 39 10000 4.63 110 17:54 28.01.2021
3217 Clouds 30 1006 48 10000 2.57 140 17:34 28.01.2021
3218 Clouds 30 1007 48 10000 2.57 100 16:58 28.01.2021
3219 Clouds 30 1007 51 10000 0.51 160 16:39 28.01.2021
3220 Clouds 30 1007 51 10000 0.51 160 16:20 28.01.2021
3221 Clouds 29 1007 51 10000 2.57 180 15:25 28.01.2021
3222 Clouds 30 1007 51 10000 4.95 325 14:47 28.01.2021
3223 Clouds 30 1007 51 10000 4.37 356 14:26 28.01.2021
3224 Clouds 30 1006 51 10000 2.06 40 13:55 28.01.2021
3225 Clouds 30 1006 48 10000 1.54 50 13:23 28.01.2021
3226 Clouds 30 1006 48 10000 2.57 70 12:49 28.01.2021
3227 Clouds 31 1006 43 10000 1.54 60 12:26 28.01.2021
3228 Clouds 31 1005 43 10000 2.57 30 11:44 28.01.2021
3229 Clouds 32 1005 38 10000 2.06 110 11:22 28.01.2021
3230 Rain 33 1005 38 10000 2.57 80 10:57 28.01.2021
3231 Clouds 33 1005 38 10000 2.57 90 10:39 28.01.2021
3232 Rain 33 1005 38 10000 2.57 90 10:20 28.01.2021
3233 Clouds 33 1004 33 10000 3.6 150 09:36 28.01.2021
3234 Clouds 35 1004 33 10000 3.6 150 09:18 28.01.2021
3235 Clouds 35 1005 36 10000 2.57 120 08:40 28.01.2021
3236 Clouds 34 1005 36 10000 3.6 130 07:49 28.01.2021
3237 Clouds 36 1006 36 10000 2.06 270 07:18 28.01.2021
3238 Clouds 36 1006 38 10000 3.09 310 06:44 28.01.2021
3239 Clear 33 1008 42 10000 3.09 40 04:30 28.01.2021
3240 Clouds 30 1009 51 10000 2.57 110 02:26 28.01.2021
3241 Clouds 25 1009 65 10000 2.57 130 00:27 28.01.2021
3242 Clouds 24 1009 73 10000 3.09 150 23:25 27.01.2021
3243 Clouds 24 1009 73 10000 2.06 150 22:44 27.01.2021
3244 Clouds 23 1008 78 10000 3.09 150 22:25 27.01.2021
3245 Clouds 23 1008 78 10000 2.57 150 21:55 27.01.2021
3246 Clouds 24 1008 73 10000 3.09 130 21:37 27.01.2021
3247 Clouds 24 1008 73 10000 3.09 130 21:19 27.01.2021
3248 Clouds 24 1007 78 10000 2.57 120 20:39 27.01.2021
3249 Clouds 24 1008 83 10000 1.03 10 19:57 27.01.2021
3250 Clouds 24 1007 88 10000 0.51 40 19:37 27.01.2021
3251 Clouds 23 1007 88 10000 0.51 40 19:18 27.01.2021
3252 Clouds 24 1007 83 10000 2.57 110 18:41 27.01.2021
3253 Clouds 23 1007 83 10000 2.57 110 18:22 27.01.2021
3254 Clouds 23 1008 83 10000 3.6 60 17:44 27.01.2021
3255 Clouds 23 1008 83 10000 3.6 60 17:18 27.01.2021
3256 Clouds 23 1008 83 10000 3.6 60 17:18 27.01.2021
3257 Clouds 23 1008 83 10000 2.06 60 16:45 27.01.2021
3258 Clouds 23 1009 83 10000 2.57 20 16:27 27.01.2021
3259 Clouds 23 1009 83 10000 3.6 50 15:50 27.01.2021
3260 Clouds 25 1010 78 10000 3.09 20 15:30 27.01.2021
3261 Clouds 27 1009 69 10000 5.66 100 14:41 27.01.2021
3262 Clouds 27 1009 69 10000 5.66 100 14:20 27.01.2021
3263 Clouds 27 1009 69 10000 5.66 100 14:20 27.01.2021
3264 Clouds 27 1008 74 10000 3.6 130 13:41 27.01.2021
3265 Clouds 29 1008 58 10000 4.12 150 12:46 27.01.2021
3266 Clouds 29 1007 58 10000 6.17 150 12:26 27.01.2021
3267 Clouds 30 1006 61 10000 6.69 170 11:52 27.01.2021
3268 Clouds 30 1006 58 10000 6.69 160 11:26 27.01.2021
3269 Clouds 31 1005 45 10000 7.72 170 10:52 27.01.2021
3270 Clouds 32 1004 43 10000 6.17 170 10:26 27.01.2021
3271 Clouds 33 1004 43 10000 7.72 160 09:59 27.01.2021
3272 Clouds 34 1004 38 10000 6.17 150 09:33 27.01.2021
3273 Clouds 34 1004 38 10000 3.6 130 08:47 27.01.2021
3274 Clouds 34 1005 38 10000 4.12 130 07:58 27.01.2021
3275 Clouds 35 1005 38 10000 4.12 110 07:39 27.01.2021
3276 Clouds 34 1006 43 10000 5.14 150 06:47 27.01.2021
3277 Clouds 34 1006 45 10000 5.14 120 05:56 27.01.2021
3278 Clouds 34 1007 48 10000 4.63 150 05:35 27.01.2021
3279 Clouds 28 1009 65 10000 3.6 150 02:46 27.01.2021
3280 Clouds 28 1009 65 10000 3.6 150 02:20 27.01.2021
3281 Clouds 27 1009 69 10000 4.12 150 01:46 27.01.2021
3282 Clouds 25 1009 83 10000 4.63 210 00:29 27.01.2021
3283 Clouds 25 1009 83 10000 4.12 170 23:40 26.01.2021
3284 Clouds 25 1009 83 10000 4.12 170 23:21 26.01.2021
3285 Clouds 25 1008 94 10000 3.09 260 22:40 26.01.2021
3286 Clouds 25 1008 94 10000 3.09 260 22:19 26.01.2021
3287 Clouds 25 1008 88 10000 2.57 190 21:52 26.01.2021
3288 Clouds 25 1008 88 10000 2.06 200 21:25 26.01.2021
3289 Clouds 25 1007 88 10000 4.51 140 20:54 26.01.2021
3290 Clouds 25 1007 88 10000 0.51 210 20:36 26.01.2021
3291 Clouds 25 1007 88 10000 0.51 210 20:18 26.01.2021
3292 Clouds 25 1007 88 10000 0.51 210 20:18 26.01.2021
3293 Clouds 25 1006 88 10000 3.6 220 19:40 26.01.2021
3294 Clouds 25 1006 88 10000 3.6 220 19:19 26.01.2021
3295 Clouds 25 1006 88 10000 1.01 212 18:42 26.01.2021
3296 Clouds 25 1006 88 10000 1.73 304 18:23 26.01.2021
3297 Clouds 25 1006 88 10000 1.54 140 17:48 26.01.2021
3298 Clouds 25 1006 83 10000 2.57 130 17:23 26.01.2021
3299 Clouds 25 1006 88 10000 3.6 50 16:52 26.01.2021
3300 Clouds 25 1006 88 10000 2.57 130 16:22 26.01.2021
3301 Clouds 25 1006 88 10000 3.09 130 15:57 26.01.2021
3302 Clouds 25 1006 83 10000 2.06 10 15:36 26.01.2021
3303 Clouds 25 1006 78 10000 4.12 50 14:49 26.01.2021
3304 Clouds 25 1006 83 10000 5.14 20 14:30 26.01.2021
3305 Clouds 25 1006 83 10000 4.12 10 13:59 26.01.2021
3306 Clouds 25 1006 88 10000 2.57 10 13:29 26.01.2021
3307 Clouds 25 1006 88 10000 3.6 10 12:46 26.01.2021
3308 Clouds 25 1006 88 10000 3.6 10 12:46 26.01.2021
3309 Clouds 25 1006 83 10000 3.09 60 12:26 26.01.2021
3310 Clouds 25 1006 88 10000 3.6 360 11:59 26.01.2021
3311 Clouds 25 1005 83 10000 3.6 10 11:40 26.01.2021
3312 Clouds 26 1005 83 10000 4.12 300 10:56 26.01.2021
3313 Clouds 25 1005 88 10000 5.66 200 10:33 26.01.2021
3314 Clouds 28 1004 65 10000 1.54 120 09:50 26.01.2021
3315 Clouds 28 1003 65 10000 7.72 120 09:32 26.01.2021
3316 Clouds 29 1002 61 10000 10.8 110 08:55 26.01.2021
3317 Clouds 29 1002 61 10000 10.8 110 08:37 26.01.2021
3318 Clouds 38 1001 22 10000 2.57 220 07:53 26.01.2021
3319 Clouds 38 1002 25 10000 5.66 300 06:53 26.01.2021
3320 Clouds 38 1003 25 10000 3.6 300 05:45 26.01.2021
3321 Clouds 37 1004 26 10000 2.86 147 05:24 26.01.2021
3322 Clear 34 1005 36 10000 1.54 340 02:57 26.01.2021
3323 Clouds 31 1006 48 10000 3.09 250 00:58 26.01.2021
3324 Clouds 28 1006 57 10000 2.57 240 23:40 25.01.2021
3325 Clouds 28 1006 57 10000 2.57 240 23:18 25.01.2021
3326 Clouds 27 1005 61 10000 2.71 285 22:39 25.01.2021
3327 Clouds 26 1005 61 10000 2.57 80 21:58 25.01.2021
3328 Clouds 26 1004 57 10000 2.06 140 21:39 25.01.2021
3329 Clouds 26 1004 57 10000 2.57 270 20:53 25.01.2021
3330 Clouds 26 1003 57 10000 2.57 280 20:33 25.01.2021
3331 Clouds 26 1003 54 10000 2.57 240 19:52 25.01.2021
3332 Clouds 27 1003 51 10000 3.6 250 19:32 25.01.2021
3333 Clouds 26 1003 54 10000 3.6 270 18:59 25.01.2021
3334 Clouds 27 1003 51 10000 3.09 280 18:41 25.01.2021
3335 Clouds 27 1003 51 10000 3.09 280 18:21 25.01.2021
3336 Clouds 27 1003 48 10000 4.12 290 17:42 25.01.2021
3337 Clouds 27 1003 48 10000 4.12 290 17:23 25.01.2021
3338 Clouds 27 1004 48 10000 4.12 300 16:41 25.01.2021
3339 Clouds 27 1004 48 10000 4.12 300 16:23 25.01.2021
3340 Clouds 27 1004 48 10000 3.6 290 15:53 25.01.2021
3341 Clouds 30 1005 48 10000 2.57 320 15:32 25.01.2021
3342 Clouds 31 1005 42 10000 4.12 310 14:51 25.01.2021
3343 Clouds 31 1005 42 10000 5.66 300 14:20 25.01.2021
3344 Clouds 32 1005 40 10000 5.14 310 13:54 25.01.2021
3345 Clouds 32 1004 43 10000 5.66 320 13:35 25.01.2021
3346 Clouds 32 1004 40 10000 5.14 320 12:49 25.01.2021
3347 Clouds 32 1004 40 10000 4.63 330 12:24 25.01.2021
3348 Clouds 32 1004 37 10000 5.14 360 11:57 25.01.2021
3349 Clouds 32 1003 37 10000 2.57 60 11:20 25.01.2021
3350 Clouds 32 1003 40 10000 5.14 150 10:43 25.01.2021
3351 Clouds 36 1002 26 10000 4.63 290 10:20 25.01.2021
3352 Clouds 35 1002 29 10000 4.12 290 09:46 25.01.2021
3353 Clouds 35 1002 29 10000 4.12 290 09:28 25.01.2021
3354 Clouds 34 1002 31 10000 9.26 270 08:32 25.01.2021
3355 Clouds 36 1003 28 10000 5.14 280 07:46 25.01.2021
3356 Clouds 36 1003 28 10000 5.14 280 07:26 25.01.2021
3357 Clouds 37 1003 26 10000 7.2 250 06:22 25.01.2021
3358 Clouds 32 1006 45 10000 9.77 300 01:34 25.01.2021
3359 Clouds 28 1006 61 10000 7.2 290 23:52 24.01.2021
3360 Clouds 25 1006 69 10000 7.2 300 23:20 24.01.2021
3361 Clouds 25 1006 65 10000 7.72 300 22:44 24.01.2021
3362 Clouds 25 1005 65 10000 3.6 310 22:25 24.01.2021
3363 Clouds 25 1005 69 10000 3.6 320 21:51 24.01.2021
3364 Clouds 25 1005 65 10000 6.17 310 21:24 24.01.2021
3365 Clouds 26 1005 57 10000 6.69 310 20:46 24.01.2021
3366 Clouds 26 1005 61 10000 4.63 320 20:22 24.01.2021
3367 Clouds 25 1005 69 10000 5.14 330 19:55 24.01.2021
3368 Clouds 25 1005 69 10000 5.66 320 19:28 24.01.2021
3369 Clouds 25 1005 73 10000 7.2 330 18:59 24.01.2021
3370 Clouds 25 1005 69 10000 8.75 310 18:40 24.01.2021
3371 Clouds 25 1005 69 10000 8.75 310 18:21 24.01.2021
3372 Clouds 26 1005 65 10000 7.72 330 17:51 24.01.2021
3373 Clouds 26 1005 61 10000 7.2 320 17:30 24.01.2021
3374 Clouds 25 1006 73 10000 7.2 330 16:59 24.01.2021
3375 Clouds 25 1006 78 10000 6.17 330 16:39 24.01.2021
3376 Clouds 25 1006 78 10000 6.17 330 16:19 24.01.2021
3377 Clouds 25 1006 83 10000 8.75 330 15:44 24.01.2021
3378 Rain 25 1007 88 10000 6.69 320 15:19 24.01.2021
3379 Rain 25 1007 88 10000 6.69 330 14:43 24.01.2021
3380 Rain 25 1007 83 10000 6.69 320 13:52 24.01.2021
3381 Rain 25 1007 83 10000 8.23 290 13:34 24.01.2021
3382 Rain 25 1007 78 10000 7.72 290 12:50 24.01.2021
3383 Rain 26 1007 65 10000 5.66 290 12:21 24.01.2021
3384 Rain 26 1006 57 10000 4.63 330 11:54 24.01.2021
3385 Rain 26 1006 65 10000 4.12 330 11:25 24.01.2021
3386 Rain 26 1006 61 10000 5.14 320 10:50 24.01.2021
3387 Rain 27 1005 48 10000 5.66 330 10:30 24.01.2021
3388 Rain 27 1005 42 10000 4.63 350 09:44 24.01.2021
3389 Clouds 29 1005 48 10000 8.23 320 09:18 24.01.2021
3390 Clouds 28 1005 74 10000 3.6 40 08:26 24.01.2021
3391 Clouds 31 1008 48 10000 5.14 260 03:37 24.01.2021
3392 Clouds 31 1009 48 10000 6.69 300 02:18 24.01.2021
3393 Clouds 27 1009 51 10000 7.2 350 00:27 24.01.2021
3394 Clouds 27 1008 48 10000 8.75 320 23:57 23.01.2021
3395 Clouds 27 1008 54 10000 8.75 310 23:29 23.01.2021
3396 Clouds 27 1007 54 10000 8.23 310 22:58 23.01.2021
3397 Clouds 27 1007 54 10000 6.69 320 22:40 23.01.2021
3398 Rain 27 1007 51 10000 8.75 330 21:57 23.01.2021
3399 Rain 27 1006 48 10000 8.23 320 21:23 23.01.2021
3400 Rain 27 1006 45 10000 8.23 330 20:50 23.01.2021
3401 Clouds 28 1006 42 10000 6.69 320 20:29 23.01.2021
3402 Clouds 28 1006 42 10000 8.75 330 19:47 23.01.2021
3403 Clouds 28 1006 42 10000 8.75 330 19:47 23.01.2021
3404 Clouds 28 1006 42 10000 6.69 330 19:25 23.01.2021
3405 Clouds 28 1006 42 10000 6.69 330 18:52 23.01.2021
3406 Clouds 28 1006 40 10000 5.66 330 18:28 23.01.2021
3407 Clouds 28 1006 40 10000 5.66 330 18:28 23.01.2021
3408 Clouds 28 1006 40 10000 6.17 330 17:55 23.01.2021
3409 Rain 28 1006 40 10000 3.6 350 17:28 23.01.2021
3410 Rain 28 1007 37 10000 4.12 350 16:51 23.01.2021
3411 Rain 28 1007 35 10000 4.12 350 16:31 23.01.2021
3412 Rain 28 1007 35 10000 4.63 340 15:48 23.01.2021
3413 Clouds 28 1008 35 10000 4.63 330 15:26 23.01.2021
3414 Clouds 28 1008 35 10000 5.14 330 14:37 23.01.2021
3415 Clouds 28 1008 35 10000 5.14 330 14:19 23.01.2021
3416 Clouds 28 1007 31 10000 5.66 330 13:40 23.01.2021
3417 Rain 29 1007 31 10000 5.66 330 13:21 23.01.2021
3418 Rain 29 1007 29 10000 4.12 330 12:42 23.01.2021
3419 Rain 29 1007 29 10000 4.12 330 12:22 23.01.2021
3420 Rain 29 1006 26 10000 4.63 330 11:34 23.01.2021
3421 Rain 29 1006 26 10000 6.17 330 10:53 23.01.2021
3422 Rain 29 1006 26 10000 6.17 330 10:22 23.01.2021
3423 Rain 29 1005 26 10000 5.14 330 09:49 23.01.2021
3424 Rain 36 1005 24 10000 5.14 310 09:24 23.01.2021
3425 Rain 36 1005 26 10000 7.2 310 08:38 23.01.2021
3426 Clouds 36 1006 26 10000 6.17 350 07:37 23.01.2021
3427 Clouds 36 1007 26 10000 6.69 320 05:44 23.01.2021
3428 Clouds 33 1010 35 10000 7.72 320 00:56 23.01.2021
3429 Clouds 31 1010 37 10000 6.69 320 23:53 22.01.2021
3430 Clouds 31 1010 37 10000 3.6 10 23:34 22.01.2021
3431 Clouds 27 1009 39 10000 3.09 50 22:40 22.01.2021
3432 Clouds 27 1008 37 10000 2.57 20 21:51 22.01.2021
3433 Clouds 27 1008 35 10000 3.09 350 21:32 22.01.2021
3434 Clouds 27 1008 35 10000 3.09 10 20:59 22.01.2021
3435 Clouds 26 1008 24 10000 3.09 60 20:39 22.01.2021
3436 Clouds 27 1007 30 10000 0.51 40 19:59 22.01.2021
3437 Clouds 27 1008 26 10000 2.06 10 19:26 22.01.2021
3438 Clouds 28 1008 23 10000 1.54 340 18:59 22.01.2021
3439 Clouds 27 1008 14 10000 2.57 350 18:40 22.01.2021
3440 Clouds 27 1008 14 10000 2.57 350 18:21 22.01.2021
3441 Clouds 27 1008 13 10000 3.09 110 17:43 22.01.2021
3442 Clouds 27 1008 13 10000 3.09 110 17:24 22.01.2021
3443 Clouds 30 1009 12 10000 2.57 70 16:40 22.01.2021
3444 Clouds 30 1009 12 10000 2.57 70 16:20 22.01.2021
3445 Clouds 30 1009 13 10000 4.12 110 15:29 22.01.2021
3446 Clouds 30 1009 14 10000 2.57 10 14:58 22.01.2021
3447 Clouds 31 1008 13 10000 1.54 50 14:30 22.01.2021
3448 Clouds 31 1008 13 10000 1.54 50 14:30 22.01.2021
3449 Clouds 31 1008 12 10000 1.54 70 13:47 22.01.2021
3450 Clouds 33 1008 11 10000 2.06 100 13:28 22.01.2021
3451 Clouds 33 1008 12 10000 2.57 110 12:45 22.01.2021
3452 Clouds 33 1007 11 10000 3.09 110 12:22 22.01.2021
3453 Clouds 33 1007 11 10000 3.09 110 12:22 22.01.2021
3454 Clouds 35 1007 10 10000 3.6 120 11:46 22.01.2021
3455 Clouds 37 1007 9 10000 3.6 110 10:55 22.01.2021
3456 Clouds 38 1006 8 10000 4.63 130 10:35 22.01.2021
3457 Clouds 38 1007 8 10000 4.12 160 09:57 22.01.2021
3458 Clouds 39 1007 8 10000 4.63 120 09:27 22.01.2021
3459 Clouds 38 1007 9 10000 2.57 150 08:50 22.01.2021
3460 Clouds 38 1007 9 10000 2.57 150 08:50 22.01.2021
3461 Clouds 38 1007 9 10000 5.14 40 08:25 22.01.2021
3462 Clear 38 1007 9 10000 4.12 40 07:31 22.01.2021
3463 Clear 36 1012 9 10000 7.2 50 02:46 22.01.2021
3464 Clear 32 1012 10 10000 5.66 60 00:38 22.01.2021
3465 Clouds 31 1011 11 10000 4.63 50 23:51 21.01.2021
3466 Clouds 30 1011 12 10000 3.09 50 23:29 21.01.2021
3467 Clouds 26 1011 21 10000 5.7 91 22:49 21.01.2021
3468 Clouds 25 1011 25 10000 3.84 87 22:23 21.01.2021
3469 Clouds 25 1010 25 10000 3.85 87 21:43 21.01.2021
3470 Clouds 25 1010 25 10000 3.78 83 21:20 21.01.2021
3471 Clouds 25 1010 23 10000 2.06 70 20:48 21.01.2021
3472 Clouds 25 1010 22 10000 3.67 92 20:27 21.01.2021
3473 Clouds 25 1010 23 10000 3.67 92 19:51 21.01.2021
3474 Clouds 25 1010 23 10000 1.03 200 19:28 21.01.2021
3475 Clouds 25 1009 23 10000 3.36 90 18:55 21.01.2021
3476 Clouds 25 1009 21 10000 3.36 90 18:36 21.01.2021
3477 Clouds 25 1009 21 10000 3.11 101 18:18 21.01.2021
3478 Clouds 25 1010 19 10000 3.11 101 17:42 21.01.2021
3479 Clouds 25 1010 19 10000 3.53 100 17:19 21.01.2021
3480 Clouds 28 1010 15 10000 2.06 80 16:41 21.01.2021
3481 Clouds 28 1010 15 10000 2.06 80 16:23 21.01.2021
3482 Clouds 28 1010 15 10000 2.57 60 15:55 21.01.2021
3483 Clouds 28 1010 15 10000 2.06 50 15:28 21.01.2021
3484 Clouds 28 1010 16 10000 0.51 20 14:50 21.01.2021
3485 Clouds 29 1010 14 10000 2.06 50 14:31 21.01.2021
3486 Clouds 30 1010 13 10000 2.57 70 13:47 21.01.2021
3487 Clouds 31 1010 11 10000 2.06 90 13:26 21.01.2021
3488 Clouds 32 1010 11 10000 3.09 120 12:46 21.01.2021
3489 Clouds 33 1010 11 10000 3.09 120 12:26 21.01.2021
3490 Clouds 34 1010 10 10000 4.12 130 11:56 21.01.2021
3491 Clouds 35 1010 10 10000 4.63 130 11:35 21.01.2021
3492 Clouds 36 1009 9 10000 5.66 140 10:57 21.01.2021
3493 Clouds 36 1009 9 10000 5.14 160 10:39 21.01.2021
3494 Clouds 36 1009 9 10000 5.14 160 10:20 21.01.2021
3495 Clouds 38 1009 10 10000 3.09 150 09:39 21.01.2021
3496 Clouds 38 1009 10 10000 3.09 150 09:18 21.01.2021
3497 Clouds 38 1009 10 10000 3.09 120 08:34 21.01.2021
3498 Clear 39 1009 10 10000 6.17 140 07:46 21.01.2021
3499 Clear 39 1009 10 10000 6.17 140 07:26 21.01.2021
3500 Clear 37 1010 11 10000 2.57 70 06:31 21.01.2021
3501 Clear 37 1012 10 10000 4.63 30 04:55 21.01.2021
3502 Clear 34 1014 12 10000 7.72 60 02:19 21.01.2021
3503 Clear 30 1014 15 10000 4.12 80 00:42 21.01.2021
3504 Clouds 26 1014 18 10000 2.06 100 23:49 20.01.2021
3505 Clouds 25 1014 23 10000 0.51 170 23:25 20.01.2021
3506 Clouds 24 1014 30 10000 0.51 190 22:52 20.01.2021
3507 Clouds 23 1013 37 10000 2.06 180 22:30 20.01.2021
3508 Clouds 22 1013 37 10000 3.06 93 21:54 20.01.2021
3509 Clouds 23 1013 37 10000 3.34 99 21:23 20.01.2021
3510 Clouds 23 1013 37 10000 3.34 99 21:23 20.01.2021
3511 Clouds 23 1012 34 10000 3.34 99 20:52 20.01.2021
3512 Clouds 23 1012 34 10000 3.26 101 20:23 20.01.2021
3513 Clouds 24 1012 30 10000 3.26 101 19:48 20.01.2021
3514 Clouds 24 1012 30 10000 2.85 107 19:29 20.01.2021
3515 Clouds 24 1012 28 10000 2.85 107 18:43 20.01.2021
3516 Clear 24 1012 30 10000 2.94 118 18:21 20.01.2021
3517 Clear 24 1013 27 10000 1.03 360 17:50 20.01.2021
3518 Clear 25 1013 25 10000 1.54 360 17:31 20.01.2021
3519 Clear 25 1013 25 10000 1.03 360 16:51 20.01.2021
3520 Clear 25 1013 25 10000 3.25 115 16:22 20.01.2021
3521 Clear 25 1013 23 10000 1.03 40 15:41 20.01.2021
3522 Clear 25 1013 23 10000 1.03 40 15:19 20.01.2021
3523 Clear 26 1013 22 10000 2.06 90 14:40 20.01.2021
3524 Clear 26 1013 22 10000 2.06 90 14:20 20.01.2021
3525 Clear 30 1013 17 10000 3.6 130 13:37 20.01.2021
3526 Clear 30 1012 16 10000 3.6 130 12:56 20.01.2021
3527 Clear 31 1012 15 10000 3.09 130 12:22 20.01.2021
3528 Clear 31 1012 15 10000 3.09 130 12:22 20.01.2021
3529 Clear 34 1012 13 10000 2.57 130 11:41 20.01.2021
3530 Clouds 34 1012 13 10000 2.57 130 11:20 20.01.2021
3531 Clouds 35 1012 13 10000 4.12 120 10:49 20.01.2021
3532 Clouds 36 1011 11 10000 3.6 90 10:25 20.01.2021
3533 Clouds 36 1011 12 10000 4.12 180 09:38 20.01.2021
3534 Clouds 36 1011 12 10000 4.12 180 09:19 20.01.2021
3535 Clear 37 1011 12 10000 4.12 60 08:43 20.01.2021
3536 Clear 37 1011 12 10000 4.12 60 08:22 20.01.2021
3537 Clear 36 1011 11 10000 2.57 30 07:53 20.01.2021
3538 Clear 36 1012 11 10000 3.6 90 07:20 20.01.2021
3539 Clear 36 1014 11 10000 5.66 130 04:33 20.01.2021
3540 Clouds 32 1016 12 10000 8.23 80 02:34 20.01.2021
3541 Clear 29 1017 17 10000 7.2 80 00:58 20.01.2021
3542 Clouds 25 1017 19 10000 3.6 80 23:54 19.01.2021
3543 Clouds 25 1017 23 10000 0.51 90 23:35 19.01.2021
3544 Clouds 23 1016 32 10000 5.37 116 22:59 19.01.2021
3545 Clouds 18 1016 39 10000 1.54 310 22:40 19.01.2021
3546 Clouds 18 1016 39 10000 1.54 310 22:21 19.01.2021
3547 Clouds 17 1016 39 10000 3.57 125 21:55 19.01.2021
3548 Clouds 19 1016 32 10000 3.57 125 21:34 19.01.2021
3549 Clouds 22 1015 34 10000 0.51 180 20:50 19.01.2021
3550 Clouds 22 1015 36 10000 1.54 190 20:29 19.01.2021
3551 Clouds 22 1015 34 10000 1.54 280 19:56 19.01.2021
3552 Clouds 22 1015 32 10000 2.06 280 19:36 19.01.2021
3553 Clouds 22 1015 32 10000 2.06 280 19:18 19.01.2021
3554 Clouds 23 1015 30 10000 2.64 119 18:38 19.01.2021
3555 Clouds 23 1015 30 10000 2.67 126 18:20 19.01.2021
3556 Clouds 23 1015 30 10000 2.67 126 18:20 19.01.2021
3557 Clouds 23 1015 30 10000 2.06 270 17:42 19.01.2021
3558 Clear 23 1015 30 10000 2.06 270 17:20 19.01.2021
3559 Clear 24 1015 24 10000 3.14 116 16:40 19.01.2021
3560 Clear 24 1015 24 10000 3.44 115 16:20 19.01.2021
3561 Clear 24 1016 24 10000 3.44 115 15:50 19.01.2021
3562 Clear 24 1016 25 10000 3.44 115 15:30 19.01.2021
3563 Clear 25 1016 22 10000 1.54 50 14:44 19.01.2021
3564 Clear 25 1016 20 10000 1.54 70 14:26 19.01.2021
3565 Clear 25 1015 19 10000 3.09 120 13:49 19.01.2021
3566 Clear 25 1015 19 10000 3.6 120 13:23 19.01.2021
3567 Clear 26 1015 17 10000 3.09 110 12:51 19.01.2021
3568 Clear 27 1014 14 10000 3.6 120 12:30 19.01.2021
3569 Clear 27 1014 13 10000 3.6 110 11:52 19.01.2021
3570 Clear 27 1014 13 10000 3.6 110 11:51 19.01.2021
3571 Clear 31 1014 13 10000 5.14 110 11:29 19.01.2021
3572 Clear 32 1014 12 10000 5.14 110 10:53 19.01.2021
3573 Clear 33 1013 13 10000 5.14 110 10:32 19.01.2021
3574 Clear 33 1013 13 10000 5.14 100 09:54 19.01.2021
3575 Clear 34 1013 13 10000 4.63 90 09:36 19.01.2021
3576 Clear 34 1013 13 10000 4.63 90 08:59 19.01.2021
3577 Clear 33 1013 13 10000 4.63 70 08:26 19.01.2021
3578 Clear 33 1013 13 10000 5.14 80 07:49 19.01.2021
3579 Clear 33 1014 13 10000 3.6 120 06:55 19.01.2021
3580 Clear 30 1017 16 10000 9.26 120 02:56 19.01.2021
3581 Clear 27 1017 16 10000 8.23 80 02:20 19.01.2021
3582 Clear 25 1018 25 10000 6.17 90 23:59 18.01.2021
3583 Clear 24 1018 28 10000 3.6 90 23:35 18.01.2021
3584 Clear 22 1018 37 10000 2.06 100 22:58 18.01.2021
3585 Clear 16 1017 41 10000 2.57 110 22:38 18.01.2021
3586 Clear 16 1017 41 10000 2.57 110 22:18 18.01.2021
3587 Clear 16 1016 41 10000 3.86 114 21:40 18.01.2021
3588 Clear 16 1016 41 10000 4.16 111 21:21 18.01.2021
3589 Clear 16 1016 41 10000 4.16 111 20:43 18.01.2021
3590 Clear 16 1016 41 10000 4.16 111 20:43 18.01.2021
3591 Clear 17 1015 39 10000 2.57 120 20:25 18.01.2021
3592 Clear 16 1015 41 10000 1.03 150 19:51 18.01.2021
3593 Clear 18 1015 34 10000 3.97 119 19:33 18.01.2021
3594 Clear 18 1015 36 10000 3.52 117 18:47 18.01.2021
3595 Clear 19 1015 30 10000 2.06 30 18:23 18.01.2021
3596 Clear 21 1015 28 10000 1.03 10 17:46 18.01.2021
3597 Clear 19 1015 30 10000 2.06 130 17:24 18.01.2021
3598 Clear 20 1016 30 10000 2.57 140 16:48 18.01.2021
3599 Clear 20 1016 30 10000 3.09 150 16:23 18.01.2021
3600 Clear 20 1016 28 10000 1.54 150 15:49 18.01.2021
3601 Clear 23 1016 26 10000 3.09 130 15:25 18.01.2021
3602 Clear 24 1016 24 10000 3.09 130 14:46 18.01.2021
3603 Clear 24 1016 23 10000 3.09 130 14:28 18.01.2021
3604 Clear 25 1016 22 10000 3.09 130 13:47 18.01.2021
3605 Clear 25 1016 22 10000 3.09 130 13:28 18.01.2021
3606 Clear 25 1016 19 10000 3.09 110 12:56 18.01.2021
3607 Clear 26 1015 17 10000 4.63 100 12:36 18.01.2021
3608 Clear 26 1015 17 10000 4.63 100 12:18 18.01.2021
3609 Clear 27 1015 15 10000 6.69 100 11:40 18.01.2021
3610 Clear 27 1015 15 10000 6.69 100 11:20 18.01.2021
3611 Clear 27 1014 14 10000 6.69 110 10:46 18.01.2021
3612 Clear 31 1014 13 10000 6.69 90 09:50 18.01.2021
3613 Clear 31 1013 13 10000 7.72 100 09:32 18.01.2021
3614 Clear 32 1013 12 10000 8.23 100 08:55 18.01.2021
3615 Clear 32 1013 12 10000 6.69 110 08:25 18.01.2021
3616 Clear 31 1014 12 10000 7.72 90 07:37 18.01.2021
3617 Clear 31 1015 12 10000 8.75 100 05:45 18.01.2021
3618 Clear 30 1016 13 10000 8.75 100 04:39 18.01.2021
3619 Clear 30 1016 13 10000 9.26 110 04:18 18.01.2021
3620 Clear 29 1016 15 10000 8.75 100 03:42 18.01.2021
3621 Clear 28 1017 16 10000 9.26 90 03:20 18.01.2021
3622 Clear 26 1017 16 10000 9.77 100 02:38 18.01.2021
3623 Clear 26 1018 17 10000 7.72 110 01:36 18.01.2021
3624 Clear 25 1018 20 10000 5.66 100 00:32 18.01.2021
3625 Clear 23 1017 26 10000 2.57 130 23:48 17.01.2021
3626 Clear 19 1017 32 10000 4.71 144 23:21 17.01.2021
3627 Clear 13 1016 54 10000 2.06 300 22:41 17.01.2021
3628 Clear 13 1016 54 10000 2.06 300 22:22 17.01.2021
3629 Clear 13 1016 54 10000 2.06 330 21:40 17.01.2021
3630 Clear 13 1016 54 10000 2.06 330 21:22 17.01.2021
3631 Clear 14 1016 47 10000 1.54 230 20:49 17.01.2021
3632 Clear 13 1015 54 10000 2.06 310 20:29 17.01.2021
3633 Clear 14 1015 51 10000 1.54 310 19:43 17.01.2021
3634 Clear 14 1015 51 10000 1.54 310 19:24 17.01.2021
3635 Clear 15 1015 47 10000 1.54 320 18:44 17.01.2021
3636 Clear 15 1015 47 10000 0.51 260 18:26 17.01.2021
3637 Clear 15 1015 47 10000 0.51 130 17:48 17.01.2021
3638 Clear 16 1016 44 10000 3.85 119 17:26 17.01.2021
3639 Clear 16 1016 41 10000 2.06 150 16:44 17.01.2021
3640 Clear 17 1016 42 10000 2.57 140 16:24 17.01.2021
3641 Clear 18 1016 39 10000 2.57 150 15:43 17.01.2021
3642 Clear 18 1016 36 10000 2.57 120 15:25 17.01.2021
3643 Clear 19 1017 34 10000 2.57 100 14:49 17.01.2021
3644 Clear 19 1017 34 10000 2.57 100 14:49 17.01.2021
3645 Clear 21 1017 30 10000 2.57 80 14:26 17.01.2021
3646 Clear 22 1017 28 10000 3.09 90 13:46 17.01.2021
3647 Clouds 22 1017 28 10000 3.09 100 13:27 17.01.2021
3648 Clouds 23 1017 27 10000 3.09 90 12:54 17.01.2021
3649 Clouds 25 1016 25 10000 3.6 100 12:31 17.01.2021
3650 Clouds 25 1016 27 10000 3.6 100 11:59 17.01.2021
3651 Clouds 25 1016 25 10000 4.63 100 11:24 17.01.2021
3652 Clouds 25 1015 24 10000 5.66 100 10:49 17.01.2021
3653 Clouds 26 1015 24 10000 5.66 120 10:21 17.01.2021
3654 Clouds 26 1015 22 10000 6.17 120 09:44 17.01.2021
3655 Clouds 26 1015 24 10000 5.14 110 08:46 17.01.2021
3656 Clouds 26 1016 24 10000 6.17 90 06:57 17.01.2021
3657 Clouds 24 1017 27 10000 8.23 130 04:28 17.01.2021
3658 Rain 24 1018 31 10000 6.69 120 02:48 17.01.2021
3659 Clouds 24 1018 28 10000 7.2 110 00:51 17.01.2021
3660 Clouds 24 1018 28 10000 7.2 110 00:51 17.01.2021
3661 Clouds 24 1018 31 10000 6.17 120 00:18 17.01.2021
3662 Clouds 24 1017 33 10000 5.66 120 23:49 16.01.2021
3663 Clouds 21 1017 35 10000 5.14 130 23:20 16.01.2021
3664 Clouds 20 1016 42 10000 4.12 140 22:45 16.01.2021
3665 Clouds 20 1016 42 10000 3.6 150 21:58 16.01.2021
3666 Clouds 20 1015 42 10000 2.57 130 21:37 16.01.2021
3667 Clouds 20 1015 42 10000 2.57 130 21:18 16.01.2021
3668 Clouds 19 1015 45 10000 2.57 140 20:42 16.01.2021
3669 Clouds 19 1015 45 10000 2.57 140 20:21 16.01.2021
3670 Clouds 20 1015 42 10000 2.57 120 19:44 16.01.2021
3671 Clouds 20 1015 40 10000 2.57 130 19:24 16.01.2021
3672 Clouds 20 1015 40 10000 2.57 130 19:24 16.01.2021
3673 Clouds 21 1015 40 10000 2.57 120 18:43 16.01.2021
3674 Clouds 21 1015 40 10000 2.57 120 18:43 16.01.2021
3675 Clouds 21 1015 40 10000 3.09 110 18:24 16.01.2021
3676 Clouds 21 1015 40 10000 3.6 120 17:47 16.01.2021
3677 Clouds 21 1015 46 10000 3.6 110 17:28 16.01.2021
3678 Clouds 21 1016 46 10000 2.57 130 16:47 16.01.2021
3679 Clouds 21 1016 49 10000 3.6 110 16:27 16.01.2021
3680 Clouds 21 1016 52 10000 4.12 110 15:54 16.01.2021
3681 Clouds 23 1016 52 10000 5.66 130 15:22 16.01.2021
3682 Clouds 22 1016 49 10000 5.14 130 14:22 16.01.2021
3683 Clouds 22 1016 46 10000 5.14 130 13:48 16.01.2021
3684 Clouds 24 1016 46 10000 5.14 130 13:24 16.01.2021
3685 Clouds 24 1015 46 10000 5.66 120 12:39 16.01.2021
3686 Clouds 24 1015 46 10000 5.66 120 12:20 16.01.2021
3687 Clouds 24 1015 40 10000 7.2 130 11:48 16.01.2021
3688 Clouds 25 1015 33 10000 5.66 130 11:25 16.01.2021
3689 Clouds 25 1015 29 10000 5.66 120 10:46 16.01.2021
3690 Clouds 25 1015 25 10000 5.66 120 10:22 16.01.2021
3691 Clouds 26 1014 22 10000 5.66 120 09:36 16.01.2021
3692 Clouds 26 1014 22 10000 7.2 130 08:47 16.01.2021
3693 Clouds 29 1014 20 10000 7.72 130 07:48 16.01.2021
3694 Clouds 29 1014 21 10000 7.2 100 06:43 16.01.2021
3695 Clouds 30 1015 16 10000 8.75 90 04:39 16.01.2021
3696 Clear 27 1016 19 10000 9.26 110 02:56 16.01.2021
3697 Clouds 25 1015 20 10000 9.26 100 00:50 16.01.2021
3698 Clear 25 1015 20 10000 9.77 100 00:28 16.01.2021
3699 Clear 25 1015 23 10000 9.26 110 23:58 15.01.2021
3700 Clear 25 1015 25 10000 8.23 100 23:21 15.01.2021
3701 Clear 23 1014 27 10000 4.63 100 22:25 15.01.2021
3702 Clear 22 1014 28 10000 5.66 100 21:46 15.01.2021
3703 Clear 23 1014 23 10000 5.66 110 20:59 15.01.2021
3704 Clear 24 1013 23 10000 6.17 110 20:40 15.01.2021
3705 Clear 24 1013 23 10000 6.17 110 20:22 15.01.2021
3706 Clear 24 1013 33 10000 3.09 130 19:41 15.01.2021
3707 Clear 24 1013 33 10000 3.09 130 19:41 15.01.2021
3708 Clear 24 1013 33 10000 3.09 130 19:22 15.01.2021
3709 Clear 24 1013 28 10000 3.09 110 18:43 15.01.2021
3710 Clouds 24 1013 28 10000 2.57 90 18:19 15.01.2021
3711 Clouds 24 1014 31 10000 3.09 100 17:51 15.01.2021
3712 Clouds 25 1014 29 10000 2.57 120 17:25 15.01.2021
3713 Clouds 25 1014 25 10000 4.12 100 16:52 15.01.2021
3714 Clouds 25 1015 25 10000 4.63 120 16:25 15.01.2021
3715 Clouds 25 1015 25 10000 5.66 110 15:42 15.01.2021
3716 Clouds 25 1015 25 10000 5.66 110 15:22 15.01.2021
3717 Clouds 26 1015 26 10000 5.66 110 14:51 15.01.2021
3718 Clouds 26 1014 24 10000 5.66 110 14:27 15.01.2021
3719 Clouds 26 1014 24 10000 5.66 110 14:27 15.01.2021
3720 Clouds 28 1014 24 10000 7.72 120 13:44 15.01.2021
3721 Clear 29 1014 24 10000 7.72 120 13:23 15.01.2021
3722 Clear 30 1013 21 10000 8.23 120 12:59 15.01.2021
3723 Clear 31 1013 19 10000 7.2 120 12:34 15.01.2021
3724 Clear 31 1012 19 10000 7.2 110 11:59 15.01.2021
3725 Clear 32 1012 18 10000 7.72 120 11:41 15.01.2021
3726 Clear 33 1012 17 10000 8.75 110 10:58 15.01.2021
3727 Clear 34 1011 17 10000 7.72 90 10:39 15.01.2021
3728 Clear 34 1011 17 10000 7.72 90 10:19 15.01.2021
3729 Clear 35 1011 17 10000 7.72 80 09:45 15.01.2021
3730 Clear 35 1011 17 10000 6.69 110 09:27 15.01.2021
3731 Clear 35 1010 16 10000 7.72 110 08:27 15.01.2021
3732 Clear 36 1011 15 10000 7.72 110 07:41 15.01.2021
3733 Clear 36 1011 15 10000 7.72 110 07:20 15.01.2021
3734 Clear 35 1012 17 10000 7.72 110 05:36 15.01.2021
3735 Clear 33 1014 21 10000 7.72 110 02:19 15.01.2021
3736 Clear 30 1014 26 10000 8.75 100 23:55 14.01.2021
3737 Clear 27 1014 26 10000 8.23 100 23:29 14.01.2021
3738 Clear 27 1014 28 10000 3.6 100 22:50 14.01.2021
3739 Clear 26 1013 28 10000 3.6 100 22:26 14.01.2021
3740 Clear 26 1013 28 10000 4.12 90 21:50 14.01.2021
3741 Clear 26 1012 28 10000 4.12 90 21:21 14.01.2021
3742 Clear 27 1012 26 10000 5.14 100 20:53 14.01.2021
3743 Clear 30 1012 23 10000 6.17 100 20:33 14.01.2021
3744 Clear 30 1011 23 10000 5.66 100 19:49 14.01.2021
3745 Clear 31 1011 22 10000 5.66 100 19:30 14.01.2021
3746 Clear 30 1011 23 10000 4.63 100 18:56 14.01.2021
3747 Clear 29 1011 26 10000 3.6 70 18:32 14.01.2021
3748 Clear 30 1011 26 10000 2.06 60 17:54 14.01.2021
3749 Clear 29 1011 26 10000 2.06 70 17:28 14.01.2021
3750 Clear 29 1011 28 10000 1.54 80 16:50 14.01.2021
3751 Clear 30 1011 26 10000 2.57 140 16:26 14.01.2021
3752 Clear 30 1011 25 10000 2.67 105 15:49 14.01.2021
3753 Clouds 30 1011 26 10000 2.06 140 15:25 14.01.2021
3754 Clouds 30 1011 25 10000 3.09 150 14:41 14.01.2021
3755 Clouds 30 1011 25 10000 3.09 150 14:20 14.01.2021
3756 Clear 31 1011 23 10000 2.06 140 13:54 14.01.2021
3757 Clear 32 1011 22 10000 2.57 120 13:23 14.01.2021
3758 Clouds 33 1011 21 10000 2.57 110 12:54 14.01.2021
3759 Clouds 34 1010 18 10000 3.09 120 12:21 14.01.2021
3760 Clouds 36 1010 15 10000 3.6 120 11:53 14.01.2021
3761 Clouds 37 1010 14 10000 4.63 110 11:21 14.01.2021
3762 Clouds 38 1010 14 10000 6.17 110 10:57 14.01.2021
3763 Clouds 39 1009 13 10000 7.72 90 10:35 14.01.2021
3764 Clouds 39 1009 13 10000 7.2 90 09:59 14.01.2021
3765 Clouds 39 1009 13 10000 7.2 120 09:41 14.01.2021
3766 Clouds 39 1009 13 10000 7.2 120 09:18 14.01.2021
3767 Clouds 40 1009 12 10000 8.23 90 08:28 14.01.2021
3768 Clear 40 1010 12 10000 7.2 130 07:50 14.01.2021
3769 Clear 39 1010 14 10000 6.17 60 06:59 14.01.2021
3770 Clear 39 1011 14 10000 7.2 80 06:19 14.01.2021
3771 Clear 37 1013 15 10000 5.14 70 02:51 14.01.2021
3772 Clear 31 1014 29 10000 3.6 150 23:56 13.01.2021
3773 Clear 28 1014 36 10000 0.51 190 23:24 13.01.2021
3774 Clear 24 1013 53 10000 2.06 260 22:40 13.01.2021
3775 Clear 24 1013 53 10000 2.06 260 22:18 13.01.2021
3776 Clear 24 1012 49 10000 1.54 260 21:42 13.01.2021
3777 Clear 24 1012 49 10000 1.54 260 21:19 13.01.2021
3778 Clear 25 1011 46 10000 1.79 56 20:43 13.01.2021
3779 Clear 25 1011 46 10000 2.09 51 20:20 13.01.2021
3780 Clear 25 1011 46 10000 2.09 51 19:43 13.01.2021
3781 Clear 25 1011 46 10000 2.43 56 19:22 13.01.2021
3782 Clouds 25 1012 44 10000 2.58 44 18:42 13.01.2021
3783 Clouds 25 1012 44 10000 3.01 48 18:18 13.01.2021
3784 Clear 26 1012 41 10000 3.01 48 17:40 13.01.2021
3785 Clear 26 1012 41 10000 3.42 65 17:18 13.01.2021
3786 Clouds 27 1012 34 10000 3.77 97 16:23 13.01.2021
3787 Clear 27 1012 36 10000 2.57 150 15:59 13.01.2021
3788 Clear 27 1012 36 10000 2.57 150 15:59 13.01.2021
3789 Clear 28 1013 32 10000 2.06 10 15:39 13.01.2021
3790 Clear 29 1013 30 10000 1.54 90 14:52 13.01.2021
3791 Clear 30 1013 26 10000 2.57 110 14:21 13.01.2021
3792 Clear 31 1012 25 10000 2.57 110 13:37 13.01.2021
3793 Clear 31 1012 25 10000 2.57 110 13:18 13.01.2021
3794 Clear 31 1012 25 10000 2.57 110 13:18 13.01.2021
3795 Clouds 32 1012 22 10000 3.09 120 12:43 13.01.2021
3796 Clear 34 1011 20 10000 3.6 120 12:22 13.01.2021
3797 Clear 35 1011 18 10000 4.12 100 11:47 13.01.2021
3798 Clear 35 1011 18 10000 4.12 100 11:47 13.01.2021
3799 Clear 36 1011 17 10000 5.66 100 11:26 13.01.2021
3800 Clear 37 1011 16 10000 5.66 90 10:43 13.01.2021
3801 Clear 37 1010 16 10000 6.69 100 10:24 13.01.2021
3802 Clear 38 1010 18 10000 5.14 70 09:38 13.01.2021
3803 Clouds 38 1010 17 10000 6.17 60 08:57 13.01.2021
3804 Clear 37 1010 18 10000 6.17 70 08:33 13.01.2021
3805 Clear 38 1010 18 10000 4.63 100 07:53 13.01.2021
3806 Clear 38 1010 18 10000 5.14 70 07:24 13.01.2021
3807 Clear 37 1012 22 10000 6.69 80 04:21 13.01.2021
3808 Clear 37 1012 20 10000 6.69 80 03:52 13.01.2021
3809 Clear 35 1013 20 10000 5.14 80 03:31 13.01.2021
3810 Clear 36 1013 20 10000 7.72 70 02:46 13.01.2021
3811 Clear 32 1014 27 10000 2.06 50 00:38 13.01.2021
3812 Clouds 27 1013 34 10000 5.02 71 23:31 12.01.2021
3813 Clouds 24 1013 46 10000 3.13 80 22:47 12.01.2021
3814 Clear 24 1013 49 10000 2.06 280 22:25 12.01.2021
3815 Clear 23 1012 52 10000 2.06 280 21:53 12.01.2021
3816 Clear 23 1012 52 10000 1.54 250 21:35 12.01.2021
3817 Clear 23 1012 52 10000 1.54 250 21:35 12.01.2021
3818 Clear 24 1011 49 10000 1.54 250 20:56 12.01.2021
3819 Clear 24 1011 49 10000 2.06 260 20:37 12.01.2021
3820 Clear 24 1011 49 10000 2.06 260 20:19 12.01.2021
3821 Clear 24 1011 49 10000 1.54 260 19:37 12.01.2021
3822 Clear 24 1011 43 10000 2.06 270 18:52 12.01.2021
3823 Clear 24 1011 43 10000 1.03 270 18:25 12.01.2021
3824 Clear 24 1011 46 10000 3.18 69 17:55 12.01.2021
3825 Clear 25 1011 43 10000 1.03 190 17:32 12.01.2021
3826 Clear 25 1011 43 10000 1.03 190 17:32 12.01.2021
3827 Clear 25 1012 43 10000 1.54 190 16:44 12.01.2021
3828 Clear 25 1012 38 10000 3.77 83 16:25 12.01.2021
3829 Clear 25 1012 38 10000 3.77 83 15:45 12.01.2021
3830 Clear 26 1012 36 10000 4.16 89 15:24 12.01.2021
3831 Clear 26 1012 36 10000 4.16 89 14:49 12.01.2021
3832 Clear 27 1012 34 10000 4.62 96 14:26 12.01.2021
3833 Clear 28 1011 28 10000 2.06 80 13:54 12.01.2021
3834 Clear 30 1011 25 10000 2.57 70 13:33 12.01.2021
3835 Clear 32 1011 22 10000 4.12 80 12:33 12.01.2021
3836 Clear 34 1010 17 10000 5.66 100 11:42 12.01.2021
3837 Clear 35 1010 15 10000 7.72 90 10:59 12.01.2021
3838 Clear 35 1010 16 10000 7.72 80 10:40 12.01.2021
3839 Clear 35 1010 16 10000 7.72 80 10:19 12.01.2021
3840 Clear 36 1009 17 10000 5.66 130 09:43 12.01.2021
3841 Clear 36 1009 17 10000 5.66 130 09:20 12.01.2021
3842 Clear 37 1009 18 10000 7.2 90 08:26 12.01.2021
3843 Clear 36 1010 19 10000 6.69 90 07:41 12.01.2021
3844 Clear 36 1010 19 10000 6.69 90 07:21 12.01.2021
3845 Clear 36 1011 17 10000 7.72 90 05:38 12.01.2021
3846 Clear 36 1012 14 10000 8.23 110 03:33 12.01.2021
3847 Clear 34 1013 21 10000 6.17 70 02:21 12.01.2021
3848 Clear 33 1013 29 10000 5.14 70 01:36 12.01.2021
3849 Clear 30 1013 37 10000 4.12 30 00:30 12.01.2021
3850 Clear 28 1013 44 10000 3.09 50 23:39 11.01.2021
3851 Clear 28 1013 44 10000 3.09 50 23:18 11.01.2021
3852 Clear 25 1013 50 10000 0.51 90 22:45 11.01.2021
3853 Clear 24 1012 56 10000 0.51 40 22:27 11.01.2021
3854 Clear 24 1012 56 10000 0.51 360 21:44 11.01.2021
3855 Clear 24 1012 56 10000 2.57 130 21:25 11.01.2021
3856 Clear 24 1011 56 10000 2.72 48 20:50 11.01.2021
3857 Clear 24 1011 56 10000 2.06 60 20:31 11.01.2021
3858 Clear 24 1011 49 10000 2.06 60 19:59 11.01.2021
3859 Clear 24 1011 49 10000 2.06 100 19:37 11.01.2021
3860 Clear 24 1011 49 10000 2.06 100 19:19 11.01.2021
3861 Clear 24 1011 53 10000 2.06 70 18:41 11.01.2021
3862 Clear 24 1011 53 10000 2.06 70 18:22 11.01.2021
3863 Clear 25 1011 46 10000 2.06 70 17:42 11.01.2021
3864 Clear 25 1011 46 10000 2.06 70 17:23 11.01.2021
3865 Clear 25 1011 41 10000 3.09 20 16:47 11.01.2021
3866 Clear 25 1011 41 10000 2.06 360 16:28 11.01.2021
3867 Clear 26 1011 36 10000 0.51 360 15:50 11.01.2021
3868 Clear 26 1011 36 10000 2.57 10 15:32 11.01.2021
3869 Clouds 27 1011 34 10000 2.57 110 14:41 11.01.2021
3870 Clouds 27 1011 34 10000 2.57 110 14:22 11.01.2021
3871 Clouds 28 1011 30 10000 3.09 140 13:44 11.01.2021
3872 Clouds 29 1011 28 10000 3.09 120 13:21 11.01.2021
3873 Clouds 30 1010 25 10000 3.09 120 12:41 11.01.2021
3874 Clouds 30 1010 25 10000 3.09 120 12:22 11.01.2021
3875 Clouds 32 1010 22 10000 3.6 110 11:44 11.01.2021
3876 Clouds 34 1009 18 10000 4.63 110 10:55 11.01.2021
3877 Clouds 35 1009 18 10000 5.14 110 10:32 11.01.2021
3878 Clouds 35 1009 18 10000 5.66 90 09:48 11.01.2021
3879 Clouds 35 1009 18 10000 3.6 70 09:25 11.01.2021
3880 Clouds 36 1009 19 10000 5.14 120 08:47 11.01.2021
3881 Clouds 36 1009 19 10000 5.14 120 08:22 11.01.2021
3882 Clouds 36 1009 19 10000 5.14 100 07:40 11.01.2021
3883 Clouds 36 1009 19 10000 5.14 100 07:19 11.01.2021
3884 Clouds 36 1010 20 10000 5.66 130 06:47 11.01.2021
3885 Clear 32 1013 31 10000 4.63 60 01:53 11.01.2021
3886 Clear 29 1013 37 10000 3.09 80 00:40 11.01.2021
3887 Clear 26 1013 36 10000 2.57 90 23:46 10.01.2021
3888 Clear 25 1013 50 10000 2.8 95 22:49 10.01.2021
3889 Clear 23 1012 64 10000 2.06 270 22:28 10.01.2021
3890 Clear 23 1012 64 10000 1.54 290 21:57 10.01.2021
3891 Clear 23 1012 60 10000 2.06 300 21:37 10.01.2021
3892 Clear 23 1012 60 10000 2.06 300 21:18 10.01.2021
3893 Clear 23 1012 60 10000 2.06 300 21:18 10.01.2021
3894 Clouds 24 1011 56 10000 1.69 117 20:39 10.01.2021
3895 Clouds 24 1011 56 10000 2.01 95 20:21 10.01.2021
3896 Clouds 24 1011 53 10000 2.01 95 19:38 10.01.2021
3897 Clouds 24 1011 53 10000 2.51 92 19:20 10.01.2021
3898 Clouds 24 1011 53 10000 2.84 95 18:43 10.01.2021
3899 Clear 24 1011 56 10000 3.04 91 18:20 10.01.2021
3900 Clouds 24 1012 49 10000 3.09 110 17:23 10.01.2021
3901 Clouds 25 1012 43 10000 2.57 140 16:46 10.01.2021
3902 Clouds 25 1012 46 10000 1.54 80 16:28 10.01.2021
3903 Clouds 25 1012 38 10000 2.06 50 15:39 10.01.2021
3904 Clouds 25 1012 38 10000 2.06 50 15:39 10.01.2021
3905 Clouds 25 1012 38 10000 2.06 50 15:20 10.01.2021
3906 Clear 26 1012 32 10000 2.57 70 14:40 10.01.2021
3907 Clear 26 1012 32 10000 2.57 70 14:22 10.01.2021
3908 Clear 28 1011 30 10000 2.57 70 13:39 10.01.2021
3909 Clouds 28 1011 30 10000 2.57 70 13:20 10.01.2021
3910 Clouds 29 1011 28 10000 3.09 80 12:50 10.01.2021
3911 Clouds 30 1011 26 10000 3.09 90 12:32 10.01.2021
3912 Clouds 31 1011 25 10000 4.63 90 11:54 10.01.2021
3913 Clouds 32 1011 23 10000 4.63 110 11:20 10.01.2021
3914 Clouds 32 1011 23 10000 4.63 110 11:20 10.01.2021
3915 Clouds 32 1010 22 10000 5.66 110 10:47 10.01.2021
3916 Clouds 33 1010 22 10000 4.63 130 10:22 10.01.2021
3917 Clouds 34 1010 21 10000 4.63 90 09:36 10.01.2021
3918 Clouds 34 1010 20 10000 5.66 90 08:26 10.01.2021
3919 Clouds 35 1010 21 10000 4.63 120 07:38 10.01.2021
3920 Clouds 34 1011 21 10000 3.6 70 06:21 10.01.2021
3921 Clear 33 1012 22 10000 4.12 140 05:42 10.01.2021
3922 Clouds 33 1013 24 10000 5.14 110 03:57 10.01.2021
3923 Clear 30 1014 28 10000 4.63 90 01:30 10.01.2021
3924 Clear 26 1014 29 10000 1.03 150 23:59 09.01.2021
3925 Clouds 25 1014 31 10000 1.03 250 23:41 09.01.2021
3926 Clouds 24 1014 49 10000 2.06 310 22:57 09.01.2021
3927 Clouds 22 1014 59 10000 2.57 270 22:19 09.01.2021
3928 Clouds 22 1014 55 10000 2.57 300 21:58 09.01.2021
3929 Clouds 22 1014 52 10000 2.06 300 21:39 09.01.2021
3930 Clouds 22 1014 52 10000 2.06 300 21:20 09.01.2021
3931 Clouds 23 1013 49 10000 2.57 310 20:46 09.01.2021
3932 Clear 23 1013 49 10000 2.06 330 20:27 09.01.2021
3933 Clear 22 1013 52 10000 1.54 280 19:39 09.01.2021
3934 Clear 22 1013 52 10000 1.54 280 19:19 09.01.2021
3935 Clear 23 1013 43 10000 2.06 20 18:36 09.01.2021
3936 Clear 23 1013 40 10000 2.06 90 17:51 09.01.2021
3937 Clear 24 1013 35 10000 2.57 100 17:32 09.01.2021
3938 Clear 25 1014 33 10000 3.6 100 16:55 09.01.2021
3939 Clear 25 1014 29 10000 3.09 100 16:22 09.01.2021
3940 Clear 25 1014 27 10000 3.6 100 15:41 09.01.2021
3941 Clear 25 1014 27 10000 3.6 110 14:56 09.01.2021
3942 Clear 25 1014 27 10000 3.6 110 14:36 09.01.2021
3943 Clear 25 1014 27 10000 3.6 110 14:18 09.01.2021
3944 Clear 26 1013 26 10000 3.6 110 13:43 09.01.2021
3945 Clear 26 1013 23 10000 4.12 110 13:24 09.01.2021
3946 Clear 29 1013 21 10000 4.12 110 12:28 09.01.2021
3947 Clear 30 1013 20 10000 4.63 120 11:58 09.01.2021
3948 Clear 31 1012 19 10000 4.63 120 11:37 09.01.2021
3949 Clear 31 1012 19 10000 4.63 120 11:37 09.01.2021
3950 Clear 32 1012 18 10000 6.17 110 10:56 09.01.2021
3951 Clouds 32 1012 18 10000 7.2 120 10:37 09.01.2021
3952 Clouds 32 1012 18 10000 7.2 120 10:18 09.01.2021
3953 Clouds 33 1011 18 10000 6.69 120 09:42 09.01.2021
3954 Clouds 33 1011 18 10000 6.69 120 09:18 09.01.2021
3955 Clouds 33 1011 18 10000 7.2 100 07:48 09.01.2021
3956 Clouds 33 1012 19 10000 7.2 90 06:42 09.01.2021
3957 Clouds 33 1012 19 10000 7.2 90 06:23 09.01.2021
3958 Clouds 32 1014 23 10000 6.17 80 03:49 09.01.2021
3959 Clear 31 1015 27 10000 7.72 90 02:40 09.01.2021
3960 Clear 31 1015 27 10000 7.72 90 02:22 09.01.2021
3961 Clouds 27 1015 30 10000 6.69 60 00:49 09.01.2021
3962 Clouds 26 1015 29 10000 4.12 90 00:23 09.01.2021
3963 Clouds 25 1015 41 10000 7.2 104 23:38 08.01.2021
3964 Clouds 22 1014 52 10000 2.06 280 22:38 08.01.2021
3965 Clouds 18 1014 55 10000 2.06 300 21:47 08.01.2021
3966 Clear 19 1013 48 10000 2.06 310 20:58 08.01.2021
3967 Clear 22 1013 52 10000 1.54 310 20:33 08.01.2021
3968 Clear 22 1013 55 10000 2.06 320 19:57 08.01.2021
3969 Clear 22 1013 52 10000 2.57 290 19:23 08.01.2021
3970 Clear 22 1012 52 10000 2.57 290 18:50 08.01.2021
3971 Clear 23 1013 45 10000 0.51 250 18:30 08.01.2021
3972 Clear 23 1013 42 10000 3.43 141 17:50 08.01.2021
3973 Clear 23 1013 43 10000 1.03 10 17:22 08.01.2021
3974 Clear 23 1013 43 10000 1.03 130 16:44 08.01.2021
3975 Clear 23 1014 43 10000 0.51 280 15:44 08.01.2021
3976 Clear 24 1014 33 10000 2.06 160 15:18 08.01.2021
3977 Clear 25 1014 29 10000 3.09 140 14:35 08.01.2021
3978 Clear 25 1014 27 10000 3.09 140 13:47 08.01.2021
3979 Clear 25 1014 25 10000 3.6 150 13:18 08.01.2021
3980 Clear 26 1014 24 10000 3.09 130 12:47 08.01.2021
3981 Clear 26 1014 21 10000 3.6 140 12:19 08.01.2021
3982 Clear 29 1013 18 10000 4.12 130 11:44 08.01.2021
3983 Clear 30 1013 16 10000 4.63 120 11:25 08.01.2021
3984 Clear 31 1013 14 10000 4.63 110 10:50 08.01.2021
3985 Clear 32 1013 13 10000 6.69 130 10:26 08.01.2021
3986 Clear 32 1013 13 10000 6.17 130 09:45 08.01.2021
3987 Clear 32 1013 12 10000 6.69 130 09:25 08.01.2021
3988 Clear 33 1013 13 10000 7.72 90 08:33 08.01.2021
3989 Clear 33 1013 13 10000 6.69 110 07:25 08.01.2021
3990 Clear 32 1014 14 10000 7.2 120 05:43 08.01.2021
3991 Clear 25 1017 25 10000 5.66 110 23:46 07.01.2021
3992 Clear 24 1017 30 10000 2.06 80 23:28 07.01.2021
3993 Clear 19 1016 45 10000 6.67 130 22:45 07.01.2021
3994 Clear 16 1016 59 10000 3.25 135 22:25 07.01.2021
3995 Clear 16 1016 59 10000 3.25 135 22:25 07.01.2021
3996 Clear 16 1016 59 10000 3.25 135 22:25 07.01.2021
3997 Clear 15 1016 58 10000 3.25 135 21:42 07.01.2021
3998 Clear 15 1016 58 10000 3.06 128 21:24 07.01.2021
3999 Clear 16 1015 51 10000 1.54 30 20:46 07.01.2021
4000 Clear 17 1015 42 10000 2.06 20 20:28 07.01.2021
4001 Clear 19 1015 34 10000 2.06 70 19:43 07.01.2021
4002 Clear 16 1015 55 10000 4.09 105 19:20 07.01.2021
4003 Clear 19 1015 34 10000 2.06 90 18:30 07.01.2021
4004 Clear 23 1015 34 10000 2.57 60 17:42 07.01.2021
4005 Clear 23 1015 34 10000 2.57 60 17:22 07.01.2021
4006 Clear 23 1015 34 10000 2.57 130 16:53 07.01.2021
4007 Clear 22 1015 42 10000 4.69 122 16:27 07.01.2021
4008 Clear 23 1016 30 10000 3.09 120 15:40 07.01.2021
4009 Clear 24 1016 28 10000 2.57 120 14:55 07.01.2021
4010 Clear 24 1016 27 10000 3.6 130 14:27 07.01.2021
4011 Clear 24 1016 27 10000 3.09 130 13:42 07.01.2021
4012 Clear 24 1016 27 10000 3.09 130 13:18 07.01.2021
4013 Clear 24 1016 27 10000 3.09 130 13:18 07.01.2021
4014 Clear 26 1015 18 10000 4.1 120 12:35 07.01.2021
4015 Clear 26 1014 17 10000 4.6 120 11:52 07.01.2021
4016 Clear 26 1014 17 10000 4.6 120 11:34 07.01.2021
4017 Clear 30 1014 15 10000 5.7 110 10:48 07.01.2021
4018 Clear 30 1014 15 10000 5.7 110 10:20 07.01.2021
4019 Clear 31 1013 14 10000 6.2 100 09:46 07.01.2021
4020 Clear 31 1013 16 10000 6.2 100 09:18 07.01.2021
4021 Clear 31 1013 16 10000 5.7 110 08:27 07.01.2021
4022 Clear 31 1013 18 10000 6.7 110 07:46 07.01.2021
4023 Clear 30 1014 17 10000 5.7 140 07:18 07.01.2021
4024 Clear 28 1016 21 10000 7.2 100 04:22 07.01.2021
4025 Clear 25 1018 25 10000 6.7 100 00:28 07.01.2021
4026 Clear 24 1017 30 10000 3.1 110 23:38 06.01.2021
4027 Clear 17 1016 55 10000 0.5 220 22:37 06.01.2021
4028 Clear 16 1015 55 10000 4.7 145 21:43 06.01.2021
4029 Clear 17 1015 48 10000 4.46 148 21:23 06.01.2021
4030 Clear 17 1015 48 10000 4.46 148 20:51 06.01.2021
4031 Clear 19 1015 42 10000 0.5 240 20:24 06.01.2021
4032 Clear 18 1014 42 10000 1 170 19:49 06.01.2021
4033 Clear 18 1014 42 10000 1 170 19:29 06.01.2021
4034 Clear 19 1014 39 10000 2.6 180 18:55 06.01.2021
4035 Clear 18 1014 55 10000 2.1 250 18:36 06.01.2021
4036 Clear 18 1014 55 10000 2.1 250 18:18 06.01.2021
4037 Clear 23 1015 40 10000 3.1 130 17:41 06.01.2021
4038 Clear 23 1015 42 10000 2.6 120 17:21 06.01.2021
4039 Clear 24 1015 33 10000 3.6 130 16:39 06.01.2021
4040 Clear 24 1015 37 10000 3.1 150 16:18 06.01.2021
4041 Clear 24 1015 35 10000 3.6 140 15:49 06.01.2021
4042 Clear 24 1015 33 10000 3.6 130 15:24 06.01.2021
4043 Clear 25 1015 29 10000 3.6 130 14:41 06.01.2021
4044 Clear 25 1015 26 10000 5.1 130 13:56 06.01.2021
4045 Clear 25 1015 26 10000 5.1 130 13:36 06.01.2021
4046 Clouds 25 1014 26 10000 4.6 120 13:18 06.01.2021
4047 Clouds 25 1014 24 10000 5.1 120 12:42 06.01.2021
4048 Clouds 26 1014 24 10000 6.2 120 11:46 06.01.2021
4049 Clouds 26 1013 21 10000 7.2 110 11:23 06.01.2021
4050 Clouds 29 1013 20 10000 7.2 120 10:44 06.01.2021
4051 Clouds 29 1013 21 10000 7.7 100 09:52 06.01.2021
4052 Clouds 29 1013 21 10000 7.7 110 09:33 06.01.2021
4053 Clouds 29 1013 21 10000 7.2 120 08:54 06.01.2021
4054 Clouds 30 1013 23 10000 7.2 100 08:20 06.01.2021
4055 Clouds 30 1013 23 10000 8.2 90 07:53 06.01.2021
4056 Clouds 29 1014 25 10000 7.7 110 06:44 06.01.2021
4057 Clouds 28 1015 28 10000 6.7 100 05:30 06.01.2021
4058 Clear 27 1016 32 10000 7.7 110 04:18 06.01.2021
4059 Clear 25 1017 36 10000 7.2 120 02:43 06.01.2021
4060 Clear 25 1017 36 10000 7.7 120 02:21 06.01.2021
4061 Clouds 22 1017 40 10000 5.7 130 23:51 05.01.2021
4062 Clouds 20 1017 45 10000 4.6 140 22:57 05.01.2021
4063 Clouds 20 1017 45 10000 4.6 140 22:38 05.01.2021
4064 Clouds 21 1016 40 10000 5.1 130 22:19 05.01.2021
4065 Clouds 21 1016 40 10000 4.6 130 21:27 05.01.2021
4066 Clouds 21 1015 40 10000 3.6 130 20:31 05.01.2021
4067 Clouds 20 1015 52 10000 3.6 110 19:57 05.01.2021
4068 Clouds 20 1015 52 10000 3.6 110 19:38 05.01.2021
4069 Clear 20 1015 52 10000 3.6 110 19:18 05.01.2021
4070 Clouds 19 1015 72 10000 3.1 150 18:42 05.01.2021
4071 Clear 18 1015 88 10000 3.1 170 18:18 05.01.2021
4072 Clear 22 1014 88 10000 3.1 180 17:40 05.01.2021
4073 Clear 22 1014 88 10000 3.1 180 17:20 05.01.2021
4074 Clear 22 1015 88 10000 4.32 139 16:39 05.01.2021
4075 Clear 22 1015 88 10000 3.76 129 16:20 05.01.2021
4076 Clear 22 1015 93 10000 3.76 129 15:49 05.01.2021
4077 Clear 23 1015 77 10000 3.61 120 14:49 05.01.2021
4078 Clouds 23 1015 77 10000 3.8 108 14:19 05.01.2021
4079 Clouds 23 1015 83 10000 3.8 108 13:44 05.01.2021
4080 Clouds 23 1015 83 10000 3.8 108 13:44 05.01.2021
4081 Clouds 23 1015 77 10000 1 350 13:20 05.01.2021
4082 Clouds 24 1015 68 10000 2.1 360 12:46 05.01.2021
4083 Clouds 24 1015 68 10000 2.6 10 12:21 05.01.2021
4084 -273 0 0 0 0 0 11:35 05.01.2021
4085 -273 0 0 0 0 0 11:35 05.01.2021
4086 -273 0 0 0 0 0 11:34 05.01.2021
4087 Clouds 24 1014 64 10000 2.1 40 11:33 05.01.2021
4088 Clouds 24 1014 64 10000 2.1 40 11:33 05.01.2021
4089 Clouds 25 1014 53 10000 3.6 80 10:46 05.01.2021
4090 Clouds 25 1013 50 10000 3.6 100 10:25 05.01.2021
4091 Clouds 24 1014 50 10000 3.6 100 09:48 05.01.2021
4092 Clouds 24 1014 50 10000 3.6 100 09:27 05.01.2021
4093 Rain 23 1013 69 10000 4.1 100 08:23 05.01.2021
4094 Clouds 23 1013 56 10000 6.2 70 06:46 05.01.2021
4095 Rain 23 1014 72 10000 4.1 90 03:48 05.01.2021
4096 Rain 23 1014 68 10000 4.6 60 00:45 05.01.2021
4097 Rain 23 1014 52 10000 6.2 130 23:44 04.01.2021
4098 Clouds 24 1014 49 10000 3.6 110 23:24 04.01.2021
4099 Rain 24 1013 60 10000 2.6 100 22:46 04.01.2021
4100 Clouds 24 1012 56 10000 2.6 100 22:22 04.01.2021
4101 Clouds 24 1012 56 10000 2.6 90 21:44 04.01.2021
4102 Clouds 24 1012 56 10000 3.6 100 21:24 04.01.2021
4103 Clouds 24 1011 60 10000 5.7 130 20:43 04.01.2021
4104 Clouds 25 1011 38 10000 5.1 120 20:22 04.01.2021
4105 Clouds 25 1010 38 10000 4.1 110 19:43 04.01.2021
4106 Clouds 25 1010 38 10000 5.7 120 19:21 04.01.2021
4107 Clouds 25 1010 38 10000 5.7 120 18:48 04.01.2021
4108 Clouds 25 1010 41 10000 4.1 120 18:18 04.01.2021
4109 Clouds 25 1010 39 10000 3.6 120 17:39 04.01.2021
4110 Clouds 25 1010 39 10000 3.6 110 17:21 04.01.2021
4111 Clouds 25 1010 39 10000 3.6 90 16:44 04.01.2021
4112 Clouds 25 1010 39 10000 4.1 80 16:26 04.01.2021
4113 Clouds 25 1010 39 10000 4.1 80 15:49 04.01.2021
4114 Clouds 25 1010 39 10000 3.6 120 15:25 04.01.2021
4115 Clouds 25 1010 41 10000 4.6 120 14:21 04.01.2021
4116 Clouds 26 1010 39 10000 6.2 120 13:37 04.01.2021
4117 Clouds 27 1010 36 10000 5.1 110 12:57 04.01.2021
4118 Clouds 27 1010 36 10000 5.7 110 12:30 04.01.2021
4119 Clouds 28 1009 34 10000 5.7 110 11:52 04.01.2021
4120 Clouds 28 1008 32 10000 7.2 130 11:19 04.01.2021
4121 Clouds 29 1008 32 10000 7.7 120 10:46 04.01.2021
4122 Clouds 30 1007 33 10000 8.2 130 10:23 04.01.2021
4123 Clouds 31 1007 33 10000 5.7 110 09:44 04.01.2021
4124 Clouds 31 1007 33 10000 5.1 100 09:18 04.01.2021
4125 Clouds 32 1007 29 10000 6.2 120 08:32 04.01.2021
4126 Clouds 32 1007 29 10000 5.1 100 07:47 04.01.2021
4127 Clouds 33 1008 29 10000 5.7 140 06:40 04.01.2021
4128 Clear 32 1009 30 10000 3.6 70 05:20 04.01.2021
4129 Clear 29 1010 39 10000 3.6 80 02:27 04.01.2021
4130 Clouds 25 1011 50 10000 6.7 120 00:27 04.01.2021
4131 Clouds 25 1011 50 10000 6.7 100 23:38 03.01.2021
4132 Clouds 24 1011 53 10000 5.1 110 22:58 03.01.2021
4133 Clouds 24 1011 53 10000 4.1 110 22:39 03.01.2021
4134 Clouds 22 1010 53 10000 4.1 110 22:21 03.01.2021
4135 Clouds 22 1010 53 10000 3.6 120 21:41 03.01.2021
4136 Clouds 23 1009 49 10000 3.1 110 21:23 03.01.2021
4137 Clouds 23 1009 46 10000 4.6 100 20:41 03.01.2021
4138 Clouds 23 1008 46 10000 4.6 100 20:19 03.01.2021
4139 Clouds 23 1008 46 10000 4.1 110 19:46 03.01.2021
4140 Clouds 23 1008 46 10000 4.1 110 19:27 03.01.2021
4141 Clouds 24 1008 41 10000 6.2 110 18:46 03.01.2021
4142 Clouds 24 1009 41 10000 7.2 90 18:25 03.01.2021
4143 Clouds 24 1009 41 10000 6.7 110 17:53 03.01.2021
4144 Clouds 24 1009 41 10000 6.7 110 17:27 03.01.2021
4145 Rain 25 1009 41 10000 5.7 90 16:55 03.01.2021
4146 Rain 25 1009 41 10000 5.7 90 16:36 03.01.2021
4147 Rain 24 1009 41 10000 7.2 90 16:18 03.01.2021
4148 Rain 24 1010 47 10000 6.7 90 15:40 03.01.2021
4149 Rain 24 1011 47 10000 5.1 60 14:59 03.01.2021
4150 Thunderstorm 28 1009 26 10000 6.2 100 14:33 03.01.2021
4151 Clouds 28 1008 28 10000 6.7 110 13:52 03.01.2021
4152 Clouds 28 1007 28 10000 6.7 110 13:25 03.01.2021
4153 Clouds 28 1007 28 10000 6.7 110 12:55 03.01.2021
4154 Clouds 31 1006 21 10000 6.7 110 11:44 03.01.2021
4155 Clouds 31 1006 21 10000 6.7 110 11:26 03.01.2021
4156 Clouds 32 1005 21 10000 6.7 110 10:56 03.01.2021
4157 Clouds 32 1005 21 10000 6.7 110 10:31 03.01.2021
4158 Clouds 34 1005 20 10000 8.2 110 09:42 03.01.2021
4159 Clouds 36 1005 18 10000 7.7 120 09:23 03.01.2021
4160 Clear 36 1005 23 10000 4.6 40 07:58 03.01.2021
4161 Clear 36 1006 21 10000 7.7 50 05:59 03.01.2021
4162 Clear 33 1010 21 10000 7.7 120 02:29 03.01.2021
4163 Clear 31 1009 20 10000 8.7 120 01:48 03.01.2021
4164 Clear 31 1009 25 10000 7.2 130 00:21 03.01.2021
4165 Clear 30 1008 39 10000 6.2 140 23:30 02.01.2021
4166 Clear 29 1008 54 10000 2.6 110 22:58 02.01.2021
4167 Clear 27 1007 57 10000 2.6 40 22:32 02.01.2021
4168 Clear 24 1007 57 10000 3.6 60 21:52 02.01.2021
4169 Clear 24 1007 57 10000 3.6 60 21:32 02.01.2021
4170 Clear 27 1007 51 10000 2.1 60 20:56 02.01.2021
4171 Clear 27 1006 47 10000 2.1 30 20:38 02.01.2021
4172 Clear 25 1006 53 10000 3.6 10 20:19 02.01.2021
4173 Clouds 24 1006 60 10000 2.62 5 19:21 02.01.2021
4174 Clouds 24 1006 57 10000 0.5 330 18:58 02.01.2021
4175 Clouds 24 1006 57 10000 0.5 330 18:40 02.01.2021
4176 Clear 24 1006 57 10000 0.5 330 18:40 02.01.2021
4177 Clear 25 1006 53 10000 2.1 30 18:20 02.01.2021
4178 Clear 25 1006 53 10000 2.1 60 17:45 02.01.2021
4179 Clear 25 1006 53 10000 3.1 140 16:59 02.01.2021
4180 Clear 27 1006 44 10000 3.13 58 16:23 02.01.2021
4181 Clear 27 1006 44 10000 3.13 58 15:54 02.01.2021
4182 Clear 27 1007 44 10000 3.13 58 15:33 02.01.2021
4183 Clear 28 1007 45 10000 1.5 60 14:58 02.01.2021
4184 Clear 28 1007 45 10000 2.1 70 14:36 02.01.2021
4185 Clear 30 1007 30 10000 2.1 30 13:51 02.01.2021
4186 Clouds 32 1007 25 10000 2.6 70 13:22 02.01.2021
4187 Clouds 33 1007 22 10000 3.1 80 12:48 02.01.2021
4188 Clouds 33 1007 22 10000 3.1 80 12:28 02.01.2021
4189 Clouds 34 1006 20 10000 4.6 90 11:44 02.01.2021
4190 Clouds 35 1006 18 10000 6.2 90 11:21 02.01.2021
4191 Clouds 36 1005 17 10000 5.1 90 10:42 02.01.2021
4192 Clouds 37 1005 14 10000 5.7 110 10:24 02.01.2021
4193 Clouds 38 1005 14 10000 5.7 120 09:43 02.01.2021
4194 Clouds 38 1005 15 10000 5.7 110 09:22 02.01.2021
4195 Clouds 39 1005 14 10000 5.1 130 08:49 02.01.2021
4196 Clouds 38 1005 15 10000 6.7 70 08:21 02.01.2021
4197 Clouds 38 1005 16 10000 7.7 90 07:43 02.01.2021
4198 Clouds 38 1006 18 10000 3.6 70 07:19 02.01.2021
4199 Clouds 38 1007 18 10000 2.6 70 06:24 02.01.2021
4200 Clear 38 1008 23 10000 6.2 100 04:27 02.01.2021
4201 Clear 33 1010 31 10000 5.7 90 00:53 02.01.2021
4202 Clear 32 1010 31 10000 3.1 90 00:33 02.01.2021
4203 Clear 30 1010 34 10000 2.1 50 23:43 01.01.2021
4204 Clear 29 1010 41 10000 0.5 50 23:19 01.01.2021
4205 Clear 28 1009 44 10000 2.1 160 22:47 01.01.2021
4206 Clear 26 1009 53 10000 2.6 210 22:22 01.01.2021
4207 Clear 23 1009 56 10000 3.1 250 21:43 01.01.2021
4208 Clear 23 1009 60 10000 2.1 130 21:21 01.01.2021
4209 Clouds 24 1008 50 10000 1.2 84 20:51 01.01.2021
4210 Clouds 24 1008 53 10000 2.6 290 20:19 01.01.2021
4211 Clouds 24 1008 53 10000 1.65 83 19:42 01.01.2021
4212 Clouds 24 1008 47 10000 1.86 90 19:22 01.01.2021
4213 Clouds 23 1008 56 10000 2.1 300 18:48 01.01.2021
4214 Clouds 23 1008 56 10000 2.1 300 18:29 01.01.2021
4215 Clear 24 1009 47 10000 2.1 300 17:50 01.01.2021
4216 Clear 25 1009 47 10000 2.6 270 17:24 01.01.2021
4217 Clear 24 1009 53 10000 2.6 270 16:53 01.01.2021
4218 Clear 24 1009 53 10000 2.6 270 16:29 01.01.2021
4219 Clear 26 1009 41 10000 1.5 330 15:43 01.01.2021
4220 Clear 27 1009 36 10000 2.54 155 14:51 01.01.2021
4221 Clear 27 1009 36 10000 3.26 153 14:32 01.01.2021
4222 Clear 28 1009 28 10000 2.6 100 13:42 01.01.2021
4223 Clear 30 1009 22 10000 3.1 100 13:23 01.01.2021
4224 Clear 30 1009 23 10000 3.1 100 12:37 01.01.2021
4225 Clear 31 1009 20 10000 3.1 100 12:18 01.01.2021
4226 Clear 32 1008 18 10000 3.6 100 11:39 01.01.2021
4227 Clear 33 1008 17 10000 3.6 90 11:18 01.01.2021
4228 Clear 34 1008 14 10000 3.6 80 10:34 01.01.2021
4229 Clear 36 1007 12 10000 3.6 80 09:46 01.01.2021
4230 Clear 36 1007 13 10000 4.6 100 08:54 01.01.2021
4231 Clear 37 1007 13 10000 3.6 110 08:25 01.01.2021
4232 Clear 34 1010 15 10000 3.1 40 04:52 01.01.2021
4233 Clear 31 1011 20 10000 6.7 80 02:26 01.01.2021
4234 Clear 29 1012 20 10000 3.6 90 00:41 01.01.2021
4235 Clear 29 1012 21 10000 1.5 200 00:21 01.01.2021
4236 Clear 26 1012 40 10000 2.1 270 23:22 31.12.2020
4237 Clear 22 1012 52 10000 2.6 300 22:56 31.12.2020
4238 Clear 22 1012 52 10000 2.6 300 22:38 31.12.2020
4239 Clear 18 1011 55 10000 2.1 260 22:19 31.12.2020
4240 Clear 18 1011 55 10000 2.6 250 21:46 31.12.2020
4241 Clear 19 1011 45 10000 3.6 270 21:23 31.12.2020
4242 Clear 18 1011 55 10000 2.6 290 20:48 31.12.2020
4243 Clear 20 1011 42 10000 2.6 330 20:18 31.12.2020
4244 Clear 19 1010 48 10000 3.1 230 19:45 31.12.2020
4245 Clear 22 1010 59 10000 2.6 290 19:24 31.12.2020
4246 Clear 20 1010 56 10000 1.5 270 18:42 31.12.2020
4247 Clear 20 1011 60 10000 2.1 310 18:23 31.12.2020
4248 Clear 21 1011 52 10000 1.01 134 17:44 31.12.2020
4249 Clear 21 1011 46 10000 1.46 108 17:22 31.12.2020
4250 Clear 22 1011 46 10000 1.46 108 16:43 31.12.2020
4251 Clear 24 1012 29 10000 2.31 90 16:22 31.12.2020
4252 Clear 23 1012 33 10000 2.31 90 15:45 31.12.2020
4253 Clear 24 1012 29 10000 1.5 60 15:22 31.12.2020
4254 Clear 24 1012 29 10000 1.5 60 14:56 31.12.2020
4255 Clear 23 1011 33 10000 2.1 120 14:37 31.12.2020
4256 Clear 25 1011 33 10000 3.1 150 14:19 31.12.2020
4257 Clear 27 1011 29 10000 3.1 150 13:38 31.12.2020
4258 Clear 28 1011 19 10000 3.1 140 13:19 31.12.2020
4259 Clear 28 1010 20 10000 3.6 130 12:53 31.12.2020
4260 Clear 29 1010 20 10000 3.6 130 12:35 31.12.2020
4261 Clear 30 1010 16 10000 4.1 110 11:51 31.12.2020
4262 Clear 30 1010 16 10000 4.1 110 11:32 31.12.2020
4263 Clear 30 1010 16 10000 4.1 110 11:32 31.12.2020
4264 Clear 32 1009 13 10000 4.6 80 10:49 31.12.2020
4265 Clear 32 1009 13 10000 4.6 80 10:29 31.12.2020
4266 Clear 33 1009 13 10000 5.7 90 09:56 31.12.2020
4267 Clear 33 1009 13 10000 5.7 100 09:34 31.12.2020
4268 Clear 34 1009 13 10000 4.1 110 08:50 31.12.2020
4269 Clear 34 1009 13 10000 4.1 110 08:32 31.12.2020
4270 Clear 34 1009 12 10000 4.6 150 07:59 31.12.2020
4271 Clear 35 1009 12 10000 5.1 160 07:29 31.12.2020
4272 Clear 32 1011 13 10000 5.1 70 05:31 31.12.2020
4273 Clear 32 1012 14 10000 5.7 120 04:30 31.12.2020
4274 Clear 31 1013 15 10000 7.7 110 02:45 31.12.2020
4275 Clear 31 1013 17 10000 6.2 100 02:25 31.12.2020
4276 Clear 28 1013 20 10000 5.7 110 01:44 31.12.2020
4277 Clear 28 1013 18 10000 5.1 90 01:25 31.12.2020
4278 Clear 28 1014 19 10000 4.6 100 00:46 31.12.2020
4279 Clear 25 1014 22 10000 3.1 80 23:48 30.12.2020
4280 Clear 25 1013 35 10000 2.6 100 23:19 30.12.2020
4281 Clear 18 1013 63 10000 1 60 22:48 30.12.2020
4282 Clear 18 1013 63 10000 1 60 22:30 30.12.2020
4283 Clear 17 1012 55 10000 2.1 30 21:44 30.12.2020
4284 Clear 18 1012 48 10000 2.6 110 21:22 30.12.2020
4285 Clear 19 1011 45 10000 3.1 120 20:50 30.12.2020
4286 Clear 19 1011 52 10000 3.1 120 20:20 30.12.2020
4287 Clear 19 1011 52 10000 1.5 80 19:41 30.12.2020
4288 Clear 20 1011 37 10000 0.5 10 19:22 30.12.2020
4289 Clear 20 1011 37 10000 2.1 40 18:46 30.12.2020
4290 Clear 21 1011 35 10000 2.1 40 18:28 30.12.2020
4291 Clear 21 1011 35 10000 2.1 40 17:51 30.12.2020
4292 Clear 21 1011 40 10000 3.6 140 17:32 30.12.2020
4293 Clear 22 1012 35 10000 2.6 160 16:53 30.12.2020
4294 Clear 22 1012 35 10000 2.6 160 16:29 30.12.2020
4295 Clear 23 1012 33 10000 3.6 140 15:47 30.12.2020
4296 Clear 24 1012 28 10000 3.6 130 15:24 30.12.2020
4297 Clear 25 1012 27 10000 2.6 110 14:44 30.12.2020
4298 Clear 25 1012 25 10000 3.1 120 14:22 30.12.2020
4299 Clear 27 1012 19 10000 3.6 130 13:29 30.12.2020
4300 Clear 28 1011 16 10000 4.1 130 12:29 30.12.2020
4301 Clear 29 1010 14 10000 4.1 120 11:57 30.12.2020
4302 Clear 29 1010 14 10000 4.1 120 11:36 30.12.2020
4303 Clear 30 1010 11 10000 6.2 120 11:18 30.12.2020
4304 Clear 31 1010 15 10000 5.7 130 10:40 30.12.2020
4305 Clear 32 1009 13 10000 4.6 120 10:21 30.12.2020
4306 Clear 32 1009 11 10000 4.6 150 09:48 30.12.2020
4307 Clear 32 1009 11 10000 4.1 160 09:23 30.12.2020
4308 Clear 33 1010 13 10000 3.6 110 08:24 30.12.2020
4309 Clear 32 1010 11 10000 5.1 80 07:29 30.12.2020
4310 Clear 31 1011 12 10000 5.1 90 06:44 30.12.2020
4311 Clear 32 1011 14 10000 5.1 90 05:52 30.12.2020
4312 Clear 32 1011 14 10000 5.1 90 05:31 30.12.2020
4313 Clear 31 1012 14 10000 5.1 140 04:29 30.12.2020
4314 Clear 28 1013 17 10000 4.6 120 03:28 30.12.2020
4315 Clear 27 1014 17 10000 3.1 110 02:38 30.12.2020
4316 Clear 26 1014 19 10000 5.1 90 01:50 30.12.2020
4317 Clear 26 1014 19 10000 5.1 90 01:31 30.12.2020
4318 Clouds 26 1014 20 10000 6.7 70 00:47 30.12.2020
4319 Clouds 26 1014 20 10000 6.7 70 00:27 30.12.2020
4320 Clouds 25 1014 27 10000 2.1 70 23:52 29.12.2020
4321 Clouds 23 1014 27 10000 2.1 70 23:34 29.12.2020
4322 Clouds 19 1013 55 10000 2.1 260 22:50 29.12.2020
4323 Clouds 19 1013 55 10000 2.1 260 22:31 29.12.2020
4324 Clouds 17 1013 55 10000 3.79 126 21:56 29.12.2020
4325 Clouds 18 1013 52 10000 2.1 60 21:38 29.12.2020
4326 Clouds 19 1012 42 10000 2.6 80 21:20 29.12.2020
4327 Clouds 19 1012 48 10000 2.6 60 20:43 29.12.2020
4328 Clouds 20 1012 45 10000 2.6 60 20:25 29.12.2020
4329 Clouds 20 1012 52 10000 2.6 70 19:45 29.12.2020
4330 Clouds 20 1012 52 10000 2.6 70 19:22 29.12.2020
4331 Clouds 20 1012 60 10000 4.41 127 18:53 29.12.2020
4332 Clouds 20 1012 60 10000 4.56 130 18:29 29.12.2020
4333 Clouds 20 1013 60 10000 4.56 130 17:47 29.12.2020
4334 Clouds 22 1013 40 10000 2.1 140 17:23 29.12.2020
4335 Clouds 22 1013 40 10000 3.6 140 16:55 29.12.2020
4336 Clouds 25 1013 43 10000 3.1 150 16:26 29.12.2020
4337 Clouds 25 1013 43 10000 2.6 140 15:46 29.12.2020
4338 Clouds 25 1013 38 10000 2.6 130 15:26 29.12.2020
4339 Clouds 25 1013 33 10000 3.6 140 14:45 29.12.2020
4340 Clouds 26 1013 31 10000 3.1 140 14:27 29.12.2020
4341 Clouds 26 1012 27 10000 3.6 140 13:55 29.12.2020
4342 Clouds 27 1012 26 10000 3.6 130 13:24 29.12.2020
4343 Clouds 27 1011 24 10000 3.6 130 12:45 29.12.2020
4344 Clouds 27 1011 21 10000 4.6 130 12:26 29.12.2020
4345 Clouds 27 1011 21 10000 4.6 130 11:58 29.12.2020
4346 Clouds 28 1011 20 10000 5.1 120 11:32 29.12.2020
4347 Clouds 28 1010 17 10000 5.7 140 10:40 29.12.2020
4348 Clouds 29 1010 18 10000 6.7 110 10:19 29.12.2020
4349 Clouds 31 1010 18 10000 5.7 140 09:39 29.12.2020
4350 Clear 32 1010 18 10000 5.7 100 09:18 29.12.2020
4351 Clear 32 1010 17 10000 5.1 110 08:45 29.12.2020
4352 Clouds 31 1010 16 10000 5.1 160 07:35 29.12.2020
4353 Clear 30 1010 20 10000 5.1 100 06:58 29.12.2020
4354 Clear 28 1012 20 10000 4.6 130 05:33 29.12.2020
4355 Clear 24 1014 22 10000 6.7 100 01:36 29.12.2020
4356 Clouds 22 1014 22 10000 7.2 120 00:24 29.12.2020
4357 Clouds 22 1014 22 10000 7.2 120 00:24 29.12.2020
4358 Clouds 22 1014 21 10000 6.7 110 23:37 28.12.2020
4359 Clouds 21 1013 26 10000 3.6 130 22:41 28.12.2020
4360 Clouds 20 1013 28 10000 3.6 120 21:47 28.12.2020
4361 Clouds 20 1013 28 10000 3.6 120 21:29 28.12.2020
4362 Clouds 22 1012 28 10000 4.1 120 20:47 28.12.2020
4363 Clouds 22 1012 28 10000 4.1 120 20:29 28.12.2020
4364 Clouds 22 1011 24 10000 4.1 130 19:59 28.12.2020
4365 Clouds 23 1012 20 10000 5.1 120 19:40 28.12.2020
4366 Clouds 24 1012 22 10000 5.7 120 19:20 28.12.2020
4367 Clouds 24 1012 22 10000 5.1 130 18:44 28.12.2020
4368 Clouds 24 1012 23 10000 6.7 130 18:23 28.12.2020
4369 Clouds 25 1012 23 10000 5.1 120 17:39 28.12.2020
4370 Clouds 25 1012 27 10000 5.1 120 17:18 28.12.2020
4371 Clouds 26 1012 24 10000 7.2 110 16:32 28.12.2020
4372 Clouds 26 1013 27 10000 5.1 120 15:58 28.12.2020
4373 Clouds 26 1013 29 10000 4.6 120 15:36 28.12.2020
4374 Clouds 26 1012 36 10000 2.6 130 14:35 28.12.2020
4375 Clouds 27 1011 32 10000 2.6 120 13:49 28.12.2020
4376 Clouds 27 1011 32 10000 4.1 130 13:22 28.12.2020
4377 Clouds 27 1011 30 10000 5.7 140 12:29 28.12.2020
4378 Clouds 28 1010 30 10000 4.1 130 11:58 28.12.2020
4379 Clouds 28 1010 30 10000 4.1 130 11:38 28.12.2020
4380 Clouds 28 1010 30 10000 5.1 140 11:18 28.12.2020
4381 Clear 29 1009 28 10000 5.7 140 10:29 28.12.2020
4382 Clear 29 1009 30 10000 5.7 140 09:59 28.12.2020
4383 Clear 29 1009 28 10000 5.7 140 09:38 28.12.2020
4384 Clear 29 1009 30 10000 5.7 150 09:18 28.12.2020
4385 Clouds 31 1009 29 10000 5.1 130 06:54 28.12.2020
4386 Clear 30 1010 30 10000 3.6 140 05:25 28.12.2020
4387 Clear 28 1011 32 10000 5.1 150 03:51 28.12.2020
4388 Clear 27 1011 39 10000 4.6 120 01:55 28.12.2020
4389 Clear 26 1011 41 10000 5.1 120 23:58 27.12.2020
4390 Clear 26 1011 41 10000 5.7 100 23:35 27.12.2020
4391 Clear 26 1010 44 10000 4.6 110 22:40 27.12.2020
4392 Clear 26 1008 50 10000 5.1 110 21:55 27.12.2020
4393 Clear 26 1008 57 10000 6.7 140 21:22 27.12.2020
4394 Clear 25 1007 69 10000 2.34 250 20:32 27.12.2020
4395 Clear 25 1007 69 10000 2.34 250 20:32 27.12.2020
4396 Clear 25 1007 69 10000 2.6 160 19:24 27.12.2020
4397 Clear 26 1007 50 10000 3.1 330 18:50 27.12.2020
4398 Clear 26 1007 53 10000 3.1 330 18:21 27.12.2020
4399 Clear 26 1007 53 10000 3.1 330 17:58 27.12.2020
4400 Clear 26 1007 50 10000 2.1 340 17:35 27.12.2020
4401 Clear 26 1007 50 10000 2.6 360 16:57 27.12.2020
4402 Clear 27 1008 44 10000 3.1 10 16:23 27.12.2020
4403 Clear 27 1008 42 10000 3.1 10 15:34 27.12.2020
4404 Clear 27 1008 44 10000 3.1 30 14:54 27.12.2020
4405 Clear 27 1008 44 10000 3.1 30 14:36 27.12.2020
4406 Clear 27 1008 42 10000 3.1 40 13:37 27.12.2020
4407 Clouds 28 1008 39 10000 3.1 50 12:56 27.12.2020
4408 Clouds 30 1007 33 10000 2.6 70 12:26 27.12.2020
4409 Clouds 32 1007 27 10000 3.1 110 11:42 27.12.2020
4410 Clouds 34 1007 21 10000 4.1 120 11:20 27.12.2020
4411 Clouds 34 1007 21 10000 4.1 120 11:20 27.12.2020
4412 Clouds 35 1006 20 10000 4.6 130 10:40 27.12.2020
4413 Clouds 35 1006 21 10000 4.1 140 10:19 27.12.2020
4414 Clouds 35 1006 20 10000 4.1 150 09:36 27.12.2020
4415 Clouds 36 1006 22 10000 2.6 160 08:28 27.12.2020
4416 Clouds 36 1007 22 10000 3.6 150 07:28 27.12.2020
4417 Clouds 35 1009 23 10000 3.1 130 05:56 27.12.2020
4418 Clouds 35 1009 21 10000 3.1 60 05:38 27.12.2020
4419 Clear 33 1011 29 10000 2.1 80 03:24 27.12.2020
4420 Clear 31 1011 31 10000 2.6 40 02:25 27.12.2020
4421 Clouds 28 1012 37 10000 4.1 30 00:38 27.12.2020
4422 Clouds 26 1011 57 10000 3.02 52 23:43 26.12.2020
4423 Clouds 25 1011 73 10000 2.28 43 23:23 26.12.2020
4424 Clouds 25 1011 78 10000 2.28 43 22:45 26.12.2020
4425 Clouds 24 1010 83 10000 1.56 47 22:19 26.12.2020
4426 Clouds 24 1010 83 10000 1.56 47 21:53 26.12.2020
4427 Clouds 24 1010 83 10000 1.56 47 21:53 26.12.2020
4428 Clouds 21 1010 77 10000 1.23 52 21:24 26.12.2020
4429 Clouds 25 1010 73 10000 1.23 52 20:44 26.12.2020
4430 Clouds 24 1010 83 10000 1.1 44 20:22 26.12.2020
4431 Clouds 25 1010 78 10000 1.5 310 19:31 26.12.2020
4432 Clouds 25 1010 83 10000 1.5 310 18:57 26.12.2020
4433 Clear 25 1010 78 10000 2.1 310 18:33 26.12.2020
4434 Clear 25 1010 69 10000 1.5 290 17:47 26.12.2020
4435 Clear 25 1010 78 10000 2.1 290 17:28 26.12.2020
4436 Clear 25 1011 78 10000 2 57 16:38 26.12.2020
4437 Clear 25 1011 78 10000 2.07 68 15:59 26.12.2020
4438 Clear 25 1011 78 10000 0.5 50 15:20 26.12.2020
4439 Clear 25 1011 73 10000 1.5 50 14:38 26.12.2020
4440 Clear 26 1011 50 10000 2.1 360 14:19 26.12.2020
4441 Clear 26 1011 50 10000 2.6 100 13:37 26.12.2020
4442 Clear 26 1010 47 10000 2.6 110 12:57 26.12.2020
4443 Clear 27 1010 37 10000 2.6 90 12:39 26.12.2020
4444 Clear 27 1010 34 10000 2.6 100 11:59 26.12.2020
4445 Clear 28 1010 30 10000 3.1 80 11:41 26.12.2020
4446 Clear 29 1009 25 10000 3.6 90 11:20 26.12.2020
4447 Clear 32 1009 24 10000 4.6 80 10:45 26.12.2020
4448 Clear 32 1009 24 10000 3.6 90 10:24 26.12.2020
4449 Clear 32 1009 25 10000 3.6 110 09:47 26.12.2020
4450 Clear 32 1009 19 10000 3.6 140 08:55 26.12.2020
4451 Clear 32 1010 22 10000 5.1 110 08:19 26.12.2020
4452 Clear 32 1011 22 10000 5.7 50 07:21 26.12.2020
4453 Clear 31 1012 27 10000 5.7 40 05:37 26.12.2020
4454 Clear 27 1015 34 10000 6.7 60 02:47 26.12.2020
4455 Clear 25 1015 47 10000 1.5 310 00:36 26.12.2020
4456 Clear 24 1015 73 10000 1.5 280 23:49 25.12.2020
4457 Clear 24 1015 73 10000 1.5 280 23:28 25.12.2020
4458 Clear 18 1014 88 10000 2.6 360 22:52 25.12.2020
4459 Clear 18 1014 88 10000 2.6 360 22:26 25.12.2020
4460 Clear 17 1014 88 10000 2.6 350 21:42 25.12.2020
4461 Clear 17 1013 88 10000 2.6 360 21:24 25.12.2020
4462 Clear 17 1013 88 10000 2.1 330 20:44 25.12.2020
4463 Clouds 17 1013 88 10000 2.1 330 20:26 25.12.2020
4464 Clouds 17 1013 93 10000 1 320 19:42 25.12.2020
4465 Clear 18 1013 88 10000 1.5 360 18:43 25.12.2020
4466 Clear 19 1013 82 10000 2.6 360 18:25 25.12.2020
4467 Clear 18 1014 93 10000 1.69 78 17:35 25.12.2020
4468 Clear 19 1014 88 10000 2.1 330 16:51 25.12.2020
4469 Clear 20 1015 77 10000 1.73 59 16:21 25.12.2020
4470 Clear 20 1015 82 10000 1.73 59 15:49 25.12.2020
4471 Clear 20 1015 82 10000 1.73 59 15:25 25.12.2020
4472 Clear 21 1015 73 10000 1.73 59 14:32 25.12.2020
4473 Clear 25 1015 68 10000 2.1 90 13:49 25.12.2020
4474 Clear 25 1014 64 10000 2.1 110 13:26 25.12.2020
4475 Clear 25 1014 64 10000 2.6 110 12:56 25.12.2020
4476 Clear 26 1014 57 10000 3.1 110 12:27 25.12.2020
4477 Clear 26 1014 47 10000 4.6 100 11:46 25.12.2020
4478 Clear 27 1014 42 10000 6.2 80 11:23 25.12.2020
4479 Clear 27 1013 39 10000 5.7 80 10:40 25.12.2020
4480 Clear 27 1013 37 10000 6.2 100 09:49 25.12.2020
4481 Clear 27 1013 39 10000 5.7 100 08:53 25.12.2020
4482 Clear 27 1013 39 10000 5.7 100 08:35 25.12.2020
4483 Clouds 27 1013 47 10000 6.2 70 06:51 25.12.2020
4484 Clouds 26 1014 47 10000 8.7 90 05:38 25.12.2020
4485 Clouds 25 1017 60 10000 8.7 80 02:21 25.12.2020
4486 Clouds 20 1016 77 10000 3.1 90 00:25 25.12.2020
4487 Clouds 19 1016 82 10000 3.1 100 23:31 24.12.2020
4488 Clouds 17 1015 93 10000 5.89 102 22:54 24.12.2020
4489 Clouds 16 1015 93 10000 2.9 99 22:25 24.12.2020
4490 Rain 17 1015 88 10000 2.1 60 21:47 24.12.2020
4491 Clouds 17 1015 88 10000 2.6 50 20:59 24.12.2020
4492 Clouds 17 1014 93 10000 2.01 130 19:48 24.12.2020
4493 Clouds 17 1015 93 10000 2 123 18:21 24.12.2020
4494 Rain 17 1015 93 10000 1.5 60 17:38 24.12.2020
4495 Rain 17 1016 93 10000 1.5 80 17:20 24.12.2020
4496 Clouds 17 1016 93 10000 2.1 210 16:25 24.12.2020
4497 Clouds 17 1017 93 10000 3.5 113 15:49 24.12.2020
4498 Clouds 17 1017 93 10000 2.6 150 15:25 24.12.2020
4499 Clouds 17 1017 93 10000 2.6 150 14:56 24.12.2020
4500 Clouds 17 1017 93 10000 2.6 130 14:37 24.12.2020
4501 Clouds 17 1017 93 10000 3.1 140 14:18 24.12.2020
4502 Clouds 17 1016 93 10000 2.6 130 13:38 24.12.2020
4503 Rain 17 1016 93 10000 2.6 110 13:18 24.12.2020
4504 Clouds 17 1016 93 10000 4.1 90 12:39 24.12.2020
4505 Rain 17 1016 100 10000 3.6 130 12:18 24.12.2020
4506 Clouds 17 1016 100 10000 3.6 120 11:38 24.12.2020
4507 Rain 17 1015 100 10000 5.1 100 11:19 24.12.2020
4508 Rain 17 1015 100 10000 4.1 110 10:43 24.12.2020
4509 Rain 18 1015 93 10000 4.6 110 09:58 24.12.2020
4510 Rain 17 1015 100 10000 3.6 110 09:40 24.12.2020
4511 Rain 18 1015 93 10000 3.6 90 08:48 24.12.2020
4512 Rain 18 1015 93 10000 3.6 70 07:51 24.12.2020
4513 Rain 18 1015 93 10000 3.6 70 07:51 24.12.2020
4514 Rain 18 1015 93 10000 3.6 70 07:30 24.12.2020
4515 Rain 17 1016 93 10000 4.1 70 06:23 24.12.2020
4516 Rain 16 1017 100 10000 5.1 110 03:23 24.12.2020
4517 Rain 15 1017 100 10000 5.1 100 01:48 24.12.2020
4518 Rain 15 1017 100 10000 4.6 110 01:18 24.12.2020
4519 Rain 15 1017 100 10000 4.6 110 01:18 24.12.2020
4520 Rain 15 1017 100 10000 3.1 90 00:23 24.12.2020
4521 Rain 15 1017 100 10000 3.1 90 23:56 23.12.2020
4522 Rain 15 1017 100 10000 3.6 70 23:38 23.12.2020
4523 Rain 15 1016 100 10000 3.6 80 23:18 23.12.2020
4524 Rain 14 1016 100 10000 4.1 70 22:42 23.12.2020
4525 Rain 14 1016 100 10000 4.1 70 22:19 23.12.2020
4526 Rain 15 1015 100 10000 4.1 80 21:32 23.12.2020
4527 Rain 15 1015 100 10000 2.6 110 20:59 23.12.2020
4528 Rain 15 1015 100 10000 2.6 110 20:37 23.12.2020
4529 Rain 14 1015 100 10000 3.1 90 20:19 23.12.2020
4530 Rain 14 1015 100 9000 3.6 110 19:42 23.12.2020
4531 Rain 14 1015 100 10000 3.6 120 19:22 23.12.2020
4532 Rain 14 1015 100 10000 3.6 120 18:52 23.12.2020
4533 Rain 14 1015 100 10000 2.6 150 18:34 23.12.2020
4534 Rain 14 1015 100 10000 2.6 150 17:43 23.12.2020
4535 Rain 14 1016 93 10000 4.1 120 17:22 23.12.2020
4536 Clouds 15 1016 93 10000 4.6 120 16:56 23.12.2020
4537 Clouds 15 1016 93 10000 4.6 120 16:31 23.12.2020
4538 Rain 15 1016 93 10000 3.6 110 15:59 23.12.2020
4539 Rain 15 1016 93 10000 3.6 110 15:39 23.12.2020
4540 Rain 15 1017 93 10000 3.6 110 15:21 23.12.2020
4541 Rain 15 1017 100 10000 6.2 90 14:45 23.12.2020
4542 Rain 16 1016 93 10000 4.1 80 14:22 23.12.2020
4543 Rain 16 1016 93 10000 4.6 90 13:46 23.12.2020
4544 Rain 16 1016 93 10000 4.6 100 13:20 23.12.2020
4545 Rain 16 1016 93 10000 4.6 100 12:58 23.12.2020
4546 Rain 16 1016 93 10000 5.1 100 12:37 23.12.2020
4547 Rain 16 1016 93 10000 4.6 100 12:18 23.12.2020
4548 Rain 16 1016 100 10000 5.7 110 11:43 23.12.2020
4549 Rain 16 1015 100 10000 5.7 100 10:57 23.12.2020
4550 Rain 16 1015 100 10000 6.7 90 10:39 23.12.2020
4551 Rain 16 1015 100 10000 5.1 100 09:38 23.12.2020
4552 Rain 16 1015 100 10000 5.1 100 09:38 23.12.2020
4553 Rain 16 1015 100 10000 4.6 110 08:57 23.12.2020
4554 Rain 16 1015 100 10000 4.6 110 08:57 23.12.2020
4555 Rain 16 1015 100 10000 4.6 110 08:33 23.12.2020
4556 Rain 17 1015 88 3000 4.6 120 07:49 23.12.2020
4557 Rain 17 1015 88 10000 5.7 100 06:42 23.12.2020
4558 Clouds 17 1015 82 10000 6.7 110 05:58 23.12.2020
4559 Rain 17 1015 82 10000 6.7 110 05:23 23.12.2020
4560 Rain 17 1016 88 10000 7.7 90 01:59 23.12.2020
4561 Rain 17 1016 93 10000 4.1 80 00:33 23.12.2020
4562 Rain 18 1016 82 10000 4.6 80 23:43 22.12.2020
4563 Rain 18 1015 82 10000 4.6 90 23:22 22.12.2020
4564 Rain 18 1014 82 10000 6.2 80 22:42 22.12.2020
4565 Rain 18 1014 82 10000 7.2 90 22:24 22.12.2020
4566 Rain 18 1014 88 10000 5.1 100 21:52 22.12.2020
4567 Rain 18 1014 88 10000 4.1 110 21:20 22.12.2020
4568 Rain 18 1014 88 10000 4.1 110 20:54 22.12.2020
4569 Rain 18 1013 88 10000 4.6 110 20:35 22.12.2020
4570 Rain 18 1013 82 10000 4.6 110 19:56 22.12.2020
4571 Rain 18 1013 82 10000 4.6 110 19:38 22.12.2020
4572 Clouds 18 1014 82 10000 3.6 120 19:19 22.12.2020
4573 Rain 18 1014 82 10000 4.1 110 18:43 22.12.2020
4574 Clouds 18 1014 77 10000 2.6 120 18:24 22.12.2020
4575 Clouds 18 1014 77 10000 3.6 120 17:38 22.12.2020
4576 Clouds 18 1014 77 10000 3.6 120 17:18 22.12.2020
4577 Clouds 18 1015 77 10000 3.6 140 16:47 22.12.2020
4578 Clouds 17 1014 82 10000 3.6 150 16:21 22.12.2020
4579 Clouds 17 1014 88 10000 3.6 150 15:46 22.12.2020
4580 Clouds 17 1014 88 10000 3.6 150 15:28 22.12.2020
4581 Rain 17 1014 88 10000 3.1 160 14:57 22.12.2020
4582 Rain 17 1014 88 10000 3.1 160 14:39 22.12.2020
4583 Rain 17 1014 88 10000 4.1 120 14:19 22.12.2020
4584 Rain 17 1014 88 10000 4.1 120 13:43 22.12.2020
4585 Rain 18 1015 82 10000 3.6 130 13:18 22.12.2020
4586 Rain 18 1014 77 10000 5.1 110 12:44 22.12.2020
4587 Clouds 19 1014 72 10000 4.6 120 12:26 22.12.2020
4588 Clouds 19 1014 72 10000 4.6 120 11:57 22.12.2020
4589 Clouds 19 1014 72 10000 5.1 110 11:39 22.12.2020
4590 Clouds 19 1014 72 10000 5.7 110 11:19 22.12.2020
4591 Clouds 19 1012 72 10000 8.2 100 10:47 22.12.2020
4592 Rain 19 1012 72 10000 8.2 90 10:24 22.12.2020
4593 Rain 19 1012 72 10000 8.2 90 09:55 22.12.2020
4594 Clouds 20 1012 72 10000 6.2 120 09:23 22.12.2020
4595 Clouds 20 1012 72 10000 7.2 120 08:51 22.12.2020
4596 Rain 20 1012 72 10000 7.2 120 08:29 22.12.2020
4597 Rain 20 1012 72 10000 7.2 120 07:47 22.12.2020
4598 Rain 20 1012 72 10000 7.7 120 06:38 22.12.2020
4599 Rain 20 1013 72 10000 7.2 130 05:41 22.12.2020
4600 Rain 21 1013 68 10000 9.3 100 02:51 22.12.2020
4601 Rain 20 1012 88 10000 8.2 90 00:44 22.12.2020
4602 Rain 18 1012 88 6000 8.2 110 23:52 21.12.2020
4603 Rain 18 1012 88 6000 8.2 110 23:29 21.12.2020
4604 Rain 19 1011 93 10000 5.1 90 22:38 21.12.2020
4605 Rain 19 1011 93 10000 5.7 80 22:19 21.12.2020
4606 Rain 19 1010 93 10000 4.6 110 21:49 21.12.2020
4607 Rain 19 1010 93 10000 4.6 110 21:30 21.12.2020
4608 Clouds 19 1009 93 10000 4.6 120 20:46 21.12.2020
4609 Clouds 19 1009 93 10000 4.1 100 20:25 21.12.2020
4610 Clouds 19 1009 93 10000 4.1 100 19:55 21.12.2020
4611 Rain 19 1009 93 10000 3.6 140 19:37 21.12.2020
4612 Rain 19 1009 93 10000 3.6 130 19:18 21.12.2020
4613 Rain 19 1009 93 10000 3.6 130 19:18 21.12.2020
4614 Rain 19 1009 93 10000 5.7 80 18:49 21.12.2020
4615 Rain 19 1009 93 10000 5.7 80 18:31 21.12.2020
4616 Rain 19 1010 100 10000 3.1 120 17:43 21.12.2020
4617 Rain 19 1010 100 10000 3.1 120 17:24 21.12.2020
4618 Rain 19 1010 100 10000 3.6 90 16:46 21.12.2020
4619 Rain 19 1009 100 10000 5.7 70 16:25 21.12.2020
4620 Rain 20 1010 94 10000 6.2 80 15:45 21.12.2020
4621 Rain 20 1010 94 10000 6.2 100 15:26 21.12.2020
4622 Rain 20 1010 94 10000 4.1 100 14:56 21.12.2020
4623 Rain 20 1010 94 10000 4.1 100 14:56 21.12.2020
4624 Rain 20 1010 94 10000 5.7 80 14:20 21.12.2020
4625 Rain 20 1011 94 10000 4.6 110 13:42 21.12.2020
4626 Rain 20 1011 94 10000 5.7 120 13:22 21.12.2020
4627 Rain 20 1009 100 10000 5.1 140 12:43 21.12.2020
4628 Rain 20 1008 100 10000 5.7 120 12:24 21.12.2020
4629 Rain 21 1008 88 10000 5.7 140 11:43 21.12.2020
4630 Rain 21 1009 94 10000 4.6 130 11:23 21.12.2020
4631 Rain 21 1009 94 10000 4.6 130 10:58 21.12.2020
4632 Rain 21 1008 88 10000 5.7 130 10:40 21.12.2020
4633 Rain 22 1007 83 10000 5.7 130 10:18 21.12.2020
4634 Rain 22 1007 88 10000 5.7 120 09:42 21.12.2020
4635 Clouds 22 1007 83 10000 6.2 130 09:24 21.12.2020
4636 Clouds 22 1006 83 10000 7.7 130 08:47 21.12.2020
4637 Rain 23 1007 78 10000 5.7 130 07:37 21.12.2020
4638 Rain 23 1008 83 10000 4.6 110 05:50 21.12.2020
4639 Rain 22 1008 88 10000 5.1 120 04:31 21.12.2020
4640 Rain 20 1009 100 2500 7.2 130 00:38 21.12.2020
4641 Rain 22 1008 94 10000 4.1 160 23:52 20.12.2020
4642 Rain 23 1008 94 10000 2.6 180 23:21 20.12.2020
4643 Rain 23 1008 94 10000 2.6 180 22:55 20.12.2020
4644 Rain 23 1007 94 10000 0.5 210 22:37 20.12.2020
4645 Rain 23 1007 94 10000 0.5 210 22:37 20.12.2020
4646 Rain 23 1007 94 10000 0.5 190 22:19 20.12.2020
4647 Rain 23 1007 100 10000 2.1 190 21:38 20.12.2020
4648 Rain 23 1007 100 10000 2.1 180 21:19 20.12.2020
4649 Rain 23 1007 94 10000 2.49 260 20:45 20.12.2020
4650 Rain 23 1007 94 10000 1 180 20:22 20.12.2020
4651 Rain 23 1007 94 10000 0.5 180 19:44 20.12.2020
4652 Rain 23 1007 100 10000 2.1 200 19:24 20.12.2020
4653 Rain 23 1007 100 10000 2.1 230 18:54 20.12.2020
4654 Rain 23 1007 100 10000 2.1 230 18:36 20.12.2020
4655 Rain 23 1007 100 10000 2.1 230 18:36 20.12.2020
4656 Rain 23 1007 94 10000 2.1 10 17:55 20.12.2020
4657 Rain 23 1007 94 10000 2.1 10 17:36 20.12.2020
4658 Rain 23 1008 94 10000 2.6 100 17:18 20.12.2020
4659 Rain 23 1008 94 10000 2.6 100 16:43 20.12.2020
4660 Rain 23 1008 94 10000 2.1 90 16:23 20.12.2020
4661 Rain 23 1008 94 10000 2.1 130 15:40 20.12.2020
4662 Rain 23 1009 94 10000 2.1 80 15:22 20.12.2020
4663 Rain 23 1009 94 10000 2.1 70 14:45 20.12.2020
4664 Rain 23 1009 94 10000 2.1 70 14:27 20.12.2020
4665 Rain 23 1009 94 10000 0.5 170 13:44 20.12.2020
4666 Rain 23 1009 94 10000 2.11 144 13:23 20.12.2020
4667 Rain 23 1009 94 10000 1.96 291 12:51 20.12.2020
4668 Rain 23 1009 94 10000 2.1 170 12:23 20.12.2020
4669 Rain 23 1009 94 10000 1 180 11:51 20.12.2020
4670 Rain 23 1008 94 10000 2.6 180 11:26 20.12.2020
4671 Rain 23 1008 94 10000 3.6 190 10:49 20.12.2020
4672 Rain 23 1008 94 10000 3.1 190 10:22 20.12.2020
4673 Rain 23 1008 94 10000 3.1 190 09:56 20.12.2020
4674 Rain 23 1008 94 10000 2.1 170 09:37 20.12.2020
4675 Rain 23 1008 94 10000 2.6 260 09:18 20.12.2020
4676 Rain 23 1008 94 10000 3.6 280 08:47 20.12.2020
4677 Rain 25 1008 94 10000 3.6 280 08:28 20.12.2020
4678 Rain 25 1009 100 10000 4.6 280 07:21 20.12.2020
4679 Clouds 26 1010 74 10000 1 270 03:44 20.12.2020
4680 Clouds 27 1011 69 10000 1.5 90 01:25 20.12.2020
4681 Clouds 26 1011 74 10000 2.1 200 23:58 19.12.2020
4682 Clouds 26 1011 83 10000 1 220 23:18 19.12.2020
4683 Clouds 26 1011 83 10000 1 220 23:18 19.12.2020
4684 Clouds 26 1011 83 10000 1.5 290 22:44 19.12.2020
4685 Rain 26 1011 83 10000 3.1 310 22:24 19.12.2020
4686 Clouds 26 1011 69 10000 3.6 350 21:45 19.12.2020
4687 Rain 26 1011 69 10000 3.6 350 21:26 19.12.2020
4688 Rain 26 1010 78 10000 4.6 310 20:59 19.12.2020
4689 Rain 26 1010 69 10000 7.2 320 20:36 19.12.2020
4690 Rain 27 1010 61 10000 4.1 330 20:18 19.12.2020
4691 Rain 27 1009 61 10000 7.2 330 19:41 19.12.2020
4692 Clouds 27 1009 61 10000 4.6 330 19:23 19.12.2020
4693 Clouds 27 1009 61 10000 5.7 320 18:34 19.12.2020
4694 Clouds 27 1009 58 10000 6.2 310 17:57 19.12.2020
4695 Clouds 27 1009 58 10000 6.2 300 17:36 19.12.2020
4696 Clouds 28 1009 54 10000 7.2 320 17:18 19.12.2020
4697 Clouds 28 1010 54 10000 7.7 330 16:40 19.12.2020
4698 Clouds 28 1010 51 10000 8.2 330 16:22 19.12.2020
4699 Clouds 29 1010 45 10000 7.7 320 15:54 19.12.2020
4700 Clouds 30 1008 20 10000 4.1 40 15:21 19.12.2020
4701 Clouds 31 1008 18 10000 3.6 50 14:38 19.12.2020
4702 Clouds 31 1008 18 10000 5.1 70 13:58 19.12.2020
4703 Clouds 36 1007 19 10000 5.1 70 13:37 19.12.2020
4704 Clouds 36 1007 19 10000 4.1 60 13:18 19.12.2020
4705 Clouds 36 1007 19 10000 4.6 50 12:42 19.12.2020
4706 Clouds 36 1007 19 10000 6.7 60 12:24 19.12.2020
4707 Clouds 37 1007 18 10000 6.7 70 11:53 19.12.2020
4708 Clouds 37 1007 18 10000 6.7 70 11:32 19.12.2020
4709 Clouds 37 1006 18 10000 7.7 70 10:42 19.12.2020
4710 Clouds 38 1006 17 10000 8.2 80 10:19 19.12.2020
4711 Clouds 38 1006 18 10000 6.7 80 09:42 19.12.2020
4712 Clouds 38 1006 17 10000 7.7 50 08:59 19.12.2020
4713 Clouds 40 1007 16 10000 6.2 90 08:20 19.12.2020
4714 Clouds 39 1008 17 10000 6.7 90 07:20 19.12.2020
4715 Clouds 39 1008 17 10000 5.1 20 06:50 19.12.2020
4716 Clear 37 1010 20 10000 5.1 110 05:24 19.12.2020
4717 Clear 36 1011 22 10000 6.7 50 03:50 19.12.2020
4718 Clear 28 1013 28 10000 7.7 60 00:42 19.12.2020
4719 Clear 28 1013 32 10000 8.7 70 00:22 19.12.2020
4720 Clear 27 1013 34 10000 6.7 70 23:52 18.12.2020
4721 Clear 27 1013 34 10000 6.7 70 23:33 18.12.2020
4722 Clear 25 1013 47 10000 0.5 70 22:59 18.12.2020
4723 Clear 25 1013 47 10000 0.5 70 22:41 18.12.2020
4724 Clear 25 1012 49 10000 2.1 50 22:19 18.12.2020
4725 Clear 26 1012 47 10000 2.6 70 21:46 18.12.2020
4726 Clear 26 1012 44 10000 2.6 90 21:25 18.12.2020
4727 Clear 26 1011 44 10000 2.6 110 20:26 18.12.2020
4728 Clear 26 1011 44 10000 2.6 120 19:51 18.12.2020
4729 Clouds 26 1011 44 10000 2.6 120 19:25 18.12.2020
4730 Clouds 26 1012 39 10000 4.1 90 18:48 18.12.2020
4731 Clouds 26 1012 39 10000 4.1 90 18:28 18.12.2020
4732 Clouds 27 1012 36 10000 4.6 90 17:59 18.12.2020
4733 Clear 27 1012 37 10000 3.6 110 17:21 18.12.2020
4734 Clear 27 1012 37 10000 4.6 110 16:48 18.12.2020
4735 Clear 28 1012 32 10000 5.7 110 16:22 18.12.2020
4736 Clear 28 1012 32 10000 6.2 110 15:54 18.12.2020
4737 Clear 28 1012 32 10000 6.2 110 15:34 18.12.2020
4738 Clear 29 1011 29 10000 5.7 110 14:59 18.12.2020
4739 Clear 29 1011 29 10000 5.7 110 14:39 18.12.2020
4740 Clear 29 1011 25 10000 5.7 100 14:19 18.12.2020
4741 Clear 32 1011 25 10000 4.1 100 13:42 18.12.2020
4742 Clear 33 1010 24 10000 5.7 100 13:23 18.12.2020
4743 Clear 33 1010 24 10000 4.6 100 12:44 18.12.2020
4744 Clear 34 1009 21 10000 6.7 90 11:31 18.12.2020
4745 Clear 35 1009 20 10000 6.7 70 10:59 18.12.2020
4746 Clear 35 1009 20 10000 6.7 70 10:37 18.12.2020
4747 Clear 36 1008 20 10000 6.7 60 10:19 18.12.2020
4748 Clear 36 1008 19 10000 8.2 90 09:38 18.12.2020
4749 Clear 36 1008 19 10000 8.7 70 09:20 18.12.2020
4750 Clear 37 1008 19 10000 7.2 110 08:52 18.12.2020
4751 Clear 36 1009 20 10000 7.7 100 08:22 18.12.2020
4752 Clear 35 1009 21 10000 7.7 100 07:20 18.12.2020
4753 Clear 35 1009 21 10000 7.7 100 06:59 18.12.2020
4754 Dust 34 1010 23 10000 7.7 90 05:45 18.12.2020
4755 Dust 34 1010 23 10000 7.7 90 05:27 18.12.2020
4756 Clear 34 1011 23 10000 8.7 100 04:43 18.12.2020
4757 Clouds 28 1013 27 10000 7.7 110 01:47 18.12.2020
4758 Clouds 28 1013 27 10000 7.7 110 01:47 18.12.2020
4759 Clear 27 1013 30 10000 7.2 110 00:55 18.12.2020
4760 Clear 27 1013 32 10000 7.2 110 23:55 17.12.2020
4761 Clear 26 1013 34 10000 5.1 130 23:25 17.12.2020
4762 Clear 26 1012 34 10000 4.6 130 22:49 17.12.2020
4763 Clear 26 1012 34 10000 4.6 130 22:28 17.12.2020
4764 Clear 25 1011 34 10000 6.7 120 21:47 17.12.2020
4765 Clouds 25 1011 34 10000 6.7 110 21:25 17.12.2020
4766 Clouds 26 1011 34 10000 6.7 110 20:56 17.12.2020
4767 Clouds 27 1010 32 8000 5.1 110 20:37 17.12.2020
4768 Clouds 27 1010 32 8000 5.1 110 20:18 17.12.2020
4769 Clouds 28 1010 30 7000 6.2 90 19:44 17.12.2020
4770 Haze 28 1010 32 4000 5.1 120 19:23 17.12.2020
4771 Haze 29 1009 30 3900 6.7 120 18:41 17.12.2020
4772 Haze 29 1009 28 4900 6.7 120 18:23 17.12.2020
4773 Clouds 30 1009 28 6000 8.2 120 17:53 17.12.2020
4774 Clouds 30 1009 28 6000 8.2 120 17:32 17.12.2020
4775 Clouds 32 1008 25 10000 5.1 100 16:44 17.12.2020
4776 Clouds 32 1008 24 10000 6.2 100 16:24 17.12.2020
4777 Clouds 32 1008 24 10000 7.2 110 15:52 17.12.2020
4778 Clouds 33 1008 23 10000 5.7 110 15:31 17.12.2020
4779 Clouds 33 1008 23 10000 5.7 110 14:55 17.12.2020
4780 Clouds 34 1007 20 10000 3.1 110 14:31 17.12.2020
4781 Clouds 34 1007 18 10000 3.1 120 13:52 17.12.2020
4782 Clouds 34 1007 18 10000 3.1 120 13:33 17.12.2020
4783 Clouds 35 1007 16 10000 3.6 120 12:47 17.12.2020
4784 Clouds 35 1006 14 10000 4.1 120 12:25 17.12.2020
4785 Clouds 37 1006 15 10000 4.1 120 11:45 17.12.2020
4786 Clouds 37 1006 14 10000 4.1 130 11:25 17.12.2020
4787 Clouds 37 1005 13 10000 5.1 100 10:55 17.12.2020
4788 Clear 39 1005 12 10000 3.6 50 10:19 17.12.2020
4789 Clear 40 1005 12 10000 3.6 150 09:28 17.12.2020
4790 Clear 40 1005 12 10000 3.1 100 07:54 17.12.2020
4791 Clear 40 1006 12 10000 5.7 30 07:35 17.12.2020
4792 Dust 39 1006 14 10000 3.1 70 06:54 17.12.2020
4793 Dust 39 1006 14 10000 3.1 70 06:32 17.12.2020
4794 Dust 39 1007 13 10000 5.1 60 05:58 17.12.2020
4795 Clear 33 1010 26 10000 8.2 70 00:38 17.12.2020
4796 Clouds 32 1009 30 10000 6.7 100 23:52 16.12.2020
4797 Clouds 30 1009 34 10000 3.1 70 23:20 16.12.2020
4798 Clouds 30 1009 34 10000 4.1 90 22:55 16.12.2020
4799 Clouds 28 1009 34 10000 4.1 90 22:35 16.12.2020
4800 Clouds 28 1008 34 10000 3.6 90 21:52 16.12.2020
4801 Clouds 28 1008 34 10000 3.6 90 21:34 16.12.2020
4802 Clouds 28 1008 32 10000 3.6 100 20:55 16.12.2020
4803 Clouds 29 1008 32 10000 3.6 100 20:37 16.12.2020
4804 Clouds 29 1008 32 10000 3.6 100 20:37 16.12.2020
4805 Clouds 28 1008 32 10000 2.1 70 20:18 16.12.2020
4806 Clouds 29 1007 28 10000 2.1 70 19:20 16.12.2020
4807 Clouds 28 1007 28 10000 2.6 40 18:54 16.12.2020
4808 Clouds 29 1007 28 10000 2.6 30 18:27 16.12.2020
4809 Clouds 29 1007 28 10000 2.1 50 17:47 16.12.2020
4810 Clouds 29 1007 28 10000 2.6 80 17:28 16.12.2020
4811 Clouds 30 1007 28 10000 2.6 80 16:39 16.12.2020
4812 Clouds 31 1008 23 10000 2.6 90 16:21 16.12.2020
4813 Clouds 32 1008 22 10000 3.1 110 15:50 16.12.2020
4814 Clouds 32 1008 21 10000 3.1 110 15:26 16.12.2020
4815 Clouds 32 1008 21 10000 3.6 110 14:47 16.12.2020
4816 Clouds 32 1008 21 10000 3.6 110 14:28 16.12.2020
4817 Clouds 33 1007 19 10000 3.6 120 13:49 16.12.2020
4818 Clouds 33 1007 19 10000 3.6 120 13:28 16.12.2020
4819 Clouds 34 1007 17 10000 4.1 110 12:55 16.12.2020
4820 Clouds 34 1007 16 10000 4.1 110 12:34 16.12.2020
4821 Clouds 35 1006 15 10000 4.6 120 11:40 16.12.2020
4822 Clouds 36 1006 13 10000 5.1 130 11:22 16.12.2020
4823 Clouds 37 1006 13 10000 5.1 130 10:46 16.12.2020
4824 Clouds 37 1005 14 10000 4.6 110 10:22 16.12.2020
4825 Clouds 38 1005 13 10000 5.1 90 09:42 16.12.2020
4826 Clouds 39 1005 13 10000 5.7 130 08:36 16.12.2020
4827 Dust 39 1006 13 10000 3.1 110 07:52 16.12.2020
4828 Dust 38 1006 13 10000 3.1 110 07:33 16.12.2020
4829 Dust 39 1006 13 10000 3.6 90 06:41 16.12.2020
4830 Clear 34 1010 17 10000 5.1 90 02:26 16.12.2020
4831 Clouds 32 1010 19 10000 6.2 140 00:23 16.12.2020
4832 Clouds 32 1010 19 10000 4.6 150 23:44 15.12.2020
4833 Clouds 29 1009 26 10000 3.1 290 22:46 15.12.2020
4834 Clouds 28 1009 26 10000 2.6 120 22:24 15.12.2020
4835 Clouds 27 1009 25 10000 2.6 70 21:51 15.12.2020
4836 Clouds 28 1008 23 10000 3.1 80 21:25 15.12.2020
4837 Clouds 29 1008 23 10000 3.1 80 20:58 15.12.2020
4838 Clouds 29 1008 23 10000 2.6 130 20:39 15.12.2020
4839 Clouds 30 1008 22 10000 3.6 110 20:21 15.12.2020
4840 Clouds 31 1008 19 10000 4.1 80 19:41 15.12.2020
4841 Clouds 31 1008 19 10000 3.6 80 19:23 15.12.2020
4842 Clouds 30 1008 23 10000 2.1 100 18:39 15.12.2020
4843 Clouds 30 1008 25 10000 3.6 110 18:20 15.12.2020
4844 Clouds 30 1008 23 10000 3.6 110 17:43 15.12.2020
4845 Clouds 30 1008 23 10000 3.6 110 17:43 15.12.2020
4846 Clouds 30 1008 27 10000 2.6 80 17:22 15.12.2020
4847 Clouds 30 1008 29 10000 1.5 170 16:38 15.12.2020
4848 Clouds 31 1008 25 10000 1.5 120 16:19 15.12.2020
4849 Clouds 30 1008 24 10000 2.1 140 15:37 15.12.2020
4850 Clouds 31 1008 22 10000 2.6 140 14:59 15.12.2020
4851 Clouds 32 1008 20 10000 3.1 120 14:41 15.12.2020
4852 Clouds 32 1008 20 10000 3.1 120 14:19 15.12.2020
4853 Clouds 33 1008 19 10000 2.6 130 13:47 15.12.2020
4854 Clouds 33 1007 19 10000 3.1 110 13:22 15.12.2020
4855 Clouds 33 1007 19 10000 4.6 110 12:44 15.12.2020
4856 Clouds 34 1007 18 10000 5.1 110 12:19 15.12.2020
4857 Clouds 34 1006 19 10000 5.1 110 11:49 15.12.2020
4858 Clouds 34 1006 19 10000 4.6 110 11:21 15.12.2020
4859 Clouds 35 1006 19 10000 3.6 110 10:45 15.12.2020
4860 Clouds 35 1005 19 10000 3.1 140 10:19 15.12.2020
4861 Clouds 35 1005 19 10000 3.6 140 09:41 15.12.2020
4862 Clouds 35 1005 19 10000 4.1 70 09:22 15.12.2020
4863 Clouds 38 1005 19 10000 5.1 130 08:39 15.12.2020
4864 Rain 37 1006 22 10000 2.1 140 08:20 15.12.2020
4865 Clouds 38 1006 21 10000 3.1 310 07:41 15.12.2020
4866 Rain 36 1007 20 10000 2.1 170 06:51 15.12.2020
4867 Dust 37 1008 20 10000 2.6 310 05:27 15.12.2020
4868 Clouds 30 1010 51 10000 3.1 250 00:38 15.12.2020
4869 Clouds 28 1011 69 10000 5.1 260 23:48 14.12.2020
4870 Clouds 26 1011 69 10000 3.6 220 23:19 14.12.2020
4871 Rain 25 1010 69 10000 6.7 190 22:39 14.12.2020
4872 Clouds 25 1008 65 10000 3.1 280 21:56 14.12.2020
4873 Clouds 25 1008 65 10000 3.1 280 21:36 14.12.2020
4874 Clouds 25 1007 65 10000 3.1 270 20:57 14.12.2020
4875 Clouds 25 1007 65 10000 3.1 270 20:39 14.12.2020
4876 Clouds 25 1007 61 10000 2.6 350 20:18 14.12.2020
4877 Clouds 25 1007 61 10000 3.6 350 19:34 14.12.2020
4878 Clouds 26 1007 65 10000 3.6 330 18:57 14.12.2020
4879 Clouds 26 1007 61 10000 3.1 330 18:38 14.12.2020
4880 Clouds 26 1007 58 10000 2.6 340 18:18 14.12.2020
4881 Clouds 27 1008 54 10000 3.6 350 17:33 14.12.2020
4882 Clouds 27 1008 54 10000 4.6 10 16:56 14.12.2020
4883 Clouds 27 1009 48 10000 3.1 90 16:36 14.12.2020
4884 Clouds 27 1009 48 10000 3.1 90 16:18 14.12.2020
4885 Clouds 27 1009 48 10000 1.5 70 15:32 14.12.2020
4886 Clouds 27 1009 48 10000 3.34 54 14:46 14.12.2020
4887 Clouds 28 1008 42 10000 2.1 50 14:27 14.12.2020
4888 Clouds 28 1008 42 10000 2.1 50 13:55 14.12.2020
4889 Clouds 28 1008 45 10000 0.5 40 13:33 14.12.2020
4890 Clouds 28 1008 42 10000 2.1 80 12:55 14.12.2020
4891 Clouds 29 1007 40 10000 3.6 80 12:31 14.12.2020
4892 Clouds 31 1007 35 10000 6.7 90 11:39 14.12.2020
4893 Clouds 33 1006 28 10000 6.2 170 11:21 14.12.2020
4894 Clouds 34 1006 28 10000 2.1 140 10:27 14.12.2020
4895 Clouds 34 1006 32 10000 3.6 250 09:51 14.12.2020
4896 Clouds 32 1006 36 10000 4.1 340 08:52 14.12.2020
4897 Clouds 32 1006 36 10000 4.1 340 08:33 14.12.2020
4898 Rain 33 1006 41 10000 6.2 330 07:52 14.12.2020
4899 Thunderstorm 31 1007 45 10000 7.7 300 06:59 14.12.2020
4900 Rain 32 1008 43 10000 3.6 220 05:55 14.12.2020
4901 Clouds 34 1009 38 10000 4.6 270 03:49 14.12.2020
4902 Clouds 30 1010 58 10000 3.6 240 00:57 14.12.2020
4903 Clouds 30 1010 58 10000 3.6 240 00:35 14.12.2020
4904 Clouds 29 1010 61 10000 5.1 280 23:59 13.12.2020
4905 Clouds 28 1010 65 10000 7.7 280 23:41 13.12.2020
4906 Clouds 27 1009 65 10000 5.7 290 22:51 13.12.2020
4907 Clouds 26 1009 69 10000 3.1 280 22:21 13.12.2020
4908 Clouds 26 1009 69 10000 3.1 280 21:56 13.12.2020
4909 Clouds 25 1009 69 10000 6.2 320 21:35 13.12.2020
4910 Clouds 26 1009 69 10000 3.6 300 20:49 13.12.2020
4911 Clouds 26 1009 69 10000 2.6 330 20:25 13.12.2020
4912 Clouds 26 1009 69 10000 3.6 340 19:45 13.12.2020
4913 Clouds 26 1009 65 10000 2.6 360 19:23 13.12.2020
4914 Clouds 26 1009 65 10000 2.6 20 18:44 13.12.2020
4915 Rain 26 1009 65 10000 2.6 10 18:22 13.12.2020
4916 Rain 26 1009 65 10000 2.6 10 17:59 13.12.2020
4917 Rain 26 1009 65 10000 3.1 350 17:41 13.12.2020
4918 Rain 26 1009 65 10000 3.1 350 17:41 13.12.2020
4919 Rain 27 1009 61 10000 3.1 360 17:18 13.12.2020
4920 Rain 27 1009 58 10000 3.6 360 16:39 13.12.2020
4921 Rain 27 1010 61 10000 3.6 10 16:19 13.12.2020
4922 Rain 27 1010 58 10000 2.6 40 15:45 13.12.2020
4923 Rain 27 1010 58 10000 3.1 50 15:24 13.12.2020
4924 Rain 28 1010 61 10000 3.1 60 14:45 13.12.2020
4925 Rain 28 1010 61 10000 3.1 60 14:27 13.12.2020
4926 Rain 28 1009 58 10000 2.1 310 13:44 13.12.2020
4927 Rain 28 1009 58 10000 2.1 310 13:25 13.12.2020
4928 Rain 29 1009 58 10000 2.6 290 12:51 13.12.2020
4929 Clouds 29 1008 55 10000 2.6 220 12:23 13.12.2020
4930 Clouds 29 1008 55 10000 3.6 200 11:43 13.12.2020
4931 Clouds 31 1008 43 10000 3.6 200 10:56 13.12.2020
4932 Clouds 32 1007 38 10000 3.6 340 10:38 13.12.2020
4933 Clouds 34 1007 34 10000 3.6 250 09:57 13.12.2020
4934 Clouds 34 1007 34 10000 3.1 310 09:28 13.12.2020
4935 Clouds 34 1007 34 10000 4.1 340 08:35 13.12.2020
4936 Clouds 33 1007 36 10000 4.1 320 07:51 13.12.2020
4937 Clouds 32 1010 40 10000 3.1 20 04:48 13.12.2020
4938 Rain 27 1011 57 10000 4.1 20 02:42 13.12.2020
4939 Rain 27 1011 57 10000 5.7 20 01:58 13.12.2020
4940 Rain 24 1012 78 10000 4.6 20 00:51 13.12.2020
4941 Rain 24 1012 78 10000 4.6 20 00:51 13.12.2020
4942 Rain 24 1012 78 10000 4.6 20 00:28 13.12.2020
4943 Rain 23 1012 78 10000 2.6 10 23:32 12.12.2020
4944 Rain 23 1011 73 10000 3.6 10 22:56 12.12.2020
4945 Clouds 23 1011 83 10000 2.6 360 22:20 12.12.2020
4946 Clouds 23 1011 83 10000 2.6 300 21:42 12.12.2020
4947 Rain 23 1010 83 10000 3.6 300 21:18 12.12.2020
4948 Clouds 23 1010 83 10000 2.6 270 20:36 12.12.2020
4949 Rain 23 1010 83 10000 3.1 240 20:18 12.12.2020
4950 Clouds 23 1009 78 10000 3.1 250 19:46 12.12.2020
4951 Clouds 24 1009 73 10000 6.7 270 19:27 12.12.2020
4952 Clouds 25 1009 51 10000 3.6 270 18:45 12.12.2020
4953 Clouds 28 1009 32 10000 3.1 340 18:27 12.12.2020
4954 Clouds 29 1009 32 10000 3.1 340 17:47 12.12.2020
4955 Clouds 28 1008 32 10000 4.6 30 17:28 12.12.2020
4956 Clouds 28 1009 28 10000 3.1 50 16:21 12.12.2020
4957 Clouds 29 1009 28 10000 3.6 60 15:50 12.12.2020
4958 Clouds 29 1009 28 10000 2.6 140 15:31 12.12.2020
4959 Clouds 30 1010 27 10000 2.6 110 14:49 12.12.2020
4960 Clouds 30 1009 27 10000 3.6 70 13:57 12.12.2020
4961 Clouds 30 1009 28 10000 3.6 50 13:38 12.12.2020
4962 Clouds 30 1009 30 10000 3.1 70 12:59 12.12.2020
4963 Clouds 31 1008 27 10000 2.6 60 12:26 12.12.2020
4964 Clouds 33 1008 26 10000 3.6 330 10:54 12.12.2020
4965 Clouds 34 1007 23 10000 2.6 340 09:49 12.12.2020
4966 Clouds 34 1007 21 10000 4.1 340 08:57 12.12.2020
4967 Clouds 33 1010 16 10000 4.1 60 03:31 12.12.2020
4968 Clouds 26 1012 50 10000 0.5 100 23:58 11.12.2020
4969 Clouds 25 1012 60 10000 1.5 20 22:39 11.12.2020
4970 Clouds 25 1011 44 10000 2.1 180 20:50 11.12.2020
4971 Rain 25 1012 53 10000 4.1 230 18:27 11.12.2020
4972 Clouds 27 1013 47 10000 4.1 270 16:27 11.12.2020
4973 Clouds 26 1012 42 10000 1 330 14:18 11.12.2020
4974 Clouds 27 1012 42 10000 2.6 280 13:25 11.12.2020
4975 Clouds 29 1012 30 10000 3.6 290 12:19 11.12.2020
4976 Clouds 30 1012 33 10000 8.56 321 11:51 11.12.2020
4977 Clouds 31 1011 23 10000 3.1 100 10:46 11.12.2020
4978 Clouds 32 1011 24 10000 2.6 80 08:53 11.12.2020
4979 Clear 32 1013 25 10000 3.6 50 05:43 11.12.2020
4980 Clouds 32 1013 25 10000 3.6 50 05:18 11.12.2020
4981 Clouds 28 1015 54 10000 4.1 80 02:18 11.12.2020
4982 Clouds 22 1015 78 10000 2.6 70 00:23 11.12.2020
4983 Rain 21 1015 88 10000 1 120 22:52 10.12.2020
4984 Clouds 19 1014 88 10000 0.5 130 21:36 10.12.2020
4985 Clouds 18 1014 82 10000 2.1 80 20:42 10.12.2020
4986 Clouds 18 1014 93 10000 3.6 10 19:43 10.12.2020
4987 Clouds 18 1015 88 10000 3.6 270 18:56 10.12.2020
4988 Clouds 17 1015 93 10000 2.6 110 17:54 10.12.2020
4989 Clouds 17 1017 93 10000 2.6 90 16:30 10.12.2020
4990 Rain 17 1019 93 10000 2.6 270 15:27 10.12.2020
4991 Rain 17 1019 88 10000 2.1 220 14:50 10.12.2020
4992 Rain 16 1020 93 10000 3.6 290 14:27 10.12.2020
4993 Rain 17 1019 88 10000 4.1 70 12:47 10.12.2020
4994 Rain 16 1020 88 10000 2.6 50 11:35 10.12.2020
4995 Rain 24 1017 41 10000 6.2 120 08:52 10.12.2020
4996 Rain 25 1016 29 10000 6.7 100 07:48 10.12.2020
4997 Rain 25 1016 36 10000 5.7 110 06:41 10.12.2020
4998 Rain 26 1017 24 10000 7.2 130 02:56 10.12.2020
4999 Rain 26 1017 24 10000 6.7 120 01:59 10.12.2020
5000 Rain 24 1017 27 10000 3.1 150 23:52 09.12.2020
5001 Clouds 23 1015 40 10000 2.1 130 20:59 09.12.2020
5002 Clouds 23 1015 49 10000 2.1 190 20:28 09.12.2020
5003 Clouds 23 1015 68 10000 1.5 200 19:21 09.12.2020
5004 Rain 23 1016 43 10000 2.6 260 17:43 09.12.2020
5005 Clouds 24 1016 33 10000 3.1 270 16:41 09.12.2020
5006 Clouds 23 1016 33 10000 1.5 250 16:20 09.12.2020
5007 Clouds 23 1016 33 10000 1.5 250 16:20 09.12.2020
5008 Clouds 24 1017 31 10000 2.6 170 14:58 09.12.2020
5009 Clouds 24 1016 31 10000 2.6 160 14:27 09.12.2020
5010 Clouds 24 1016 27 10000 6.7 140 13:51 09.12.2020
5011 Rain 25 1016 24 10000 6.2 140 13:19 09.12.2020
5012 Rain 26 1016 22 10000 6.2 140 12:43 09.12.2020
5013 Clouds 27 1015 19 10000 6.7 150 11:48 09.12.2020
5014 Clouds 28 1014 20 10000 7.2 170 10:31 09.12.2020
5015 Clouds 32 1013 10 10000 4.1 130 08:45 09.12.2020
5016 Clear 32 1013 11 10000 2.6 10 07:42 09.12.2020
5017 Clear 32 1014 11 10000 2.6 50 05:48 09.12.2020
5018 Clouds 29 1016 13 10000 7.7 80 03:21 09.12.2020
5019 Clear 26 1018 16 10000 7.7 70 01:21 09.12.2020
5020 Clouds 25 1017 18 10000 9.3 80 23:41 08.12.2020
5021 Clouds 23 1017 19 10000 4.6 60 22:43 08.12.2020
5022 Clouds 22 1015 19 10000 2.6 80 20:50 08.12.2020
5023 Clouds 23 1015 18 10000 3.6 80 19:32 08.12.2020
5024 Clouds 23 1015 18 10000 3.1 70 18:57 08.12.2020
5025 Clouds 22 1015 21 10000 2.1 40 17:28 08.12.2020
5026 Clouds 24 1016 17 10000 3.1 90 15:27 08.12.2020
5027 Clouds 26 1016 13 10000 4.1 100 13:53 08.12.2020
5028 Clouds 27 1015 13 10000 3.6 100 12:54 08.12.2020
5029 Clouds 28 1015 11 10000 4.1 110 12:20 08.12.2020
5030 Clear 28 1015 13 10000 4.1 90 11:27 08.12.2020
5031 Clear 30 1015 10 10000 5.1 100 10:41 08.12.2020
5032 Clear 31 1014 11 10000 5.7 90 09:46 08.12.2020
5033 Clear 32 1015 11 10000 6.7 110 07:47 08.12.2020
5034 Clear 32 1016 12 10000 7.2 100 05:43 08.12.2020
5035 Clear 29 1019 16 10000 7.7 90 02:49 08.12.2020
5036 Clear 27 1019 18 10000 8.7 90 00:45 08.12.2020
5037 Clouds 24 1018 23 10000 6.7 100 23:46 07.12.2020
5038 Clouds 22 1018 28 10000 3.6 120 22:32 07.12.2020
5039 Clouds 21 1017 30 10000 3.6 120 21:48 07.12.2020
5040 Clouds 21 1016 32 10000 2.1 120 19:45 07.12.2020
5041 Clouds 22 1016 28 10000 3.6 130 18:19 07.12.2020
5042 Clouds 22 1017 35 10000 2.6 120 17:23 07.12.2020
5043 Clouds 22 1017 40 10000 2.6 120 16:47 07.12.2020
5044 Clouds 23 1017 28 10000 2.1 70 15:25 07.12.2020
5045 Clouds 23 1018 27 10000 2.1 70 14:36 07.12.2020
5046 Clouds 24 1017 22 10000 2.6 120 13:37 07.12.2020
5047 Clouds 25 1017 20 10000 2.6 70 12:31 07.12.2020
5048 Clouds 25 1017 20 10000 3.1 60 11:42 07.12.2020
5049 Clouds 26 1017 19 10000 5.1 100 10:36 07.12.2020
5050 Clouds 28 1016 18 10000 5.1 110 09:24 07.12.2020
5051 Clouds 29 1015 17 10000 7.7 120 07:49 07.12.2020
5052 Clear 29 1016 23 10000 5.7 120 05:29 07.12.2020
5053 Clouds 29 1017 23 10000 5.1 60 04:35 07.12.2020
5054 Clouds 25 1017 36 10000 3.6 110 00:52 07.12.2020
5055 Clouds 24 1016 46 10000 2.1 90 22:53 06.12.2020
5056 Clouds 21 1014 56 10000 2.6 10 21:45 06.12.2020
5057 Clouds 21 1014 53 10000 3.26 150 20:46 06.12.2020
5058 Clouds 22 1014 53 10000 2.16 123 20:26 06.12.2020
5059 Clouds 22 1014 53 10000 2.16 123 20:26 06.12.2020
5060 Clouds 22 1013 53 10000 1.5 120 19:30 06.12.2020
5061 Clouds 22 1014 49 10000 2.6 80 17:39 06.12.2020
5062 Clouds 21 1015 49 10000 3.1 140 16:34 06.12.2020
5063 Clouds 22 1016 46 10000 3.1 110 14:49 06.12.2020
5064 Clouds 23 1015 44 10000 3.6 70 13:21 06.12.2020
5065 Rain 23 1015 44 10000 4.6 70 12:30 06.12.2020
5066 Clouds 24 1015 44 10000 6.2 20 11:42 06.12.2020
5067 Clouds 24 1014 36 10000 6.2 30 11:23 06.12.2020
5068 Clouds 26 1014 30 10000 5.1 80 10:35 06.12.2020
5069 Clouds 27 1013 30 10000 5.7 130 09:23 06.12.2020
5070 Clouds 27 1013 30 10000 6.2 110 07:29 06.12.2020
5071 Clouds 30 1013 22 10000 6.2 110 04:47 06.12.2020
5072 Clouds 30 1013 25 10000 7.7 100 00:45 06.12.2020
5073 Clouds 29 1013 25 10000 7.7 100 00:26 06.12.2020
5074 Clouds 28 1013 28 10000 7.7 100 23:55 05.12.2020
5075 Clouds 26 1013 29 10000 4.6 80 22:24 05.12.2020
5076 Clouds 26 1013 29 10000 4.6 80 21:55 05.12.2020
5077 Clouds 26 1013 29 10000 4.6 70 21:28 05.12.2020
5078 Clouds 26 1012 29 10000 4.1 100 19:54 05.12.2020
5079 Clouds 28 1012 42 10000 3.6 110 18:45 05.12.2020
5080 Clouds 27 1012 61 10000 0.5 240 17:39 05.12.2020
5081 Clouds 27 1012 69 10000 2.1 320 16:44 05.12.2020
5082 Clouds 27 1012 69 10000 2.1 320 16:24 05.12.2020
5083 Rain 28 1010 51 10000 4.6 20 14:30 05.12.2020
5084 Clouds 30 1009 48 10000 7.2 20 12:32 05.12.2020
5085 Rain 30 1008 45 10000 5.1 50 11:49 05.12.2020
5086 Thunderstorm 38 1007 18 10000 4.6 140 10:34 05.12.2020
5087 Clouds 41 1006 14 10000 6.7 180 07:50 05.12.2020
5088 Clouds 41 1006 14 10000 6.7 180 07:26 05.12.2020
5089 Clouds 41 1007 13 10000 6.7 280 05:22 05.12.2020
5090 Clouds 37 1009 20 10000 8.2 290 23:56 04.12.2020
5091 Clouds 32 1009 25 10000 3.6 330 22:41 04.12.2020
5092 Clouds 28 1007 30 10000 2.1 300 20:35 04.12.2020
5093 Clouds 28 1007 28 10000 2.6 340 18:54 04.12.2020
5094 Clouds 28 1007 26 10000 1.5 310 18:21 04.12.2020
5095 Clouds 28 1008 30 10000 3.65 354 17:41 04.12.2020
5096 Clouds 30 1008 23 10000 2.1 100 15:54 04.12.2020
5097 Clouds 31 1009 20 10000 2.58 91 15:18 04.12.2020
5098 Clouds 33 1009 15 10000 2.6 90 13:35 04.12.2020
5099 Clouds 33 1008 15 10000 3.1 80 12:55 04.12.2020
5100 Clouds 36 1008 13 10000 2.6 90 11:41 04.12.2020
5101 Clear 39 1008 11 10000 2.6 140 10:30 04.12.2020
5102 Clear 41 1008 11 10000 2.1 270 07:53 04.12.2020
5103 Clear 40 1009 11 10000 3.6 140 06:39 04.12.2020
5104 Clear 40 1012 11 10000 5.1 80 04:50 04.12.2020
5105 Clouds 28 1015 20 10000 4.1 100 23:51 03.12.2020
5106 Clouds 25 1015 23 10000 3.1 150 22:47 03.12.2020
5107 Clouds 23 1014 26 10000 3.1 130 21:20 03.12.2020
5108 Clouds 25 1014 17 10000 3.6 140 19:49 03.12.2020
5109 Clear 25 1014 17 10000 3.6 120 19:20 03.12.2020
5110 Clear 26 1014 23 10000 3.6 110 18:39 03.12.2020
5111 Clear 28 1014 18 10000 4.6 100 17:20 03.12.2020
5112 Clear 29 1015 17 10000 3.6 120 15:59 03.12.2020
5113 Clear 30 1015 16 10000 3.1 120 15:31 03.12.2020
5114 Clear 30 1015 15 10000 3.6 120 14:48 03.12.2020
5115 Clear 32 1014 19 10000 5.7 110 13:49 03.12.2020
5116 Clouds 33 1014 14 10000 5.1 110 12:33 03.12.2020
5117 Clouds 34 1013 13 10000 5.1 120 11:49 03.12.2020
5118 Clouds 36 1013 14 10000 5.1 110 10:27 03.12.2020
5119 Clear 38 1013 13 10000 4.6 90 07:48 03.12.2020
5120 Clear 34 1017 14 10000 5.7 100 03:38 03.12.2020
5121 Clear 29 1018 18 10000 6.2 100 01:24 03.12.2020
5122 Clear 23 1018 30 10000 2.1 50 23:19 02.12.2020
5123 Clear 20 1017 36 10000 1.5 340 22:28 02.12.2020
5124 Clear 19 1017 36 10000 2.6 180 21:28 02.12.2020
5125 Clear 19 1017 39 10000 3.1 140 20:47 02.12.2020
5126 Clear 19 1017 39 10000 3.1 140 20:29 02.12.2020
5127 Clouds 21 1017 30 10000 3.6 140 18:39 02.12.2020
5128 Clouds 22 1017 26 10000 4.1 140 17:47 02.12.2020
5129 Clouds 23 1017 27 10000 3.6 140 17:28 02.12.2020
5130 Clouds 25 1018 23 10000 5.1 140 15:37 02.12.2020
5131 Clouds 28 1017 21 10000 5.7 110 12:50 02.12.2020
5132 Clouds 30 1016 20 10000 6.2 130 10:32 02.12.2020
5133 Clouds 30 1015 19 10000 7.2 140 09:32 02.12.2020
5134 Clouds 32 1015 18 10000 6.7 160 06:53 02.12.2020
5135 Clouds 23 1018 31 10000 7.7 130 22:54 01.12.2020
5136 Clouds 24 1018 31 10000 5.7 130 22:18 01.12.2020
5137 Clouds 24 1017 33 10000 5.7 130 19:36 01.12.2020
5138 Clouds 25 1017 33 10000 5.7 130 18:45 01.12.2020
5139 Clouds 25 1018 31 10000 5.7 150 16:37 01.12.2020
5140 Clouds 27 1018 34 10000 2.6 130 13:54 01.12.2020
5141 Rain 28 1015 34 10000 7.7 140 12:26 01.12.2020
5142 Rain 29 1015 32 10000 4.6 130 11:27 01.12.2020
5143 Rain 29 1014 35 10000 5.7 140 10:39 01.12.2020
5144 Clouds 30 1013 33 7000 8.7 140 09:26 01.12.2020
5145 Rain 38 1011 25 10000 6.7 140 07:19 01.12.2020
5146 Clouds 31 1014 51 10000 3.1 200 01:56 01.12.2020
5147 Rain 29 1014 54 10000 2.6 170 00:57 01.12.2020
5148 Rain 27 1013 65 10000 5.1 130 23:22 30.11.2020
5149 Rain 27 1013 69 10000 3.1 130 22:45 30.11.2020
5150 Rain 27 1013 69 10000 3.1 130 22:26 30.11.2020
5151 Rain 27 1011 65 10000 4.1 220 21:56 30.11.2020
5152 Rain 29 1010 45 10000 6.7 270 19:45 30.11.2020
5153 Rain 29 1010 54 10000 3.6 350 18:40 30.11.2020
5154 Rain 29 1009 48 10000 2.1 270 18:20 30.11.2020
5155 Rain 29 1009 51 10000 5.7 260 17:42 30.11.2020
5156 Clouds 28 1009 61 10000 3.1 250 16:44 30.11.2020
5157 Clouds 31 1009 45 10000 4.6 190 14:47 30.11.2020
5158 Clouds 33 1009 46 10000 3.1 200 13:54 30.11.2020
5159 Clouds 32 1006 62 10000 1.5 350 12:35 30.11.2020
5160 Clouds 32 1006 52 10000 2.6 10 11:59 30.11.2020
5161 Rain 35 1005 43 10000 5.1 210 10:31 30.11.2020
5162 Clouds 39 1005 19 10000 6.2 180 09:51 30.11.2020
5163 Rain 42 1005 14 10000 5.7 290 07:44 30.11.2020
5164 Clouds 33 1011 22 10000 4.1 50 01:19 30.11.2020
5165 Clear 28 1011 34 10000 1.5 80 22:20 29.11.2020
5166 Clear 27 1010 31 10000 2.6 100 21:43 29.11.2020
5167 Clear 26 1010 31 10000 2.6 100 21:25 29.11.2020
5168 Clear 29 1010 28 10000 2.6 120 17:48 29.11.2020
5169 Clear 30 1010 27 10000 3.1 110 16:57 29.11.2020
5170 Clear 34 1010 23 10000 3.1 140 13:35 29.11.2020
5171 Clouds 35 1009 21 10000 5.7 130 12:27 29.11.2020
5172 Clouds 35 1007 20 10000 5.1 120 11:22 29.11.2020
5173 Clear 38 1006 19 10000 5.1 130 08:52 29.11.2020
5174 Clear 39 1007 18 10000 5.1 170 08:34 29.11.2020
5175 Clouds 32 1011 33 10000 3.6 150 01:43 29.11.2020
5176 Haze 28 1010 39 5000 7.7 180 22:57 28.11.2020
5177 Clouds 30 1007 27 10000 4.1 300 20:56 28.11.2020
5178 Clouds 32 1007 26 10000 6.7 330 19:53 28.11.2020
5179 Clouds 32 1006 24 10000 4.6 260 19:25 28.11.2020
5180 Clear 33 1005 24 10000 8.2 330 18:52 28.11.2020
5181 Clear 33 1006 23 10000 9.3 330 17:48 28.11.2020
5182 Clear 33 1006 23 10000 11.3 340 16:45 28.11.2020
5183 Clear 34 1006 13 10000 3.6 350 14:57 28.11.2020
5184 Clear 35 1006 13 10000 3.1 350 13:30 28.11.2020
5185 Clear 37 1005 10 10000 3.6 340 11:23 28.11.2020
5186 Clear 43 1005 7 10000 4.6 270 07:55 28.11.2020
5187 Clear 42 1008 11 10000 8.7 320 03:33 28.11.2020
5188 Clear 39 1009 15 10000 9.8 320 01:51 28.11.2020
5189 Clear 33 1009 16 10000 5.1 310 23:18 27.11.2020
5190 Clear 24 1008 22 10000 2.1 270 21:51 27.11.2020
5191 Clear 24 1008 22 10000 1.5 280 20:37 27.11.2020
5192 Clear 23 1007 27 10000 1 250 19:30 27.11.2020
5193 Clear 25 1007 20 10000 2.6 280 18:51 27.11.2020
5194 Clear 29 1009 13 10000 2.67 90 15:19 27.11.2020
5195 Clear 31 1008 11 10000 3.1 100 13:44 27.11.2020
5196 Clear 32 1008 10 10000 3.1 110 12:48 27.11.2020
5197 Clear 36 1007 8 10000 3.6 130 11:50 27.11.2020
5198 Clear 38 1007 5 10000 3.6 140 10:51 27.11.2020
5199 Clear 39 1007 6 10000 2.6 60 10:22 27.11.2020
5200 Clear 40 1004 7 10000 2.71 115 07:29 27.11.2020
5201 Clear 27 1009 19 10000 2.27 74 22:29 26.11.2020
5202 Clear 23 1010 37 10000 2.27 74 21:57 26.11.2020
5203 Clear 20 1010 37 10000 2.35 70 21:25 26.11.2020
5204 Clear 22 1010 35 10000 2.82 77 19:19 26.11.2020
5205 Clear 23 1010 31 10000 3.02 79 17:53 26.11.2020
5206 Clear 27 1011 21 10000 5.2 97 14:57 26.11.2020
5207 Clear 29 1010 11 10000 2.6 80 13:42 26.11.2020
5208 Clouds 32 1010 11 10000 3.1 90 12:44 26.11.2020
5209 Clouds 34 1009 10 10000 3.1 120 11:47 26.11.2020
5210 Clouds 37 1008 7 10000 5.1 130 10:37 26.11.2020
5211 Clouds 38 1008 6 10000 5.1 130 09:48 26.11.2020
5212 Clouds 38 1008 6 10000 5.1 130 09:29 26.11.2020
5213 Clouds 38 1008 8 10000 3.6 150 08:39 26.11.2020
5214 Clear 38 1009 8 10000 6.7 110 06:50 26.11.2020
5215 Clouds 31 1012 11 10000 6.2 60 23:54 25.11.2020
5216 Clear 22 1010 33 10000 1.5 130 20:46 25.11.2020
5217 Clear 23 1009 27 10000 1.5 190 19:55 25.11.2020
5218 Clear 25 1009 22 10000 2.1 80 18:28 25.11.2020
5219 Clear 27 1010 15 10000 3.1 50 16:44 25.11.2020
5220 Clear 28 1010 15 10000 3.1 70 15:40 25.11.2020
5221 Clear 30 1010 13 10000 3.6 100 13:57 25.11.2020
5222 Clear 30 1010 14 10000 3.1 110 13:38 25.11.2020
5223 Clear 34 1009 12 10000 4.1 130 11:45 25.11.2020
5224 Clear 35 1008 12 10000 5.1 140 11:18 25.11.2020
5225 Clear 38 1007 11 10000 8.2 170 09:18 25.11.2020
5226 Clear 37 1007 11 10000 3.1 100 08:43 25.11.2020
5227 Dust 34 1010 13 10000 3.6 130 03:59 25.11.2020
5228 Clear 32 1012 15 10000 3.1 70 01:53 25.11.2020
5229 Clear 28 1012 20 10000 6.7 40 00:23 25.11.2020
5230 Clear 28 1012 20 10000 6.7 40 23:52 24.11.2020
5231 Clear 27 1012 22 10000 4.6 70 23:33 24.11.2020
5232 Clear 22 1011 30 10000 3.1 70 21:51 24.11.2020
5233 Clear 21 1010 35 10000 3.6 70 21:29 24.11.2020
5234 Clear 21 1010 46 10000 2.1 60 20:40 24.11.2020
5235 Clear 22 1010 43 10000 2.1 60 18:40 24.11.2020
5236 Clear 23 1011 43 10000 3.91 102 17:30 24.11.2020
5237 Clear 23 1011 43 10000 4.05 108 16:45 24.11.2020
5238 Clear 23 1011 43 10000 4.12 108 16:27 24.11.2020
5239 Clear 24 1011 33 10000 1.5 100 15:54 24.11.2020
5240 Clear 26 1012 22 10000 2.1 130 15:18 24.11.2020
5241 Clear 26 1012 24 10000 2.6 130 14:33 24.11.2020
5242 Clouds 30 1011 17 10000 3.6 120 12:45 24.11.2020
5243 Clouds 30 1011 17 10000 3.1 120 12:22 24.11.2020
5244 Clouds 31 1010 16 10000 3.1 120 11:38 24.11.2020
5245 Clouds 33 1010 15 10000 4.6 120 10:39 24.11.2020
5246 Clouds 34 1010 15 10000 4.1 130 10:19 24.11.2020
5247 Clouds 34 1010 14 10000 4.6 100 09:35 24.11.2020
5248 Clear 35 1010 14 10000 5.1 130 07:37 24.11.2020
5249 Clouds 31 1014 19 10000 5.7 130 04:19 24.11.2020
5250 Clouds 24 1014 27 10000 5.1 130 22:29 23.11.2020
5251 Clouds 24 1014 27 10000 4.1 120 21:36 23.11.2020
5252 Clouds 24 1013 23 10000 4.6 130 20:50 23.11.2020
5253 Clouds 24 1013 22 10000 5.7 130 20:21 23.11.2020
5254 Clouds 25 1013 21 10000 5.1 140 18:48 23.11.2020
5255 Clouds 25 1013 21 10000 4.6 130 17:25 23.11.2020
5256 Clouds 27 1014 24 10000 4.1 140 16:22 23.11.2020
5257 Clouds 28 1014 23 10000 3.6 130 14:46 23.11.2020
5258 Clouds 30 1014 20 10000 5.1 130 12:56 23.11.2020
5259 Clouds 30 1014 20 10000 5.7 130 12:36 23.11.2020
5260 Clouds 32 1013 18 10000 7.7 130 11:46 23.11.2020
5261 Clouds 33 1012 18 10000 6.7 130 10:47 23.11.2020
5262 Clouds 35 1011 16 10000 7.7 130 09:31 23.11.2020
5263 Clouds 35 1011 15 10000 5.7 130 08:39 23.11.2020
5264 Dust 35 1011 15 10000 7.2 150 07:19 23.11.2020
5265 Clear 30 1016 33 10000 6.7 140 00:25 23.11.2020
5266 Clouds 26 1015 34 10000 5.1 150 23:18 22.11.2020
5267 Clouds 26 1013 28 10000 4.6 150 21:40 22.11.2020
5268 Clouds 26 1013 26 10000 4.6 150 20:51 22.11.2020
5269 Clouds 30 1012 25 10000 4.6 160 19:52 22.11.2020
5270 Clouds 31 1012 22 10000 5.1 170 18:40 22.11.2020
5271 Clouds 31 1012 22 10000 5.1 170 18:40 22.11.2020
5272 Clouds 30 1011 22 10000 3.6 90 16:51 22.11.2020
5273 Clouds 30 1012 23 10000 2.6 60 15:33 22.11.2020
5274 Clear 31 1011 22 10000 3.1 80 14:28 22.11.2020
5275 Clouds 34 1010 20 10000 3.1 120 12:49 22.11.2020
5276 Clouds 35 1010 17 10000 3.1 120 11:56 22.11.2020
5277 Clouds 37 1009 14 10000 4.1 130 11:20 22.11.2020
5278 Clouds 37 1009 13 10000 2.6 120 10:39 22.11.2020
5279 Clouds 39 1008 12 10000 4.1 120 08:51 22.11.2020
5280 Clouds 35 1014 20 10000 6.7 350 01:48 22.11.2020
5281 Clouds 26 1014 34 10000 8.29 29 23:21 21.11.2020
5282 Clouds 23 1012 60 10000 5.1 27 21:47 21.11.2020
5283 Clouds 24 1012 64 10000 4.83 33 21:18 21.11.2020
5284 Clouds 23 1012 69 10000 1 80 20:33 21.11.2020
5285 Clear 23 1011 64 10000 5.07 41 19:53 21.11.2020
5286 Clouds 24 1011 60 10000 0.5 80 19:26 21.11.2020
5287 Clear 26 1011 34 10000 2.6 60 17:57 21.11.2020
5288 Clear 28 1012 32 10000 3.1 50 16:48 21.11.2020
5289 Clear 28 1012 32 10000 3.1 70 15:51 21.11.2020
5290 Clear 29 1013 30 10000 3.6 70 15:21 21.11.2020
5291 Clear 31 1013 25 10000 4.1 60 14:43 21.11.2020
5292 Clouds 31 1012 27 10000 4.1 70 13:48 21.11.2020
5293 Clouds 32 1012 25 10000 3.6 80 12:26 21.11.2020
5294 Clouds 33 1012 21 10000 2.1 90 11:56 21.11.2020
5295 Clouds 36 1011 16 10000 3.6 80 10:39 21.11.2020
5296 Clouds 38 1010 13 10000 3.1 40 09:32 21.11.2020
5297 Clouds 38 1010 13 10000 5.7 70 08:51 21.11.2020
5298 Clouds 38 1012 14 10000 5.7 40 05:43 21.11.2020
5299 Clouds 37 1013 14 10000 4.1 10 04:24 21.11.2020
5300 Clouds 29 1015 51 10000 0.5 240 00:27 21.11.2020
5301 Clouds 24 1015 78 10000 2.85 76 23:25 20.11.2020
5302 Clouds 23 1014 88 10000 1.47 79 21:48 20.11.2020
5303 Clouds 23 1014 88 10000 0.8 69 21:26 20.11.2020
5304 Clouds 23 1014 94 10000 0.8 69 20:55 20.11.2020
5305 Clouds 24 1014 83 10000 0.43 56 19:43 20.11.2020
5306 Clouds 23 1013 88 10000 2.1 310 18:29 20.11.2020
5307 Clouds 23 1014 83 10000 2.1 330 17:34 20.11.2020
5308 Clouds 23 1014 88 10000 2.1 320 16:57 20.11.2020
5309 Clouds 23 1014 83 10000 2.6 60 16:37 20.11.2020
5310 Clouds 24 1014 78 10000 3.1 300 15:48 20.11.2020
5311 Clouds 24 1015 83 10000 1 320 14:23 20.11.2020
5312 Clouds 24 1015 83 10000 3.1 280 13:29 20.11.2020
5313 Clouds 23 1015 88 10000 2.6 330 12:59 20.11.2020
5314 Clouds 24 1015 78 10000 3.1 340 12:25 20.11.2020
5315 Rain 24 1015 83 10000 2.6 270 11:35 20.11.2020
5316 Rain 24 1014 83 10000 4.1 280 09:56 20.11.2020
5317 Rain 24 1015 78 10000 4.1 260 08:32 20.11.2020
5318 Rain 23 1016 78 10000 5.7 190 07:52 20.11.2020
5319 Rain 36 1013 19 10000 4.6 330 05:19 20.11.2020
5320 Clouds 30 1015 9 10000 2.6 260 00:21 20.11.2020
5321 Clouds 24 1014 19 10000 3.1 240 22:30 19.11.2020
5322 Clouds 24 1014 23 10000 2.1 190 21:53 19.11.2020
5323 Clouds 23 1013 27 10000 1.77 225 20:57 19.11.2020
5324 Clouds 24 1013 13 10000 2.1 10 20:20 19.11.2020
5325 Clouds 25 1012 11 10000 2.6 50 19:27 19.11.2020
5326 Clouds 25 1012 14 10000 2.1 90 18:54 19.11.2020
5327 Clouds 27 1012 13 10000 2.1 80 17:27 19.11.2020
5328 Clouds 29 1013 12 10000 3.1 80 16:32 19.11.2020
5329 Clouds 28 1013 14 10000 2.6 50 15:29 19.11.2020
5330 Clouds 30 1013 13 10000 3.1 120 13:51 19.11.2020
5331 Clouds 32 1013 11 10000 3.6 130 13:33 19.11.2020
5332 Clouds 32 1013 12 10000 3.6 130 12:52 19.11.2020
5333 Clouds 32 1013 11 10000 3.1 120 12:33 19.11.2020
5334 Clouds 35 1012 10 10000 3.1 120 11:40 19.11.2020
5335 Clouds 36 1012 8 10000 4.6 120 11:20 19.11.2020
5336 Clouds 36 1012 8 10000 5.1 130 10:29 19.11.2020
5337 Clouds 38 1011 8 10000 6.7 130 09:47 19.11.2020
5338 Clouds 38 1011 8 10000 6.2 90 09:27 19.11.2020
5339 Clouds 38 1011 8 10000 5.1 140 08:21 19.11.2020
5340 Clear 38 1011 9 10000 4.6 130 07:30 19.11.2020
5341 Clear 36 1015 8 10000 6.2 50 01:46 19.11.2020
5342 Clear 33 1015 9 10000 4.1 30 00:32 19.11.2020
5343 Clouds 29 1016 16 10000 1.5 50 23:31 18.11.2020
5344 Clouds 26 1015 27 10000 2.37 100 22:57 18.11.2020
5345 Clouds 23 1015 40 10000 1.5 290 22:27 18.11.2020
5346 Clouds 22 1014 49 10000 1.79 95 21:41 18.11.2020
5347 Clouds 23 1014 40 10000 0.5 270 21:21 18.11.2020
5348 Clouds 23 1013 40 10000 2.47 34 19:54 18.11.2020
5349 Clouds 23 1013 40 10000 2.47 34 19:35 18.11.2020
5350 Clouds 23 1014 40 10000 2.38 40 18:57 18.11.2020
5351 Clouds 23 1014 40 10000 2.38 40 18:57 18.11.2020
5352 Clouds 23 1013 38 10000 1.5 130 18:38 18.11.2020
5353 Clouds 24 1014 41 10000 3.07 78 17:37 18.11.2020
5354 Clouds 26 1014 34 10000 1.5 110 16:25 18.11.2020
5355 Clouds 26 1014 26 10000 2.1 40 15:57 18.11.2020
5356 Clouds 28 1014 21 10000 3.1 100 14:41 18.11.2020
5357 Clouds 30 1014 19 10000 3.1 60 13:46 18.11.2020
5358 Clouds 30 1014 17 10000 3.6 90 13:20 18.11.2020
5359 Clouds 32 1013 14 10000 3.6 100 12:42 18.11.2020
5360 Clear 33 1013 15 10000 3.1 90 11:41 18.11.2020
5361 Clear 36 1012 11 10000 3.1 130 10:32 18.11.2020
5362 Clear 37 1012 11 10000 3.6 100 09:57 18.11.2020
5363 Clear 38 1012 10 10000 4.1 120 07:54 18.11.2020
5364 Clear 37 1013 10 10000 4.6 110 06:34 18.11.2020
5365 Clouds 28 1018 17 10000 6.7 60 00:29 18.11.2020
5366 Clouds 25 1018 29 10000 2.6 100 23:34 17.11.2020
5367 Clouds 22 1017 52 10000 6.6 99 22:49 17.11.2020
5368 Clouds 22 1017 52 10000 4.74 110 22:28 17.11.2020
5369 Clouds 22 1017 63 10000 0.5 240 21:50 17.11.2020
5370 Clouds 22 1017 63 10000 0.5 240 21:50 17.11.2020
5371 Clouds 22 1017 63 10000 0.5 240 21:30 17.11.2020
5372 Clouds 22 1016 52 10000 4.36 113 20:47 17.11.2020
5373 Clouds 22 1016 52 10000 4.4 114 20:24 17.11.2020
5374 Clouds 22 1016 60 10000 4.4 114 19:54 17.11.2020
5375 Clouds 22 1016 60 10000 4.4 114 19:54 17.11.2020
5376 Clouds 23 1016 46 10000 4.4 122 18:24 17.11.2020
5377 Clouds 23 1016 46 10000 4.4 122 18:24 17.11.2020
5378 Clouds 23 1016 49 10000 2.1 190 17:33 17.11.2020
5379 Clouds 24 1017 43 10000 1.5 10 16:49 17.11.2020
5380 Clouds 24 1017 33 10000 3.65 137 16:18 17.11.2020
5381 Clouds 24 1017 47 10000 3.65 137 15:39 17.11.2020
5382 Clouds 24 1017 38 10000 0.5 60 15:21 17.11.2020
5383 Clouds 24 1017 33 10000 2.1 110 14:41 17.11.2020
5384 Clouds 26 1017 29 10000 2.1 120 13:54 17.11.2020
5385 Clouds 26 1017 27 10000 2.6 120 13:27 17.11.2020
5386 Clouds 28 1017 24 10000 3.1 110 12:42 17.11.2020
5387 Clouds 29 1016 21 10000 3.6 100 11:45 17.11.2020
5388 Clouds 29 1016 21 10000 3.6 100 11:26 17.11.2020
5389 Clouds 30 1016 17 10000 4.6 70 10:39 17.11.2020
5390 Clouds 31 1016 16 10000 5.7 70 09:57 17.11.2020
5391 Clouds 31 1016 16 10000 6.2 80 09:36 17.11.2020
5392 Clouds 32 1016 14 10000 5.7 130 08:43 17.11.2020
5393 Clear 32 1016 13 10000 6.2 100 07:59 17.11.2020
5394 Clear 32 1016 13 10000 6.2 100 07:32 17.11.2020
5395 Clear 30 1019 17 10000 6.2 110 04:31 17.11.2020
5396 Clear 28 1020 15 10000 6.2 90 03:25 17.11.2020
5397 Clear 27 1020 18 10000 7.2 110 02:29 17.11.2020
5398 Clear 26 1020 16 10000 8.2 90 00:56 17.11.2020
5399 Clouds 24 1020 19 10000 7.7 100 23:54 16.11.2020
5400 Clouds 23 1020 23 10000 5.7 110 23:31 16.11.2020
5401 Clouds 23 1019 28 10000 5.7 110 22:55 16.11.2020
5402 Clouds 22 1019 45 10000 2.6 110 22:23 16.11.2020
5403 Clouds 22 1019 45 10000 2.6 110 21:56 16.11.2020
5404 Clouds 22 1019 49 10000 3.1 110 21:37 16.11.2020
5405 Clouds 22 1018 56 10000 3.1 120 21:18 16.11.2020
5406 Clouds 22 1018 68 10000 2.1 70 20:26 16.11.2020
5407 Clouds 22 1018 68 10000 5.45 125 19:50 16.11.2020
5408 Clouds 22 1018 68 10000 5.94 127 19:28 16.11.2020
5409 Clouds 23 1018 56 10000 0.5 190 18:48 16.11.2020
5410 Clouds 23 1018 52 10000 6.61 126 17:57 16.11.2020
5411 Clouds 23 1019 46 10000 2.1 110 17:26 16.11.2020
5412 Clouds 23 1019 46 10000 2.1 110 16:57 16.11.2020
5413 Clouds 23 1019 49 10000 2.6 120 16:38 16.11.2020
5414 Clouds 24 1019 46 10000 2.6 140 16:18 16.11.2020
5415 Clouds 23 1019 43 10000 3.1 120 15:41 16.11.2020
5416 Clouds 24 1019 41 10000 3.1 130 15:22 16.11.2020
5417 Clouds 24 1019 41 10000 3.1 120 14:42 16.11.2020
5418 Clouds 24 1019 31 10000 2.6 100 13:35 16.11.2020
5419 Clouds 26 1018 27 10000 4.1 110 12:34 16.11.2020
5420 Clouds 27 1018 28 10000 4.6 110 11:55 16.11.2020
5421 Clouds 27 1018 26 10000 5.7 120 11:37 16.11.2020
5422 Clouds 27 1017 28 10000 5.7 120 11:18 16.11.2020
5423 Clouds 28 1017 28 10000 6.7 120 10:40 16.11.2020
5424 Clouds 28 1017 26 10000 5.7 120 10:22 16.11.2020
5425 Clouds 28 1017 26 10000 6.2 120 09:41 16.11.2020
5426 Clouds 28 1017 28 10000 5.7 110 08:59 16.11.2020
5427 Clouds 28 1017 30 10000 6.7 110 08:38 16.11.2020
5428 Clear 27 1017 32 10000 6.2 110 07:44 16.11.2020
5429 Clear 27 1018 34 10000 5.7 130 06:47 16.11.2020
5430 Clouds 26 1018 36 10000 5.7 140 05:53 16.11.2020
5431 Dust 26 1019 39 10000 5.1 150 04:36 16.11.2020
5432 Dust 23 1019 56 6000 6.7 140 01:48 16.11.2020
5433 Dust 23 1019 56 6000 6.7 140 01:27 16.11.2020
5434 Clouds 25 1017 54 10000 5.1 130 23:49 15.11.2020
5435 Clouds 25 1017 61 10000 3.1 160 23:21 15.11.2020
5436 Clouds 25 1017 61 10000 3.1 160 23:21 15.11.2020
5437 Clouds 24 1016 69 10000 1.5 230 22:40 15.11.2020
5438 Clouds 24 1015 78 10000 3.6 150 22:18 15.11.2020
5439 Clouds 24 1015 78 10000 3.6 110 21:43 15.11.2020
5440 Clouds 24 1014 69 10000 3.6 150 21:22 15.11.2020
5441 Clouds 24 1014 73 10000 2.6 170 20:41 15.11.2020
5442 Rain 24 1014 64 10000 3.6 60 20:18 15.11.2020
5443 Rain 24 1013 61 10000 3.1 70 19:47 15.11.2020
5444 Clouds 25 1012 47 10000 5.1 360 19:22 15.11.2020
5445 Clouds 25 1012 47 10000 5.1 360 18:56 15.11.2020
5446 Clouds 25 1012 54 10000 5.7 40 18:37 15.11.2020
5447 Clouds 25 1011 47 10000 5.7 100 18:19 15.11.2020
5448 Clouds 25 1011 47 10000 5.7 100 18:19 15.11.2020
5449 Rain 27 1011 30 10000 6.7 10 17:43 15.11.2020
5450 Rain 28 1012 19 10000 16.5 340 17:23 15.11.2020
5451 Rain 25 1015 50 10000 7.7 350 16:45 15.11.2020
5452 Rain 27 1015 35 10000 6.7 280 16:20 15.11.2020
5453 Rain 24 1016 78 10000 3.6 270 15:49 15.11.2020
5454 Rain 23 1016 78 10000 3.6 270 15:26 15.11.2020
5455 Rain 24 1017 78 10000 5.1 230 14:55 15.11.2020
5456 Rain 23 1017 83 10000 7.2 230 14:29 15.11.2020
5457 Thunderstorm 24 1016 83 10000 7.2 210 13:53 15.11.2020
5458 Thunderstorm 24 1015 73 10000 8.7 250 13:35 15.11.2020
5459 Thunderstorm 26 1014 61 10000 9.3 270 12:50 15.11.2020
5460 Rain 28 1013 48 10000 10.3 290 12:22 15.11.2020
5461 Thunderstorm 27 1013 57 10000 6.7 290 11:45 15.11.2020
5462 Thunderstorm 30 1012 48 10000 2.1 50 11:19 15.11.2020
5463 Thunderstorm 31 1010 43 10000 4.1 50 10:53 15.11.2020
5464 Thunderstorm 31 1010 43 10000 4.1 50 10:31 15.11.2020
5465 Thunderstorm 32 1010 38 10000 2.6 120 09:56 15.11.2020
5466 Thunderstorm 33 1009 31 10000 4.6 10 09:37 15.11.2020
5467 Thunderstorm 30 1009 55 10000 8.2 20 09:18 15.11.2020
5468 Thunderstorm 34 1009 28 10000 10.8 330 08:43 15.11.2020
5469 Rain 40 1008 14 10000 3.6 320 07:47 15.11.2020
5470 Clouds 40 1009 13 10000 5.1 350 06:49 15.11.2020
5471 Clear 39 1011 18 10000 8.2 280 04:56 15.11.2020
5472 Clear 37 1012 22 10000 11.3 320 02:27 15.11.2020
5473 Clouds 33 1012 31 10000 12.3 320 00:36 15.11.2020
5474 Clouds 31 1012 38 10000 11.8 320 00:18 15.11.2020
5475 Clouds 29 1012 45 10000 12.9 320 23:20 14.11.2020
5476 Clouds 29 1011 42 10000 11.8 310 22:45 14.11.2020
5477 Clouds 28 1011 45 10000 11.8 310 22:20 14.11.2020
5478 Clouds 28 1010 48 10000 11.3 330 21:39 14.11.2020
5479 Clouds 28 1010 42 10000 10.3 320 21:21 14.11.2020
5480 Clouds 28 1010 42 10000 11.8 320 20:48 14.11.2020
5481 Clouds 28 1010 42 10000 11.8 320 20:24 14.11.2020
5482 Clouds 29 1009 37 10000 11.8 330 19:39 14.11.2020
5483 Clouds 30 1009 33 10000 10.3 330 19:19 14.11.2020
5484 Clouds 30 1009 33 10000 9.3 330 18:41 14.11.2020
5485 Clouds 27 1008 30 10000 8.2 330 18:22 14.11.2020
5486 Clouds 27 1008 31 10000 7.2 340 17:46 14.11.2020
5487 Clouds 31 1008 31 10000 7.2 340 17:28 14.11.2020
5488 Clouds 32 1008 27 10000 8.7 340 16:52 14.11.2020
5489 Clouds 32 1008 27 10000 8.7 340 16:33 14.11.2020
5490 Clouds 32 1008 25 10000 7.7 340 15:56 14.11.2020
5491 Clouds 33 1008 22 10000 6.7 350 15:32 14.11.2020
5492 Clouds 34 1008 20 10000 6.7 360 14:57 14.11.2020
5493 Clouds 34 1008 17 10000 5.7 350 14:30 14.11.2020
5494 Clouds 35 1008 14 10000 3.6 350 13:53 14.11.2020
5495 Clouds 36 1007 12 10000 4.6 350 13:30 14.11.2020
5496 Clouds 36 1007 11 10000 6.2 330 12:56 14.11.2020
5497 Clouds 37 1007 12 10000 4.6 340 12:35 14.11.2020
5498 Clouds 36 1006 11 10000 3.6 360 11:56 14.11.2020
5499 Clouds 38 1005 8 10000 2.1 270 11:38 14.11.2020
5500 Clouds 39 1005 8 10000 3.6 260 10:59 14.11.2020
5501 Clouds 41 1005 6 10000 4.1 270 10:38 14.11.2020
5502 Clouds 41 1004 7 10000 5.7 260 10:20 14.11.2020
5503 Clouds 42 1004 6 10000 3.6 280 09:45 14.11.2020
5504 Clouds 42 1004 6 10000 3.6 280 09:26 14.11.2020
5505 Clouds 41 1005 7 10000 3.1 330 08:41 14.11.2020
5506 Clouds 42 1005 8 10000 6.7 310 08:21 14.11.2020
5507 Clouds 42 1005 8 10000 5.1 250 07:41 14.11.2020
5508 Clouds 42 1005 8 10000 6.7 310 06:51 14.11.2020
5509 Clear 43 1006 7 10000 8.2 260 06:20 14.11.2020
5510 Clear 41 1007 9 10000 4.1 350 05:18 14.11.2020
5511 Clear 36 1010 14 10000 6.7 10 01:59 14.11.2020
5512 Clear 33 1010 13 10000 8.7 30 00:25 14.11.2020
5513 Clear 30 1010 12 10000 7.2 40 23:35 13.11.2020
5514 Clear 29 1010 13 10000 3.6 70 22:58 13.11.2020
5515 Clear 25 1010 14 10000 3.1 80 22:40 13.11.2020
5516 Clear 22 1010 20 10000 6.74 59 22:21 13.11.2020
5517 Clear 22 1010 20 10000 2.6 190 21:49 13.11.2020
5518 Clear 22 1010 20 10000 2.6 190 21:26 13.11.2020
5519 Clear 22 1009 20 10000 2.6 120 20:51 13.11.2020
5520 Clear 22 1009 20 10000 2.6 120 20:32 13.11.2020
5521 Clear 22 1009 18 10000 2.6 110 19:55 13.11.2020
5522 Clear 22 1009 18 10000 2.1 150 19:36 13.11.2020
5523 Clear 22 1009 18 10000 2.1 150 19:36 13.11.2020
5524 Clear 23 1009 16 10000 1.5 90 19:18 13.11.2020
5525 Clear 23 1008 16 10000 1 90 18:32 13.11.2020
5526 Clear 23 1009 14 10000 2.6 120 17:47 13.11.2020
5527 Clear 23 1009 14 10000 1 110 17:21 13.11.2020
5528 Clear 23 1009 14 10000 1 110 16:57 13.11.2020
5529 Clear 23 1009 13 10000 2.1 30 16:38 13.11.2020
5530 Clear 24 1009 13 10000 2.1 120 16:18 13.11.2020
5531 Clear 24 1009 12 10000 2.6 140 15:39 13.11.2020
5532 Clear 25 1010 12 10000 2.1 100 15:21 13.11.2020
5533 Clear 26 1010 12 10000 2.6 70 14:37 13.11.2020
5534 Clear 26 1009 12 10000 3.1 50 14:18 13.11.2020
5535 Clear 26 1009 12 10000 3.1 50 14:18 13.11.2020
5536 Clear 29 1009 10 10000 3.1 110 13:32 13.11.2020
5537 Clear 31 1009 10 10000 2.6 100 12:57 13.11.2020
5538 Clear 32 1008 8 10000 3.6 110 12:39 13.11.2020
5539 Clear 34 1008 7 10000 4.1 130 12:20 13.11.2020
5540 Clear 35 1007 8 10000 6.2 130 11:46 13.11.2020
5541 Clear 36 1006 7 10000 4.6 130 11:21 13.11.2020
5542 Clear 37 1006 7 10000 7.7 140 10:47 13.11.2020
5543 Clear 37 1006 7 10000 7.7 140 10:47 13.11.2020
5544 Clear 37 1006 7 10000 7.7 140 10:29 13.11.2020
5545 Clear 39 1005 6 10000 3.6 180 09:48 13.11.2020
5546 Clear 39 1005 6 10000 3.6 180 09:29 13.11.2020
5547 Clear 39 1005 6 10000 4.6 200 08:53 13.11.2020
5548 Clear 40 1005 4 10000 6.2 290 08:26 13.11.2020
5549 Clear 40 1006 4 10000 5.1 200 07:50 13.11.2020
5550 Clear 40 1006 4 10000 5.1 200 07:27 13.11.2020
5551 Clear 39 1006 5 10000 5.1 250 06:55 13.11.2020
5552 Dust 39 1007 5 10000 6.2 250 06:36 13.11.2020
5553 Dust 39 1008 6 10000 3.6 250 05:41 13.11.2020
5554 Clear 35 1010 8 10000 4.6 30 03:41 13.11.2020
5555 Clear 31 1012 10 10000 4.6 70 01:42 13.11.2020
5556 Clear 29 1013 11 10000 7.2 80 00:35 13.11.2020
5557 Clear 26 1012 12 10000 3.6 90 23:49 12.11.2020
5558 Clear 24 1012 14 10000 5.17 104 23:21 12.11.2020
5559 Clear 22 1012 16 10000 2.1 330 22:55 12.11.2020
5560 Clear 22 1012 16 10000 2.1 330 22:37 12.11.2020
5561 Clear 21 1011 20 10000 3.1 120 21:58 12.11.2020
5562 Clear 18 1011 18 10000 2.6 180 21:39 12.11.2020
5563 Clear 18 1010 18 10000 2.6 330 21:21 12.11.2020
5564 Clear 18 1010 18 10000 0.5 270 20:41 12.11.2020
5565 Clear 18 1010 17 10000 1 350 20:23 12.11.2020
5566 Clear 21 1010 14 10000 2.1 350 19:52 12.11.2020
5567 Clear 23 1010 14 10000 2.1 350 19:34 12.11.2020
5568 Clear 22 1010 16 10000 1.5 340 18:56 12.11.2020
5569 Clear 23 1010 14 10000 2.6 160 18:37 12.11.2020
5570 Clear 22 1010 15 10000 3.6 180 18:18 12.11.2020
5571 Clear 23 1010 14 10000 3.6 180 17:39 12.11.2020
5572 Clear 23 1010 15 10000 2.93 162 17:21 12.11.2020
5573 Clear 24 1010 13 10000 2.93 162 16:44 12.11.2020
5574 Clear 24 1010 13 10000 2.58 151 16:23 12.11.2020
5575 Clear 24 1011 11 10000 0.5 360 15:47 12.11.2020
5576 Clear 24 1011 11 10000 0.5 360 15:47 12.11.2020
5577 Clear 24 1011 11 10000 0.5 360 15:27 12.11.2020
5578 Clear 25 1011 11 10000 0.5 350 14:47 12.11.2020
5579 Clear 25 1011 11 10000 0.5 350 14:47 12.11.2020
5580 Clear 25 1011 11 10000 0.5 350 14:27 12.11.2020
5581 Clear 25 1011 10 10000 1.5 130 13:58 12.11.2020
5582 Clear 28 1011 9 10000 2.1 140 13:39 12.11.2020
5583 Clear 30 1010 9 10000 3.1 150 13:19 12.11.2020
5584 Clear 31 1010 8 10000 3.6 160 12:44 12.11.2020
5585 Clear 31 1010 8 10000 3.6 160 12:24 12.11.2020
5586 Clear 31 1010 9 10000 3.6 170 11:52 12.11.2020
5587 Clear 33 1009 7 10000 4.6 170 11:30 12.11.2020
5588 Clear 33 1009 7 10000 4.6 170 11:30 12.11.2020
5589 Clear 35 1009 6 10000 6.2 190 10:49 12.11.2020
5590 Clear 35 1009 6 10000 6.2 190 10:29 12.11.2020
5591 Clear 37 1008 7 10000 7.7 190 09:49 12.11.2020
5592 Clear 37 1008 7 10000 7.7 190 09:24 12.11.2020
5593 Clear 37 1008 7 10000 9.3 190 08:58 12.11.2020
5594 Clear 37 1008 7 10000 8.7 210 08:39 12.11.2020
5595 Clear 38 1008 6 10000 8.2 190 08:20 12.11.2020
5596 Clear 38 1008 6 10000 8.2 190 07:53 12.11.2020
5597 Clear 39 1008 6 10000 7.7 210 07:25 12.11.2020
5598 Dust 38 1009 6 10000 8.2 190 06:51 12.11.2020
5599 Dust 38 1010 6 10000 8.2 210 05:45 12.11.2020
5600 Clear 33 1013 11 10000 3.6 90 03:43 12.11.2020
5601 Dust 33 1013 11 10000 3.6 60 03:18 12.11.2020
5602 Clear 28 1014 15 10000 4.6 100 00:23 12.11.2020
5603 Clear 25 1014 17 10000 5.1 90 23:26 11.11.2020
5604 Clear 25 1014 19 10000 6.2 90 23:00 11.11.2020
5605 Clear 24 1014 25 10000 2.1 120 22:41 11.11.2020
5606 Clear 23 1013 24 10000 1 320 22:21 11.11.2020
5607 Clear 23 1013 24 10000 1 320 21:56 11.11.2020
5608 Clear 23 1013 24 10000 0.5 230 21:36 11.11.2020
5609 Clear 24 1012 23 10000 3.1 200 21:18 11.11.2020
5610 Clear 23 1011 26 10000 3.1 270 20:41 11.11.2020
5611 Clear 24 1011 27 10000 1 270 20:21 11.11.2020
5612 Clear 24 1011 25 10000 3.1 260 19:50 11.11.2020
5613 Clear 23 1011 25 10000 3.1 260 19:32 11.11.2020
5614 Clear 24 1011 25 10000 2.6 270 18:58 11.11.2020
5615 Clear 24 1010 25 10000 2.6 310 18:40 11.11.2020
5616 Clear 24 1011 23 10000 1.5 260 17:46 11.11.2020
5617 Clear 24 1011 23 10000 1.5 260 17:27 11.11.2020
5618 Clear 24 1011 23 10000 2.6 310 16:59 11.11.2020
5619 Clear 24 1011 23 10000 2.1 290 16:37 11.11.2020
5620 Clear 24 1012 23 10000 2.1 300 16:19 11.11.2020
5621 Clear 25 1012 22 10000 1.5 320 15:39 11.11.2020
5622 Clear 25 1013 21 10000 0.5 330 15:21 11.11.2020
5623 Clear 26 1013 20 10000 0.49 153 14:43 11.11.2020
5624 Clear 26 1013 20 10000 1.57 179 14:23 11.11.2020
5625 Clear 26 1012 18 10000 2.1 110 13:44 11.11.2020
5626 Clouds 30 1012 17 10000 2.6 140 12:59 11.11.2020
5627 Clouds 32 1011 15 10000 3.1 120 12:21 11.11.2020
5628 Clouds 34 1011 14 10000 3.6 140 11:51 11.11.2020
5629 Clouds 34 1011 14 10000 3.6 140 11:33 11.11.2020
5630 Clouds 34 1011 14 10000 3.6 140 11:33 11.11.2020
5631 Clouds 35 1011 14 10000 5.1 160 10:45 11.11.2020
5632 Clouds 35 1011 14 10000 5.1 160 10:27 11.11.2020
5633 Clouds 36 1010 13 10000 5.1 150 09:55 11.11.2020
5634 Clouds 36 1010 13 10000 5.7 160 09:37 11.11.2020
5635 Clouds 36 1010 13 10000 7.2 190 09:19 11.11.2020
5636 Clouds 37 1010 13 10000 6.2 210 08:43 11.11.2020
5637 Clouds 37 1010 13 10000 6.2 210 08:24 11.11.2020
5638 Clear 37 1011 12 10000 6.7 190 07:43 11.11.2020
5639 Clear 38 1011 11 10000 5.7 200 06:31 11.11.2020
5640 Dust 36 1012 12 10000 5.1 150 05:36 11.11.2020
5641 Dust 32 1014 24 8000 7.2 150 01:37 11.11.2020
5642 Dust 32 1013 21 10000 8.2 140 00:57 11.11.2020
5643 Clear 33 1013 14 10000 7.2 170 00:24 11.11.2020
5644 Clouds 33 1012 15 10000 5.7 180 23:37 10.11.2020
5645 Clouds 32 1012 15 10000 3.1 210 23:18 10.11.2020
5646 Clouds 31 1012 16 10000 4.1 210 22:43 10.11.2020
5647 Clouds 31 1012 16 10000 4.1 210 22:24 10.11.2020
5648 Clouds 32 1010 18 10000 2.1 270 21:41 10.11.2020
5649 Clouds 32 1009 17 10000 2.6 300 21:23 10.11.2020
5650 Clouds 32 1009 17 10000 2.6 300 20:55 10.11.2020
5651 Clouds 32 1009 18 10000 2.1 210 20:37 10.11.2020
5652 Clouds 33 1009 17 10000 4.6 320 20:19 10.11.2020
5653 Clouds 35 1009 14 10000 6.2 270 19:42 10.11.2020
5654 Clouds 35 1009 14 10000 6.2 270 19:23 10.11.2020
5655 Clouds 35 1008 12 10000 4.6 310 18:43 10.11.2020
5656 Clouds 35 1008 11 10000 7.2 300 18:24 10.11.2020
5657 Clouds 35 1008 11 10000 7.2 300 17:57 10.11.2020
5658 Clouds 35 1009 11 10000 6.7 320 17:38 10.11.2020
5659 Clouds 34 1009 13 10000 5.7 340 17:20 10.11.2020
5660 Clouds 35 1009 11 10000 4.1 340 16:41 10.11.2020
5661 Clouds 36 1009 11 10000 5.1 320 16:22 10.11.2020
5662 Clouds 36 1009 11 10000 4.6 330 15:48 10.11.2020
5663 Clouds 36 1009 11 10000 4.6 330 15:27 10.11.2020
5664 Clouds 36 1010 11 10000 4.1 340 14:56 10.11.2020
5665 Clouds 35 1009 11 10000 3.6 340 14:37 10.11.2020
5666 Clouds 35 1009 11 10000 3.6 340 14:37 10.11.2020
5667 Clouds 36 1009 11 10000 4.6 330 14:18 10.11.2020
5668 Clouds 37 1009 16 10000 4.6 330 13:38 10.11.2020
5669 Clouds 37 1009 15 10000 4.6 330 13:19 10.11.2020
5670 Clouds 37 1009 10 10000 5.1 330 12:45 10.11.2020
5671 Clouds 37 1009 10 10000 5.1 330 12:24 10.11.2020
5672 Clouds 38 1008 9 10000 4.1 350 11:43 10.11.2020
5673 Clouds 38 1008 13 10000 4.6 310 11:21 10.11.2020
5674 Clouds 38 1008 13 10000 4.6 310 10:57 10.11.2020
5675 Clouds 39 1008 13 10000 6.2 300 10:38 10.11.2020
5676 Clouds 39 1008 9 10000 6.7 290 10:19 10.11.2020
5677 Clouds 40 1008 7 10000 6.7 300 09:43 10.11.2020
5678 Clouds 40 1008 7 10000 6.7 300 09:24 10.11.2020
5679 Clouds 40 1007 9 10000 6.7 340 08:53 10.11.2020
5680 Dust 40 1007 8 10000 6.7 330 08:27 10.11.2020
5681 Dust 40 1008 7 10000 7.7 320 07:44 10.11.2020
5682 Dust 40 1008 7 10000 7.7 320 07:24 10.11.2020
5683 Dust 41 1008 6 10000 7.2 310 06:40 10.11.2020
5684 Dust 41 1009 8 10000 9.8 340 05:43 10.11.2020
5685 Dust 40 1009 7 10000 7.2 330 04:59 10.11.2020
5686 Clear 38 1011 9 10000 9.8 340 02:29 10.11.2020
5687 Clear 37 1012 9 10000 10.3 340 01:30 10.11.2020
5688 Clear 34 1012 10 10000 8.2 350 23:55 09.11.2020
5689 Clear 33 1012 11 10000 6.7 360 23:33 09.11.2020
5690 Clear 28 1012 15 10000 0.5 340 22:48 09.11.2020
5691 Clear 24 1012 19 10000 0.5 330 22:24 09.11.2020
5692 Clear 24 1012 19 10000 0.5 330 21:54 09.11.2020
5693 Clear 28 1012 15 10000 0.5 20 21:36 09.11.2020
5694 Clouds 27 1011 14 10000 6.5 7 21:18 09.11.2020
5695 Clouds 28 1011 14 10000 2.6 30 20:37 09.11.2020
5696 Clouds 28 1011 14 10000 2.6 30 20:18 09.11.2020
5697 Clouds 27 1011 18 10000 3.1 40 19:41 09.11.2020
5698 Clouds 26 1011 17 10000 4.1 50 19:21 09.11.2020
5699 Clouds 26 1010 17 10000 4.1 50 18:41 09.11.2020
5700 Clouds 28 1011 15 10000 3.6 60 18:20 09.11.2020
5701 Clouds 28 1011 15 10000 4.1 50 17:52 09.11.2020
5702 Clouds 28 1011 15 10000 4.1 50 17:31 09.11.2020
5703 Clouds 30 1011 13 10000 3.6 60 16:46 09.11.2020
5704 Clouds 30 1011 13 10000 3.6 60 16:28 09.11.2020
5705 Clouds 29 1011 14 10000 3.6 60 15:56 09.11.2020
5706 Clouds 31 1011 12 10000 3.6 40 15:38 09.11.2020
5707 Clouds 33 1012 11 10000 4.6 70 15:20 09.11.2020
5708 Clouds 32 1012 11 10000 3.6 70 14:41 09.11.2020
5709 Clouds 32 1012 11 10000 3.6 70 14:23 09.11.2020
5710 Clouds 32 1011 11 10000 0.93 350 13:43 09.11.2020
5711 Clouds 32 1011 11 10000 1.81 290 13:20 09.11.2020
5712 Clouds 33 1011 11 10000 0.5 30 12:47 09.11.2020
5713 Clouds 34 1011 10 10000 2.6 10 12:21 09.11.2020
5714 Clouds 34 1011 10 10000 2.6 10 11:55 09.11.2020
5715 Clouds 35 1011 10 10000 2.1 20 11:36 09.11.2020
5716 Clouds 36 1010 8 10000 2.1 300 11:18 09.11.2020
5717 Clouds 37 1010 9 10000 3.1 290 10:41 09.11.2020
5718 Clouds 38 1010 8 10000 3.6 310 10:22 09.11.2020
5719 Clouds 38 1010 8 10000 1 320 09:41 09.11.2020
5720 Clouds 38 1010 8 10000 4.6 300 09:23 09.11.2020
5721 Clouds 39 1010 7 10000 2.6 330 08:37 09.11.2020
5722 Clear 39 1010 7 10000 4.1 340 08:18 09.11.2020
5723 Dust 39 1010 8 10000 5.1 290 07:38 09.11.2020
5724 Clear 39 1010 9 10000 3.6 250 07:18 09.11.2020
5725 Dust 39 1011 9 10000 5.7 290 06:22 09.11.2020
5726 Dust 36 1014 9 10000 5.1 330 02:58 09.11.2020
5727 Clear 32 1015 11 10000 3.1 10 01:42 09.11.2020
5728 Clear 28 1016 13 10000 2.1 330 00:57 09.11.2020
5729 Clear 25 1016 16 10000 1.5 90 23:50 08.11.2020
5730 Clouds 25 1016 16 10000 1.5 90 23:28 08.11.2020
5731 Clouds 20 1015 24 10000 1.5 90 22:45 08.11.2020
5732 Clouds 18 1015 27 10000 2.1 120 22:22 08.11.2020
5733 Clouds 18 1015 27 10000 2.1 120 21:52 08.11.2020
5734 Clear 19 1014 25 10000 2.1 110 21:24 08.11.2020
5735 Clear 20 1014 24 10000 1.5 60 20:59 08.11.2020
5736 Clear 20 1014 24 10000 2.6 60 20:39 08.11.2020
5737 Clear 21 1014 22 10000 2.89 49 20:20 08.11.2020
5738 Clear 20 1014 22 10000 2.1 90 19:46 08.11.2020
5739 Clouds 20 1014 22 10000 2.1 90 19:24 08.11.2020
5740 Clear 21 1013 22 10000 1 70 18:59 08.11.2020
5741 Clouds 21 1013 22 10000 2.1 70 18:41 08.11.2020
5742 Clear 22 1014 21 10000 2.6 100 18:21 08.11.2020
5743 Clear 22 1014 21 10000 2.6 100 17:56 08.11.2020
5744 Clear 23 1014 20 10000 2.6 90 17:36 08.11.2020
5745 Clear 24 1014 19 10000 3.6 90 17:18 08.11.2020
5746 Clear 24 1014 19 10000 3.6 70 16:38 08.11.2020
5747 Clear 25 1014 17 10000 4.1 70 16:20 08.11.2020
5748 Clear 26 1015 16 10000 3.1 70 15:46 08.11.2020
5749 Clear 26 1015 16 10000 3.1 70 15:28 08.11.2020
5750 Clear 28 1015 15 10000 4.6 70 14:44 08.11.2020
5751 Clear 28 1015 15 10000 4.6 70 14:24 08.11.2020
5752 Clear 28 1015 15 10000 3.6 50 13:57 08.11.2020
5753 Clear 27 1015 14 10000 3.6 70 13:38 08.11.2020
5754 Clouds 29 1014 13 10000 4.6 70 13:18 08.11.2020
5755 Clouds 29 1014 14 10000 4.6 80 12:40 08.11.2020
5756 Clouds 30 1014 13 10000 4.6 80 12:22 08.11.2020
5757 Clouds 30 1014 13 10000 4.6 80 11:56 08.11.2020
5758 Clouds 31 1014 16 10000 4.6 90 11:38 08.11.2020
5759 Clouds 32 1013 11 10000 5.1 80 11:19 08.11.2020
5760 Clouds 33 1013 11 10000 6.7 100 10:42 08.11.2020
5761 Clouds 34 1013 13 10000 5.7 110 10:18 08.11.2020
5762 Clouds 35 1012 10 10000 5.1 100 09:42 08.11.2020
5763 Clouds 35 1012 10 10000 6.7 110 09:23 08.11.2020
5764 Clouds 36 1012 9 10000 5.7 140 08:47 08.11.2020
5765 Clouds 36 1012 9 10000 5.7 140 08:27 08.11.2020
5766 Clouds 35 1012 10 10000 5.7 100 07:53 08.11.2020
5767 Clouds 35 1012 10 10000 5.7 100 07:32 08.11.2020
5768 Clouds 35 1013 10 10000 6.7 70 06:45 08.11.2020
5769 Clouds 35 1014 10 10000 5.1 80 05:54 08.11.2020
5770 Clouds 33 1015 9 10000 3.6 50 04:51 08.11.2020
5771 Clouds 32 1016 9 10000 4.1 60 03:25 08.11.2020
5772 Clouds 26 1018 13 10000 3.6 40 01:19 08.11.2020
5773 Clouds 26 1018 13 10000 3.6 40 01:19 08.11.2020
5774 Clouds 24 1018 15 10000 4.6 70 00:33 08.11.2020
5775 Clouds 23 1018 15 10000 3.6 90 23:57 07.11.2020
5776 Clouds 21 1018 18 10000 2.6 70 23:38 07.11.2020
5777 Clouds 19 1018 19 10000 2.6 50 23:19 07.11.2020
5778 Clouds 16 1018 23 10000 1.5 60 22:40 07.11.2020
5779 Clouds 16 1017 23 10000 2.1 100 22:20 07.11.2020
5780 Clouds 16 1017 23 10000 2.1 60 21:43 07.11.2020
5781 Clouds 16 1016 23 10000 3.1 50 21:19 07.11.2020
5782 Clouds 16 1016 23 10000 2.6 40 20:47 07.11.2020
5783 Clear 16 1016 23 10000 2.6 40 20:29 07.11.2020
5784 Clear 17 1016 21 10000 2.6 40 19:49 07.11.2020
5785 Clear 17 1016 21 10000 2.6 40 19:28 07.11.2020
5786 Clear 17 1017 20 10000 2.6 30 18:45 07.11.2020
5787 Clear 18 1017 18 10000 2.6 160 18:27 07.11.2020
5788 Clear 18 1017 18 10000 2.6 160 17:59 07.11.2020
5789 Clear 18 1017 18 10000 2.1 190 17:37 07.11.2020
5790 Clear 19 1018 16 10000 0.5 220 16:57 07.11.2020
5791 Clear 20 1018 15 10000 1.5 170 16:39 07.11.2020
5792 Clear 22 1018 13 10000 3.1 90 16:20 07.11.2020
5793 Clear 22 1017 13 10000 3.1 60 15:42 07.11.2020
5794 Clear 22 1017 13 10000 3.6 60 15:22 07.11.2020
5795 Clear 22 1018 13 10000 3.1 60 14:45 07.11.2020
5796 Clear 22 1018 13 10000 3.1 60 14:26 07.11.2020
5797 Clear 22 1018 13 10000 3.6 70 13:55 07.11.2020
5798 Clear 23 1018 12 10000 2.6 40 13:30 07.11.2020
5799 Clouds 25 1018 12 10000 4.1 70 12:47 07.11.2020
5800 Clouds 25 1018 12 10000 4.1 70 12:25 07.11.2020
5801 Clouds 27 1017 10 10000 4.1 70 11:43 07.11.2020
5802 Clouds 28 1017 9 10000 4.6 70 11:22 07.11.2020
5803 Clouds 29 1016 9 10000 5.7 70 10:45 07.11.2020
5804 Clouds 29 1016 9 10000 6.2 80 10:27 07.11.2020
5805 Clouds 29 1016 9 10000 6.2 80 09:52 07.11.2020
5806 Clouds 30 1016 8 10000 5.7 80 09:34 07.11.2020
5807 Clouds 30 1016 8 10000 6.2 60 08:53 07.11.2020
5808 Clouds 30 1016 9 10000 6.2 90 08:35 07.11.2020
5809 Clouds 30 1016 9 10000 4.1 80 07:51 07.11.2020
5810 Clouds 30 1016 8 10000 5.1 70 07:19 07.11.2020
5811 Clouds 30 1017 9 10000 4.6 110 06:47 07.11.2020
5812 Clouds 28 1018 10 10000 5.7 100 05:23 07.11.2020
5813 Clouds 26 1019 11 10000 5.7 80 03:23 07.11.2020
5814 Clouds 24 1020 13 10000 7.7 70 01:28 07.11.2020
5815 Clouds 23 1020 13 10000 6.7 80 00:43 07.11.2020
5816 Clouds 22 1019 14 10000 6.7 90 23:50 06.11.2020
5817 Clouds 21 1020 14 10000 3.6 90 23:20 06.11.2020
5818 Clouds 20 1019 15 10000 3.6 80 22:41 06.11.2020
5819 Clouds 20 1019 16 10000 2.6 90 22:19 06.11.2020
5820 Clouds 19 1019 19 10000 2.6 130 21:45 06.11.2020
5821 Clouds 19 1019 17 10000 4.19 97 21:21 06.11.2020
5822 Clouds 19 1019 17 10000 4.19 97 20:52 06.11.2020
5823 Clouds 19 1018 17 10000 2.6 90 20:22 06.11.2020
5824 Clouds 19 1018 17 10000 2.6 90 19:56 06.11.2020
5825 Clouds 20 1018 15 10000 3.1 100 19:38 06.11.2020
5826 Clouds 20 1018 16 10000 3.1 80 19:19 06.11.2020
5827 Clouds 21 1018 13 10000 2.6 110 18:45 06.11.2020
5828 Clouds 20 1018 16 10000 2.1 100 18:23 06.11.2020
5829 Clouds 20 1018 16 10000 2.1 110 17:51 06.11.2020
5830 Clouds 20 1018 16 10000 2.1 110 17:25 06.11.2020
5831 Clouds 21 1019 14 10000 2.6 120 16:49 06.11.2020
5832 Clouds 21 1019 14 10000 2.6 120 16:27 06.11.2020
5833 Clouds 22 1019 13 10000 3.1 100 15:49 06.11.2020
5834 Clouds 22 1019 13 10000 3.1 100 15:28 06.11.2020
5835 Clouds 21 1019 14 10000 3.1 120 14:53 06.11.2020
5836 Clouds 21 1019 14 10000 2.1 80 14:26 06.11.2020
5837 Clouds 23 1019 12 10000 2.6 80 13:46 06.11.2020
5838 Clouds 23 1019 12 10000 2.6 80 13:24 06.11.2020
5839 Clouds 24 1018 12 10000 3.6 120 12:46 06.11.2020
5840 Clouds 24 1018 12 10000 3.6 120 12:23 06.11.2020
5841 Clouds 26 1018 11 10000 4.1 140 11:49 06.11.2020
5842 Clouds 26 1018 11 10000 4.1 140 11:28 06.11.2020
5843 Clouds 27 1017 10 10000 5.1 130 10:44 06.11.2020
5844 Clear 27 1017 10 10000 5.1 130 10:25 06.11.2020
5845 Clear 29 1017 9 10000 5.7 130 09:49 06.11.2020
5846 Clear 28 1017 11 10000 5.1 110 09:22 06.11.2020
5847 Clear 28 1017 11 10000 5.1 110 08:51 06.11.2020
5848 Clouds 29 1017 9 10000 6.2 130 08:29 06.11.2020
5849 Clear 29 1016 9 10000 7.7 100 07:53 06.11.2020
5850 Clear 29 1016 9 10000 7.7 100 07:34 06.11.2020
5851 Clouds 30 1016 10 10000 7.2 120 06:58 06.11.2020
5852 Clear 28 1018 13 10000 6.2 130 06:22 06.11.2020
5853 Clear 25 1020 15 10000 4.1 100 03:48 06.11.2020
5854 Clouds 21 1021 19 10000 5.7 80 01:22 06.11.2020
5855 Clear 20 1020 20 10000 7.7 80 00:21 06.11.2020
5856 Clear 20 1020 20 10000 7.7 80 00:21 06.11.2020
5857 Clear 20 1020 20 10000 7.7 70 23:31 05.11.2020
5858 Clouds 18 1020 23 10000 4.6 90 22:58 05.11.2020
5859 Clouds 18 1020 22 10000 2.6 90 22:37 05.11.2020
5860 Clear 17 1019 23 10000 2.1 70 22:19 05.11.2020
5861 Clear 16 1019 25 10000 3.1 100 21:43 05.11.2020
5862 Clouds 17 1019 23 10000 3.1 100 21:21 05.11.2020
5863 Clouds 18 1019 22 10000 3.6 110 20:48 05.11.2020
5864 Clear 18 1019 22 10000 3.6 110 20:29 05.11.2020
5865 Clear 19 1019 20 10000 4.6 110 19:59 05.11.2020
5866 Clear 19 1019 20 10000 4.6 120 19:40 05.11.2020
5867 Clear 19 1019 22 10000 4.1 110 19:22 05.11.2020
5868 Clear 20 1019 22 10000 4.1 110 18:45 05.11.2020
5869 Clear 20 1019 22 10000 4.1 100 18:26 05.11.2020
5870 Clear 20 1019 24 10000 3.6 100 17:52 05.11.2020
5871 Clear 20 1019 24 10000 3.6 100 17:29 05.11.2020
5872 Clear 21 1020 22 10000 3.6 120 16:58 05.11.2020
5873 Clear 21 1020 25 10000 4.6 110 16:40 05.11.2020
5874 Clear 21 1021 26 10000 3.6 130 16:19 05.11.2020
5875 Clear 22 1021 24 10000 4.1 110 15:43 05.11.2020
5876 Clear 22 1021 24 10000 4.1 110 15:21 05.11.2020
5877 Clear 23 1021 25 10000 4.1 110 14:45 05.11.2020
5878 Clear 23 1021 25 10000 4.1 110 14:25 05.11.2020
5879 Clear 24 1020 25 10000 4.6 120 13:42 05.11.2020
5880 Clear 24 1020 27 10000 4.6 110 13:23 05.11.2020
5881 Clear 25 1020 25 10000 4.6 120 12:48 05.11.2020
5882 Clear 25 1020 25 10000 4.6 120 12:24 05.11.2020
5883 Clear 26 1020 27 10000 5.1 120 11:49 05.11.2020
5884 Clear 26 1019 27 10000 5.7 130 11:26 05.11.2020
5885 Clear 26 1019 27 10000 5.7 130 10:53 05.11.2020
5886 Clear 27 1019 26 10000 6.2 120 10:32 05.11.2020
5887 Clear 28 1018 24 10000 6.2 110 09:58 05.11.2020
5888 Clear 28 1018 24 10000 6.7 110 09:38 05.11.2020
5889 Clear 29 1018 21 10000 6.7 120 09:20 05.11.2020
5890 Clear 29 1018 23 10000 6.7 110 08:43 05.11.2020
5891 Clear 30 1018 22 10000 7.7 130 08:24 05.11.2020
5892 Clear 29 1018 21 10000 6.7 120 07:29 05.11.2020
5893 Clear 29 1018 23 10000 6.7 120 06:52 05.11.2020
5894 Clear 30 1018 23 10000 7.2 120 06:33 05.11.2020
5895 Clear 27 1021 30 10000 7.2 120 03:47 05.11.2020
5896 Clear 23 1022 43 10000 7.2 120 00:59 05.11.2020
5897 Clear 23 1022 43 10000 7.2 120 00:26 05.11.2020
5898 Clear 22 1021 43 10000 7.7 120 23:43 04.11.2020
5899 Clear 22 1021 43 10000 7.7 120 23:25 04.11.2020
5900 Clear 21 1020 49 10000 7.2 120 22:45 04.11.2020
5901 Clear 21 1020 49 10000 4.6 130 22:23 04.11.2020
5902 Clear 21 1020 49 10000 6.2 130 21:48 04.11.2020
5903 Clear 21 1020 49 10000 6.2 130 21:28 04.11.2020
5904 Clear 22 1019 46 10000 4.1 140 20:56 04.11.2020
5905 Clear 22 1019 46 10000 3.6 130 20:37 04.11.2020
5906 Clear 23 1019 43 10000 5.7 130 20:18 04.11.2020
5907 Clouds 23 1019 43 10000 4.6 140 19:41 04.11.2020
5908 Clouds 23 1019 43 10000 4.6 140 19:41 04.11.2020
5909 Clouds 23 1019 43 10000 4.6 140 19:23 04.11.2020
5910 Clouds 24 1019 41 10000 6.7 130 18:43 04.11.2020
5911 Clouds 25 1018 38 10000 7.2 140 18:24 04.11.2020
5912 Clouds 26 1018 34 10000 5.1 130 17:48 04.11.2020
5913 Clouds 26 1018 34 10000 5.1 130 17:28 04.11.2020
5914 Clouds 27 1019 32 9000 6.7 130 16:57 04.11.2020
5915 Clouds 27 1019 32 9000 6.7 130 16:37 04.11.2020
5916 Clouds 28 1019 28 9000 4.6 130 16:18 04.11.2020
5917 Clouds 28 1018 28 7000 6.7 140 15:42 04.11.2020
5918 Clouds 28 1018 28 7000 6.7 140 15:23 04.11.2020
5919 Clear 30 1017 20 10000 7.7 140 14:45 04.11.2020
5920 Clear 30 1017 20 10000 7.7 140 14:25 04.11.2020
5921 Clear 30 1017 13 10000 4.6 140 13:52 04.11.2020
5922 Clouds 30 1016 11 10000 3.1 110 13:22 04.11.2020
5923 Clouds 30 1016 11 10000 3.1 110 12:58 04.11.2020
5924 Clouds 31 1016 10 10000 3.6 120 12:40 04.11.2020
5925 Clouds 32 1016 11 10000 3.6 130 12:22 04.11.2020
5926 Clouds 33 1015 10 10000 4.1 130 11:45 04.11.2020
5927 Clear 35 1015 8 10000 3.6 130 11:22 04.11.2020
5928 Clear 36 1015 8 10000 4.1 130 10:49 04.11.2020
5929 Clear 36 1015 8 10000 4.1 130 10:24 04.11.2020
5930 Clear 36 1015 8 10000 4.1 130 10:24 04.11.2020
5931 Clear 36 1014 8 10000 5.1 100 09:55 04.11.2020
5932 Clear 37 1014 7 10000 5.7 130 09:28 04.11.2020
5933 Clear 38 1014 8 10000 5.1 140 08:49 04.11.2020
5934 Clear 38 1014 8 10000 5.1 140 08:23 04.11.2020
5935 Clear 38 1014 6 10000 5.7 110 07:57 04.11.2020
5936 Clear 39 1014 7 10000 5.7 130 07:31 04.11.2020
5937 Clear 39 1014 7 10000 7.7 160 06:59 04.11.2020
5938 Dust 38 1015 6 10000 4.1 200 06:39 04.11.2020
5939 Dust 38 1015 6 10000 4.1 200 06:39 04.11.2020
5940 Dust 38 1016 6 10000 5.1 150 04:59 04.11.2020
5941 Clear 36 1018 8 10000 5.7 90 02:31 04.11.2020
5942 Clear 34 1018 9 10000 7.2 70 01:38 04.11.2020
5943 Clear 28 1018 12 10000 3.45 158 23:56 03.11.2020
5944 Clear 26 1018 13 10000 3.18 175 23:25 03.11.2020
5945 Clear 24 1017 16 10000 2.1 340 22:54 03.11.2020
5946 Clear 20 1017 20 10000 2.6 280 22:36 03.11.2020
5947 Clear 18 1017 23 10000 2.6 210 22:18 03.11.2020
5948 Clear 19 1016 22 10000 1.87 174 21:41 03.11.2020
5949 Clear 19 1016 22 10000 1.97 67 21:23 03.11.2020
5950 Clear 20 1015 20 10000 1.97 67 20:48 03.11.2020
5951 Clear 20 1015 20 10000 2.88 72 20:26 03.11.2020
5952 Clear 21 1015 19 10000 1.5 280 19:49 03.11.2020
5953 Clouds 21 1015 19 10000 1.5 280 19:29 03.11.2020
5954 Clouds 22 1015 17 10000 2.1 280 18:58 03.11.2020
5955 Clouds 22 1015 18 10000 1.5 250 18:40 03.11.2020
5956 Clouds 24 1015 14 10000 0.5 170 18:18 03.11.2020
5957 Clouds 23 1015 16 10000 2.1 150 17:45 03.11.2020
5958 Clouds 23 1015 17 10000 1.5 50 17:26 03.11.2020
5959 Clouds 25 1015 14 10000 3.45 74 16:46 03.11.2020
5960 Clouds 25 1015 14 10000 3.91 75 16:27 03.11.2020
5961 Clouds 25 1016 14 10000 1.5 80 15:53 03.11.2020
5962 Clouds 27 1016 12 10000 2.6 70 15:30 03.11.2020
5963 Clouds 27 1016 12 10000 2.6 70 15:30 03.11.2020
5964 Clouds 27 1016 12 10000 3.1 80 14:54 03.11.2020
5965 Clouds 28 1016 13 10000 4.1 70 14:33 03.11.2020
5966 Clouds 28 1016 13 10000 3.6 60 14:00 03.11.2020
5967 Clouds 30 1016 10 10000 3.6 90 13:40 03.11.2020
5968 Clouds 31 1016 10 10000 3.1 90 13:20 03.11.2020
5969 Clouds 32 1016 9 10000 3.1 110 12:44 03.11.2020
5970 Clouds 33 1016 9 10000 3.6 110 12:21 03.11.2020
5971 Clouds 34 1016 9 10000 4.6 110 11:46 03.11.2020
5972 Clear 35 1015 8 10000 4.1 110 11:23 03.11.2020
5973 Clear 35 1015 8 10000 4.1 110 10:55 03.11.2020
5974 Clear 35 1015 8 10000 4.1 110 10:55 03.11.2020
5975 Clear 35 1015 9 10000 4.6 120 10:36 03.11.2020
5976 Clear 36 1015 8 10000 4.6 120 10:18 03.11.2020
5977 Clear 36 1014 8 10000 6.2 130 09:44 03.11.2020
5978 Clear 38 1014 8 10000 7.7 130 09:20 03.11.2020
5979 Clear 38 1014 8 10000 6.2 120 08:45 03.11.2020
5980 Clear 38 1014 8 10000 6.2 120 08:26 03.11.2020
5981 Clear 37 1014 8 10000 4.1 120 07:37 03.11.2020
5982 Dust 38 1014 8 10000 5.1 110 06:53 03.11.2020
5983 Clear 37 1015 7 10000 5.7 160 06:20 03.11.2020
5984 Clear 36 1017 7 10000 2.6 20 03:38 03.11.2020
5985 Clear 30 1019 13 10000 5.1 30 00:43 03.11.2020
5986 Clear 29 1019 13 10000 5.1 40 00:20 03.11.2020
5987 Clear 28 1018 14 10000 4.6 40 23:41 02.11.2020
5988 Clear 25 1018 17 10000 2.6 50 22:56 02.11.2020
5989 Clear 20 1018 16 10000 2.6 80 22:37 02.11.2020
5990 Clear 19 1018 20 10000 3.55 51 22:19 02.11.2020
5991 Clear 19 1017 20 10000 3.55 51 21:38 02.11.2020
5992 Clear 19 1017 21 10000 3.31 47 21:20 02.11.2020
5993 Clear 20 1017 21 10000 3.31 47 20:41 02.11.2020
5994 Clear 20 1017 21 10000 3.24 46 20:20 02.11.2020
5995 Clear 20 1017 21 10000 3.24 46 19:58 02.11.2020
5996 Clear 20 1017 24 10000 3.24 46 19:40 02.11.2020
5997 Clear 21 1017 22 10000 3.92 56 19:21 02.11.2020
5998 Clear 23 1016 20 10000 1.5 50 18:39 02.11.2020
5999 Clear 25 1016 17 10000 5.1 90 18:21 02.11.2020
6000 Clear 25 1016 17 10000 5.1 90 17:56 02.11.2020
6001 Clear 26 1016 16 10000 5.1 70 17:36 02.11.2020
6002 Clear 26 1017 16 10000 4.1 70 17:18 02.11.2020
6003 Clear 26 1017 18 10000 4.6 70 16:38 02.11.2020
6004 Clear 27 1017 15 10000 4.6 70 16:20 02.11.2020
6005 Clear 25 1017 18 10000 5.1 70 15:39 02.11.2020
6006 Clear 25 1017 18 10000 5.1 70 15:39 02.11.2020
6007 Clear 26 1018 17 10000 4.1 70 15:20 02.11.2020
6008 Clear 26 1018 17 10000 4.1 70 14:51 02.11.2020
6009 Clear 28 1018 16 10000 4.6 90 14:20 02.11.2020
6010 Clear 28 1018 16 10000 4.6 90 14:20 02.11.2020
6011 Clear 28 1018 16 10000 4.6 90 13:51 02.11.2020
6012 Clear 29 1017 14 10000 3.6 100 13:23 02.11.2020
6013 Clear 29 1017 14 10000 3.6 100 12:54 02.11.2020
6014 Clouds 30 1017 13 10000 3.6 100 12:29 02.11.2020
6015 Clouds 30 1017 13 10000 3.1 90 11:56 02.11.2020
6016 Clouds 31 1016 15 10000 3.6 80 11:37 02.11.2020
6017 Clouds 33 1016 14 10000 4.1 80 11:18 02.11.2020
6018 Clouds 34 1015 10 10000 4.6 90 10:39 02.11.2020
6019 Clouds 35 1015 13 10000 3.6 90 10:18 02.11.2020
6020 Clouds 35 1015 13 10000 3.6 110 09:42 02.11.2020
6021 Clouds 35 1015 11 10000 3.6 110 09:23 02.11.2020
6022 Clouds 36 1015 11 10000 3.6 90 08:40 02.11.2020
6023 Clear 36 1015 9 10000 4.6 100 08:20 02.11.2020
6024 Clear 36 1015 9 10000 4.6 100 07:49 02.11.2020
6025 Clear 36 1015 11 10000 5.7 80 06:48 02.11.2020
6026 Clear 36 1016 9 10000 3.1 320 06:23 02.11.2020
6027 Clear 30 1019 13 10000 6.2 50 01:40 02.11.2020
6028 Clear 28 1020 14 10000 6.2 50 00:43 02.11.2020
6029 Clear 26 1020 15 10000 3.6 50 00:23 02.11.2020
6030 Clear 24 1020 19 10000 1.5 140 23:40 01.11.2020
6031 Clear 21 1020 18 10000 5.78 75 23:21 01.11.2020
6032 Clear 19 1019 29 10000 5.78 75 22:45 01.11.2020
6033 Clear 18 1019 27 10000 3.83 76 22:23 01.11.2020
6034 Clear 17 1018 29 10000 3.83 76 21:46 01.11.2020
6035 Clear 17 1018 29 10000 4.29 88 21:27 01.11.2020
6036 Clear 17 1018 29 10000 4.29 88 21:27 01.11.2020
6037 Clear 20 1018 24 10000 3.1 90 20:52 01.11.2020
6038 Clear 20 1018 24 10000 3.6 110 20:30 01.11.2020
6039 Clear 21 1017 22 10000 3.6 100 19:59 01.11.2020
6040 Clear 22 1017 21 10000 3.6 70 19:41 01.11.2020
6041 Clear 22 1017 21 10000 3.6 70 19:21 01.11.2020
6042 Clear 23 1017 21 10000 4.6 100 18:41 01.11.2020
6043 Clear 23 1017 20 10000 4.6 90 18:19 01.11.2020
6044 Clear 23 1017 20 10000 4.6 90 18:19 01.11.2020
6045 Clear 23 1017 20 10000 4.6 90 17:56 01.11.2020
6046 Clear 23 1017 23 10000 5.1 90 17:37 01.11.2020
6047 Clear 23 1018 23 10000 4.1 90 17:18 01.11.2020
6048 Clear 24 1018 22 10000 4.1 90 16:39 01.11.2020
6049 Clear 25 1018 20 10000 4.1 70 16:19 01.11.2020
6050 Clear 25 1018 20 10000 3.6 60 15:40 01.11.2020
6051 Clear 26 1018 19 10000 4.6 70 15:21 01.11.2020
6052 Clear 26 1018 19 10000 4.6 70 14:54 01.11.2020
6053 Clear 25 1018 20 10000 3.6 70 14:36 01.11.2020
6054 Clear 26 1018 19 10000 3.1 70 14:18 01.11.2020
6055 Clear 26 1018 19 10000 3.1 70 14:18 01.11.2020
6056 Clear 27 1018 18 10000 4.1 90 13:44 01.11.2020
6057 Clear 27 1018 17 10000 4.1 90 13:26 01.11.2020
6058 Clear 28 1017 15 10000 3.6 80 12:43 01.11.2020
6059 Clear 30 1016 13 10000 4.1 100 12:22 01.11.2020
6060 Clear 30 1016 17 10000 5.1 80 11:49 01.11.2020
6061 Clear 31 1015 12 10000 4.6 80 11:19 01.11.2020
6062 Clear 32 1015 11 10000 5.7 90 10:43 01.11.2020
6063 Clear 33 1015 16 10000 5.1 100 10:24 01.11.2020
6064 Clear 33 1015 16 10000 5.1 100 09:50 01.11.2020
6065 Clear 33 1014 16 10000 5.7 100 09:30 01.11.2020
6066 Clear 34 1014 12 10000 4.1 110 08:44 01.11.2020
6067 Clear 34 1014 13 10000 4.1 80 08:18 01.11.2020
6068 Clear 34 1014 12 10000 2.6 130 07:33 01.11.2020
6069 Clear 30 1017 14 10000 4.6 50 03:26 01.11.2020
6070 Clear 26 1018 16 10000 5.7 70 01:46 01.11.2020
6071 Clouds 23 1018 25 10000 5.1 80 00:23 01.11.2020
6072 Clouds 20 1017 28 10000 4.1 80 23:24 31.10.2020
6073 Clouds 19 1017 29 10000 3.6 80 22:46 31.10.2020
6074 Clouds 19 1017 29 10000 3.6 80 22:25 31.10.2020
6075 Clouds 18 1016 31 10000 3.6 80 21:47 31.10.2020
6076 Clouds 18 1016 31 10000 3.6 80 21:26 31.10.2020
6077 Clouds 19 1016 29 10000 4.1 80 20:59 31.10.2020
6078 Clouds 18 1015 31 10000 3.1 90 20:38 31.10.2020
6079 Clouds 18 1015 31 10000 2.6 80 20:18 31.10.2020
6080 Clouds 18 1015 31 10000 2.6 80 20:18 31.10.2020
6081 Clouds 18 1015 31 10000 3.6 80 19:39 31.10.2020
6082 Clouds 18 1015 26 10000 3.6 70 19:20 31.10.2020
6083 Clouds 18 1015 31 10000 3.1 90 18:46 31.10.2020
6084 Clouds 18 1015 25 10000 3.6 90 17:58 31.10.2020
6085 Clouds 18 1015 31 10000 3.1 80 17:40 31.10.2020
6086 Clouds 18 1015 25 10000 3.1 80 17:19 31.10.2020
6087 Clouds 18 1016 25 10000 3.1 80 16:42 31.10.2020
6088 Clouds 18 1016 25 10000 3.1 80 16:42 31.10.2020
6089 Clouds 19 1016 24 10000 3.6 80 16:20 31.10.2020
6090 Clouds 20 1016 28 10000 3.1 80 15:43 31.10.2020
6091 Clear 20 1016 28 10000 3.1 80 15:23 31.10.2020
6092 Clear 21 1016 23 10000 3.1 80 14:47 31.10.2020
6093 Clear 21 1016 22 10000 3.1 80 14:28 31.10.2020
6094 Clear 23 1016 22 10000 4.6 90 13:50 31.10.2020
6095 Clouds 24 1015 21 10000 5.1 100 13:26 31.10.2020
6096 Clouds 25 1015 21 10000 5.7 100 12:42 31.10.2020
6097 Clear 27 1014 15 10000 4.6 110 11:48 31.10.2020
6098 Clear 27 1014 15 10000 4.6 110 11:29 31.10.2020
6099 Clear 27 1013 13 10000 3.6 110 10:58 31.10.2020
6100 Clear 29 1013 11 10000 4.6 110 10:36 31.10.2020
6101 Clear 29 1013 12 10000 3.6 110 09:45 31.10.2020
6102 Clear 29 1013 12 10000 3.6 110 09:27 31.10.2020
6103 Clear 30 1012 10 10000 3.6 130 08:40 31.10.2020
6104 Clear 30 1013 11 10000 2.6 10 07:59 31.10.2020
6105 Clear 29 1013 12 10000 2.6 60 07:27 31.10.2020
6106 Clear 28 1013 12 10000 4.1 40 06:42 31.10.2020
6107 Clear 29 1014 13 10000 3.6 110 06:19 31.10.2020
6108 Clear 25 1017 18 10000 4.6 90 03:46 31.10.2020
6109 Clear 22 1018 24 10000 6.2 90 01:30 31.10.2020
6110 Clear 20 1018 28 10000 6.2 90 00:47 31.10.2020
6111 Clear 19 1017 32 10000 6.7 60 23:53 30.10.2020
6112 Clear 18 1017 27 10000 3.6 100 23:26 30.10.2020
6113 Clear 15 1017 28 10000 7.09 109 22:53 30.10.2020
6114 Clear 12 1016 34 10000 4.88 119 22:27 30.10.2020
6115 Clear 11 1016 34 10000 1.5 310 21:58 30.10.2020
6116 Clear 11 1016 34 10000 1.5 310 21:58 30.10.2020
6117 Clear 11 1016 34 10000 2.1 310 21:39 30.10.2020
6118 Clear 12 1015 32 10000 0.5 280 21:20 30.10.2020
6119 Clear 11 1015 32 10000 4.3 126 20:42 30.10.2020
6120 Clear 11 1015 32 10000 4.16 123 20:23 30.10.2020
6121 Clear 14 1015 30 10000 2.6 120 19:49 30.10.2020
6122 Clouds 14 1015 28 10000 2.6 110 19:19 30.10.2020
6123 Clouds 14 1015 28 10000 2.1 70 18:50 30.10.2020
6124 Clouds 14 1015 28 10000 2.1 70 18:28 30.10.2020
6125 Clouds 15 1016 26 10000 2.1 60 17:54 30.10.2020
6126 Clouds 15 1016 26 10000 3.1 70 17:36 30.10.2020
6127 Clouds 16 1016 23 10000 3.1 100 17:18 30.10.2020
6128 Clouds 16 1016 23 10000 3.6 120 16:48 30.10.2020
6129 Clear 17 1016 20 10000 3.1 130 16:19 30.10.2020
6130 Clear 18 1017 18 10000 3.6 120 15:40 30.10.2020
6131 Clear 18 1017 17 10000 3.1 90 15:20 30.10.2020
6132 Clear 18 1017 17 10000 3.6 130 14:45 30.10.2020
6133 Clear 18 1017 17 10000 3.6 130 14:25 30.10.2020
6134 Clear 20 1017 14 10000 2.6 90 13:47 30.10.2020
6135 Clear 20 1017 14 10000 2.6 110 13:23 30.10.2020
6136 Clear 20 1017 14 10000 2.6 110 12:55 30.10.2020
6137 Clear 22 1016 12 10000 3.1 130 12:23 30.10.2020
6138 Clear 22 1016 12 10000 3.1 130 11:57 30.10.2020
6139 Clear 22 1016 12 10000 3.1 130 11:57 30.10.2020
6140 Clear 23 1016 11 10000 3.1 130 11:36 30.10.2020
6141 Clear 24 1015 11 10000 3.6 120 11:18 30.10.2020
6142 Clear 25 1015 10 10000 5.1 150 10:40 30.10.2020
6143 Clear 26 1015 10 10000 4.1 150 10:21 30.10.2020
6144 Clear 26 1015 10 10000 5.7 170 09:43 30.10.2020
6145 Clear 27 1014 10 10000 5.1 140 09:20 30.10.2020
6146 Clear 27 1014 11 10000 5.7 170 08:39 30.10.2020
6147 Clear 28 1014 12 10000 6.2 160 08:20 30.10.2020
6148 Clear 28 1014 13 10000 5.7 150 07:46 30.10.2020
6149 Clear 28 1014 13 10000 5.7 150 07:27 30.10.2020
6150 Clear 27 1015 14 10000 4.6 160 06:34 30.10.2020
6151 Clear 25 1016 18 10000 5.7 140 04:28 30.10.2020
6152 Clear 21 1018 22 10000 5.1 130 01:43 30.10.2020
6153 Clear 21 1018 22 10000 5.7 130 00:38 30.10.2020
6154 Clear 20 1018 24 10000 7.2 110 23:48 29.10.2020
6155 Clear 20 1018 24 10000 7.2 110 23:30 29.10.2020
6156 Clear 19 1017 29 10000 5.1 110 22:49 29.10.2020
6157 Clear 19 1017 29 10000 5.1 110 22:27 29.10.2020
6158 Clear 19 1016 29 10000 3.6 130 21:51 29.10.2020
6159 Clouds 19 1016 29 10000 5.1 130 21:28 29.10.2020
6160 Clouds 20 1015 32 10000 7.2 130 20:59 29.10.2020
6161 Clouds 21 1015 32 10000 6.2 140 20:40 29.10.2020
6162 Clouds 21 1015 32 10000 6.2 140 20:40 29.10.2020
6163 Clear 22 1015 30 10000 5.7 140 20:18 29.10.2020
6164 Clear 22 1014 30 10000 5.1 140 19:39 29.10.2020
6165 Clouds 22 1014 30 10000 5.1 140 19:21 29.10.2020
6166 Clouds 24 1014 27 10000 7.2 150 18:47 29.10.2020
6167 Clouds 24 1014 27 10000 7.2 150 18:27 29.10.2020
6168 Clouds 26 1014 22 10000 5.1 150 17:43 29.10.2020
6169 Clouds 26 1014 21 10000 5.7 150 17:24 29.10.2020
6170 Clouds 26 1014 21 10000 5.7 150 16:58 29.10.2020
6171 Clouds 27 1015 21 10000 5.1 140 16:37 29.10.2020
6172 Clouds 28 1015 20 10000 5.7 160 16:18 29.10.2020
6173 Clouds 28 1015 20 10000 7.2 160 15:41 29.10.2020
6174 Clouds 29 1014 18 10000 7.7 160 15:22 29.10.2020
6175 Clouds 29 1014 18 10000 7.7 160 14:59 29.10.2020
6176 Clouds 30 1013 16 10000 8.2 150 14:40 29.10.2020
6177 Clouds 31 1013 14 10000 7.2 160 14:19 29.10.2020
6178 Rain 32 1013 24 10000 8.7 160 13:45 29.10.2020
6179 Clouds 32 1013 19 10000 8.7 160 13:24 29.10.2020
6180 Clouds 31 1012 10 10000 6.2 190 12:43 29.10.2020
6181 Clouds 30 1011 9 10000 1.5 250 12:19 29.10.2020
6182 Clouds 32 1011 8 10000 2.6 210 11:48 29.10.2020
6183 Clouds 32 1011 8 10000 2.6 210 11:26 29.10.2020
6184 Clouds 33 1011 8 10000 3.1 200 10:57 29.10.2020
6185 Clouds 35 1010 6 10000 4.1 190 10:36 29.10.2020
6186 Clear 36 1010 7 10000 4.1 210 10:18 29.10.2020
6187 Clear 36 1010 6 10000 4.1 250 09:42 29.10.2020
6188 Clear 37 1010 6 10000 5.1 210 09:19 29.10.2020
6189 Clear 36 1010 6 10000 2.6 150 08:40 29.10.2020
6190 Clear 37 1011 6 10000 4.6 240 08:19 29.10.2020
6191 Dust 38 1011 5 10000 4.6 220 07:48 29.10.2020
6192 Dust 36 1011 6 10000 6.7 270 06:58 29.10.2020
6193 Dust 37 1012 5 10000 3.6 220 06:22 29.10.2020
6194 Clear 35 1014 5 10000 5.1 290 04:46 29.10.2020
6195 Clear 32 1015 12 10000 6.52 327 01:37 29.10.2020
6196 Clear 30 1015 13 10000 7.38 336 00:31 29.10.2020
6197 Clear 27 1016 16 10000 7.07 340 23:59 28.10.2020
6198 Clear 24 1016 18 10000 5.74 339 23:22 28.10.2020
6199 Clear 15 1016 24 10000 5.74 339 22:45 28.10.2020
6200 Clear 15 1016 24 10000 4.19 338 22:27 28.10.2020
6201 Clear 15 1016 24 10000 4.19 338 22:27 28.10.2020
6202 Clear 15 1016 24 10000 4.19 338 21:59 28.10.2020
6203 Clear 14 1016 24 10000 4.19 338 21:40 28.10.2020
6204 Clear 15 1016 22 10000 1.5 350 21:20 28.10.2020
6205 Clear 15 1016 24 10000 2.6 290 20:42 28.10.2020
6206 Clear 14 1015 24 10000 2.6 320 20:22 28.10.2020
6207 Clear 14 1015 24 10000 2.6 320 19:51 28.10.2020
6208 Clear 14 1016 24 10000 2.1 240 19:29 28.10.2020
6209 Clear 15 1016 24 10000 1.5 310 18:49 28.10.2020
6210 Clear 15 1016 22 10000 3.41 18 18:22 28.10.2020
6211 Clear 15 1016 22 10000 3.41 18 17:57 28.10.2020
6212 Clear 16 1016 21 10000 3.41 18 17:39 28.10.2020
6213 Clear 17 1017 20 10000 3.4 33 17:18 28.10.2020
6214 Clear 17 1017 20 10000 3.4 33 17:18 28.10.2020
6215 Clear 17 1017 21 10000 2.1 50 16:44 28.10.2020
6216 Clear 18 1017 18 10000 2.6 80 16:22 28.10.2020
6217 Clear 19 1017 17 10000 2.1 70 15:38 28.10.2020
6218 Clear 23 1016 20 10000 3.62 75 15:19 28.10.2020
6219 Clear 23 1016 20 10000 3.62 75 14:43 28.10.2020
6220 Clear 23 1017 12 10000 3.6 110 14:24 28.10.2020
6221 Clear 25 1016 18 10000 5.49 97 12:49 28.10.2020
6222 Clear 26 1015 16 10000 5.54 120 12:27 28.10.2020
6223 Clear 26 1015 16 10000 5.54 120 11:58 28.10.2020
6224 Clear 26 1015 16 10000 5.54 120 11:39 28.10.2020
6225 Clear 28 1014 15 10000 5.21 145 11:19 28.10.2020
6226 Clear 28 1014 15 10000 5.21 145 10:48 28.10.2020
6227 Clear 32 1015 7 10000 4.6 160 10:29 28.10.2020
6228 Clear 32 1015 7 10000 4.6 160 09:45 28.10.2020
6229 Clear 32 1015 7 10000 4.6 130 09:23 28.10.2020
6230 Clear 32 1015 7 10000 4.1 210 08:51 28.10.2020
6231 Clear 32 1015 7 10000 4.1 210 08:31 28.10.2020
6232 Clear 32 1015 8 10000 4.1 170 07:54 28.10.2020
6233 Dust 32 1015 7 10000 3.1 150 07:31 28.10.2020
6234 Clear 32 1015 8 10000 6.2 170 06:56 28.10.2020
6235 Dust 32 1015 8 10000 4.6 170 06:37 28.10.2020
6236 Dust 31 1017 9 10000 4.1 160 05:23 28.10.2020
6237 Dust 31 1017 9 10000 3.6 270 04:50 28.10.2020
6238 Clear 30 1018 10 10000 3.1 310 03:31 28.10.2020
6239 Clear 28 1019 12 10000 2.6 40 01:55 28.10.2020
6240 Clear 23 1019 15 10000 3.6 30 00:33 28.10.2020
6241 Clear 20 1019 19 10000 3.1 50 23:47 27.10.2020
6242 Clear 18 1018 23 10000 2.6 80 23:21 27.10.2020
6243 Clear 13 1018 32 10000 2.1 80 22:44 27.10.2020
6244 Clear 12 1018 32 10000 2.6 90 22:19 27.10.2020
6245 Clear 12 1018 32 10000 2.6 90 21:57 27.10.2020
6246 Clear 12 1018 34 3300 3.1 120 21:37 27.10.2020
6247 Clear 12 1017 34 3300 2.1 130 21:19 27.10.2020
6248 Clear 13 1017 32 5000 1.5 140 20:50 27.10.2020
6249 Clear 13 1017 32 5000 1.5 140 20:24 27.10.2020
6250 Clear 14 1017 30 10000 1.92 52 19:55 27.10.2020
6251 Clear 13 1017 32 10000 1.92 52 19:37 27.10.2020
6252 Clear 14 1017 30 10000 2.36 49 19:18 27.10.2020
6253 Clear 15 1017 30 10000 2.1 100 18:44 27.10.2020
6254 Clear 17 1017 25 10000 2.1 100 18:21 27.10.2020
6255 Clear 17 1017 25 10000 2.1 100 17:57 27.10.2020
6256 Clear 16 1017 25 10000 2.6 80 17:36 27.10.2020
6257 Clear 18 1017 23 10000 2.6 80 17:18 27.10.2020
6258 Clear 18 1017 23 10000 3.1 70 16:41 27.10.2020
6259 Clear 19 1017 22 10000 3.1 60 16:22 27.10.2020
6260 Clear 18 1018 23 10000 3.1 60 15:42 27.10.2020
6261 Clear 19 1018 22 10000 2.6 70 15:23 27.10.2020
6262 Clear 19 1017 20 10000 2.1 70 14:49 27.10.2020
6263 Clear 19 1017 20 10000 2.1 70 14:29 27.10.2020
6264 Clear 20 1017 19 10000 3.1 100 13:58 27.10.2020
6265 Clear 21 1017 18 10000 3.6 110 13:28 27.10.2020
6266 Clear 23 1017 16 10000 3.6 70 12:44 27.10.2020
6267 Clear 23 1017 16 10000 3.6 70 12:25 27.10.2020
6268 Clear 24 1016 15 10000 4.6 100 11:59 27.10.2020
6269 Clear 26 1016 13 10000 4.1 110 11:41 27.10.2020
6270 Clear 26 1015 13 10000 4.6 110 11:21 27.10.2020
6271 Clear 27 1015 11 10000 5.1 140 10:43 27.10.2020
6272 Clear 28 1014 11 10000 4.6 140 10:20 27.10.2020
6273 Clear 29 1014 11 10000 4.1 130 09:28 27.10.2020
6274 Clear 29 1014 9 10000 4.1 130 08:58 27.10.2020
6275 Clear 29 1014 9 10000 3.6 150 08:30 27.10.2020
6276 Clear 29 1014 11 10000 4.6 120 07:53 27.10.2020
6277 Clear 29 1014 11 10000 3.6 80 07:35 27.10.2020
6278 Clear 29 1014 12 10000 3.1 110 06:54 27.10.2020
6279 Dust 29 1015 11 10000 2.1 90 06:20 27.10.2020
6280 Clear 28 1016 12 10000 3.1 130 05:45 27.10.2020
6281 Dust 28 1016 14 10000 3.6 50 05:23 27.10.2020
6282 Clear 25 1018 17 10000 3.6 110 02:51 27.10.2020
6283 Clear 21 1018 21 10000 5.1 70 01:18 27.10.2020
6284 Clear 20 1018 22 10000 5.1 70 00:38 27.10.2020
6285 Clear 17 1018 27 10000 3.6 90 23:37 26.10.2020
6286 Clear 16 1018 31 10000 3.1 100 22:58 26.10.2020
6287 Clear 14 1017 35 10000 2.6 120 22:39 26.10.2020
6288 Clear 12 1017 37 10000 1.5 70 22:18 26.10.2020
6289 Clear 13 1017 35 10000 2.1 80 21:37 26.10.2020
6290 Clear 12 1016 37 10000 2.6 60 21:18 26.10.2020
6291 Clear 13 1016 35 10000 2.1 80 20:49 26.10.2020
6292 Clear 13 1016 35 10000 2.1 80 20:27 26.10.2020
6293 Clear 13 1016 37 10000 1.5 40 19:49 26.10.2020
6294 Clear 13 1016 37 10000 1.5 40 19:29 26.10.2020
6295 Clear 14 1016 35 10000 2.6 50 18:59 26.10.2020
6296 Clear 14 1016 30 10000 3.1 60 18:39 26.10.2020
6297 Clear 15 1016 30 10000 3.1 80 18:20 26.10.2020
6298 Clear 15 1016 30 10000 2.6 70 17:41 26.10.2020
6299 Clear 15 1016 33 10000 4.1 90 17:23 26.10.2020
6300 Clear 16 1017 31 10000 3.1 110 16:45 26.10.2020
6301 Clear 17 1017 29 10000 4.1 90 16:22 26.10.2020
6302 Clear 17 1017 29 10000 4.1 90 15:55 26.10.2020
6303 Clear 17 1017 29 10000 4.1 90 15:55 26.10.2020
6304 Clear 18 1017 27 10000 3.6 110 15:36 26.10.2020
6305 Clear 17 1017 29 10000 3.1 110 15:18 26.10.2020
6306 Clear 19 1017 25 10000 3.1 110 14:44 26.10.2020
6307 Clear 19 1017 25 10000 3.6 120 14:18 26.10.2020
6308 Clear 20 1016 24 10000 3.6 90 13:38 26.10.2020
6309 Clear 21 1016 22 10000 5.1 90 13:20 26.10.2020
6310 Clear 21 1015 22 10000 5.1 100 12:44 26.10.2020
6311 Clear 21 1015 22 10000 5.1 100 12:23 26.10.2020
6312 Clear 23 1015 20 10000 5.1 110 11:48 26.10.2020
6313 Clear 23 1015 23 10000 4.6 110 11:25 26.10.2020
6314 Clear 23 1015 23 10000 4.6 110 10:58 26.10.2020
6315 Clear 23 1015 23 10000 4.6 110 10:58 26.10.2020
6316 Clear 24 1014 23 10000 4.6 110 10:40 26.10.2020
6317 Clear 25 1014 17 10000 6.2 100 10:19 26.10.2020
6318 Clear 25 1014 22 10000 3.6 140 09:42 26.10.2020
6319 Clear 25 1014 21 10000 4.6 90 09:19 26.10.2020
6320 Clear 25 1014 21 10000 3.6 90 08:28 26.10.2020
6321 Clear 25 1014 21 10000 4.1 100 07:52 26.10.2020
6322 Clear 25 1014 21 10000 3.6 100 07:33 26.10.2020
6323 Clouds 24 1015 23 10000 4.1 110 06:19 26.10.2020
6324 Clouds 23 1017 23 10000 4.6 90 04:21 26.10.2020
6325 Clear 21 1018 25 10000 6.2 70 03:21 26.10.2020
6326 Clear 21 1018 25 10000 6.2 70 03:21 26.10.2020
6327 Clear 21 1018 25 10000 6.2 70 03:21 26.10.2020
6328 Clear 21 1018 25 10000 6.2 70 03:21 26.10.2020
6329 Clear 18 1018 27 10000 7.7 80 01:37 26.10.2020
6330 Clear 18 1019 27 10000 7.7 80 00:44 26.10.2020
6331 Clear 17 1019 29 10000 6.2 80 00:25 26.10.2020
6332 Clouds 16 1018 31 10000 5.7 100 23:38 25.10.2020
6333 Clear 15 1018 33 10000 6.7 100 23:18 25.10.2020
6334 Clear 15 1017 33 10000 5.7 100 22:39 25.10.2020
6335 Clear 14 1017 35 10000 5.7 110 22:20 25.10.2020
6336 Clear 15 1016 39 10000 6.2 100 21:40 25.10.2020
6337 Clear 15 1016 38 10000 5.1 110 21:20 25.10.2020
6338 Clear 15 1016 38 10000 4.1 110 20:45 25.10.2020
6339 Clear 15 1016 38 10000 4.1 110 20:25 25.10.2020
6340 Clear 15 1016 38 10000 5.1 100 19:58 25.10.2020
6341 Clear 15 1016 38 10000 3.6 100 19:39 25.10.2020
6342 Clear 16 1016 35 10000 3.6 100 19:20 25.10.2020
6343 Clear 16 1016 34 10000 2.6 130 18:41 25.10.2020
6344 Clear 17 1016 33 10000 3.1 110 18:23 25.10.2020
6345 Clear 17 1016 33 10000 3.1 110 17:58 25.10.2020
6346 Clear 17 1016 33 10000 4.1 110 17:38 25.10.2020
6347 Clear 17 1016 33 10000 4.1 100 17:20 25.10.2020
6348 Clear 18 1016 31 10000 3.6 110 16:47 25.10.2020
6349 Clear 18 1016 31 10000 3.6 110 16:28 25.10.2020
6350 Clear 18 1016 31 10000 3.6 110 16:28 25.10.2020
6351 Clear 18 1016 31 10000 4.1 100 15:50 25.10.2020
6352 Clear 19 1017 29 10000 5.7 100 15:29 25.10.2020
6353 Clear 19 1017 29 10000 4.6 110 14:55 25.10.2020
6354 Clear 19 1017 29 10000 6.7 100 14:32 25.10.2020
6355 Clear 20 1017 28 10000 4.6 110 13:58 25.10.2020
6356 Clear 20 1017 28 10000 5.7 110 13:39 25.10.2020
6357 Clear 21 1016 28 10000 5.1 110 13:18 25.10.2020
6358 Clear 21 1016 28 10000 5.1 120 12:46 25.10.2020
6359 Clear 21 1016 28 10000 5.1 120 12:25 25.10.2020
6360 Clear 22 1015 26 10000 5.1 130 11:43 25.10.2020
6361 Clear 23 1015 25 10000 4.6 120 11:21 25.10.2020
6362 Clear 23 1015 25 10000 4.6 120 10:56 25.10.2020
6363 Clear 23 1015 27 10000 5.7 120 10:38 25.10.2020
6364 Clear 24 1014 25 10000 4.6 130 10:19 25.10.2020
6365 Clear 25 1014 23 10000 5.1 130 09:39 25.10.2020
6366 Clear 25 1014 23 10000 5.1 100 09:19 25.10.2020
6367 Clear 25 1014 23 10000 5.1 100 09:19 25.10.2020
6368 Clear 25 1014 23 10000 3.6 110 08:41 25.10.2020
6369 Clear 24 1014 25 10000 5.7 110 08:22 25.10.2020
6370 Clear 25 1014 23 10000 5.1 110 07:46 25.10.2020
6371 Clear 25 1015 23 10000 5.1 90 07:24 25.10.2020
6372 Clear 24 1016 25 10000 3.6 80 06:36 25.10.2020
6373 Clear 24 1016 25 10000 5.1 110 05:34 25.10.2020
6374 Clear 22 1017 28 10000 5.1 110 04:51 25.10.2020
6375 Clear 20 1019 32 10000 7.2 110 02:42 25.10.2020
6376 Clear 18 1019 39 10000 7.2 90 00:54 25.10.2020
6377 Clear 17 1019 42 10000 6.2 100 00:31 25.10.2020
6378 Clear 17 1018 42 10000 6.2 110 23:59 24.10.2020
6379 Clear 16 1018 44 10000 5.1 110 23:40 24.10.2020
6380 Clear 16 1018 44 10000 5.1 110 23:20 24.10.2020
6381 Clear 16 1017 44 10000 4.6 120 22:41 24.10.2020
6382 Clear 16 1017 44 10000 4.6 120 22:23 24.10.2020
6383 Clear 16 1016 44 10000 4.1 130 21:56 24.10.2020
6384 Clear 16 1016 44 10000 4.1 120 21:37 24.10.2020
6385 Clear 17 1016 45 10000 5.1 130 21:19 24.10.2020
6386 Clear 17 1016 51 10000 5.1 130 20:43 24.10.2020
6387 Clouds 17 1016 51 10000 4.1 140 20:20 24.10.2020
6388 Clouds 18 1015 48 10000 3.6 150 19:42 24.10.2020
6389 Clouds 18 1015 48 10000 3.6 150 19:23 24.10.2020
6390 Clouds 18 1016 52 10000 3.1 150 18:54 24.10.2020
6391 Clouds 18 1016 52 10000 2.6 150 18:31 24.10.2020
6392 Clouds 19 1016 48 10000 3.6 130 17:54 24.10.2020
6393 Clouds 19 1016 48 10000 4.1 120 17:27 24.10.2020
6394 Clouds 20 1016 45 10000 5.1 120 16:57 24.10.2020
6395 Clouds 20 1016 45 10000 6.2 120 16:39 24.10.2020
6396 Clouds 20 1016 45 10000 6.2 120 15:58 24.10.2020
6397 Clouds 21 1016 43 10000 5.7 130 15:38 24.10.2020
6398 Clear 22 1016 37 10000 5.1 130 15:18 24.10.2020
6399 Clear 22 1015 37 10000 5.7 140 14:39 24.10.2020
6400 Clear 23 1015 35 10000 5.7 140 14:21 24.10.2020
6401 Clear 23 1014 35 10000 5.1 130 13:44 24.10.2020
6402 Clear 24 1014 33 10000 4.6 140 13:20 24.10.2020
6403 Clear 24 1014 33 10000 4.6 150 12:37 24.10.2020
6404 Clear 25 1013 29 10000 5.1 140 12:19 24.10.2020
6405 Clear 25 1013 29 10000 4.6 150 11:50 24.10.2020
6406 Clear 25 1013 29 10000 4.6 150 11:23 24.10.2020
6407 Clear 26 1012 27 10000 5.1 140 10:44 24.10.2020
6408 Clear 26 1012 27 10000 5.1 140 10:26 24.10.2020
6409 Clear 27 1011 26 10000 5.7 170 09:45 24.10.2020
6410 Clear 27 1011 26 10000 5.7 170 09:26 24.10.2020
6411 Clear 28 1012 26 10000 4.1 90 08:56 24.10.2020
6412 Clear 27 1012 30 10000 5.7 200 08:19 24.10.2020
6413 Clear 27 1013 30 10000 3.6 190 07:51 24.10.2020
6414 Clouds 27 1013 28 10000 3.6 160 07:20 24.10.2020
6415 Clear 26 1013 31 10000 3.1 100 06:50 24.10.2020
6416 Clear 25 1014 36 10000 3.1 180 05:43 24.10.2020
6417 Clouds 20 1015 56 10000 4.6 120 02:20 24.10.2020
6418 Clouds 19 1016 59 10000 5.1 150 00:55 24.10.2020
6419 Clouds 19 1016 63 10000 5.7 160 00:37 24.10.2020
6420 Clear 18 1015 63 10000 3.6 170 00:19 24.10.2020
6421 Clear 17 1015 63 10000 2.6 170 23:40 23.10.2020
6422 Clear 17 1015 63 10000 2.6 170 23:22 23.10.2020
6423 Clear 16 1014 63 10000 2.6 170 22:42 23.10.2020
6424 Clear 16 1014 63 10000 2.6 170 22:21 23.10.2020
6425 Clear 16 1014 63 10000 1 190 21:53 23.10.2020
6426 Clear 16 1013 59 10000 2.1 180 21:30 23.10.2020
6427 Clear 17 1013 59 10000 3.1 190 20:59 23.10.2020
6428 Clear 18 1013 55 10000 3.1 190 20:38 23.10.2020
6429 Clear 18 1012 55 10000 2.6 180 20:19 23.10.2020
6430 Clear 18 1013 55 10000 2.6 170 19:44 23.10.2020
6431 Clear 18 1013 55 10000 2.6 170 19:26 23.10.2020
6432 Clear 19 1013 52 10000 3.1 180 18:47 23.10.2020
6433 Clear 19 1013 52 10000 3.1 180 18:29 23.10.2020
6434 Clear 20 1013 49 10000 6.2 160 17:45 23.10.2020
6435 Clear 20 1013 49 10000 6.2 160 17:22 23.10.2020
6436 Clear 22 1013 40 10000 5.7 170 16:50 23.10.2020
6437 Clear 23 1013 33 10000 7.7 170 16:31 23.10.2020
6438 Clear 23 1013 33 10000 7.7 170 15:56 23.10.2020
6439 Clear 24 1012 31 10000 6.7 180 15:38 23.10.2020
6440 Clear 24 1012 27 10000 6.2 190 15:19 23.10.2020
6441 Clear 25 1011 23 10000 6.2 190 14:45 23.10.2020
6442 Clear 25 1011 23 10000 6.2 190 14:45 23.10.2020
6443 Clear 25 1011 23 10000 6.2 190 14:27 23.10.2020
6444 Clear 26 1010 21 10000 5.7 200 13:41 23.10.2020
6445 Clear 27 1010 21 10000 6.2 200 13:23 23.10.2020
6446 Clear 28 1009 15 10000 6.2 210 12:50 23.10.2020
6447 Clear 28 1009 15 10000 6.2 210 12:30 23.10.2020
6448 Clear 30 1008 19 10000 7.7 210 11:50 23.10.2020
6449 Clear 30 1008 17 10000 7.7 210 11:26 23.10.2020
6450 Clear 31 1007 14 10000 7.2 210 10:52 23.10.2020
6451 Clear 33 1007 14 10000 8.2 220 10:26 23.10.2020
6452 Clear 33 1006 14 10000 8.2 230 09:57 23.10.2020
6453 Clear 34 1006 15 10000 7.7 220 09:38 23.10.2020
6454 Clear 34 1006 14 10000 6.7 210 09:19 23.10.2020
6455 Clear 35 1006 13 10000 6.7 230 08:49 23.10.2020
6456 Clear 35 1006 13 10000 6.7 230 08:23 23.10.2020
6457 Clear 34 1007 16 10000 7.2 250 07:26 23.10.2020
6458 Clear 33 1007 18 10000 5.7 250 06:46 23.10.2020
6459 Clear 34 1008 17 10000 7.7 260 06:19 23.10.2020
6460 Clear 29 1009 28 8000 3.6 190 03:29 23.10.2020
6461 Haze 28 1010 30 5000 4.6 220 02:26 23.10.2020
6462 Clear 26 1010 34 10000 4.1 260 00:49 23.10.2020
6463 Clear 25 1009 36 10000 3.6 270 23:59 22.10.2020
6464 Clear 23 1009 49 10000 2.6 240 23:31 22.10.2020
6465 Clear 24 1008 47 10000 3.1 270 22:56 22.10.2020
6466 Clear 24 1007 57 10000 3.6 300 22:38 22.10.2020
6467 Clear 24 1007 60 10000 5.1 300 22:19 22.10.2020
6468 Clear 25 1007 57 10000 7.2 290 21:43 22.10.2020
6469 Clear 25 1007 57 10000 7.2 290 21:24 22.10.2020
6470 Clear 25 1006 57 10000 6.7 280 20:58 22.10.2020
6471 Clear 26 1005 50 10000 8.7 330 20:39 22.10.2020
6472 Clear 26 1005 50 10000 9.3 330 20:18 22.10.2020
6473 Clear 26 1005 50 10000 9.8 330 19:41 22.10.2020
6474 Clear 27 1005 47 10000 9.3 330 19:19 22.10.2020
6475 Clear 27 1006 44 10000 9.8 330 18:43 22.10.2020
6476 Clear 28 1006 39 10000 9.3 330 18:21 22.10.2020
6477 Clear 28 1006 34 10000 9.3 330 17:46 22.10.2020
6478 Clear 28 1006 34 10000 9.3 330 17:26 22.10.2020
6479 Clear 29 1006 32 10000 9.3 330 16:56 22.10.2020
6480 Clear 29 1006 32 10000 7.2 330 16:37 22.10.2020
6481 Clear 29 1006 32 10000 7.7 330 16:19 22.10.2020
6482 Clear 29 1006 32 10000 6.7 330 15:43 22.10.2020
6483 Clouds 29 1007 32 10000 8.7 330 15:22 22.10.2020
6484 Clear 29 1007 35 10000 6.7 320 14:47 22.10.2020
6485 Rain 29 1007 35 10000 6.7 320 14:24 22.10.2020
6486 Rain 30 1007 30 10000 8.7 320 13:48 22.10.2020
6487 Rain 30 1007 30 10000 8.7 320 13:24 22.10.2020
6488 Rain 30 1007 30 10000 8.7 320 13:24 22.10.2020
6489 Clouds 30 1006 30 10000 8.2 340 12:47 22.10.2020
6490 Clouds 30 1006 30 10000 11.3 350 12:23 22.10.2020
6491 Clouds 31 1006 27 10000 7.7 340 11:50 22.10.2020
6492 Clouds 31 1006 27 10000 5.1 310 11:20 22.10.2020
6493 Thunderstorm 31 1006 29 10000 5.7 310 10:51 22.10.2020
6494 Thunderstorm 31 1006 29 10000 5.7 310 10:28 22.10.2020
6495 Clouds 33 1005 26 10000 13.4 340 09:52 22.10.2020
6496 Clouds 33 1005 26 10000 14.4 330 09:33 22.10.2020
6497 Dust 37 1004 14 10000 9.8 300 08:51 22.10.2020
6498 Dust 37 1004 14 10000 9.8 300 08:30 22.10.2020
6499 Rain 37 1004 17 10000 11.8 300 07:57 22.10.2020
6500 Dust 38 1004 15 10000 10.3 330 07:34 22.10.2020
6501 Rain 39 1005 15 10000 10.8 290 06:58 22.10.2020
6502 Dust 38 1005 17 10000 10.8 310 06:26 22.10.2020
6503 Dust 37 1007 18 10000 8.7 330 05:40 22.10.2020
6504 Clouds 36 1008 20 10000 9.3 310 04:40 22.10.2020
6505 Clear 31 1009 29 10000 7.7 320 01:45 22.10.2020
6506 Clear 28 1009 34 10000 3.1 350 00:26 22.10.2020
6507 Clear 25 1008 44 10000 2.6 100 23:50 21.10.2020
6508 Clear 25 1008 44 10000 2.6 100 23:31 21.10.2020
6509 Clear 24 1007 47 10000 3.6 360 22:41 21.10.2020
6510 Clear 25 1007 44 10000 3.6 350 22:19 21.10.2020
6511 Clear 25 1007 44 10000 3.6 350 22:19 21.10.2020
6512 Clear 25 1007 44 10000 3.6 350 21:56 21.10.2020
6513 Clear 26 1007 39 10000 3.6 330 21:37 21.10.2020
6514 Clear 27 1007 34 10000 4.1 320 21:18 21.10.2020
6515 Clear 27 1007 34 10000 4.1 320 21:18 21.10.2020
6516 Clear 27 1007 34 10000 4.6 320 20:47 21.10.2020
6517 Clouds 28 1007 32 10000 5.7 310 20:19 21.10.2020
6518 Clouds 27 1007 32 10000 4.6 310 19:44 21.10.2020
6519 Clouds 27 1007 32 10000 4.6 310 19:26 21.10.2020
6520 Clouds 27 1007 32 10000 4.6 310 19:26 21.10.2020
6521 Clouds 28 1008 30 10000 4.6 330 18:54 21.10.2020
6522 Clouds 28 1008 30 10000 6.2 330 18:33 21.10.2020
6523 Clouds 28 1008 30 10000 6.2 330 18:33 21.10.2020
6524 Clouds 28 1008 32 10000 4.1 320 17:55 21.10.2020
6525 Clouds 28 1009 32 10000 3.1 310 17:37 21.10.2020
6526 Clouds 28 1009 32 10000 3.1 310 17:18 21.10.2020
6527 Clouds 28 1009 32 10000 3.6 300 16:40 21.10.2020
6528 Clouds 28 1009 32 10000 3.6 300 16:21 21.10.2020
6529 Clouds 29 1010 30 10000 6.7 330 15:49 21.10.2020
6530 Clouds 29 1010 30 10000 6.7 330 15:29 21.10.2020
6531 Clouds 29 1009 28 10000 1.5 340 14:58 21.10.2020
6532 Clouds 29 1009 30 10000 4.6 340 14:40 21.10.2020
6533 Clouds 29 1009 30 10000 4.6 340 14:40 21.10.2020
6534 Clouds 29 1009 30 10000 4.6 340 14:21 21.10.2020
6535 Clouds 28 1009 34 10000 2.1 20 13:42 21.10.2020
6536 Clouds 28 1009 34 10000 2.1 20 13:23 21.10.2020
6537 Clouds 28 1009 37 10000 4.1 360 12:42 21.10.2020
6538 Thunderstorm 28 1009 37 10000 7.7 340 12:23 21.10.2020
6539 Thunderstorm 29 1009 37 10000 8.2 320 11:48 21.10.2020
6540 Thunderstorm 29 1009 37 10000 8.2 320 11:23 21.10.2020
6541 Clouds 29 1008 37 10000 6.7 350 10:59 21.10.2020
6542 Clouds 30 1008 33 10000 6.2 350 10:40 21.10.2020
6543 Clouds 30 1008 33 10000 6.2 350 10:21 21.10.2020
6544 Thunderstorm 29 1008 42 10000 10.8 350 09:44 21.10.2020
6545 Thunderstorm 29 1008 42 10000 10.8 350 09:25 21.10.2020
6546 Thunderstorm 33 1008 24 10000 9.3 250 08:40 21.10.2020
6547 Thunderstorm 33 1008 24 10000 9.3 250 08:22 21.10.2020
6548 Rain 36 1008 16 10000 7.2 290 07:55 21.10.2020
6549 Rain 37 1008 14 10000 6.7 310 07:20 21.10.2020
6550 Clouds 36 1009 18 10000 7.7 290 06:37 21.10.2020
6551 Clouds 36 1009 20 10000 8.7 320 06:19 21.10.2020
6552 Clouds 34 1012 28 10000 9.8 330 03:35 21.10.2020
6553 Clear 25 1012 53 10000 1.5 50 00:31 21.10.2020
6554 Clear 23 1011 60 10000 2.6 80 23:35 20.10.2020
6555 Clouds 20 1011 82 10000 2.1 40 22:47 20.10.2020
6556 Clouds 20 1011 82 10000 2.1 40 22:25 20.10.2020
6557 Clouds 20 1010 88 10000 1.5 40 21:47 20.10.2020
6558 Clear 21 1010 77 10000 4.1 20 21:19 20.10.2020
6559 Clear 21 1010 77 10000 2.6 50 20:43 20.10.2020
6560 Clouds 21 1010 77 10000 2.6 50 20:24 20.10.2020
6561 Clouds 20 1010 82 10000 2.6 30 19:55 20.10.2020
6562 Clouds 20 1010 82 10000 3.6 30 19:37 20.10.2020
6563 Clouds 21 1011 77 10000 3.6 30 19:19 20.10.2020
6564 Clouds 21 1011 83 10000 3.1 130 18:38 20.10.2020
6565 Clouds 22 1011 73 10000 3.6 60 17:59 20.10.2020
6566 Clouds 22 1011 73 10000 4.6 70 17:40 20.10.2020
6567 Clouds 22 1012 73 10000 5.7 120 17:22 20.10.2020
6568 Clouds 24 1011 64 10000 3.6 40 16:42 20.10.2020
6569 Clouds 24 1011 64 10000 3.6 40 16:24 20.10.2020
6570 Thunderstorm 22 1012 78 10000 8.2 30 15:49 20.10.2020
6571 Thunderstorm 22 1012 78 10000 8.2 30 15:29 20.10.2020
6572 Clouds 24 1012 60 10000 4.1 70 14:47 20.10.2020
6573 Clouds 24 1012 60 10000 4.1 70 14:26 20.10.2020
6574 Clouds 24 1012 60 10000 5.7 50 13:59 20.10.2020
6575 Thunderstorm 24 1012 60 10000 3.1 120 13:41 20.10.2020
6576 Thunderstorm 24 1011 60 10000 4.6 110 13:20 20.10.2020
6577 Clouds 24 1011 57 10000 3.6 40 12:51 20.10.2020
6578 Clouds 24 1011 57 10000 3.6 40 12:31 20.10.2020
6579 Thunderstorm 24 1010 57 10000 6.7 120 11:48 20.10.2020
6580 Thunderstorm 24 1010 60 10000 11.8 160 11:29 20.10.2020
6581 Clouds 33 1009 27 10000 5.7 320 10:49 20.10.2020
6582 Clouds 33 1009 27 10000 5.7 320 10:26 20.10.2020
6583 Thunderstorm 35 1009 24 10000 7.7 340 09:46 20.10.2020
6584 Thunderstorm 35 1009 24 10000 7.7 340 09:20 20.10.2020
6585 Rain 34 1009 26 10000 7.2 340 08:40 20.10.2020
6586 Rain 34 1009 26 10000 7.2 340 08:22 20.10.2020
6587 Clouds 35 1010 23 10000 6.7 340 07:44 20.10.2020
6588 Clouds 34 1011 26 10000 6.7 340 07:22 20.10.2020
6589 Clouds 33 1012 27 10000 5.1 20 06:20 20.10.2020
6590 Clouds 28 1014 45 10000 4.6 60 04:51 20.10.2020
6591 Clouds 25 1016 53 10000 2.6 150 02:31 20.10.2020
6592 Clouds 23 1015 64 10000 4.6 50 01:27 20.10.2020
6593 Clouds 19 1014 82 10000 4.1 20 00:51 20.10.2020
6594 Clouds 19 1014 82 10000 4.1 20 00:27 20.10.2020
6595 Rain 17 1014 93 10000 4.6 40 23:51 19.10.2020
6596 Rain 17 1014 93 10000 4.6 40 23:26 19.10.2020
6597 Rain 17 1016 93 10000 2.6 90 22:54 19.10.2020
6598 Clouds 17 1016 88 10000 3.1 110 22:26 19.10.2020
6599 Clouds 18 1016 82 10000 6.2 170 21:57 19.10.2020
6600 Clouds 18 1015 82 10000 7.2 170 21:39 19.10.2020
6601 Clouds 19 1014 77 10000 5.1 150 21:18 19.10.2020
6602 Rain 19 1013 77 10000 3.6 120 20:42 19.10.2020
6603 Rain 19 1013 77 10000 3.6 120 20:24 19.10.2020
6604 Clouds 20 1013 72 10000 3.1 360 19:45 19.10.2020
6605 Clouds 20 1013 72 10000 3.1 70 19:19 19.10.2020
6606 Clouds 20 1014 72 10000 3.1 100 18:50 19.10.2020
6607 Clouds 20 1013 72 10000 5.7 80 18:24 19.10.2020
6608 Thunderstorm 20 1014 72 10000 3.6 60 17:47 19.10.2020
6609 Thunderstorm 20 1014 72 10000 3.6 60 17:27 19.10.2020
6610 Clouds 20 1015 72 10000 2.6 130 16:54 19.10.2020
6611 Clouds 20 1015 72 10000 3.1 120 16:29 19.10.2020
6612 Clouds 22 1013 40 10000 7.08 97 15:48 19.10.2020
6613 Clouds 23 1013 39 10000 5.25 102 15:26 19.10.2020
6614 Clouds 23 1013 39 10000 5.25 102 14:57 19.10.2020
6615 Clouds 23 1013 39 10000 5.25 102 14:57 19.10.2020
6616 Clouds 23 1013 39 10000 5.25 102 14:36 19.10.2020
6617 Clear 23 1013 40 10000 5.3 102 14:18 19.10.2020
6618 Clouds 25 1012 35 10000 5.49 101 13:42 19.10.2020
6619 Clouds 25 1012 36 10000 5.53 100 13:22 19.10.2020
6620 Clouds 25 1012 36 10000 5.53 100 12:43 19.10.2020
6621 Clouds 26 1011 33 10000 6.13 109 12:25 19.10.2020
6622 Clouds 26 1011 33 10000 6.13 109 11:48 19.10.2020
6623 Clouds 23 1014 60 10000 6.7 90 11:22 19.10.2020
6624 Clouds 23 1014 60 10000 6.7 90 10:44 19.10.2020
6625 Clouds 23 1014 56 10000 6.2 120 10:23 19.10.2020
6626 Clouds 23 1014 56 10000 6.2 120 09:56 19.10.2020
6627 Clouds 23 1014 53 10000 6.2 130 09:25 19.10.2020
6628 Clouds 24 1015 47 10000 5.7 130 08:50 19.10.2020
6629 Clouds 24 1015 47 10000 5.7 130 08:24 19.10.2020
6630 Clouds 24 1015 50 10000 5.1 120 07:56 19.10.2020
6631 Clouds 24 1016 50 10000 5.7 160 07:20 19.10.2020
6632 Rain 24 1016 44 10000 5.1 130 06:23 19.10.2020
6633 Clouds 24 1017 38 10000 6.2 160 04:47 19.10.2020
6634 Rain 24 1017 36 10000 6.2 100 03:44 19.10.2020
6635 Clouds 23 1018 38 10000 5.7 150 01:28 19.10.2020
6636 Rain 21 1016 46 10000 5.1 100 00:26 19.10.2020
6637 Rain 22 1014 40 10000 7.2 90 23:48 18.10.2020
6638 Clouds 22 1014 40 10000 7.2 90 23:29 18.10.2020
6639 Clouds 22 1015 40 10000 6.7 90 22:57 18.10.2020
6640 Clouds 22 1014 40 10000 7.2 100 22:24 18.10.2020
6641 Clouds 23 1014 38 10000 5.7 110 21:59 18.10.2020
6642 Clouds 23 1014 38 10000 5.1 110 21:37 18.10.2020
6643 Clouds 23 1015 38 10000 4.1 130 21:18 18.10.2020
6644 Clouds 24 1015 36 10000 4.1 140 20:42 18.10.2020
6645 Rain 24 1015 36 10000 4.1 140 20:22 18.10.2020
6646 Rain 24 1015 36 10000 4.6 130 19:49 18.10.2020
6647 Rain 24 1015 36 10000 4.6